<?xml version="1.0" encoding="UTF-8" standalone="no" ?>
<gpx xmlns="http://www.topografix.com/GPX/1/1" xmlns:xsi="http://www.w3.org/2001/XMLSchema-instance" xsi:schemaLocation="http://www.topografix.com/GPX/1/1 http://www.topografix.com/GPX/1/1/gpx.xsd" version="1.1" creator="VisuGPX - https://www.visugpx.com">
  <metadata>
    <name>Vtt sortie courte grabels</name>
    <desc><![CDATA[Reprise vtt grabels solo]]></desc>
  </metadata>
  <trk>
    <name><![CDATA[Vtt sortie courte grabels_1]]></name>
    <trkseg>
      <trkpt lat="43.63763" lon="3.82858">
        <ele>138</ele>
        <time>2016-04-19T10:14:30Z</time>
      </trkpt>
      <trkpt lat="43.63762" lon="3.82858">
        <ele>138</ele>
        <time>2016-04-19T10:14:30Z</time>
      </trkpt>
      <trkpt lat="43.63763" lon="3.82858">
        <ele>137</ele>
        <time>2016-04-19T10:14:33Z</time>
      </trkpt>
      <trkpt lat="43.63763" lon="3.82858">
        <ele>136.5</ele>
        <time>2016-04-19T10:14:35Z</time>
      </trkpt>
      <trkpt lat="43.63763" lon="3.82859">
        <ele>136</ele>
        <time>2016-04-19T10:14:36Z</time>
      </trkpt>
      <trkpt lat="43.63767" lon="3.8286">
        <ele>132</ele>
        <time>2016-04-19T10:14:43Z</time>
      </trkpt>
      <trkpt lat="43.63768" lon="3.8286">
        <ele>132</ele>
        <time>2016-04-19T10:14:43Z</time>
      </trkpt>
      <trkpt lat="43.63763" lon="3.82861">
        <ele>132.5</ele>
        <time>2016-04-19T10:14:56Z</time>
      </trkpt>
      <trkpt lat="43.6376" lon="3.82861">
        <ele>132</ele>
        <time>2016-04-19T10:14:58Z</time>
      </trkpt>
      <trkpt lat="43.63759" lon="3.82861">
        <ele>132</ele>
        <time>2016-04-19T10:14:59Z</time>
      </trkpt>
      <trkpt lat="43.63759" lon="3.82862">
        <ele>131.5</ele>
        <time>2016-04-19T10:15:00Z</time>
      </trkpt>
      <trkpt lat="43.63759" lon="3.82862">
        <ele>131</ele>
        <time>2016-04-19T10:15:01Z</time>
      </trkpt>
      <trkpt lat="43.6376" lon="3.82863">
        <ele>131</ele>
        <time>2016-04-19T10:15:02Z</time>
      </trkpt>
      <trkpt lat="43.63762" lon="3.82863">
        <ele>130.5</ele>
        <time>2016-04-19T10:15:03Z</time>
      </trkpt>
      <trkpt lat="43.63763" lon="3.82864">
        <ele>130.5</ele>
        <time>2016-04-19T10:15:04Z</time>
      </trkpt>
      <trkpt lat="43.63764" lon="3.82865">
        <ele>130.5</ele>
        <time>2016-04-19T10:15:05Z</time>
      </trkpt>
      <trkpt lat="43.63767" lon="3.82862">
        <ele>130.5</ele>
        <time>2016-04-19T10:15:06Z</time>
      </trkpt>
      <trkpt lat="43.63769" lon="3.82848">
        <ele>130</ele>
        <time>2016-04-19T10:15:08Z</time>
      </trkpt>
      <trkpt lat="43.63768" lon="3.82845">
        <ele>130</ele>
        <time>2016-04-19T10:15:09Z</time>
      </trkpt>
      <trkpt lat="43.63766" lon="3.82839">
        <ele>130</ele>
        <time>2016-04-19T10:15:10Z</time>
      </trkpt>
      <trkpt lat="43.63768" lon="3.82836">
        <ele>130</ele>
        <time>2016-04-19T10:15:11Z</time>
      </trkpt>
      <trkpt lat="43.63756" lon="3.82833">
        <ele>130</ele>
        <time>2016-04-19T10:15:13Z</time>
      </trkpt>
      <trkpt lat="43.6376" lon="3.82825">
        <ele>130</ele>
        <time>2016-04-19T10:15:15Z</time>
      </trkpt>
      <trkpt lat="43.63762" lon="3.82822">
        <ele>130</ele>
        <time>2016-04-19T10:15:16Z</time>
      </trkpt>
      <trkpt lat="43.63765" lon="3.82819">
        <ele>130</ele>
        <time>2016-04-19T10:15:17Z</time>
      </trkpt>
      <trkpt lat="43.63767" lon="3.82817">
        <ele>130</ele>
        <time>2016-04-19T10:15:18Z</time>
      </trkpt>
      <trkpt lat="43.6377" lon="3.82814">
        <ele>130</ele>
        <time>2016-04-19T10:15:19Z</time>
      </trkpt>
      <trkpt lat="43.63773" lon="3.82811">
        <ele>130</ele>
        <time>2016-04-19T10:15:20Z</time>
      </trkpt>
      <trkpt lat="43.63777" lon="3.82808">
        <ele>129.5</ele>
        <time>2016-04-19T10:15:21Z</time>
      </trkpt>
      <trkpt lat="43.63782" lon="3.82805">
        <ele>129.5</ele>
        <time>2016-04-19T10:15:22Z</time>
      </trkpt>
      <trkpt lat="43.63785" lon="3.82803">
        <ele>129.5</ele>
        <time>2016-04-19T10:15:23Z</time>
      </trkpt>
      <trkpt lat="43.63788" lon="3.82802">
        <ele>129.5</ele>
        <time>2016-04-19T10:15:24Z</time>
      </trkpt>
      <trkpt lat="43.63799" lon="3.82794">
        <ele>129.5</ele>
        <time>2016-04-19T10:15:26Z</time>
      </trkpt>
      <trkpt lat="43.63803" lon="3.82792">
        <ele>129.5</ele>
        <time>2016-04-19T10:15:27Z</time>
      </trkpt>
      <trkpt lat="43.63806" lon="3.82791">
        <ele>129.5</ele>
        <time>2016-04-19T10:15:28Z</time>
      </trkpt>
      <trkpt lat="43.63808" lon="3.82789">
        <ele>129.5</ele>
        <time>2016-04-19T10:15:29Z</time>
      </trkpt>
      <trkpt lat="43.63816" lon="3.82782">
        <ele>129.5</ele>
        <time>2016-04-19T10:15:31Z</time>
      </trkpt>
      <trkpt lat="43.6382" lon="3.82781">
        <ele>129.5</ele>
        <time>2016-04-19T10:15:32Z</time>
      </trkpt>
      <trkpt lat="43.63824" lon="3.82781">
        <ele>129.5</ele>
        <time>2016-04-19T10:15:33Z</time>
      </trkpt>
      <trkpt lat="43.63833" lon="3.82776">
        <ele>129.5</ele>
        <time>2016-04-19T10:15:35Z</time>
      </trkpt>
      <trkpt lat="43.63837" lon="3.82774">
        <ele>129.5</ele>
        <time>2016-04-19T10:15:36Z</time>
      </trkpt>
      <trkpt lat="43.63841" lon="3.82771">
        <ele>129.5</ele>
        <time>2016-04-19T10:15:37Z</time>
      </trkpt>
      <trkpt lat="43.63844" lon="3.82769">
        <ele>129.5</ele>
        <time>2016-04-19T10:15:38Z</time>
      </trkpt>
      <trkpt lat="43.63848" lon="3.82766">
        <ele>129.5</ele>
        <time>2016-04-19T10:15:39Z</time>
      </trkpt>
      <trkpt lat="43.63852" lon="3.82763">
        <ele>129.5</ele>
        <time>2016-04-19T10:15:40Z</time>
      </trkpt>
      <trkpt lat="43.63857" lon="3.8276">
        <ele>129.5</ele>
        <time>2016-04-19T10:15:41Z</time>
      </trkpt>
      <trkpt lat="43.63862" lon="3.82754">
        <ele>129.5</ele>
        <time>2016-04-19T10:15:45Z</time>
      </trkpt>
      <trkpt lat="43.63866" lon="3.82752">
        <ele>129.5</ele>
        <time>2016-04-19T10:15:46Z</time>
      </trkpt>
      <trkpt lat="43.63869" lon="3.82751">
        <ele>129.5</ele>
        <time>2016-04-19T10:15:47Z</time>
      </trkpt>
      <trkpt lat="43.63873" lon="3.82752">
        <ele>129.5</ele>
        <time>2016-04-19T10:15:48Z</time>
      </trkpt>
      <trkpt lat="43.63872" lon="3.82758">
        <ele>129.5</ele>
        <time>2016-04-19T10:15:49Z</time>
      </trkpt>
      <trkpt lat="43.63873" lon="3.82764">
        <ele>129.5</ele>
        <time>2016-04-19T10:15:50Z</time>
      </trkpt>
      <trkpt lat="43.63875" lon="3.8277">
        <ele>130</ele>
        <time>2016-04-19T10:15:51Z</time>
      </trkpt>
      <trkpt lat="43.63877" lon="3.82774">
        <ele>130</ele>
        <time>2016-04-19T10:15:52Z</time>
      </trkpt>
      <trkpt lat="43.63883" lon="3.82781">
        <ele>130</ele>
        <time>2016-04-19T10:15:54Z</time>
      </trkpt>
      <trkpt lat="43.63887" lon="3.82783">
        <ele>130</ele>
        <time>2016-04-19T10:15:55Z</time>
      </trkpt>
      <trkpt lat="43.63889" lon="3.82784">
        <ele>130</ele>
        <time>2016-04-19T10:15:56Z</time>
      </trkpt>
      <trkpt lat="43.63892" lon="3.82785">
        <ele>130</ele>
        <time>2016-04-19T10:15:57Z</time>
      </trkpt>
      <trkpt lat="43.63902" lon="3.82784">
        <ele>130</ele>
        <time>2016-04-19T10:15:59Z</time>
      </trkpt>
      <trkpt lat="43.63904" lon="3.82785">
        <ele>130.5</ele>
        <time>2016-04-19T10:16:00Z</time>
      </trkpt>
      <trkpt lat="43.63908" lon="3.8279">
        <ele>130.5</ele>
        <time>2016-04-19T10:16:01Z</time>
      </trkpt>
      <trkpt lat="43.6391" lon="3.82791">
        <ele>130.5</ele>
        <time>2016-04-19T10:16:02Z</time>
      </trkpt>
      <trkpt lat="43.63912" lon="3.82791">
        <ele>130.5</ele>
        <time>2016-04-19T10:16:03Z</time>
      </trkpt>
      <trkpt lat="43.63915" lon="3.82792">
        <ele>130.5</ele>
        <time>2016-04-19T10:16:04Z</time>
      </trkpt>
      <trkpt lat="43.63918" lon="3.82792">
        <ele>130.5</ele>
        <time>2016-04-19T10:16:05Z</time>
      </trkpt>
      <trkpt lat="43.63919" lon="3.82792">
        <ele>130.5</ele>
        <time>2016-04-19T10:16:06Z</time>
      </trkpt>
      <trkpt lat="43.63919" lon="3.82794">
        <ele>131</ele>
        <time>2016-04-19T10:16:07Z</time>
      </trkpt>
      <trkpt lat="43.63919" lon="3.82797">
        <ele>131</ele>
        <time>2016-04-19T10:16:08Z</time>
      </trkpt>
      <trkpt lat="43.63919" lon="3.82799">
        <ele>131</ele>
        <time>2016-04-19T10:16:09Z</time>
      </trkpt>
      <trkpt lat="43.63918" lon="3.82801">
        <ele>131</ele>
        <time>2016-04-19T10:16:10Z</time>
      </trkpt>
      <trkpt lat="43.6392" lon="3.82801">
        <ele>131</ele>
        <time>2016-04-19T10:16:11Z</time>
      </trkpt>
      <trkpt lat="43.63922" lon="3.82801">
        <ele>131</ele>
        <time>2016-04-19T10:16:12Z</time>
      </trkpt>
      <trkpt lat="43.63922" lon="3.82801">
        <ele>131</ele>
        <time>2016-04-19T10:16:13Z</time>
      </trkpt>
      <trkpt lat="43.63923" lon="3.82801">
        <ele>131</ele>
        <time>2016-04-19T10:16:14Z</time>
      </trkpt>
      <trkpt lat="43.63926" lon="3.82801">
        <ele>131</ele>
        <time>2016-04-19T10:16:15Z</time>
      </trkpt>
      <trkpt lat="43.6393" lon="3.828">
        <ele>130.5</ele>
        <time>2016-04-19T10:16:16Z</time>
      </trkpt>
      <trkpt lat="43.63934" lon="3.82797">
        <ele>130.5</ele>
        <time>2016-04-19T10:16:17Z</time>
      </trkpt>
      <trkpt lat="43.63937" lon="3.82797">
        <ele>130.5</ele>
        <time>2016-04-19T10:16:18Z</time>
      </trkpt>
      <trkpt lat="43.63939" lon="3.82796">
        <ele>130.5</ele>
        <time>2016-04-19T10:16:19Z</time>
      </trkpt>
      <trkpt lat="43.63943" lon="3.82795">
        <ele>130.5</ele>
        <time>2016-04-19T10:16:21Z</time>
      </trkpt>
      <trkpt lat="43.63945" lon="3.82794">
        <ele>130.5</ele>
        <time>2016-04-19T10:16:23Z</time>
      </trkpt>
      <trkpt lat="43.63947" lon="3.82796">
        <ele>130.5</ele>
        <time>2016-04-19T10:16:25Z</time>
      </trkpt>
      <trkpt lat="43.6395" lon="3.82794">
        <ele>130.5</ele>
        <time>2016-04-19T10:16:26Z</time>
      </trkpt>
      <trkpt lat="43.63951" lon="3.82792">
        <ele>130.5</ele>
        <time>2016-04-19T10:16:28Z</time>
      </trkpt>
      <trkpt lat="43.63952" lon="3.82791">
        <ele>130</ele>
        <time>2016-04-19T10:16:29Z</time>
      </trkpt>
      <trkpt lat="43.63952" lon="3.8279">
        <ele>130</ele>
        <time>2016-04-19T10:16:30Z</time>
      </trkpt>
      <trkpt lat="43.63952" lon="3.82789">
        <ele>130</ele>
        <time>2016-04-19T10:16:31Z</time>
      </trkpt>
      <trkpt lat="43.63952" lon="3.82789">
        <ele>130</ele>
        <time>2016-04-19T10:16:32Z</time>
      </trkpt>
      <trkpt lat="43.63953" lon="3.82789">
        <ele>130</ele>
        <time>2016-04-19T10:16:33Z</time>
      </trkpt>
      <trkpt lat="43.63953" lon="3.82788">
        <ele>130</ele>
        <time>2016-04-19T10:16:34Z</time>
      </trkpt>
      <trkpt lat="43.63953" lon="3.82787">
        <ele>130</ele>
        <time>2016-04-19T10:16:35Z</time>
      </trkpt>
      <trkpt lat="43.63954" lon="3.82789">
        <ele>130</ele>
        <time>2016-04-19T10:16:36Z</time>
      </trkpt>
      <trkpt lat="43.63955" lon="3.82791">
        <ele>130</ele>
        <time>2016-04-19T10:16:37Z</time>
      </trkpt>
      <trkpt lat="43.63981" lon="3.82776">
        <ele>130</ele>
        <time>2016-04-19T10:16:42Z</time>
      </trkpt>
      <trkpt lat="43.63999" lon="3.82762">
        <ele>130</ele>
        <time>2016-04-19T10:16:45Z</time>
      </trkpt>
      <trkpt lat="43.64004" lon="3.82758">
        <ele>130</ele>
        <time>2016-04-19T10:16:45Z</time>
      </trkpt>
      <trkpt lat="43.64009" lon="3.82755">
        <ele>130</ele>
        <time>2016-04-19T10:16:46Z</time>
      </trkpt>
      <trkpt lat="43.64012" lon="3.82753">
        <ele>130</ele>
        <time>2016-04-19T10:16:47Z</time>
      </trkpt>
      <trkpt lat="43.64015" lon="3.8275">
        <ele>130</ele>
        <time>2016-04-19T10:16:48Z</time>
      </trkpt>
      <trkpt lat="43.64024" lon="3.82744">
        <ele>130</ele>
        <time>2016-04-19T10:16:50Z</time>
      </trkpt>
      <trkpt lat="43.64033" lon="3.82737">
        <ele>130</ele>
        <time>2016-04-19T10:16:52Z</time>
      </trkpt>
      <trkpt lat="43.64038" lon="3.82736">
        <ele>130</ele>
        <time>2016-04-19T10:16:53Z</time>
      </trkpt>
      <trkpt lat="43.64041" lon="3.82736">
        <ele>130</ele>
        <time>2016-04-19T10:16:54Z</time>
      </trkpt>
      <trkpt lat="43.64044" lon="3.82733">
        <ele>130</ele>
        <time>2016-04-19T10:16:55Z</time>
      </trkpt>
      <trkpt lat="43.64048" lon="3.8273">
        <ele>130</ele>
        <time>2016-04-19T10:16:56Z</time>
      </trkpt>
      <trkpt lat="43.64052" lon="3.82727">
        <ele>130</ele>
        <time>2016-04-19T10:16:57Z</time>
      </trkpt>
      <trkpt lat="43.64056" lon="3.82724">
        <ele>130</ele>
        <time>2016-04-19T10:16:58Z</time>
      </trkpt>
      <trkpt lat="43.64059" lon="3.82722">
        <ele>130</ele>
        <time>2016-04-19T10:16:59Z</time>
      </trkpt>
      <trkpt lat="43.64063" lon="3.8272">
        <ele>130</ele>
        <time>2016-04-19T10:17:00Z</time>
      </trkpt>
      <trkpt lat="43.64065" lon="3.82718">
        <ele>130</ele>
        <time>2016-04-19T10:17:01Z</time>
      </trkpt>
      <trkpt lat="43.64067" lon="3.82717">
        <ele>130</ele>
        <time>2016-04-19T10:17:02Z</time>
      </trkpt>
      <trkpt lat="43.6407" lon="3.82716">
        <ele>130</ele>
        <time>2016-04-19T10:17:03Z</time>
      </trkpt>
      <trkpt lat="43.64074" lon="3.82714">
        <ele>130</ele>
        <time>2016-04-19T10:17:04Z</time>
      </trkpt>
      <trkpt lat="43.64077" lon="3.82712">
        <ele>130</ele>
        <time>2016-04-19T10:17:05Z</time>
      </trkpt>
      <trkpt lat="43.6408" lon="3.82712">
        <ele>130</ele>
        <time>2016-04-19T10:17:06Z</time>
      </trkpt>
      <trkpt lat="43.64084" lon="3.8271">
        <ele>130</ele>
        <time>2016-04-19T10:17:07Z</time>
      </trkpt>
      <trkpt lat="43.64088" lon="3.82708">
        <ele>130</ele>
        <time>2016-04-19T10:17:08Z</time>
      </trkpt>
      <trkpt lat="43.64092" lon="3.82706">
        <ele>130</ele>
        <time>2016-04-19T10:17:09Z</time>
      </trkpt>
      <trkpt lat="43.641" lon="3.82702">
        <ele>130</ele>
        <time>2016-04-19T10:17:11Z</time>
      </trkpt>
      <trkpt lat="43.64103" lon="3.82699">
        <ele>130</ele>
        <time>2016-04-19T10:17:12Z</time>
      </trkpt>
      <trkpt lat="43.64105" lon="3.82697">
        <ele>130</ele>
        <time>2016-04-19T10:17:13Z</time>
      </trkpt>
      <trkpt lat="43.64108" lon="3.82696">
        <ele>130</ele>
        <time>2016-04-19T10:17:14Z</time>
      </trkpt>
      <trkpt lat="43.64116" lon="3.82688">
        <ele>130</ele>
        <time>2016-04-19T10:17:16Z</time>
      </trkpt>
      <trkpt lat="43.64118" lon="3.82685">
        <ele>130</ele>
        <time>2016-04-19T10:17:17Z</time>
      </trkpt>
      <trkpt lat="43.64121" lon="3.82682">
        <ele>130</ele>
        <time>2016-04-19T10:17:18Z</time>
      </trkpt>
      <trkpt lat="43.64124" lon="3.82679">
        <ele>130</ele>
        <time>2016-04-19T10:17:19Z</time>
      </trkpt>
      <trkpt lat="43.64127" lon="3.82677">
        <ele>130</ele>
        <time>2016-04-19T10:17:20Z</time>
      </trkpt>
      <trkpt lat="43.6413" lon="3.82674">
        <ele>130</ele>
        <time>2016-04-19T10:17:21Z</time>
      </trkpt>
      <trkpt lat="43.64133" lon="3.82671">
        <ele>130</ele>
        <time>2016-04-19T10:17:22Z</time>
      </trkpt>
      <trkpt lat="43.64137" lon="3.82666">
        <ele>130</ele>
        <time>2016-04-19T10:17:23Z</time>
      </trkpt>
      <trkpt lat="43.6414" lon="3.82662">
        <ele>130</ele>
        <time>2016-04-19T10:17:24Z</time>
      </trkpt>
      <trkpt lat="43.64143" lon="3.82659">
        <ele>130</ele>
        <time>2016-04-19T10:17:25Z</time>
      </trkpt>
      <trkpt lat="43.64146" lon="3.82656">
        <ele>130</ele>
        <time>2016-04-19T10:17:26Z</time>
      </trkpt>
      <trkpt lat="43.64149" lon="3.82654">
        <ele>130</ele>
        <time>2016-04-19T10:17:27Z</time>
      </trkpt>
      <trkpt lat="43.64151" lon="3.82652">
        <ele>130</ele>
        <time>2016-04-19T10:17:28Z</time>
      </trkpt>
      <trkpt lat="43.64153" lon="3.8265">
        <ele>130</ele>
        <time>2016-04-19T10:17:29Z</time>
      </trkpt>
      <trkpt lat="43.6415" lon="3.82651">
        <ele>130</ele>
        <time>2016-04-19T10:17:30Z</time>
      </trkpt>
      <trkpt lat="43.64147" lon="3.82652">
        <ele>130</ele>
        <time>2016-04-19T10:17:31Z</time>
      </trkpt>
      <trkpt lat="43.6415" lon="3.82651">
        <ele>130</ele>
        <time>2016-04-19T10:17:32Z</time>
      </trkpt>
      <trkpt lat="43.64154" lon="3.8265">
        <ele>130</ele>
        <time>2016-04-19T10:17:33Z</time>
      </trkpt>
      <trkpt lat="43.64157" lon="3.82649">
        <ele>130</ele>
        <time>2016-04-19T10:17:34Z</time>
      </trkpt>
      <trkpt lat="43.6416" lon="3.82648">
        <ele>130</ele>
        <time>2016-04-19T10:17:35Z</time>
      </trkpt>
      <trkpt lat="43.64164" lon="3.82647">
        <ele>130</ele>
        <time>2016-04-19T10:17:36Z</time>
      </trkpt>
      <trkpt lat="43.64173" lon="3.82647">
        <ele>130</ele>
        <time>2016-04-19T10:17:38Z</time>
      </trkpt>
      <trkpt lat="43.64178" lon="3.82647">
        <ele>130</ele>
        <time>2016-04-19T10:17:39Z</time>
      </trkpt>
      <trkpt lat="43.64179" lon="3.8265">
        <ele>130</ele>
        <time>2016-04-19T10:17:40Z</time>
      </trkpt>
      <trkpt lat="43.64183" lon="3.82652">
        <ele>130</ele>
        <time>2016-04-19T10:17:41Z</time>
      </trkpt>
      <trkpt lat="43.64185" lon="3.82653">
        <ele>130</ele>
        <time>2016-04-19T10:17:42Z</time>
      </trkpt>
      <trkpt lat="43.64198" lon="3.82653">
        <ele>130</ele>
        <time>2016-04-19T10:17:44Z</time>
      </trkpt>
      <trkpt lat="43.64213" lon="3.82649">
        <ele>130</ele>
        <time>2016-04-19T10:17:46Z</time>
      </trkpt>
      <trkpt lat="43.6422" lon="3.82652">
        <ele>130</ele>
        <time>2016-04-19T10:17:47Z</time>
      </trkpt>
      <trkpt lat="43.64227" lon="3.82654">
        <ele>130</ele>
        <time>2016-04-19T10:17:48Z</time>
      </trkpt>
      <trkpt lat="43.64235" lon="3.82655">
        <ele>130</ele>
        <time>2016-04-19T10:17:49Z</time>
      </trkpt>
      <trkpt lat="43.64239" lon="3.82663">
        <ele>130</ele>
        <time>2016-04-19T10:17:50Z</time>
      </trkpt>
      <trkpt lat="43.64246" lon="3.8267">
        <ele>130</ele>
        <time>2016-04-19T10:17:52Z</time>
      </trkpt>
      <trkpt lat="43.6425" lon="3.82671">
        <ele>130</ele>
        <time>2016-04-19T10:17:53Z</time>
      </trkpt>
      <trkpt lat="43.64254" lon="3.82671">
        <ele>130</ele>
        <time>2016-04-19T10:17:54Z</time>
      </trkpt>
      <trkpt lat="43.64259" lon="3.82672">
        <ele>130</ele>
        <time>2016-04-19T10:17:55Z</time>
      </trkpt>
      <trkpt lat="43.64262" lon="3.82673">
        <ele>130</ele>
        <time>2016-04-19T10:17:56Z</time>
      </trkpt>
      <trkpt lat="43.64264" lon="3.82674">
        <ele>130</ele>
        <time>2016-04-19T10:17:57Z</time>
      </trkpt>
      <trkpt lat="43.64267" lon="3.82674">
        <ele>130</ele>
        <time>2016-04-19T10:17:58Z</time>
      </trkpt>
      <trkpt lat="43.64271" lon="3.82678">
        <ele>130</ele>
        <time>2016-04-19T10:17:59Z</time>
      </trkpt>
      <trkpt lat="43.64275" lon="3.8268">
        <ele>130</ele>
        <time>2016-04-19T10:18:00Z</time>
      </trkpt>
      <trkpt lat="43.64277" lon="3.82683">
        <ele>130</ele>
        <time>2016-04-19T10:18:01Z</time>
      </trkpt>
      <trkpt lat="43.64289" lon="3.82685">
        <ele>130</ele>
        <time>2016-04-19T10:18:03Z</time>
      </trkpt>
      <trkpt lat="43.64293" lon="3.82684">
        <ele>130</ele>
        <time>2016-04-19T10:18:04Z</time>
      </trkpt>
      <trkpt lat="43.64297" lon="3.82684">
        <ele>130</ele>
        <time>2016-04-19T10:18:05Z</time>
      </trkpt>
      <trkpt lat="43.643" lon="3.82685">
        <ele>130</ele>
        <time>2016-04-19T10:18:06Z</time>
      </trkpt>
      <trkpt lat="43.64309" lon="3.82683">
        <ele>130</ele>
        <time>2016-04-19T10:18:08Z</time>
      </trkpt>
      <trkpt lat="43.64312" lon="3.82685">
        <ele>130</ele>
        <time>2016-04-19T10:18:09Z</time>
      </trkpt>
      <trkpt lat="43.64314" lon="3.82688">
        <ele>130</ele>
        <time>2016-04-19T10:18:10Z</time>
      </trkpt>
      <trkpt lat="43.64317" lon="3.82691">
        <ele>130</ele>
        <time>2016-04-19T10:18:11Z</time>
      </trkpt>
      <trkpt lat="43.64319" lon="3.82693">
        <ele>130</ele>
        <time>2016-04-19T10:18:12Z</time>
      </trkpt>
      <trkpt lat="43.64321" lon="3.82695">
        <ele>130</ele>
        <time>2016-04-19T10:18:13Z</time>
      </trkpt>
      <trkpt lat="43.64323" lon="3.82694">
        <ele>130</ele>
        <time>2016-04-19T10:18:14Z</time>
      </trkpt>
      <trkpt lat="43.64325" lon="3.82695">
        <ele>130</ele>
        <time>2016-04-19T10:18:15Z</time>
      </trkpt>
      <trkpt lat="43.64327" lon="3.82697">
        <ele>130</ele>
        <time>2016-04-19T10:18:16Z</time>
      </trkpt>
      <trkpt lat="43.64329" lon="3.82699">
        <ele>130</ele>
        <time>2016-04-19T10:18:17Z</time>
      </trkpt>
      <trkpt lat="43.64332" lon="3.82698">
        <ele>130</ele>
        <time>2016-04-19T10:18:18Z</time>
      </trkpt>
      <trkpt lat="43.64334" lon="3.82701">
        <ele>130</ele>
        <time>2016-04-19T10:18:19Z</time>
      </trkpt>
      <trkpt lat="43.64338" lon="3.82704">
        <ele>130</ele>
        <time>2016-04-19T10:18:20Z</time>
      </trkpt>
      <trkpt lat="43.64341" lon="3.82706">
        <ele>130</ele>
        <time>2016-04-19T10:18:21Z</time>
      </trkpt>
      <trkpt lat="43.64345" lon="3.82707">
        <ele>130</ele>
        <time>2016-04-19T10:18:22Z</time>
      </trkpt>
      <trkpt lat="43.64349" lon="3.82709">
        <ele>130</ele>
        <time>2016-04-19T10:18:23Z</time>
      </trkpt>
      <trkpt lat="43.64353" lon="3.82709">
        <ele>130</ele>
        <time>2016-04-19T10:18:24Z</time>
      </trkpt>
      <trkpt lat="43.64356" lon="3.82709">
        <ele>130</ele>
        <time>2016-04-19T10:18:25Z</time>
      </trkpt>
      <trkpt lat="43.64359" lon="3.82711">
        <ele>130</ele>
        <time>2016-04-19T10:18:26Z</time>
      </trkpt>
      <trkpt lat="43.64362" lon="3.82712">
        <ele>130</ele>
        <time>2016-04-19T10:18:27Z</time>
      </trkpt>
      <trkpt lat="43.6436" lon="3.82716">
        <ele>130</ele>
        <time>2016-04-19T10:18:28Z</time>
      </trkpt>
      <trkpt lat="43.64368" lon="3.82716">
        <ele>130</ele>
        <time>2016-04-19T10:18:30Z</time>
      </trkpt>
      <trkpt lat="43.6437" lon="3.82716">
        <ele>130</ele>
        <time>2016-04-19T10:18:31Z</time>
      </trkpt>
      <trkpt lat="43.6437" lon="3.82717">
        <ele>130</ele>
        <time>2016-04-19T10:18:32Z</time>
      </trkpt>
      <trkpt lat="43.64375" lon="3.82713">
        <ele>130</ele>
        <time>2016-04-19T10:18:34Z</time>
      </trkpt>
      <trkpt lat="43.64378" lon="3.82711">
        <ele>130.5</ele>
        <time>2016-04-19T10:18:35Z</time>
      </trkpt>
      <trkpt lat="43.64381" lon="3.8271">
        <ele>130.5</ele>
        <time>2016-04-19T10:18:36Z</time>
      </trkpt>
      <trkpt lat="43.64379" lon="3.82711">
        <ele>130.5</ele>
        <time>2016-04-19T10:18:37Z</time>
      </trkpt>
      <trkpt lat="43.64389" lon="3.82706">
        <ele>130.5</ele>
        <time>2016-04-19T10:18:39Z</time>
      </trkpt>
      <trkpt lat="43.64393" lon="3.82704">
        <ele>130.5</ele>
        <time>2016-04-19T10:18:40Z</time>
      </trkpt>
      <trkpt lat="43.64396" lon="3.82703">
        <ele>130.5</ele>
        <time>2016-04-19T10:18:41Z</time>
      </trkpt>
      <trkpt lat="43.64399" lon="3.82703">
        <ele>130.5</ele>
        <time>2016-04-19T10:18:42Z</time>
      </trkpt>
      <trkpt lat="43.64402" lon="3.82702">
        <ele>130.5</ele>
        <time>2016-04-19T10:18:43Z</time>
      </trkpt>
      <trkpt lat="43.64404" lon="3.82702">
        <ele>130.5</ele>
        <time>2016-04-19T10:18:44Z</time>
      </trkpt>
      <trkpt lat="43.64407" lon="3.82703">
        <ele>130.5</ele>
        <time>2016-04-19T10:18:45Z</time>
      </trkpt>
      <trkpt lat="43.64409" lon="3.82704">
        <ele>130.5</ele>
        <time>2016-04-19T10:18:46Z</time>
      </trkpt>
      <trkpt lat="43.64417" lon="3.82699">
        <ele>130.5</ele>
        <time>2016-04-19T10:18:48Z</time>
      </trkpt>
      <trkpt lat="43.6442" lon="3.827">
        <ele>130.5</ele>
        <time>2016-04-19T10:18:49Z</time>
      </trkpt>
      <trkpt lat="43.64422" lon="3.82701">
        <ele>130.5</ele>
        <time>2016-04-19T10:18:50Z</time>
      </trkpt>
      <trkpt lat="43.64423" lon="3.82705">
        <ele>130.5</ele>
        <time>2016-04-19T10:18:51Z</time>
      </trkpt>
      <trkpt lat="43.64425" lon="3.82709">
        <ele>130.5</ele>
        <time>2016-04-19T10:18:52Z</time>
      </trkpt>
      <trkpt lat="43.64427" lon="3.82713">
        <ele>130.5</ele>
        <time>2016-04-19T10:18:53Z</time>
      </trkpt>
      <trkpt lat="43.6443" lon="3.82716">
        <ele>130.5</ele>
        <time>2016-04-19T10:18:54Z</time>
      </trkpt>
      <trkpt lat="43.64434" lon="3.82729">
        <ele>130.5</ele>
        <time>2016-04-19T10:18:56Z</time>
      </trkpt>
      <trkpt lat="43.64436" lon="3.82733">
        <ele>130.5</ele>
        <time>2016-04-19T10:18:57Z</time>
      </trkpt>
      <trkpt lat="43.64438" lon="3.82737">
        <ele>130.5</ele>
        <time>2016-04-19T10:18:58Z</time>
      </trkpt>
      <trkpt lat="43.64439" lon="3.82742">
        <ele>130.5</ele>
        <time>2016-04-19T10:18:59Z</time>
      </trkpt>
      <trkpt lat="43.64441" lon="3.82748">
        <ele>130.5</ele>
        <time>2016-04-19T10:19:00Z</time>
      </trkpt>
      <trkpt lat="43.64442" lon="3.82753">
        <ele>130.5</ele>
        <time>2016-04-19T10:19:01Z</time>
      </trkpt>
      <trkpt lat="43.64444" lon="3.82758">
        <ele>130.5</ele>
        <time>2016-04-19T10:19:02Z</time>
      </trkpt>
      <trkpt lat="43.64446" lon="3.82773">
        <ele>130.5</ele>
        <time>2016-04-19T10:19:04Z</time>
      </trkpt>
      <trkpt lat="43.64448" lon="3.82779">
        <ele>130.5</ele>
        <time>2016-04-19T10:19:05Z</time>
      </trkpt>
      <trkpt lat="43.64449" lon="3.82784">
        <ele>130.5</ele>
        <time>2016-04-19T10:19:06Z</time>
      </trkpt>
      <trkpt lat="43.64451" lon="3.82787">
        <ele>130.5</ele>
        <time>2016-04-19T10:19:07Z</time>
      </trkpt>
      <trkpt lat="43.64453" lon="3.82789">
        <ele>130.5</ele>
        <time>2016-04-19T10:19:08Z</time>
      </trkpt>
      <trkpt lat="43.64454" lon="3.82791">
        <ele>130.5</ele>
        <time>2016-04-19T10:19:09Z</time>
      </trkpt>
      <trkpt lat="43.64457" lon="3.82793">
        <ele>130.5</ele>
        <time>2016-04-19T10:19:10Z</time>
      </trkpt>
      <trkpt lat="43.64459" lon="3.82793">
        <ele>130.5</ele>
        <time>2016-04-19T10:19:11Z</time>
      </trkpt>
      <trkpt lat="43.64462" lon="3.82795">
        <ele>130.5</ele>
        <time>2016-04-19T10:19:12Z</time>
      </trkpt>
      <trkpt lat="43.64465" lon="3.82796">
        <ele>130.5</ele>
        <time>2016-04-19T10:19:13Z</time>
      </trkpt>
      <trkpt lat="43.64468" lon="3.82794">
        <ele>130.5</ele>
        <time>2016-04-19T10:19:14Z</time>
      </trkpt>
      <trkpt lat="43.6447" lon="3.82794">
        <ele>130.5</ele>
        <time>2016-04-19T10:19:15Z</time>
      </trkpt>
      <trkpt lat="43.64471" lon="3.82794">
        <ele>130.5</ele>
        <time>2016-04-19T10:19:16Z</time>
      </trkpt>
      <trkpt lat="43.64473" lon="3.82794">
        <ele>130.5</ele>
        <time>2016-04-19T10:19:17Z</time>
      </trkpt>
      <trkpt lat="43.64474" lon="3.82793">
        <ele>130.5</ele>
        <time>2016-04-19T10:19:18Z</time>
      </trkpt>
      <trkpt lat="43.64488" lon="3.82785">
        <ele>130.5</ele>
        <time>2016-04-19T10:19:21Z</time>
      </trkpt>
      <trkpt lat="43.64493" lon="3.82781">
        <ele>130.5</ele>
        <time>2016-04-19T10:19:23Z</time>
      </trkpt>
      <trkpt lat="43.64499" lon="3.82778">
        <ele>130.5</ele>
        <time>2016-04-19T10:19:26Z</time>
      </trkpt>
      <trkpt lat="43.64502" lon="3.82776">
        <ele>130.5</ele>
        <time>2016-04-19T10:19:30Z</time>
      </trkpt>
      <trkpt lat="43.64507" lon="3.82771">
        <ele>130.5</ele>
        <time>2016-04-19T10:19:33Z</time>
      </trkpt>
      <trkpt lat="43.64509" lon="3.8277">
        <ele>130.5</ele>
        <time>2016-04-19T10:19:34Z</time>
      </trkpt>
      <trkpt lat="43.6451" lon="3.82768">
        <ele>130.5</ele>
        <time>2016-04-19T10:19:34Z</time>
      </trkpt>
      <trkpt lat="43.64511" lon="3.82767">
        <ele>130.5</ele>
        <time>2016-04-19T10:19:35Z</time>
      </trkpt>
      <trkpt lat="43.64518" lon="3.8276">
        <ele>130.5</ele>
        <time>2016-04-19T10:19:37Z</time>
      </trkpt>
      <trkpt lat="43.64517" lon="3.82758">
        <ele>130.5</ele>
        <time>2016-04-19T10:19:39Z</time>
      </trkpt>
      <trkpt lat="43.64518" lon="3.82756">
        <ele>130.5</ele>
        <time>2016-04-19T10:19:40Z</time>
      </trkpt>
      <trkpt lat="43.64518" lon="3.82754">
        <ele>130.5</ele>
        <time>2016-04-19T10:19:41Z</time>
      </trkpt>
      <trkpt lat="43.6452" lon="3.82754">
        <ele>130.5</ele>
        <time>2016-04-19T10:19:42Z</time>
      </trkpt>
      <trkpt lat="43.64521" lon="3.82753">
        <ele>130.5</ele>
        <time>2016-04-19T10:19:43Z</time>
      </trkpt>
      <trkpt lat="43.64523" lon="3.82752">
        <ele>130.5</ele>
        <time>2016-04-19T10:19:44Z</time>
      </trkpt>
      <trkpt lat="43.64524" lon="3.82751">
        <ele>130.5</ele>
        <time>2016-04-19T10:19:46Z</time>
      </trkpt>
      <trkpt lat="43.64526" lon="3.82739">
        <ele>130.5</ele>
        <time>2016-04-19T10:19:48Z</time>
      </trkpt>
      <trkpt lat="43.64527" lon="3.82737">
        <ele>130.5</ele>
        <time>2016-04-19T10:19:49Z</time>
      </trkpt>
      <trkpt lat="43.64534" lon="3.82731">
        <ele>130.5</ele>
        <time>2016-04-19T10:19:51Z</time>
      </trkpt>
      <trkpt lat="43.64536" lon="3.82729">
        <ele>130.5</ele>
        <time>2016-04-19T10:19:52Z</time>
      </trkpt>
      <trkpt lat="43.64538" lon="3.82727">
        <ele>130.5</ele>
        <time>2016-04-19T10:19:53Z</time>
      </trkpt>
      <trkpt lat="43.64541" lon="3.82725">
        <ele>130.5</ele>
        <time>2016-04-19T10:19:54Z</time>
      </trkpt>
      <trkpt lat="43.64545" lon="3.82724">
        <ele>130.5</ele>
        <time>2016-04-19T10:19:55Z</time>
      </trkpt>
      <trkpt lat="43.64548" lon="3.82722">
        <ele>130.5</ele>
        <time>2016-04-19T10:19:56Z</time>
      </trkpt>
      <trkpt lat="43.64551" lon="3.82721">
        <ele>130.5</ele>
        <time>2016-04-19T10:19:57Z</time>
      </trkpt>
      <trkpt lat="43.64555" lon="3.8272">
        <ele>130.5</ele>
        <time>2016-04-19T10:19:58Z</time>
      </trkpt>
      <trkpt lat="43.64561" lon="3.82718">
        <ele>130.5</ele>
        <time>2016-04-19T10:20:00Z</time>
      </trkpt>
      <trkpt lat="43.64564" lon="3.82718">
        <ele>130.5</ele>
        <time>2016-04-19T10:20:01Z</time>
      </trkpt>
      <trkpt lat="43.64566" lon="3.82717">
        <ele>130.5</ele>
        <time>2016-04-19T10:20:02Z</time>
      </trkpt>
      <trkpt lat="43.6457" lon="3.82716">
        <ele>130.5</ele>
        <time>2016-04-19T10:20:03Z</time>
      </trkpt>
      <trkpt lat="43.64573" lon="3.82714">
        <ele>130.5</ele>
        <time>2016-04-19T10:20:04Z</time>
      </trkpt>
      <trkpt lat="43.64575" lon="3.82713">
        <ele>130.5</ele>
        <time>2016-04-19T10:20:05Z</time>
      </trkpt>
      <trkpt lat="43.64577" lon="3.82713">
        <ele>130.5</ele>
        <time>2016-04-19T10:20:06Z</time>
      </trkpt>
      <trkpt lat="43.6458" lon="3.8271">
        <ele>130.5</ele>
        <time>2016-04-19T10:20:07Z</time>
      </trkpt>
      <trkpt lat="43.64583" lon="3.82708">
        <ele>130.5</ele>
        <time>2016-04-19T10:20:08Z</time>
      </trkpt>
      <trkpt lat="43.64585" lon="3.82706">
        <ele>130.5</ele>
        <time>2016-04-19T10:20:09Z</time>
      </trkpt>
      <trkpt lat="43.64587" lon="3.82705">
        <ele>130.5</ele>
        <time>2016-04-19T10:20:10Z</time>
      </trkpt>
      <trkpt lat="43.64589" lon="3.82703">
        <ele>130.5</ele>
        <time>2016-04-19T10:20:11Z</time>
      </trkpt>
      <trkpt lat="43.64591" lon="3.82697">
        <ele>130.5</ele>
        <time>2016-04-19T10:20:13Z</time>
      </trkpt>
      <trkpt lat="43.64592" lon="3.82695">
        <ele>130.5</ele>
        <time>2016-04-19T10:20:14Z</time>
      </trkpt>
      <trkpt lat="43.64608" lon="3.82685">
        <ele>130.5</ele>
        <time>2016-04-19T10:20:17Z</time>
      </trkpt>
      <trkpt lat="43.6461" lon="3.82682">
        <ele>130.5</ele>
        <time>2016-04-19T10:20:19Z</time>
      </trkpt>
      <trkpt lat="43.64612" lon="3.82681">
        <ele>130.5</ele>
        <time>2016-04-19T10:20:20Z</time>
      </trkpt>
      <trkpt lat="43.64614" lon="3.8268">
        <ele>130.5</ele>
        <time>2016-04-19T10:20:21Z</time>
      </trkpt>
      <trkpt lat="43.64616" lon="3.82679">
        <ele>130.5</ele>
        <time>2016-04-19T10:20:21Z</time>
      </trkpt>
      <trkpt lat="43.64617" lon="3.82679">
        <ele>130.5</ele>
        <time>2016-04-19T10:20:22Z</time>
      </trkpt>
      <trkpt lat="43.64618" lon="3.82679">
        <ele>130.5</ele>
        <time>2016-04-19T10:20:23Z</time>
      </trkpt>
      <trkpt lat="43.64619" lon="3.82679">
        <ele>130.5</ele>
        <time>2016-04-19T10:20:24Z</time>
      </trkpt>
      <trkpt lat="43.6462" lon="3.82678">
        <ele>130.5</ele>
        <time>2016-04-19T10:20:25Z</time>
      </trkpt>
      <trkpt lat="43.64621" lon="3.82677">
        <ele>130.5</ele>
        <time>2016-04-19T10:20:26Z</time>
      </trkpt>
      <trkpt lat="43.64623" lon="3.82677">
        <ele>130.5</ele>
        <time>2016-04-19T10:20:27Z</time>
      </trkpt>
      <trkpt lat="43.64631" lon="3.82676">
        <ele>130.5</ele>
        <time>2016-04-19T10:20:29Z</time>
      </trkpt>
      <trkpt lat="43.64636" lon="3.82677">
        <ele>130.5</ele>
        <time>2016-04-19T10:20:30Z</time>
      </trkpt>
      <trkpt lat="43.64646" lon="3.82678">
        <ele>130.5</ele>
        <time>2016-04-19T10:20:32Z</time>
      </trkpt>
      <trkpt lat="43.64653" lon="3.82668">
        <ele>130.5</ele>
        <time>2016-04-19T10:20:34Z</time>
      </trkpt>
      <trkpt lat="43.64656" lon="3.82666">
        <ele>130.5</ele>
        <time>2016-04-19T10:20:35Z</time>
      </trkpt>
      <trkpt lat="43.6466" lon="3.82664">
        <ele>130.5</ele>
        <time>2016-04-19T10:20:36Z</time>
      </trkpt>
      <trkpt lat="43.6467" lon="3.82659">
        <ele>130.5</ele>
        <time>2016-04-19T10:20:38Z</time>
      </trkpt>
      <trkpt lat="43.64682" lon="3.82655">
        <ele>130.5</ele>
        <time>2016-04-19T10:20:40Z</time>
      </trkpt>
      <trkpt lat="43.64695" lon="3.82651">
        <ele>130.5</ele>
        <time>2016-04-19T10:20:42Z</time>
      </trkpt>
      <trkpt lat="43.64701" lon="3.82648">
        <ele>130.5</ele>
        <time>2016-04-19T10:20:43Z</time>
      </trkpt>
      <trkpt lat="43.64706" lon="3.82647">
        <ele>130.5</ele>
        <time>2016-04-19T10:20:44Z</time>
      </trkpt>
      <trkpt lat="43.6471" lon="3.82646">
        <ele>130.5</ele>
        <time>2016-04-19T10:20:45Z</time>
      </trkpt>
      <trkpt lat="43.64713" lon="3.82646">
        <ele>130.5</ele>
        <time>2016-04-19T10:20:46Z</time>
      </trkpt>
      <trkpt lat="43.64715" lon="3.82644">
        <ele>130.5</ele>
        <time>2016-04-19T10:20:47Z</time>
      </trkpt>
      <trkpt lat="43.64717" lon="3.82643">
        <ele>130.5</ele>
        <time>2016-04-19T10:20:48Z</time>
      </trkpt>
      <trkpt lat="43.64719" lon="3.82643">
        <ele>130.5</ele>
        <time>2016-04-19T10:20:49Z</time>
      </trkpt>
      <trkpt lat="43.64721" lon="3.82642">
        <ele>130.5</ele>
        <time>2016-04-19T10:20:50Z</time>
      </trkpt>
      <trkpt lat="43.64759" lon="3.82628">
        <ele>130.5</ele>
        <time>2016-04-19T10:20:54Z</time>
      </trkpt>
      <trkpt lat="43.64763" lon="3.82626">
        <ele>131.5</ele>
        <time>2016-04-19T10:20:56Z</time>
      </trkpt>
      <trkpt lat="43.64768" lon="3.82624">
        <ele>131.5</ele>
        <time>2016-04-19T10:20:57Z</time>
      </trkpt>
      <trkpt lat="43.64773" lon="3.82623">
        <ele>131.5</ele>
        <time>2016-04-19T10:20:58Z</time>
      </trkpt>
      <trkpt lat="43.64778" lon="3.82622">
        <ele>131.5</ele>
        <time>2016-04-19T10:20:59Z</time>
      </trkpt>
      <trkpt lat="43.64782" lon="3.8262">
        <ele>132</ele>
        <time>2016-04-19T10:21:00Z</time>
      </trkpt>
      <trkpt lat="43.64787" lon="3.82619">
        <ele>132</ele>
        <time>2016-04-19T10:21:00Z</time>
      </trkpt>
      <trkpt lat="43.64791" lon="3.82616">
        <ele>132</ele>
        <time>2016-04-19T10:21:01Z</time>
      </trkpt>
      <trkpt lat="43.64796" lon="3.82615">
        <ele>132</ele>
        <time>2016-04-19T10:21:02Z</time>
      </trkpt>
      <trkpt lat="43.64799" lon="3.82612">
        <ele>132.5</ele>
        <time>2016-04-19T10:21:03Z</time>
      </trkpt>
      <trkpt lat="43.64804" lon="3.82609">
        <ele>132.5</ele>
        <time>2016-04-19T10:21:04Z</time>
      </trkpt>
      <trkpt lat="43.64808" lon="3.82607">
        <ele>132.5</ele>
        <time>2016-04-19T10:21:05Z</time>
      </trkpt>
      <trkpt lat="43.64813" lon="3.82606">
        <ele>132.5</ele>
        <time>2016-04-19T10:21:06Z</time>
      </trkpt>
      <trkpt lat="43.64818" lon="3.82606">
        <ele>132.5</ele>
        <time>2016-04-19T10:21:07Z</time>
      </trkpt>
      <trkpt lat="43.64822" lon="3.82605">
        <ele>132.5</ele>
        <time>2016-04-19T10:21:08Z</time>
      </trkpt>
      <trkpt lat="43.64827" lon="3.82605">
        <ele>132.5</ele>
        <time>2016-04-19T10:21:09Z</time>
      </trkpt>
      <trkpt lat="43.64832" lon="3.82604">
        <ele>132.5</ele>
        <time>2016-04-19T10:21:10Z</time>
      </trkpt>
      <trkpt lat="43.64836" lon="3.82603">
        <ele>133.5</ele>
        <time>2016-04-19T10:21:11Z</time>
      </trkpt>
      <trkpt lat="43.64841" lon="3.82602">
        <ele>133.5</ele>
        <time>2016-04-19T10:21:12Z</time>
      </trkpt>
      <trkpt lat="43.64846" lon="3.82602">
        <ele>133.5</ele>
        <time>2016-04-19T10:21:13Z</time>
      </trkpt>
      <trkpt lat="43.64851" lon="3.82601">
        <ele>133.5</ele>
        <time>2016-04-19T10:21:14Z</time>
      </trkpt>
      <trkpt lat="43.64855" lon="3.826">
        <ele>133.5</ele>
        <time>2016-04-19T10:21:15Z</time>
      </trkpt>
      <trkpt lat="43.6486" lon="3.826">
        <ele>133.5</ele>
        <time>2016-04-19T10:21:16Z</time>
      </trkpt>
      <trkpt lat="43.64865" lon="3.82601">
        <ele>133.5</ele>
        <time>2016-04-19T10:21:17Z</time>
      </trkpt>
      <trkpt lat="43.6487" lon="3.82603">
        <ele>133.5</ele>
        <time>2016-04-19T10:21:18Z</time>
      </trkpt>
      <trkpt lat="43.64875" lon="3.82604">
        <ele>134</ele>
        <time>2016-04-19T10:21:19Z</time>
      </trkpt>
      <trkpt lat="43.64879" lon="3.82605">
        <ele>134.5</ele>
        <time>2016-04-19T10:21:20Z</time>
      </trkpt>
      <trkpt lat="43.64884" lon="3.82606">
        <ele>134.5</ele>
        <time>2016-04-19T10:21:21Z</time>
      </trkpt>
      <trkpt lat="43.64889" lon="3.82607">
        <ele>134.5</ele>
        <time>2016-04-19T10:21:22Z</time>
      </trkpt>
      <trkpt lat="43.64893" lon="3.82607">
        <ele>134.5</ele>
        <time>2016-04-19T10:21:23Z</time>
      </trkpt>
      <trkpt lat="43.64898" lon="3.82606">
        <ele>134.5</ele>
        <time>2016-04-19T10:21:24Z</time>
      </trkpt>
      <trkpt lat="43.64903" lon="3.82606">
        <ele>135</ele>
        <time>2016-04-19T10:21:25Z</time>
      </trkpt>
      <trkpt lat="43.64908" lon="3.82606">
        <ele>135</ele>
        <time>2016-04-19T10:21:26Z</time>
      </trkpt>
      <trkpt lat="43.64913" lon="3.82605">
        <ele>135</ele>
        <time>2016-04-19T10:21:27Z</time>
      </trkpt>
      <trkpt lat="43.64924" lon="3.82609">
        <ele>135.5</ele>
        <time>2016-04-19T10:21:29Z</time>
      </trkpt>
      <trkpt lat="43.64929" lon="3.82608">
        <ele>135.5</ele>
        <time>2016-04-19T10:21:30Z</time>
      </trkpt>
      <trkpt lat="43.64933" lon="3.82607">
        <ele>135.5</ele>
        <time>2016-04-19T10:21:31Z</time>
      </trkpt>
      <trkpt lat="43.64937" lon="3.82605">
        <ele>135.5</ele>
        <time>2016-04-19T10:21:32Z</time>
      </trkpt>
      <trkpt lat="43.64941" lon="3.82605">
        <ele>135.5</ele>
        <time>2016-04-19T10:21:33Z</time>
      </trkpt>
      <trkpt lat="43.64945" lon="3.82605">
        <ele>136</ele>
        <time>2016-04-19T10:21:34Z</time>
      </trkpt>
      <trkpt lat="43.64948" lon="3.82604">
        <ele>135.5</ele>
        <time>2016-04-19T10:21:35Z</time>
      </trkpt>
      <trkpt lat="43.64952" lon="3.82604">
        <ele>136</ele>
        <time>2016-04-19T10:21:36Z</time>
      </trkpt>
      <trkpt lat="43.64955" lon="3.82605">
        <ele>136</ele>
        <time>2016-04-19T10:21:37Z</time>
      </trkpt>
      <trkpt lat="43.6496" lon="3.82606">
        <ele>136</ele>
        <time>2016-04-19T10:21:38Z</time>
      </trkpt>
      <trkpt lat="43.64963" lon="3.82604">
        <ele>137.5</ele>
        <time>2016-04-19T10:21:39Z</time>
      </trkpt>
      <trkpt lat="43.64966" lon="3.82605">
        <ele>138</ele>
        <time>2016-04-19T10:21:40Z</time>
      </trkpt>
      <trkpt lat="43.64969" lon="3.82605">
        <ele>138.5</ele>
        <time>2016-04-19T10:21:41Z</time>
      </trkpt>
      <trkpt lat="43.64972" lon="3.82606">
        <ele>138.5</ele>
        <time>2016-04-19T10:21:42Z</time>
      </trkpt>
      <trkpt lat="43.64975" lon="3.82605">
        <ele>139</ele>
        <time>2016-04-19T10:21:43Z</time>
      </trkpt>
      <trkpt lat="43.64978" lon="3.82604">
        <ele>139</ele>
        <time>2016-04-19T10:21:44Z</time>
      </trkpt>
      <trkpt lat="43.64981" lon="3.82604">
        <ele>139.5</ele>
        <time>2016-04-19T10:21:45Z</time>
      </trkpt>
      <trkpt lat="43.64985" lon="3.82604">
        <ele>139.5</ele>
        <time>2016-04-19T10:21:46Z</time>
      </trkpt>
      <trkpt lat="43.64988" lon="3.82604">
        <ele>140</ele>
        <time>2016-04-19T10:21:47Z</time>
      </trkpt>
      <trkpt lat="43.64992" lon="3.82604">
        <ele>140</ele>
        <time>2016-04-19T10:21:48Z</time>
      </trkpt>
      <trkpt lat="43.64995" lon="3.82603">
        <ele>140.5</ele>
        <time>2016-04-19T10:21:49Z</time>
      </trkpt>
      <trkpt lat="43.64998" lon="3.82602">
        <ele>140.5</ele>
        <time>2016-04-19T10:21:50Z</time>
      </trkpt>
      <trkpt lat="43.65002" lon="3.82601">
        <ele>141.5</ele>
        <time>2016-04-19T10:21:51Z</time>
      </trkpt>
      <trkpt lat="43.65005" lon="3.82601">
        <ele>141.5</ele>
        <time>2016-04-19T10:21:52Z</time>
      </trkpt>
      <trkpt lat="43.65007" lon="3.82599">
        <ele>142</ele>
        <time>2016-04-19T10:21:53Z</time>
      </trkpt>
      <trkpt lat="43.6501" lon="3.82598">
        <ele>142.5</ele>
        <time>2016-04-19T10:21:54Z</time>
      </trkpt>
      <trkpt lat="43.65014" lon="3.82598">
        <ele>142.5</ele>
        <time>2016-04-19T10:21:55Z</time>
      </trkpt>
      <trkpt lat="43.65018" lon="3.82598">
        <ele>142.5</ele>
        <time>2016-04-19T10:21:56Z</time>
      </trkpt>
      <trkpt lat="43.6502" lon="3.82596">
        <ele>143.5</ele>
        <time>2016-04-19T10:21:57Z</time>
      </trkpt>
      <trkpt lat="43.65024" lon="3.82595">
        <ele>143.5</ele>
        <time>2016-04-19T10:21:58Z</time>
      </trkpt>
      <trkpt lat="43.65028" lon="3.82595">
        <ele>143.5</ele>
        <time>2016-04-19T10:21:59Z</time>
      </trkpt>
      <trkpt lat="43.65033" lon="3.82596">
        <ele>143.5</ele>
        <time>2016-04-19T10:22:00Z</time>
      </trkpt>
      <trkpt lat="43.65036" lon="3.82595">
        <ele>143.5</ele>
        <time>2016-04-19T10:22:01Z</time>
      </trkpt>
      <trkpt lat="43.6504" lon="3.82596">
        <ele>143.5</ele>
        <time>2016-04-19T10:22:02Z</time>
      </trkpt>
      <trkpt lat="43.65044" lon="3.82597">
        <ele>143.5</ele>
        <time>2016-04-19T10:22:03Z</time>
      </trkpt>
      <trkpt lat="43.65048" lon="3.82596">
        <ele>143.5</ele>
        <time>2016-04-19T10:22:04Z</time>
      </trkpt>
      <trkpt lat="43.65051" lon="3.82596">
        <ele>143.5</ele>
        <time>2016-04-19T10:22:05Z</time>
      </trkpt>
      <trkpt lat="43.65055" lon="3.82595">
        <ele>144</ele>
        <time>2016-04-19T10:22:06Z</time>
      </trkpt>
      <trkpt lat="43.65059" lon="3.82595">
        <ele>144</ele>
        <time>2016-04-19T10:22:07Z</time>
      </trkpt>
      <trkpt lat="43.6506" lon="3.82591">
        <ele>144</ele>
        <time>2016-04-19T10:22:08Z</time>
      </trkpt>
      <trkpt lat="43.65062" lon="3.82589">
        <ele>144</ele>
        <time>2016-04-19T10:22:09Z</time>
      </trkpt>
      <trkpt lat="43.65065" lon="3.82588">
        <ele>144.5</ele>
        <time>2016-04-19T10:22:10Z</time>
      </trkpt>
      <trkpt lat="43.65068" lon="3.82587">
        <ele>144.5</ele>
        <time>2016-04-19T10:22:11Z</time>
      </trkpt>
      <trkpt lat="43.65072" lon="3.82586">
        <ele>144.5</ele>
        <time>2016-04-19T10:22:12Z</time>
      </trkpt>
      <trkpt lat="43.65075" lon="3.82585">
        <ele>145</ele>
        <time>2016-04-19T10:22:13Z</time>
      </trkpt>
      <trkpt lat="43.65078" lon="3.82584">
        <ele>145.5</ele>
        <time>2016-04-19T10:22:14Z</time>
      </trkpt>
      <trkpt lat="43.65081" lon="3.82584">
        <ele>145.5</ele>
        <time>2016-04-19T10:22:15Z</time>
      </trkpt>
      <trkpt lat="43.65085" lon="3.82583">
        <ele>145.5</ele>
        <time>2016-04-19T10:22:16Z</time>
      </trkpt>
      <trkpt lat="43.65088" lon="3.8258">
        <ele>146.5</ele>
        <time>2016-04-19T10:22:17Z</time>
      </trkpt>
      <trkpt lat="43.65091" lon="3.82579">
        <ele>146.5</ele>
        <time>2016-04-19T10:22:18Z</time>
      </trkpt>
      <trkpt lat="43.65096" lon="3.82578">
        <ele>146.5</ele>
        <time>2016-04-19T10:22:19Z</time>
      </trkpt>
      <trkpt lat="43.65096" lon="3.82569">
        <ele>147.5</ele>
        <time>2016-04-19T10:22:21Z</time>
      </trkpt>
      <trkpt lat="43.65099" lon="3.82557">
        <ele>148</ele>
        <time>2016-04-19T10:22:23Z</time>
      </trkpt>
      <trkpt lat="43.65102" lon="3.82553">
        <ele>148</ele>
        <time>2016-04-19T10:22:24Z</time>
      </trkpt>
      <trkpt lat="43.65105" lon="3.82549">
        <ele>148</ele>
        <time>2016-04-19T10:22:25Z</time>
      </trkpt>
      <trkpt lat="43.65109" lon="3.82546">
        <ele>148.5</ele>
        <time>2016-04-19T10:22:26Z</time>
      </trkpt>
      <trkpt lat="43.65112" lon="3.82542">
        <ele>148.5</ele>
        <time>2016-04-19T10:22:27Z</time>
      </trkpt>
      <trkpt lat="43.65116" lon="3.82541">
        <ele>149</ele>
        <time>2016-04-19T10:22:28Z</time>
      </trkpt>
      <trkpt lat="43.6512" lon="3.82539">
        <ele>149</ele>
        <time>2016-04-19T10:22:29Z</time>
      </trkpt>
      <trkpt lat="43.65124" lon="3.82537">
        <ele>149</ele>
        <time>2016-04-19T10:22:30Z</time>
      </trkpt>
      <trkpt lat="43.65128" lon="3.82534">
        <ele>149</ele>
        <time>2016-04-19T10:22:31Z</time>
      </trkpt>
      <trkpt lat="43.65131" lon="3.8253">
        <ele>149</ele>
        <time>2016-04-19T10:22:32Z</time>
      </trkpt>
      <trkpt lat="43.65134" lon="3.82526">
        <ele>149</ele>
        <time>2016-04-19T10:22:33Z</time>
      </trkpt>
      <trkpt lat="43.65137" lon="3.82521">
        <ele>149</ele>
        <time>2016-04-19T10:22:34Z</time>
      </trkpt>
      <trkpt lat="43.65139" lon="3.82516">
        <ele>149</ele>
        <time>2016-04-19T10:22:35Z</time>
      </trkpt>
      <trkpt lat="43.65141" lon="3.82511">
        <ele>149.5</ele>
        <time>2016-04-19T10:22:36Z</time>
      </trkpt>
      <trkpt lat="43.65144" lon="3.82505">
        <ele>150</ele>
        <time>2016-04-19T10:22:37Z</time>
      </trkpt>
      <trkpt lat="43.65146" lon="3.825">
        <ele>150</ele>
        <time>2016-04-19T10:22:38Z</time>
      </trkpt>
      <trkpt lat="43.6515" lon="3.82495">
        <ele>150</ele>
        <time>2016-04-19T10:22:39Z</time>
      </trkpt>
      <trkpt lat="43.65154" lon="3.82491">
        <ele>150</ele>
        <time>2016-04-19T10:22:40Z</time>
      </trkpt>
      <trkpt lat="43.65155" lon="3.82483">
        <ele>150</ele>
        <time>2016-04-19T10:22:41Z</time>
      </trkpt>
      <trkpt lat="43.65157" lon="3.82476">
        <ele>150</ele>
        <time>2016-04-19T10:22:42Z</time>
      </trkpt>
      <trkpt lat="43.65158" lon="3.82469">
        <ele>150</ele>
        <time>2016-04-19T10:22:43Z</time>
      </trkpt>
      <trkpt lat="43.65157" lon="3.82461">
        <ele>150</ele>
        <time>2016-04-19T10:22:44Z</time>
      </trkpt>
      <trkpt lat="43.65157" lon="3.82456">
        <ele>150</ele>
        <time>2016-04-19T10:22:45Z</time>
      </trkpt>
      <trkpt lat="43.65158" lon="3.82449">
        <ele>150</ele>
        <time>2016-04-19T10:22:46Z</time>
      </trkpt>
      <trkpt lat="43.65159" lon="3.82445">
        <ele>150.5</ele>
        <time>2016-04-19T10:22:48Z</time>
      </trkpt>
      <trkpt lat="43.6516" lon="3.82443">
        <ele>150.5</ele>
        <time>2016-04-19T10:22:49Z</time>
      </trkpt>
      <trkpt lat="43.6516" lon="3.82441">
        <ele>150.5</ele>
        <time>2016-04-19T10:22:50Z</time>
      </trkpt>
      <trkpt lat="43.65162" lon="3.8244">
        <ele>150.5</ele>
        <time>2016-04-19T10:22:51Z</time>
      </trkpt>
      <trkpt lat="43.65162" lon="3.82439">
        <ele>150.5</ele>
        <time>2016-04-19T10:22:52Z</time>
      </trkpt>
      <trkpt lat="43.65165" lon="3.82439">
        <ele>150.5</ele>
        <time>2016-04-19T10:22:53Z</time>
      </trkpt>
      <trkpt lat="43.65168" lon="3.8244">
        <ele>150.5</ele>
        <time>2016-04-19T10:22:54Z</time>
      </trkpt>
      <trkpt lat="43.65171" lon="3.82442">
        <ele>151</ele>
        <time>2016-04-19T10:22:55Z</time>
      </trkpt>
      <trkpt lat="43.65174" lon="3.82447">
        <ele>151</ele>
        <time>2016-04-19T10:22:56Z</time>
      </trkpt>
      <trkpt lat="43.65177" lon="3.82451">
        <ele>151.5</ele>
        <time>2016-04-19T10:22:57Z</time>
      </trkpt>
      <trkpt lat="43.65198" lon="3.82434">
        <ele>151</ele>
        <time>2016-04-19T10:23:01Z</time>
      </trkpt>
      <trkpt lat="43.65206" lon="3.82429">
        <ele>151.5</ele>
        <time>2016-04-19T10:23:01Z</time>
      </trkpt>
      <trkpt lat="43.65219" lon="3.82422">
        <ele>151.5</ele>
        <time>2016-04-19T10:23:03Z</time>
      </trkpt>
      <trkpt lat="43.65225" lon="3.82419">
        <ele>151.5</ele>
        <time>2016-04-19T10:23:05Z</time>
      </trkpt>
      <trkpt lat="43.65231" lon="3.82415">
        <ele>151.5</ele>
        <time>2016-04-19T10:23:05Z</time>
      </trkpt>
      <trkpt lat="43.65238" lon="3.82412">
        <ele>151.5</ele>
        <time>2016-04-19T10:23:06Z</time>
      </trkpt>
      <trkpt lat="43.65244" lon="3.82411">
        <ele>151.5</ele>
        <time>2016-04-19T10:23:07Z</time>
      </trkpt>
      <trkpt lat="43.65259" lon="3.82414">
        <ele>151.5</ele>
        <time>2016-04-19T10:23:09Z</time>
      </trkpt>
      <trkpt lat="43.65268" lon="3.82415">
        <ele>151.5</ele>
        <time>2016-04-19T10:23:10Z</time>
      </trkpt>
      <trkpt lat="43.65276" lon="3.82416">
        <ele>151.5</ele>
        <time>2016-04-19T10:23:11Z</time>
      </trkpt>
      <trkpt lat="43.65284" lon="3.82418">
        <ele>151.5</ele>
        <time>2016-04-19T10:23:12Z</time>
      </trkpt>
      <trkpt lat="43.65301" lon="3.82414">
        <ele>151.5</ele>
        <time>2016-04-19T10:23:14Z</time>
      </trkpt>
      <trkpt lat="43.65311" lon="3.82411">
        <ele>151.5</ele>
        <time>2016-04-19T10:23:15Z</time>
      </trkpt>
      <trkpt lat="43.65322" lon="3.82433">
        <ele>152.5</ele>
        <time>2016-04-19T10:23:20Z</time>
      </trkpt>
      <trkpt lat="43.65324" lon="3.82437">
        <ele>152.5</ele>
        <time>2016-04-19T10:23:21Z</time>
      </trkpt>
      <trkpt lat="43.65328" lon="3.82439">
        <ele>152.5</ele>
        <time>2016-04-19T10:23:21Z</time>
      </trkpt>
      <trkpt lat="43.65332" lon="3.82426">
        <ele>154.5</ele>
        <time>2016-04-19T10:23:23Z</time>
      </trkpt>
      <trkpt lat="43.65332" lon="3.8242">
        <ele>155</ele>
        <time>2016-04-19T10:23:25Z</time>
      </trkpt>
      <trkpt lat="43.65332" lon="3.82415">
        <ele>155.5</ele>
        <time>2016-04-19T10:23:25Z</time>
      </trkpt>
      <trkpt lat="43.65332" lon="3.82408">
        <ele>155.5</ele>
        <time>2016-04-19T10:23:26Z</time>
      </trkpt>
      <trkpt lat="43.65332" lon="3.82402">
        <ele>155.5</ele>
        <time>2016-04-19T10:23:27Z</time>
      </trkpt>
      <trkpt lat="43.65332" lon="3.82395">
        <ele>156</ele>
        <time>2016-04-19T10:23:28Z</time>
      </trkpt>
      <trkpt lat="43.65333" lon="3.8239">
        <ele>156</ele>
        <time>2016-04-19T10:23:29Z</time>
      </trkpt>
      <trkpt lat="43.65333" lon="3.82386">
        <ele>156.5</ele>
        <time>2016-04-19T10:23:30Z</time>
      </trkpt>
      <trkpt lat="43.65333" lon="3.82379">
        <ele>156.5</ele>
        <time>2016-04-19T10:23:31Z</time>
      </trkpt>
      <trkpt lat="43.65333" lon="3.82372">
        <ele>156.5</ele>
        <time>2016-04-19T10:23:32Z</time>
      </trkpt>
      <trkpt lat="43.65334" lon="3.82366">
        <ele>156.5</ele>
        <time>2016-04-19T10:23:33Z</time>
      </trkpt>
      <trkpt lat="43.65334" lon="3.82361">
        <ele>156.5</ele>
        <time>2016-04-19T10:23:34Z</time>
      </trkpt>
      <trkpt lat="43.65334" lon="3.82355">
        <ele>155.5</ele>
        <time>2016-04-19T10:23:35Z</time>
      </trkpt>
      <trkpt lat="43.65335" lon="3.82348">
        <ele>156</ele>
        <time>2016-04-19T10:23:36Z</time>
      </trkpt>
      <trkpt lat="43.65335" lon="3.82342">
        <ele>156</ele>
        <time>2016-04-19T10:23:37Z</time>
      </trkpt>
      <trkpt lat="43.65334" lon="3.82323">
        <ele>156.5</ele>
        <time>2016-04-19T10:23:39Z</time>
      </trkpt>
      <trkpt lat="43.65335" lon="3.82314">
        <ele>159</ele>
        <time>2016-04-19T10:23:40Z</time>
      </trkpt>
      <trkpt lat="43.65337" lon="3.82304">
        <ele>158</ele>
        <time>2016-04-19T10:23:41Z</time>
      </trkpt>
      <trkpt lat="43.65339" lon="3.82294">
        <ele>156</ele>
        <time>2016-04-19T10:23:42Z</time>
      </trkpt>
      <trkpt lat="43.6534" lon="3.82284">
        <ele>154</ele>
        <time>2016-04-19T10:23:43Z</time>
      </trkpt>
      <trkpt lat="43.65342" lon="3.82274">
        <ele>152</ele>
        <time>2016-04-19T10:23:44Z</time>
      </trkpt>
      <trkpt lat="43.65342" lon="3.82264">
        <ele>150.5</ele>
        <time>2016-04-19T10:23:45Z</time>
      </trkpt>
      <trkpt lat="43.65343" lon="3.82255">
        <ele>150</ele>
        <time>2016-04-19T10:23:46Z</time>
      </trkpt>
      <trkpt lat="43.65344" lon="3.82246">
        <ele>149.5</ele>
        <time>2016-04-19T10:23:47Z</time>
      </trkpt>
      <trkpt lat="43.65346" lon="3.82237">
        <ele>149</ele>
        <time>2016-04-19T10:23:48Z</time>
      </trkpt>
      <trkpt lat="43.65352" lon="3.82227">
        <ele>148</ele>
        <time>2016-04-19T10:23:50Z</time>
      </trkpt>
      <trkpt lat="43.65355" lon="3.8222">
        <ele>147.5</ele>
        <time>2016-04-19T10:23:51Z</time>
      </trkpt>
      <trkpt lat="43.6536" lon="3.82215">
        <ele>146</ele>
        <time>2016-04-19T10:23:52Z</time>
      </trkpt>
      <trkpt lat="43.65365" lon="3.82211">
        <ele>145</ele>
        <time>2016-04-19T10:23:53Z</time>
      </trkpt>
      <trkpt lat="43.65378" lon="3.822">
        <ele>142</ele>
        <time>2016-04-19T10:23:55Z</time>
      </trkpt>
      <trkpt lat="43.65384" lon="3.82191">
        <ele>141.5</ele>
        <time>2016-04-19T10:23:56Z</time>
      </trkpt>
      <trkpt lat="43.65387" lon="3.82181">
        <ele>141.5</ele>
        <time>2016-04-19T10:23:57Z</time>
      </trkpt>
      <trkpt lat="43.65392" lon="3.8217">
        <ele>141.5</ele>
        <time>2016-04-19T10:23:59Z</time>
      </trkpt>
      <trkpt lat="43.65393" lon="3.82164">
        <ele>141.5</ele>
        <time>2016-04-19T10:24:00Z</time>
      </trkpt>
      <trkpt lat="43.65395" lon="3.8216">
        <ele>141</ele>
        <time>2016-04-19T10:24:01Z</time>
      </trkpt>
      <trkpt lat="43.65395" lon="3.82145">
        <ele>141</ele>
        <time>2016-04-19T10:24:03Z</time>
      </trkpt>
      <trkpt lat="43.65396" lon="3.82137">
        <ele>140</ele>
        <time>2016-04-19T10:24:05Z</time>
      </trkpt>
      <trkpt lat="43.65396" lon="3.82127">
        <ele>139.5</ele>
        <time>2016-04-19T10:24:07Z</time>
      </trkpt>
      <trkpt lat="43.65396" lon="3.8212">
        <ele>139</ele>
        <time>2016-04-19T10:24:08Z</time>
      </trkpt>
      <trkpt lat="43.65396" lon="3.82114">
        <ele>139</ele>
        <time>2016-04-19T10:24:09Z</time>
      </trkpt>
      <trkpt lat="43.65396" lon="3.82109">
        <ele>138.5</ele>
        <time>2016-04-19T10:24:10Z</time>
      </trkpt>
      <trkpt lat="43.65397" lon="3.82103">
        <ele>138.5</ele>
        <time>2016-04-19T10:24:12Z</time>
      </trkpt>
      <trkpt lat="43.65396" lon="3.82097">
        <ele>139</ele>
        <time>2016-04-19T10:24:14Z</time>
      </trkpt>
      <trkpt lat="43.65394" lon="3.82092">
        <ele>139</ele>
        <time>2016-04-19T10:24:18Z</time>
      </trkpt>
      <trkpt lat="43.65389" lon="3.82091">
        <ele>138.5</ele>
        <time>2016-04-19T10:24:21Z</time>
      </trkpt>
      <trkpt lat="43.65387" lon="3.8209">
        <ele>138</ele>
        <time>2016-04-19T10:24:22Z</time>
      </trkpt>
      <trkpt lat="43.65378" lon="3.82088">
        <ele>138</ele>
        <time>2016-04-19T10:24:24Z</time>
      </trkpt>
      <trkpt lat="43.65374" lon="3.82085">
        <ele>137.5</ele>
        <time>2016-04-19T10:24:25Z</time>
      </trkpt>
      <trkpt lat="43.65368" lon="3.8208">
        <ele>137.5</ele>
        <time>2016-04-19T10:24:27Z</time>
      </trkpt>
      <trkpt lat="43.65366" lon="3.82078">
        <ele>137.5</ele>
        <time>2016-04-19T10:24:28Z</time>
      </trkpt>
      <trkpt lat="43.6537" lon="3.8206">
        <ele>138</ele>
        <time>2016-04-19T10:24:30Z</time>
      </trkpt>
      <trkpt lat="43.65378" lon="3.82045">
        <ele>138</ele>
        <time>2016-04-19T10:24:34Z</time>
      </trkpt>
      <trkpt lat="43.6538" lon="3.82043">
        <ele>138</ele>
        <time>2016-04-19T10:24:35Z</time>
      </trkpt>
      <trkpt lat="43.65391" lon="3.82019">
        <ele>137</ele>
        <time>2016-04-19T10:24:38Z</time>
      </trkpt>
      <trkpt lat="43.6541" lon="3.81998">
        <ele>136.5</ele>
        <time>2016-04-19T10:24:41Z</time>
      </trkpt>
      <trkpt lat="43.65411" lon="3.81995">
        <ele>136.5</ele>
        <time>2016-04-19T10:24:42Z</time>
      </trkpt>
      <trkpt lat="43.65417" lon="3.81986">
        <ele>136.5</ele>
        <time>2016-04-19T10:24:44Z</time>
      </trkpt>
      <trkpt lat="43.65419" lon="3.81981">
        <ele>137</ele>
        <time>2016-04-19T10:24:45Z</time>
      </trkpt>
      <trkpt lat="43.65422" lon="3.81978">
        <ele>137</ele>
        <time>2016-04-19T10:24:46Z</time>
      </trkpt>
      <trkpt lat="43.6541" lon="3.81947">
        <ele>137</ele>
        <time>2016-04-19T10:24:49Z</time>
      </trkpt>
      <trkpt lat="43.65405" lon="3.81931">
        <ele>137</ele>
        <time>2016-04-19T10:24:51Z</time>
      </trkpt>
      <trkpt lat="43.65403" lon="3.81923">
        <ele>137</ele>
        <time>2016-04-19T10:24:52Z</time>
      </trkpt>
      <trkpt lat="43.65401" lon="3.81916">
        <ele>137</ele>
        <time>2016-04-19T10:24:53Z</time>
      </trkpt>
      <trkpt lat="43.65398" lon="3.81913">
        <ele>137</ele>
        <time>2016-04-19T10:24:53Z</time>
      </trkpt>
      <trkpt lat="43.65398" lon="3.81907">
        <ele>137</ele>
        <time>2016-04-19T10:24:54Z</time>
      </trkpt>
      <trkpt lat="43.65398" lon="3.81899">
        <ele>137</ele>
        <time>2016-04-19T10:24:55Z</time>
      </trkpt>
      <trkpt lat="43.65397" lon="3.81893">
        <ele>137</ele>
        <time>2016-04-19T10:24:56Z</time>
      </trkpt>
      <trkpt lat="43.65396" lon="3.81887">
        <ele>137</ele>
        <time>2016-04-19T10:24:57Z</time>
      </trkpt>
      <trkpt lat="43.65395" lon="3.81882">
        <ele>137</ele>
        <time>2016-04-19T10:24:58Z</time>
      </trkpt>
      <trkpt lat="43.65394" lon="3.81877">
        <ele>137</ele>
        <time>2016-04-19T10:25:00Z</time>
      </trkpt>
      <trkpt lat="43.65391" lon="3.81873">
        <ele>136.5</ele>
        <time>2016-04-19T10:25:00Z</time>
      </trkpt>
      <trkpt lat="43.6539" lon="3.81867">
        <ele>136</ele>
        <time>2016-04-19T10:25:01Z</time>
      </trkpt>
      <trkpt lat="43.65393" lon="3.81859">
        <ele>136.5</ele>
        <time>2016-04-19T10:25:02Z</time>
      </trkpt>
      <trkpt lat="43.65397" lon="3.81853">
        <ele>136</ele>
        <time>2016-04-19T10:25:03Z</time>
      </trkpt>
      <trkpt lat="43.65402" lon="3.81849">
        <ele>135.5</ele>
        <time>2016-04-19T10:25:04Z</time>
      </trkpt>
      <trkpt lat="43.65407" lon="3.81845">
        <ele>135</ele>
        <time>2016-04-19T10:25:05Z</time>
      </trkpt>
      <trkpt lat="43.65412" lon="3.81842">
        <ele>135</ele>
        <time>2016-04-19T10:25:06Z</time>
      </trkpt>
      <trkpt lat="43.65418" lon="3.8184">
        <ele>134.5</ele>
        <time>2016-04-19T10:25:07Z</time>
      </trkpt>
      <trkpt lat="43.65423" lon="3.81838">
        <ele>134.5</ele>
        <time>2016-04-19T10:25:08Z</time>
      </trkpt>
      <trkpt lat="43.65428" lon="3.81835">
        <ele>134</ele>
        <time>2016-04-19T10:25:09Z</time>
      </trkpt>
      <trkpt lat="43.65433" lon="3.81832">
        <ele>133.5</ele>
        <time>2016-04-19T10:25:10Z</time>
      </trkpt>
      <trkpt lat="43.65435" lon="3.81825">
        <ele>133.5</ele>
        <time>2016-04-19T10:25:11Z</time>
      </trkpt>
      <trkpt lat="43.65439" lon="3.8182">
        <ele>133</ele>
        <time>2016-04-19T10:25:12Z</time>
      </trkpt>
      <trkpt lat="43.65444" lon="3.81822">
        <ele>133</ele>
        <time>2016-04-19T10:25:13Z</time>
      </trkpt>
      <trkpt lat="43.65449" lon="3.8182">
        <ele>133</ele>
        <time>2016-04-19T10:25:14Z</time>
      </trkpt>
      <trkpt lat="43.65454" lon="3.81818">
        <ele>133</ele>
        <time>2016-04-19T10:25:15Z</time>
      </trkpt>
      <trkpt lat="43.65459" lon="3.81816">
        <ele>133</ele>
        <time>2016-04-19T10:25:16Z</time>
      </trkpt>
      <trkpt lat="43.65465" lon="3.81813">
        <ele>132.5</ele>
        <time>2016-04-19T10:25:17Z</time>
      </trkpt>
      <trkpt lat="43.65469" lon="3.81809">
        <ele>132.5</ele>
        <time>2016-04-19T10:25:18Z</time>
      </trkpt>
      <trkpt lat="43.65474" lon="3.81806">
        <ele>132</ele>
        <time>2016-04-19T10:25:19Z</time>
      </trkpt>
      <trkpt lat="43.65478" lon="3.81801">
        <ele>132</ele>
        <time>2016-04-19T10:25:20Z</time>
      </trkpt>
      <trkpt lat="43.65482" lon="3.81797">
        <ele>131.5</ele>
        <time>2016-04-19T10:25:21Z</time>
      </trkpt>
      <trkpt lat="43.65486" lon="3.81793">
        <ele>131</ele>
        <time>2016-04-19T10:25:22Z</time>
      </trkpt>
      <trkpt lat="43.6549" lon="3.8179">
        <ele>131</ele>
        <time>2016-04-19T10:25:23Z</time>
      </trkpt>
      <trkpt lat="43.65492" lon="3.81784">
        <ele>131</ele>
        <time>2016-04-19T10:25:24Z</time>
      </trkpt>
      <trkpt lat="43.65499" lon="3.81784">
        <ele>131</ele>
        <time>2016-04-19T10:25:25Z</time>
      </trkpt>
      <trkpt lat="43.65501" lon="3.81778">
        <ele>130.5</ele>
        <time>2016-04-19T10:25:26Z</time>
      </trkpt>
      <trkpt lat="43.65504" lon="3.81774">
        <ele>130.5</ele>
        <time>2016-04-19T10:25:27Z</time>
      </trkpt>
      <trkpt lat="43.65508" lon="3.81769">
        <ele>130.5</ele>
        <time>2016-04-19T10:25:28Z</time>
      </trkpt>
      <trkpt lat="43.65512" lon="3.81765">
        <ele>130.5</ele>
        <time>2016-04-19T10:25:29Z</time>
      </trkpt>
      <trkpt lat="43.65516" lon="3.81761">
        <ele>130</ele>
        <time>2016-04-19T10:25:30Z</time>
      </trkpt>
      <trkpt lat="43.6552" lon="3.81757">
        <ele>130</ele>
        <time>2016-04-19T10:25:31Z</time>
      </trkpt>
      <trkpt lat="43.65524" lon="3.81752">
        <ele>130</ele>
        <time>2016-04-19T10:25:32Z</time>
      </trkpt>
      <trkpt lat="43.65527" lon="3.81748">
        <ele>130</ele>
        <time>2016-04-19T10:25:33Z</time>
      </trkpt>
      <trkpt lat="43.65531" lon="3.81744">
        <ele>130</ele>
        <time>2016-04-19T10:25:34Z</time>
      </trkpt>
      <trkpt lat="43.65536" lon="3.81741">
        <ele>130</ele>
        <time>2016-04-19T10:25:35Z</time>
      </trkpt>
      <trkpt lat="43.6554" lon="3.81738">
        <ele>130</ele>
        <time>2016-04-19T10:25:36Z</time>
      </trkpt>
      <trkpt lat="43.65544" lon="3.81735">
        <ele>130</ele>
        <time>2016-04-19T10:25:37Z</time>
      </trkpt>
      <trkpt lat="43.65546" lon="3.81727">
        <ele>130</ele>
        <time>2016-04-19T10:25:38Z</time>
      </trkpt>
      <trkpt lat="43.6555" lon="3.81723">
        <ele>130</ele>
        <time>2016-04-19T10:25:39Z</time>
      </trkpt>
      <trkpt lat="43.65554" lon="3.81719">
        <ele>130</ele>
        <time>2016-04-19T10:25:40Z</time>
      </trkpt>
      <trkpt lat="43.65558" lon="3.81715">
        <ele>130</ele>
        <time>2016-04-19T10:25:41Z</time>
      </trkpt>
      <trkpt lat="43.65561" lon="3.81712">
        <ele>129.5</ele>
        <time>2016-04-19T10:25:42Z</time>
      </trkpt>
      <trkpt lat="43.65565" lon="3.81708">
        <ele>129.5</ele>
        <time>2016-04-19T10:25:43Z</time>
      </trkpt>
      <trkpt lat="43.65569" lon="3.81705">
        <ele>129.5</ele>
        <time>2016-04-19T10:25:44Z</time>
      </trkpt>
      <trkpt lat="43.65573" lon="3.81702">
        <ele>129.5</ele>
        <time>2016-04-19T10:25:45Z</time>
      </trkpt>
      <trkpt lat="43.65576" lon="3.81698">
        <ele>129.5</ele>
        <time>2016-04-19T10:25:46Z</time>
      </trkpt>
      <trkpt lat="43.65579" lon="3.81694">
        <ele>129.5</ele>
        <time>2016-04-19T10:25:47Z</time>
      </trkpt>
      <trkpt lat="43.65583" lon="3.8169">
        <ele>129.5</ele>
        <time>2016-04-19T10:25:48Z</time>
      </trkpt>
      <trkpt lat="43.65587" lon="3.81687">
        <ele>129</ele>
        <time>2016-04-19T10:25:49Z</time>
      </trkpt>
      <trkpt lat="43.65592" lon="3.81685">
        <ele>129</ele>
        <time>2016-04-19T10:25:50Z</time>
      </trkpt>
      <trkpt lat="43.65596" lon="3.81682">
        <ele>129</ele>
        <time>2016-04-19T10:25:51Z</time>
      </trkpt>
      <trkpt lat="43.656" lon="3.81679">
        <ele>129</ele>
        <time>2016-04-19T10:25:52Z</time>
      </trkpt>
      <trkpt lat="43.65604" lon="3.81678">
        <ele>129</ele>
        <time>2016-04-19T10:25:53Z</time>
      </trkpt>
      <trkpt lat="43.65609" lon="3.81677">
        <ele>129</ele>
        <time>2016-04-19T10:25:54Z</time>
      </trkpt>
      <trkpt lat="43.65613" lon="3.81676">
        <ele>129</ele>
        <time>2016-04-19T10:25:55Z</time>
      </trkpt>
      <trkpt lat="43.65618" lon="3.81675">
        <ele>129</ele>
        <time>2016-04-19T10:25:56Z</time>
      </trkpt>
      <trkpt lat="43.65622" lon="3.81674">
        <ele>128.5</ele>
        <time>2016-04-19T10:25:57Z</time>
      </trkpt>
      <trkpt lat="43.65625" lon="3.81672">
        <ele>128.5</ele>
        <time>2016-04-19T10:25:58Z</time>
      </trkpt>
      <trkpt lat="43.65629" lon="3.81669">
        <ele>128</ele>
        <time>2016-04-19T10:25:59Z</time>
      </trkpt>
      <trkpt lat="43.65633" lon="3.81667">
        <ele>128</ele>
        <time>2016-04-19T10:26:00Z</time>
      </trkpt>
      <trkpt lat="43.65637" lon="3.81665">
        <ele>127.5</ele>
        <time>2016-04-19T10:26:01Z</time>
      </trkpt>
      <trkpt lat="43.65641" lon="3.81664">
        <ele>127.5</ele>
        <time>2016-04-19T10:26:02Z</time>
      </trkpt>
      <trkpt lat="43.65645" lon="3.81663">
        <ele>127</ele>
        <time>2016-04-19T10:26:03Z</time>
      </trkpt>
      <trkpt lat="43.6565" lon="3.81664">
        <ele>127</ele>
        <time>2016-04-19T10:26:04Z</time>
      </trkpt>
      <trkpt lat="43.65654" lon="3.81664">
        <ele>126.5</ele>
        <time>2016-04-19T10:26:05Z</time>
      </trkpt>
      <trkpt lat="43.65658" lon="3.81664">
        <ele>126</ele>
        <time>2016-04-19T10:26:06Z</time>
      </trkpt>
      <trkpt lat="43.65662" lon="3.81664">
        <ele>126</ele>
        <time>2016-04-19T10:26:07Z</time>
      </trkpt>
      <trkpt lat="43.65665" lon="3.81664">
        <ele>126</ele>
        <time>2016-04-19T10:26:08Z</time>
      </trkpt>
      <trkpt lat="43.65669" lon="3.81663">
        <ele>125.5</ele>
        <time>2016-04-19T10:26:09Z</time>
      </trkpt>
      <trkpt lat="43.65673" lon="3.81664">
        <ele>125</ele>
        <time>2016-04-19T10:26:10Z</time>
      </trkpt>
      <trkpt lat="43.65676" lon="3.81664">
        <ele>125</ele>
        <time>2016-04-19T10:26:11Z</time>
      </trkpt>
      <trkpt lat="43.6568" lon="3.81664">
        <ele>124.5</ele>
        <time>2016-04-19T10:26:12Z</time>
      </trkpt>
      <trkpt lat="43.65684" lon="3.81665">
        <ele>124.5</ele>
        <time>2016-04-19T10:26:13Z</time>
      </trkpt>
      <trkpt lat="43.65688" lon="3.81667">
        <ele>124</ele>
        <time>2016-04-19T10:26:14Z</time>
      </trkpt>
      <trkpt lat="43.65692" lon="3.81669">
        <ele>124</ele>
        <time>2016-04-19T10:26:15Z</time>
      </trkpt>
      <trkpt lat="43.65696" lon="3.8167">
        <ele>124</ele>
        <time>2016-04-19T10:26:16Z</time>
      </trkpt>
      <trkpt lat="43.65699" lon="3.81671">
        <ele>124</ele>
        <time>2016-04-19T10:26:17Z</time>
      </trkpt>
      <trkpt lat="43.65701" lon="3.81667">
        <ele>124</ele>
        <time>2016-04-19T10:26:18Z</time>
      </trkpt>
      <trkpt lat="43.65704" lon="3.81664">
        <ele>124</ele>
        <time>2016-04-19T10:26:19Z</time>
      </trkpt>
      <trkpt lat="43.65705" lon="3.8166">
        <ele>124</ele>
        <time>2016-04-19T10:26:20Z</time>
      </trkpt>
      <trkpt lat="43.65707" lon="3.81656">
        <ele>124</ele>
        <time>2016-04-19T10:26:21Z</time>
      </trkpt>
      <trkpt lat="43.65708" lon="3.81652">
        <ele>124</ele>
        <time>2016-04-19T10:26:22Z</time>
      </trkpt>
      <trkpt lat="43.65709" lon="3.81649">
        <ele>124</ele>
        <time>2016-04-19T10:26:23Z</time>
      </trkpt>
      <trkpt lat="43.65709" lon="3.81636">
        <ele>124.5</ele>
        <time>2016-04-19T10:26:25Z</time>
      </trkpt>
      <trkpt lat="43.65712" lon="3.81635">
        <ele>124.5</ele>
        <time>2016-04-19T10:26:26Z</time>
      </trkpt>
      <trkpt lat="43.65714" lon="3.81632">
        <ele>124.5</ele>
        <time>2016-04-19T10:26:27Z</time>
      </trkpt>
      <trkpt lat="43.65715" lon="3.81627">
        <ele>124.5</ele>
        <time>2016-04-19T10:26:28Z</time>
      </trkpt>
      <trkpt lat="43.65719" lon="3.81618">
        <ele>125.5</ele>
        <time>2016-04-19T10:26:30Z</time>
      </trkpt>
      <trkpt lat="43.65722" lon="3.81615">
        <ele>125.5</ele>
        <time>2016-04-19T10:26:31Z</time>
      </trkpt>
      <trkpt lat="43.65726" lon="3.81612">
        <ele>125.5</ele>
        <time>2016-04-19T10:26:32Z</time>
      </trkpt>
      <trkpt lat="43.6573" lon="3.81612">
        <ele>126</ele>
        <time>2016-04-19T10:26:33Z</time>
      </trkpt>
      <trkpt lat="43.65734" lon="3.81611">
        <ele>126</ele>
        <time>2016-04-19T10:26:34Z</time>
      </trkpt>
      <trkpt lat="43.65738" lon="3.81608">
        <ele>126</ele>
        <time>2016-04-19T10:26:35Z</time>
      </trkpt>
      <trkpt lat="43.65742" lon="3.81605">
        <ele>125.5</ele>
        <time>2016-04-19T10:26:36Z</time>
      </trkpt>
      <trkpt lat="43.65746" lon="3.81602">
        <ele>125.5</ele>
        <time>2016-04-19T10:26:37Z</time>
      </trkpt>
      <trkpt lat="43.6575" lon="3.816">
        <ele>126.5</ele>
        <time>2016-04-19T10:26:38Z</time>
      </trkpt>
      <trkpt lat="43.65754" lon="3.81597">
        <ele>126.5</ele>
        <time>2016-04-19T10:26:39Z</time>
      </trkpt>
      <trkpt lat="43.65758" lon="3.81593">
        <ele>126</ele>
        <time>2016-04-19T10:26:40Z</time>
      </trkpt>
      <trkpt lat="43.65762" lon="3.81589">
        <ele>126</ele>
        <time>2016-04-19T10:26:41Z</time>
      </trkpt>
      <trkpt lat="43.65765" lon="3.81584">
        <ele>127</ele>
        <time>2016-04-19T10:26:42Z</time>
      </trkpt>
      <trkpt lat="43.65769" lon="3.8158">
        <ele>127</ele>
        <time>2016-04-19T10:26:43Z</time>
      </trkpt>
      <trkpt lat="43.65773" lon="3.81575">
        <ele>127</ele>
        <time>2016-04-19T10:26:44Z</time>
      </trkpt>
      <trkpt lat="43.65777" lon="3.8157">
        <ele>127</ele>
        <time>2016-04-19T10:26:45Z</time>
      </trkpt>
      <trkpt lat="43.65781" lon="3.81566">
        <ele>126.5</ele>
        <time>2016-04-19T10:26:46Z</time>
      </trkpt>
      <trkpt lat="43.65785" lon="3.81562">
        <ele>126.5</ele>
        <time>2016-04-19T10:26:47Z</time>
      </trkpt>
      <trkpt lat="43.65789" lon="3.81558">
        <ele>126.5</ele>
        <time>2016-04-19T10:26:48Z</time>
      </trkpt>
      <trkpt lat="43.65794" lon="3.81555">
        <ele>126.5</ele>
        <time>2016-04-19T10:26:49Z</time>
      </trkpt>
      <trkpt lat="43.65798" lon="3.81552">
        <ele>126.5</ele>
        <time>2016-04-19T10:26:50Z</time>
      </trkpt>
      <trkpt lat="43.65802" lon="3.81548">
        <ele>126.5</ele>
        <time>2016-04-19T10:26:51Z</time>
      </trkpt>
      <trkpt lat="43.65806" lon="3.81545">
        <ele>126.5</ele>
        <time>2016-04-19T10:26:52Z</time>
      </trkpt>
      <trkpt lat="43.65809" lon="3.81541">
        <ele>126</ele>
        <time>2016-04-19T10:26:53Z</time>
      </trkpt>
      <trkpt lat="43.65813" lon="3.81537">
        <ele>126</ele>
        <time>2016-04-19T10:26:54Z</time>
      </trkpt>
      <trkpt lat="43.65817" lon="3.81534">
        <ele>126</ele>
        <time>2016-04-19T10:26:55Z</time>
      </trkpt>
      <trkpt lat="43.65821" lon="3.8153">
        <ele>126.5</ele>
        <time>2016-04-19T10:26:56Z</time>
      </trkpt>
      <trkpt lat="43.65824" lon="3.81526">
        <ele>126.5</ele>
        <time>2016-04-19T10:26:57Z</time>
      </trkpt>
      <trkpt lat="43.65828" lon="3.81522">
        <ele>126.5</ele>
        <time>2016-04-19T10:26:58Z</time>
      </trkpt>
      <trkpt lat="43.65831" lon="3.81518">
        <ele>126.5</ele>
        <time>2016-04-19T10:26:59Z</time>
      </trkpt>
      <trkpt lat="43.65835" lon="3.81514">
        <ele>126.5</ele>
        <time>2016-04-19T10:27:00Z</time>
      </trkpt>
      <trkpt lat="43.65839" lon="3.81509">
        <ele>126.5</ele>
        <time>2016-04-19T10:27:01Z</time>
      </trkpt>
      <trkpt lat="43.65843" lon="3.81504">
        <ele>126.5</ele>
        <time>2016-04-19T10:27:02Z</time>
      </trkpt>
      <trkpt lat="43.65848" lon="3.81502">
        <ele>126.5</ele>
        <time>2016-04-19T10:27:03Z</time>
      </trkpt>
      <trkpt lat="43.65852" lon="3.81498">
        <ele>126.5</ele>
        <time>2016-04-19T10:27:04Z</time>
      </trkpt>
      <trkpt lat="43.65856" lon="3.81494">
        <ele>126.5</ele>
        <time>2016-04-19T10:27:05Z</time>
      </trkpt>
      <trkpt lat="43.65858" lon="3.81486">
        <ele>126.5</ele>
        <time>2016-04-19T10:27:06Z</time>
      </trkpt>
      <trkpt lat="43.65863" lon="3.81484">
        <ele>126.5</ele>
        <time>2016-04-19T10:27:07Z</time>
      </trkpt>
      <trkpt lat="43.65867" lon="3.8148">
        <ele>126.5</ele>
        <time>2016-04-19T10:27:08Z</time>
      </trkpt>
      <trkpt lat="43.65871" lon="3.81476">
        <ele>126.5</ele>
        <time>2016-04-19T10:27:09Z</time>
      </trkpt>
      <trkpt lat="43.65875" lon="3.81471">
        <ele>126.5</ele>
        <time>2016-04-19T10:27:10Z</time>
      </trkpt>
      <trkpt lat="43.65879" lon="3.81469">
        <ele>126.5</ele>
        <time>2016-04-19T10:27:11Z</time>
      </trkpt>
      <trkpt lat="43.65883" lon="3.81466">
        <ele>126.5</ele>
        <time>2016-04-19T10:27:12Z</time>
      </trkpt>
      <trkpt lat="43.65886" lon="3.8146">
        <ele>126.5</ele>
        <time>2016-04-19T10:27:13Z</time>
      </trkpt>
      <trkpt lat="43.6589" lon="3.81454">
        <ele>126.5</ele>
        <time>2016-04-19T10:27:14Z</time>
      </trkpt>
      <trkpt lat="43.65894" lon="3.81449">
        <ele>127</ele>
        <time>2016-04-19T10:27:15Z</time>
      </trkpt>
      <trkpt lat="43.65898" lon="3.81442">
        <ele>127</ele>
        <time>2016-04-19T10:27:16Z</time>
      </trkpt>
      <trkpt lat="43.65902" lon="3.81436">
        <ele>127</ele>
        <time>2016-04-19T10:27:17Z</time>
      </trkpt>
      <trkpt lat="43.65908" lon="3.81432">
        <ele>127</ele>
        <time>2016-04-19T10:27:18Z</time>
      </trkpt>
      <trkpt lat="43.65912" lon="3.81427">
        <ele>127</ele>
        <time>2016-04-19T10:27:19Z</time>
      </trkpt>
      <trkpt lat="43.65917" lon="3.81423">
        <ele>127</ele>
        <time>2016-04-19T10:27:20Z</time>
      </trkpt>
      <trkpt lat="43.65921" lon="3.81418">
        <ele>127</ele>
        <time>2016-04-19T10:27:21Z</time>
      </trkpt>
      <trkpt lat="43.65927" lon="3.81415">
        <ele>125.5</ele>
        <time>2016-04-19T10:27:22Z</time>
      </trkpt>
      <trkpt lat="43.65932" lon="3.8141">
        <ele>125.5</ele>
        <time>2016-04-19T10:27:23Z</time>
      </trkpt>
      <trkpt lat="43.65937" lon="3.81405">
        <ele>125.5</ele>
        <time>2016-04-19T10:27:24Z</time>
      </trkpt>
      <trkpt lat="43.65943" lon="3.81402">
        <ele>125</ele>
        <time>2016-04-19T10:27:25Z</time>
      </trkpt>
      <trkpt lat="43.65948" lon="3.81399">
        <ele>124.5</ele>
        <time>2016-04-19T10:27:26Z</time>
      </trkpt>
      <trkpt lat="43.65954" lon="3.81398">
        <ele>124.5</ele>
        <time>2016-04-19T10:27:27Z</time>
      </trkpt>
      <trkpt lat="43.65959" lon="3.81395">
        <ele>124.5</ele>
        <time>2016-04-19T10:27:28Z</time>
      </trkpt>
      <trkpt lat="43.65964" lon="3.81392">
        <ele>124.5</ele>
        <time>2016-04-19T10:27:29Z</time>
      </trkpt>
      <trkpt lat="43.65969" lon="3.81391">
        <ele>124.5</ele>
        <time>2016-04-19T10:27:30Z</time>
      </trkpt>
      <trkpt lat="43.65973" lon="3.81388">
        <ele>124.5</ele>
        <time>2016-04-19T10:27:31Z</time>
      </trkpt>
      <trkpt lat="43.65978" lon="3.81386">
        <ele>124.5</ele>
        <time>2016-04-19T10:27:32Z</time>
      </trkpt>
      <trkpt lat="43.65983" lon="3.81385">
        <ele>124.5</ele>
        <time>2016-04-19T10:27:33Z</time>
      </trkpt>
      <trkpt lat="43.65988" lon="3.81383">
        <ele>124.5</ele>
        <time>2016-04-19T10:27:34Z</time>
      </trkpt>
      <trkpt lat="43.65992" lon="3.81381">
        <ele>124.5</ele>
        <time>2016-04-19T10:27:35Z</time>
      </trkpt>
      <trkpt lat="43.65997" lon="3.81379">
        <ele>125</ele>
        <time>2016-04-19T10:27:36Z</time>
      </trkpt>
      <trkpt lat="43.66001" lon="3.81378">
        <ele>125</ele>
        <time>2016-04-19T10:27:37Z</time>
      </trkpt>
      <trkpt lat="43.66006" lon="3.81376">
        <ele>124.5</ele>
        <time>2016-04-19T10:27:38Z</time>
      </trkpt>
      <trkpt lat="43.6601" lon="3.81374">
        <ele>124.5</ele>
        <time>2016-04-19T10:27:39Z</time>
      </trkpt>
      <trkpt lat="43.66014" lon="3.81373">
        <ele>124.5</ele>
        <time>2016-04-19T10:27:40Z</time>
      </trkpt>
      <trkpt lat="43.66018" lon="3.81371">
        <ele>124</ele>
        <time>2016-04-19T10:27:41Z</time>
      </trkpt>
      <trkpt lat="43.66021" lon="3.81369">
        <ele>124</ele>
        <time>2016-04-19T10:27:42Z</time>
      </trkpt>
      <trkpt lat="43.66024" lon="3.81366">
        <ele>124</ele>
        <time>2016-04-19T10:27:43Z</time>
      </trkpt>
      <trkpt lat="43.66028" lon="3.81363">
        <ele>124</ele>
        <time>2016-04-19T10:27:44Z</time>
      </trkpt>
      <trkpt lat="43.66032" lon="3.81361">
        <ele>124</ele>
        <time>2016-04-19T10:27:45Z</time>
      </trkpt>
      <trkpt lat="43.66035" lon="3.81359">
        <ele>124</ele>
        <time>2016-04-19T10:27:46Z</time>
      </trkpt>
      <trkpt lat="43.66039" lon="3.81356">
        <ele>124</ele>
        <time>2016-04-19T10:27:47Z</time>
      </trkpt>
      <trkpt lat="43.66043" lon="3.81354">
        <ele>124</ele>
        <time>2016-04-19T10:27:48Z</time>
      </trkpt>
      <trkpt lat="43.66045" lon="3.81349">
        <ele>124.5</ele>
        <time>2016-04-19T10:27:49Z</time>
      </trkpt>
      <trkpt lat="43.66056" lon="3.81348">
        <ele>124</ele>
        <time>2016-04-19T10:27:51Z</time>
      </trkpt>
      <trkpt lat="43.66059" lon="3.81345">
        <ele>124.5</ele>
        <time>2016-04-19T10:27:52Z</time>
      </trkpt>
      <trkpt lat="43.66069" lon="3.81345">
        <ele>124.5</ele>
        <time>2016-04-19T10:27:54Z</time>
      </trkpt>
      <trkpt lat="43.66073" lon="3.81343">
        <ele>125.5</ele>
        <time>2016-04-19T10:27:55Z</time>
      </trkpt>
      <trkpt lat="43.66077" lon="3.81341">
        <ele>125</ele>
        <time>2016-04-19T10:27:56Z</time>
      </trkpt>
      <trkpt lat="43.66081" lon="3.81339">
        <ele>125</ele>
        <time>2016-04-19T10:27:57Z</time>
      </trkpt>
      <trkpt lat="43.66085" lon="3.81336">
        <ele>125</ele>
        <time>2016-04-19T10:27:58Z</time>
      </trkpt>
      <trkpt lat="43.66089" lon="3.81335">
        <ele>125</ele>
        <time>2016-04-19T10:27:59Z</time>
      </trkpt>
      <trkpt lat="43.66094" lon="3.81334">
        <ele>125</ele>
        <time>2016-04-19T10:28:00Z</time>
      </trkpt>
      <trkpt lat="43.66098" lon="3.81332">
        <ele>125</ele>
        <time>2016-04-19T10:28:01Z</time>
      </trkpt>
      <trkpt lat="43.66102" lon="3.81331">
        <ele>125</ele>
        <time>2016-04-19T10:28:02Z</time>
      </trkpt>
      <trkpt lat="43.66107" lon="3.8133">
        <ele>123.5</ele>
        <time>2016-04-19T10:28:03Z</time>
      </trkpt>
      <trkpt lat="43.6611" lon="3.81329">
        <ele>123.5</ele>
        <time>2016-04-19T10:28:04Z</time>
      </trkpt>
      <trkpt lat="43.66114" lon="3.81328">
        <ele>123.5</ele>
        <time>2016-04-19T10:28:05Z</time>
      </trkpt>
      <trkpt lat="43.66117" lon="3.81324">
        <ele>124</ele>
        <time>2016-04-19T10:28:06Z</time>
      </trkpt>
      <trkpt lat="43.66121" lon="3.81322">
        <ele>124</ele>
        <time>2016-04-19T10:28:07Z</time>
      </trkpt>
      <trkpt lat="43.66124" lon="3.81319">
        <ele>124</ele>
        <time>2016-04-19T10:28:08Z</time>
      </trkpt>
      <trkpt lat="43.66127" lon="3.81315">
        <ele>124</ele>
        <time>2016-04-19T10:28:09Z</time>
      </trkpt>
      <trkpt lat="43.6613" lon="3.81314">
        <ele>124.5</ele>
        <time>2016-04-19T10:28:10Z</time>
      </trkpt>
      <trkpt lat="43.66135" lon="3.81314">
        <ele>124.5</ele>
        <time>2016-04-19T10:28:11Z</time>
      </trkpt>
      <trkpt lat="43.66139" lon="3.81313">
        <ele>124</ele>
        <time>2016-04-19T10:28:12Z</time>
      </trkpt>
      <trkpt lat="43.66142" lon="3.81311">
        <ele>124</ele>
        <time>2016-04-19T10:28:13Z</time>
      </trkpt>
      <trkpt lat="43.66146" lon="3.8131">
        <ele>124.5</ele>
        <time>2016-04-19T10:28:14Z</time>
      </trkpt>
      <trkpt lat="43.66149" lon="3.81309">
        <ele>124</ele>
        <time>2016-04-19T10:28:15Z</time>
      </trkpt>
      <trkpt lat="43.66152" lon="3.81307">
        <ele>124</ele>
        <time>2016-04-19T10:28:16Z</time>
      </trkpt>
      <trkpt lat="43.66155" lon="3.81305">
        <ele>124</ele>
        <time>2016-04-19T10:28:17Z</time>
      </trkpt>
      <trkpt lat="43.66158" lon="3.81302">
        <ele>124</ele>
        <time>2016-04-19T10:28:18Z</time>
      </trkpt>
      <trkpt lat="43.6616" lon="3.813">
        <ele>124.5</ele>
        <time>2016-04-19T10:28:19Z</time>
      </trkpt>
      <trkpt lat="43.66163" lon="3.81298">
        <ele>125</ele>
        <time>2016-04-19T10:28:20Z</time>
      </trkpt>
      <trkpt lat="43.66165" lon="3.81296">
        <ele>125</ele>
        <time>2016-04-19T10:28:21Z</time>
      </trkpt>
      <trkpt lat="43.66168" lon="3.81294">
        <ele>125</ele>
        <time>2016-04-19T10:28:22Z</time>
      </trkpt>
      <trkpt lat="43.66171" lon="3.81292">
        <ele>125.5</ele>
        <time>2016-04-19T10:28:23Z</time>
      </trkpt>
      <trkpt lat="43.66174" lon="3.81291">
        <ele>125.5</ele>
        <time>2016-04-19T10:28:24Z</time>
      </trkpt>
      <trkpt lat="43.66178" lon="3.8129">
        <ele>125.5</ele>
        <time>2016-04-19T10:28:25Z</time>
      </trkpt>
      <trkpt lat="43.66181" lon="3.81289">
        <ele>125.5</ele>
        <time>2016-04-19T10:28:26Z</time>
      </trkpt>
      <trkpt lat="43.66183" lon="3.81285">
        <ele>126</ele>
        <time>2016-04-19T10:28:27Z</time>
      </trkpt>
      <trkpt lat="43.66185" lon="3.81283">
        <ele>126</ele>
        <time>2016-04-19T10:28:28Z</time>
      </trkpt>
      <trkpt lat="43.66187" lon="3.8128">
        <ele>126</ele>
        <time>2016-04-19T10:28:29Z</time>
      </trkpt>
      <trkpt lat="43.6619" lon="3.81278">
        <ele>126</ele>
        <time>2016-04-19T10:28:30Z</time>
      </trkpt>
      <trkpt lat="43.66193" lon="3.81276">
        <ele>126</ele>
        <time>2016-04-19T10:28:31Z</time>
      </trkpt>
      <trkpt lat="43.66196" lon="3.81274">
        <ele>126</ele>
        <time>2016-04-19T10:28:32Z</time>
      </trkpt>
      <trkpt lat="43.66198" lon="3.81273">
        <ele>126</ele>
        <time>2016-04-19T10:28:33Z</time>
      </trkpt>
      <trkpt lat="43.66202" lon="3.81273">
        <ele>126</ele>
        <time>2016-04-19T10:28:34Z</time>
      </trkpt>
      <trkpt lat="43.66204" lon="3.81271">
        <ele>126</ele>
        <time>2016-04-19T10:28:35Z</time>
      </trkpt>
      <trkpt lat="43.66206" lon="3.81269">
        <ele>126</ele>
        <time>2016-04-19T10:28:36Z</time>
      </trkpt>
      <trkpt lat="43.66208" lon="3.81267">
        <ele>126</ele>
        <time>2016-04-19T10:28:37Z</time>
      </trkpt>
      <trkpt lat="43.66211" lon="3.81267">
        <ele>126</ele>
        <time>2016-04-19T10:28:38Z</time>
      </trkpt>
      <trkpt lat="43.66213" lon="3.81266">
        <ele>126</ele>
        <time>2016-04-19T10:28:38Z</time>
      </trkpt>
      <trkpt lat="43.66216" lon="3.81266">
        <ele>126</ele>
        <time>2016-04-19T10:28:39Z</time>
      </trkpt>
      <trkpt lat="43.66219" lon="3.81266">
        <ele>126.5</ele>
        <time>2016-04-19T10:28:40Z</time>
      </trkpt>
      <trkpt lat="43.66221" lon="3.81265">
        <ele>126.5</ele>
        <time>2016-04-19T10:28:41Z</time>
      </trkpt>
      <trkpt lat="43.66223" lon="3.81264">
        <ele>126.5</ele>
        <time>2016-04-19T10:28:42Z</time>
      </trkpt>
      <trkpt lat="43.66232" lon="3.8127">
        <ele>126.5</ele>
        <time>2016-04-19T10:28:44Z</time>
      </trkpt>
      <trkpt lat="43.66233" lon="3.81267">
        <ele>126.5</ele>
        <time>2016-04-19T10:28:45Z</time>
      </trkpt>
      <trkpt lat="43.66236" lon="3.81267">
        <ele>126.5</ele>
        <time>2016-04-19T10:28:46Z</time>
      </trkpt>
      <trkpt lat="43.66239" lon="3.81269">
        <ele>126.5</ele>
        <time>2016-04-19T10:28:47Z</time>
      </trkpt>
      <trkpt lat="43.66242" lon="3.8127">
        <ele>126.5</ele>
        <time>2016-04-19T10:28:48Z</time>
      </trkpt>
      <trkpt lat="43.66246" lon="3.81272">
        <ele>126.5</ele>
        <time>2016-04-19T10:28:49Z</time>
      </trkpt>
      <trkpt lat="43.66248" lon="3.81271">
        <ele>126.5</ele>
        <time>2016-04-19T10:28:50Z</time>
      </trkpt>
      <trkpt lat="43.66251" lon="3.81271">
        <ele>126.5</ele>
        <time>2016-04-19T10:28:51Z</time>
      </trkpt>
      <trkpt lat="43.66254" lon="3.81271">
        <ele>126.5</ele>
        <time>2016-04-19T10:28:52Z</time>
      </trkpt>
      <trkpt lat="43.66257" lon="3.81271">
        <ele>126.5</ele>
        <time>2016-04-19T10:28:53Z</time>
      </trkpt>
      <trkpt lat="43.66259" lon="3.8127">
        <ele>127</ele>
        <time>2016-04-19T10:28:54Z</time>
      </trkpt>
      <trkpt lat="43.66261" lon="3.81269">
        <ele>127</ele>
        <time>2016-04-19T10:28:55Z</time>
      </trkpt>
      <trkpt lat="43.66264" lon="3.81268">
        <ele>127</ele>
        <time>2016-04-19T10:28:56Z</time>
      </trkpt>
      <trkpt lat="43.66266" lon="3.81267">
        <ele>127</ele>
        <time>2016-04-19T10:28:57Z</time>
      </trkpt>
      <trkpt lat="43.66268" lon="3.81266">
        <ele>128</ele>
        <time>2016-04-19T10:28:58Z</time>
      </trkpt>
      <trkpt lat="43.66269" lon="3.81258">
        <ele>128</ele>
        <time>2016-04-19T10:29:00Z</time>
      </trkpt>
      <trkpt lat="43.66271" lon="3.81256">
        <ele>128</ele>
        <time>2016-04-19T10:29:01Z</time>
      </trkpt>
      <trkpt lat="43.66273" lon="3.81254">
        <ele>128.5</ele>
        <time>2016-04-19T10:29:02Z</time>
      </trkpt>
      <trkpt lat="43.66275" lon="3.81252">
        <ele>128.5</ele>
        <time>2016-04-19T10:29:03Z</time>
      </trkpt>
      <trkpt lat="43.66278" lon="3.81251">
        <ele>128.5</ele>
        <time>2016-04-19T10:29:04Z</time>
      </trkpt>
      <trkpt lat="43.6628" lon="3.8125">
        <ele>128.5</ele>
        <time>2016-04-19T10:29:05Z</time>
      </trkpt>
      <trkpt lat="43.66281" lon="3.81247">
        <ele>129</ele>
        <time>2016-04-19T10:29:06Z</time>
      </trkpt>
      <trkpt lat="43.66283" lon="3.81246">
        <ele>129.5</ele>
        <time>2016-04-19T10:29:07Z</time>
      </trkpt>
      <trkpt lat="43.66286" lon="3.81245">
        <ele>129.5</ele>
        <time>2016-04-19T10:29:08Z</time>
      </trkpt>
      <trkpt lat="43.66286" lon="3.8124">
        <ele>129.5</ele>
        <time>2016-04-19T10:29:09Z</time>
      </trkpt>
      <trkpt lat="43.66288" lon="3.81238">
        <ele>129.5</ele>
        <time>2016-04-19T10:29:10Z</time>
      </trkpt>
      <trkpt lat="43.6629" lon="3.81237">
        <ele>129.5</ele>
        <time>2016-04-19T10:29:11Z</time>
      </trkpt>
      <trkpt lat="43.66292" lon="3.81236">
        <ele>129.5</ele>
        <time>2016-04-19T10:29:12Z</time>
      </trkpt>
      <trkpt lat="43.66293" lon="3.81235">
        <ele>130</ele>
        <time>2016-04-19T10:29:13Z</time>
      </trkpt>
      <trkpt lat="43.66296" lon="3.81235">
        <ele>130</ele>
        <time>2016-04-19T10:29:14Z</time>
      </trkpt>
      <trkpt lat="43.66299" lon="3.81237">
        <ele>130</ele>
        <time>2016-04-19T10:29:15Z</time>
      </trkpt>
      <trkpt lat="43.66302" lon="3.81237">
        <ele>130</ele>
        <time>2016-04-19T10:29:16Z</time>
      </trkpt>
      <trkpt lat="43.66305" lon="3.81239">
        <ele>130</ele>
        <time>2016-04-19T10:29:17Z</time>
      </trkpt>
      <trkpt lat="43.66307" lon="3.81239">
        <ele>130.5</ele>
        <time>2016-04-19T10:29:18Z</time>
      </trkpt>
      <trkpt lat="43.6631" lon="3.81239">
        <ele>130.5</ele>
        <time>2016-04-19T10:29:19Z</time>
      </trkpt>
      <trkpt lat="43.66312" lon="3.8124">
        <ele>130.5</ele>
        <time>2016-04-19T10:29:20Z</time>
      </trkpt>
      <trkpt lat="43.66315" lon="3.81241">
        <ele>131</ele>
        <time>2016-04-19T10:29:21Z</time>
      </trkpt>
      <trkpt lat="43.66316" lon="3.8124">
        <ele>131.5</ele>
        <time>2016-04-19T10:29:22Z</time>
      </trkpt>
      <trkpt lat="43.66319" lon="3.81241">
        <ele>131.5</ele>
        <time>2016-04-19T10:29:23Z</time>
      </trkpt>
      <trkpt lat="43.66321" lon="3.81243">
        <ele>131.5</ele>
        <time>2016-04-19T10:29:24Z</time>
      </trkpt>
      <trkpt lat="43.66324" lon="3.81243">
        <ele>131.5</ele>
        <time>2016-04-19T10:29:25Z</time>
      </trkpt>
      <trkpt lat="43.66326" lon="3.81244">
        <ele>131.5</ele>
        <time>2016-04-19T10:29:26Z</time>
      </trkpt>
      <trkpt lat="43.66329" lon="3.81244">
        <ele>131.5</ele>
        <time>2016-04-19T10:29:27Z</time>
      </trkpt>
      <trkpt lat="43.66331" lon="3.81244">
        <ele>131.5</ele>
        <time>2016-04-19T10:29:28Z</time>
      </trkpt>
      <trkpt lat="43.66333" lon="3.81243">
        <ele>131.5</ele>
        <time>2016-04-19T10:29:29Z</time>
      </trkpt>
      <trkpt lat="43.66335" lon="3.81243">
        <ele>131.5</ele>
        <time>2016-04-19T10:29:30Z</time>
      </trkpt>
      <trkpt lat="43.66336" lon="3.81243">
        <ele>131</ele>
        <time>2016-04-19T10:29:31Z</time>
      </trkpt>
      <trkpt lat="43.66338" lon="3.81242">
        <ele>131</ele>
        <time>2016-04-19T10:29:32Z</time>
      </trkpt>
      <trkpt lat="43.6634" lon="3.81241">
        <ele>131</ele>
        <time>2016-04-19T10:29:33Z</time>
      </trkpt>
      <trkpt lat="43.66342" lon="3.81241">
        <ele>131</ele>
        <time>2016-04-19T10:29:34Z</time>
      </trkpt>
      <trkpt lat="43.66344" lon="3.81241">
        <ele>131</ele>
        <time>2016-04-19T10:29:35Z</time>
      </trkpt>
      <trkpt lat="43.66346" lon="3.8124">
        <ele>131</ele>
        <time>2016-04-19T10:29:36Z</time>
      </trkpt>
      <trkpt lat="43.66348" lon="3.8124">
        <ele>131</ele>
        <time>2016-04-19T10:29:37Z</time>
      </trkpt>
      <trkpt lat="43.6635" lon="3.81241">
        <ele>131</ele>
        <time>2016-04-19T10:29:38Z</time>
      </trkpt>
      <trkpt lat="43.66352" lon="3.81242">
        <ele>131</ele>
        <time>2016-04-19T10:29:39Z</time>
      </trkpt>
      <trkpt lat="43.66355" lon="3.81243">
        <ele>130</ele>
        <time>2016-04-19T10:29:40Z</time>
      </trkpt>
      <trkpt lat="43.66357" lon="3.81244">
        <ele>130</ele>
        <time>2016-04-19T10:29:41Z</time>
      </trkpt>
      <trkpt lat="43.66359" lon="3.81245">
        <ele>130</ele>
        <time>2016-04-19T10:29:42Z</time>
      </trkpt>
      <trkpt lat="43.66361" lon="3.81247">
        <ele>129.5</ele>
        <time>2016-04-19T10:29:43Z</time>
      </trkpt>
      <trkpt lat="43.66363" lon="3.81248">
        <ele>130</ele>
        <time>2016-04-19T10:29:44Z</time>
      </trkpt>
      <trkpt lat="43.66366" lon="3.8125">
        <ele>130</ele>
        <time>2016-04-19T10:29:45Z</time>
      </trkpt>
      <trkpt lat="43.66368" lon="3.81251">
        <ele>130</ele>
        <time>2016-04-19T10:29:46Z</time>
      </trkpt>
      <trkpt lat="43.6637" lon="3.81251">
        <ele>130.5</ele>
        <time>2016-04-19T10:29:47Z</time>
      </trkpt>
      <trkpt lat="43.66372" lon="3.81251">
        <ele>130.5</ele>
        <time>2016-04-19T10:29:48Z</time>
      </trkpt>
      <trkpt lat="43.66374" lon="3.81253">
        <ele>131</ele>
        <time>2016-04-19T10:29:49Z</time>
      </trkpt>
      <trkpt lat="43.66376" lon="3.81253">
        <ele>131</ele>
        <time>2016-04-19T10:29:50Z</time>
      </trkpt>
      <trkpt lat="43.66378" lon="3.81253">
        <ele>129</ele>
        <time>2016-04-19T10:29:51Z</time>
      </trkpt>
      <trkpt lat="43.6638" lon="3.81254">
        <ele>129</ele>
        <time>2016-04-19T10:29:52Z</time>
      </trkpt>
      <trkpt lat="43.66382" lon="3.81254">
        <ele>129.5</ele>
        <time>2016-04-19T10:29:53Z</time>
      </trkpt>
      <trkpt lat="43.66385" lon="3.81255">
        <ele>129.5</ele>
        <time>2016-04-19T10:29:54Z</time>
      </trkpt>
      <trkpt lat="43.66387" lon="3.81255">
        <ele>129.5</ele>
        <time>2016-04-19T10:29:55Z</time>
      </trkpt>
      <trkpt lat="43.66389" lon="3.81255">
        <ele>130.5</ele>
        <time>2016-04-19T10:29:56Z</time>
      </trkpt>
      <trkpt lat="43.6639" lon="3.81256">
        <ele>131</ele>
        <time>2016-04-19T10:29:57Z</time>
      </trkpt>
      <trkpt lat="43.66392" lon="3.81255">
        <ele>131.5</ele>
        <time>2016-04-19T10:29:58Z</time>
      </trkpt>
      <trkpt lat="43.66395" lon="3.81256">
        <ele>131.5</ele>
        <time>2016-04-19T10:29:59Z</time>
      </trkpt>
      <trkpt lat="43.66397" lon="3.81256">
        <ele>131.5</ele>
        <time>2016-04-19T10:30:00Z</time>
      </trkpt>
      <trkpt lat="43.664" lon="3.81257">
        <ele>131.5</ele>
        <time>2016-04-19T10:30:01Z</time>
      </trkpt>
      <trkpt lat="43.66403" lon="3.81257">
        <ele>132</ele>
        <time>2016-04-19T10:30:02Z</time>
      </trkpt>
      <trkpt lat="43.66405" lon="3.81257">
        <ele>133</ele>
        <time>2016-04-19T10:30:03Z</time>
      </trkpt>
      <trkpt lat="43.66407" lon="3.81256">
        <ele>133.5</ele>
        <time>2016-04-19T10:30:04Z</time>
      </trkpt>
      <trkpt lat="43.66409" lon="3.81256">
        <ele>133.5</ele>
        <time>2016-04-19T10:30:05Z</time>
      </trkpt>
      <trkpt lat="43.66412" lon="3.81256">
        <ele>133.5</ele>
        <time>2016-04-19T10:30:07Z</time>
      </trkpt>
      <trkpt lat="43.66414" lon="3.81256">
        <ele>134</ele>
        <time>2016-04-19T10:30:08Z</time>
      </trkpt>
      <trkpt lat="43.66416" lon="3.81256">
        <ele>135</ele>
        <time>2016-04-19T10:30:09Z</time>
      </trkpt>
      <trkpt lat="43.66418" lon="3.81255">
        <ele>135</ele>
        <time>2016-04-19T10:30:10Z</time>
      </trkpt>
      <trkpt lat="43.6642" lon="3.81255">
        <ele>135</ele>
        <time>2016-04-19T10:30:11Z</time>
      </trkpt>
      <trkpt lat="43.66422" lon="3.81255">
        <ele>135</ele>
        <time>2016-04-19T10:30:12Z</time>
      </trkpt>
      <trkpt lat="43.66425" lon="3.81255">
        <ele>135</ele>
        <time>2016-04-19T10:30:13Z</time>
      </trkpt>
      <trkpt lat="43.66427" lon="3.81255">
        <ele>135</ele>
        <time>2016-04-19T10:30:14Z</time>
      </trkpt>
      <trkpt lat="43.66429" lon="3.81256">
        <ele>135</ele>
        <time>2016-04-19T10:30:15Z</time>
      </trkpt>
      <trkpt lat="43.66431" lon="3.81255">
        <ele>135</ele>
        <time>2016-04-19T10:30:16Z</time>
      </trkpt>
      <trkpt lat="43.66433" lon="3.81254">
        <ele>135</ele>
        <time>2016-04-19T10:30:17Z</time>
      </trkpt>
      <trkpt lat="43.66435" lon="3.81254">
        <ele>135</ele>
        <time>2016-04-19T10:30:18Z</time>
      </trkpt>
      <trkpt lat="43.66438" lon="3.81254">
        <ele>135</ele>
        <time>2016-04-19T10:30:19Z</time>
      </trkpt>
      <trkpt lat="43.6644" lon="3.81254">
        <ele>135</ele>
        <time>2016-04-19T10:30:20Z</time>
      </trkpt>
      <trkpt lat="43.66442" lon="3.81253">
        <ele>135.5</ele>
        <time>2016-04-19T10:30:21Z</time>
      </trkpt>
      <trkpt lat="43.66444" lon="3.81251">
        <ele>135</ele>
        <time>2016-04-19T10:30:22Z</time>
      </trkpt>
      <trkpt lat="43.66446" lon="3.8125">
        <ele>135</ele>
        <time>2016-04-19T10:30:23Z</time>
      </trkpt>
      <trkpt lat="43.66448" lon="3.81249">
        <ele>135</ele>
        <time>2016-04-19T10:30:24Z</time>
      </trkpt>
      <trkpt lat="43.6645" lon="3.81248">
        <ele>135</ele>
        <time>2016-04-19T10:30:25Z</time>
      </trkpt>
      <trkpt lat="43.66452" lon="3.81248">
        <ele>135.5</ele>
        <time>2016-04-19T10:30:26Z</time>
      </trkpt>
      <trkpt lat="43.66454" lon="3.81248">
        <ele>135.5</ele>
        <time>2016-04-19T10:30:27Z</time>
      </trkpt>
      <trkpt lat="43.66456" lon="3.81247">
        <ele>135.5</ele>
        <time>2016-04-19T10:30:28Z</time>
      </trkpt>
      <trkpt lat="43.66458" lon="3.81246">
        <ele>135.5</ele>
        <time>2016-04-19T10:30:29Z</time>
      </trkpt>
      <trkpt lat="43.6646" lon="3.81245">
        <ele>136</ele>
        <time>2016-04-19T10:30:30Z</time>
      </trkpt>
      <trkpt lat="43.66462" lon="3.81245">
        <ele>137.5</ele>
        <time>2016-04-19T10:30:31Z</time>
      </trkpt>
      <trkpt lat="43.66463" lon="3.81244">
        <ele>138</ele>
        <time>2016-04-19T10:30:32Z</time>
      </trkpt>
      <trkpt lat="43.66465" lon="3.81244">
        <ele>138.5</ele>
        <time>2016-04-19T10:30:33Z</time>
      </trkpt>
      <trkpt lat="43.66467" lon="3.81244">
        <ele>138.5</ele>
        <time>2016-04-19T10:30:34Z</time>
      </trkpt>
      <trkpt lat="43.66469" lon="3.81244">
        <ele>139</ele>
        <time>2016-04-19T10:30:35Z</time>
      </trkpt>
      <trkpt lat="43.66471" lon="3.81244">
        <ele>139</ele>
        <time>2016-04-19T10:30:36Z</time>
      </trkpt>
      <trkpt lat="43.66473" lon="3.81244">
        <ele>140</ele>
        <time>2016-04-19T10:30:37Z</time>
      </trkpt>
      <trkpt lat="43.66475" lon="3.81244">
        <ele>140</ele>
        <time>2016-04-19T10:30:38Z</time>
      </trkpt>
      <trkpt lat="43.66477" lon="3.81244">
        <ele>140</ele>
        <time>2016-04-19T10:30:39Z</time>
      </trkpt>
      <trkpt lat="43.66479" lon="3.81244">
        <ele>140.5</ele>
        <time>2016-04-19T10:30:40Z</time>
      </trkpt>
      <trkpt lat="43.66481" lon="3.81244">
        <ele>141.5</ele>
        <time>2016-04-19T10:30:41Z</time>
      </trkpt>
      <trkpt lat="43.66483" lon="3.81243">
        <ele>141.5</ele>
        <time>2016-04-19T10:30:42Z</time>
      </trkpt>
      <trkpt lat="43.66486" lon="3.81243">
        <ele>141.5</ele>
        <time>2016-04-19T10:30:43Z</time>
      </trkpt>
      <trkpt lat="43.66488" lon="3.81243">
        <ele>141.5</ele>
        <time>2016-04-19T10:30:44Z</time>
      </trkpt>
      <trkpt lat="43.6649" lon="3.81243">
        <ele>142</ele>
        <time>2016-04-19T10:30:45Z</time>
      </trkpt>
      <trkpt lat="43.66493" lon="3.81243">
        <ele>142</ele>
        <time>2016-04-19T10:30:46Z</time>
      </trkpt>
      <trkpt lat="43.66495" lon="3.81243">
        <ele>142</ele>
        <time>2016-04-19T10:30:47Z</time>
      </trkpt>
      <trkpt lat="43.66497" lon="3.81244">
        <ele>142</ele>
        <time>2016-04-19T10:30:48Z</time>
      </trkpt>
      <trkpt lat="43.66499" lon="3.81243">
        <ele>142.5</ele>
        <time>2016-04-19T10:30:49Z</time>
      </trkpt>
      <trkpt lat="43.66501" lon="3.81244">
        <ele>142.5</ele>
        <time>2016-04-19T10:30:50Z</time>
      </trkpt>
      <trkpt lat="43.66503" lon="3.81244">
        <ele>142.5</ele>
        <time>2016-04-19T10:30:51Z</time>
      </trkpt>
      <trkpt lat="43.66506" lon="3.81245">
        <ele>142.5</ele>
        <time>2016-04-19T10:30:52Z</time>
      </trkpt>
      <trkpt lat="43.66508" lon="3.81244">
        <ele>142.5</ele>
        <time>2016-04-19T10:30:53Z</time>
      </trkpt>
      <trkpt lat="43.6651" lon="3.81244">
        <ele>143</ele>
        <time>2016-04-19T10:30:54Z</time>
      </trkpt>
      <trkpt lat="43.66512" lon="3.81244">
        <ele>143</ele>
        <time>2016-04-19T10:30:55Z</time>
      </trkpt>
      <trkpt lat="43.66514" lon="3.81244">
        <ele>143</ele>
        <time>2016-04-19T10:30:56Z</time>
      </trkpt>
      <trkpt lat="43.66517" lon="3.81245">
        <ele>143</ele>
        <time>2016-04-19T10:30:57Z</time>
      </trkpt>
      <trkpt lat="43.66519" lon="3.81244">
        <ele>143</ele>
        <time>2016-04-19T10:30:58Z</time>
      </trkpt>
      <trkpt lat="43.66521" lon="3.81245">
        <ele>143</ele>
        <time>2016-04-19T10:30:59Z</time>
      </trkpt>
      <trkpt lat="43.66524" lon="3.81247">
        <ele>143</ele>
        <time>2016-04-19T10:31:00Z</time>
      </trkpt>
      <trkpt lat="43.66526" lon="3.81247">
        <ele>143</ele>
        <time>2016-04-19T10:31:01Z</time>
      </trkpt>
      <trkpt lat="43.66529" lon="3.81248">
        <ele>143</ele>
        <time>2016-04-19T10:31:02Z</time>
      </trkpt>
      <trkpt lat="43.66531" lon="3.81249">
        <ele>143</ele>
        <time>2016-04-19T10:31:03Z</time>
      </trkpt>
      <trkpt lat="43.66533" lon="3.81249">
        <ele>143</ele>
        <time>2016-04-19T10:31:04Z</time>
      </trkpt>
      <trkpt lat="43.66535" lon="3.81249">
        <ele>143.5</ele>
        <time>2016-04-19T10:31:05Z</time>
      </trkpt>
      <trkpt lat="43.66535" lon="3.81246">
        <ele>144</ele>
        <time>2016-04-19T10:31:06Z</time>
      </trkpt>
      <trkpt lat="43.66537" lon="3.81246">
        <ele>143.5</ele>
        <time>2016-04-19T10:31:07Z</time>
      </trkpt>
      <trkpt lat="43.66539" lon="3.81247">
        <ele>143.5</ele>
        <time>2016-04-19T10:31:07Z</time>
      </trkpt>
      <trkpt lat="43.66541" lon="3.81246">
        <ele>143.5</ele>
        <time>2016-04-19T10:31:09Z</time>
      </trkpt>
      <trkpt lat="43.66543" lon="3.81244">
        <ele>143.5</ele>
        <time>2016-04-19T10:31:09Z</time>
      </trkpt>
      <trkpt lat="43.66545" lon="3.81243">
        <ele>143.5</ele>
        <time>2016-04-19T10:31:10Z</time>
      </trkpt>
      <trkpt lat="43.66546" lon="3.81241">
        <ele>143.5</ele>
        <time>2016-04-19T10:31:11Z</time>
      </trkpt>
      <trkpt lat="43.66548" lon="3.81241">
        <ele>144</ele>
        <time>2016-04-19T10:31:12Z</time>
      </trkpt>
      <trkpt lat="43.6655" lon="3.8124">
        <ele>144</ele>
        <time>2016-04-19T10:31:13Z</time>
      </trkpt>
      <trkpt lat="43.66552" lon="3.81239">
        <ele>144</ele>
        <time>2016-04-19T10:31:14Z</time>
      </trkpt>
      <trkpt lat="43.66553" lon="3.81237">
        <ele>144</ele>
        <time>2016-04-19T10:31:15Z</time>
      </trkpt>
      <trkpt lat="43.66556" lon="3.81236">
        <ele>144.5</ele>
        <time>2016-04-19T10:31:16Z</time>
      </trkpt>
      <trkpt lat="43.66558" lon="3.81237">
        <ele>144.5</ele>
        <time>2016-04-19T10:31:17Z</time>
      </trkpt>
      <trkpt lat="43.66561" lon="3.81238">
        <ele>144.5</ele>
        <time>2016-04-19T10:31:18Z</time>
      </trkpt>
      <trkpt lat="43.66563" lon="3.81238">
        <ele>145</ele>
        <time>2016-04-19T10:31:19Z</time>
      </trkpt>
      <trkpt lat="43.66565" lon="3.81238">
        <ele>145</ele>
        <time>2016-04-19T10:31:20Z</time>
      </trkpt>
      <trkpt lat="43.66567" lon="3.81239">
        <ele>145.5</ele>
        <time>2016-04-19T10:31:21Z</time>
      </trkpt>
      <trkpt lat="43.66574" lon="3.81245">
        <ele>145.5</ele>
        <time>2016-04-19T10:31:23Z</time>
      </trkpt>
      <trkpt lat="43.66576" lon="3.81247">
        <ele>147.5</ele>
        <time>2016-04-19T10:31:24Z</time>
      </trkpt>
      <trkpt lat="43.66579" lon="3.81247">
        <ele>147.5</ele>
        <time>2016-04-19T10:31:25Z</time>
      </trkpt>
      <trkpt lat="43.66581" lon="3.81248">
        <ele>147.5</ele>
        <time>2016-04-19T10:31:26Z</time>
      </trkpt>
      <trkpt lat="43.66583" lon="3.81247">
        <ele>147.5</ele>
        <time>2016-04-19T10:31:27Z</time>
      </trkpt>
      <trkpt lat="43.66585" lon="3.81247">
        <ele>147.5</ele>
        <time>2016-04-19T10:31:28Z</time>
      </trkpt>
      <trkpt lat="43.66587" lon="3.81247">
        <ele>147.5</ele>
        <time>2016-04-19T10:31:29Z</time>
      </trkpt>
      <trkpt lat="43.66589" lon="3.81248">
        <ele>148</ele>
        <time>2016-04-19T10:31:30Z</time>
      </trkpt>
      <trkpt lat="43.66591" lon="3.81248">
        <ele>148</ele>
        <time>2016-04-19T10:31:31Z</time>
      </trkpt>
      <trkpt lat="43.66593" lon="3.81248">
        <ele>148</ele>
        <time>2016-04-19T10:31:32Z</time>
      </trkpt>
      <trkpt lat="43.66595" lon="3.81248">
        <ele>148</ele>
        <time>2016-04-19T10:31:33Z</time>
      </trkpt>
      <trkpt lat="43.66597" lon="3.81248">
        <ele>148.5</ele>
        <time>2016-04-19T10:31:34Z</time>
      </trkpt>
      <trkpt lat="43.66599" lon="3.81247">
        <ele>149</ele>
        <time>2016-04-19T10:31:35Z</time>
      </trkpt>
      <trkpt lat="43.666" lon="3.81247">
        <ele>149.5</ele>
        <time>2016-04-19T10:31:36Z</time>
      </trkpt>
      <trkpt lat="43.66602" lon="3.81246">
        <ele>150.5</ele>
        <time>2016-04-19T10:31:37Z</time>
      </trkpt>
      <trkpt lat="43.66602" lon="3.81244">
        <ele>152</ele>
        <time>2016-04-19T10:31:38Z</time>
      </trkpt>
      <trkpt lat="43.66604" lon="3.81243">
        <ele>152.5</ele>
        <time>2016-04-19T10:31:39Z</time>
      </trkpt>
      <trkpt lat="43.66605" lon="3.81242">
        <ele>153</ele>
        <time>2016-04-19T10:31:40Z</time>
      </trkpt>
      <trkpt lat="43.66607" lon="3.81241">
        <ele>153.5</ele>
        <time>2016-04-19T10:31:41Z</time>
      </trkpt>
      <trkpt lat="43.66608" lon="3.8124">
        <ele>154</ele>
        <time>2016-04-19T10:31:42Z</time>
      </trkpt>
      <trkpt lat="43.6661" lon="3.8124">
        <ele>154.5</ele>
        <time>2016-04-19T10:31:43Z</time>
      </trkpt>
      <trkpt lat="43.66612" lon="3.8124">
        <ele>154.5</ele>
        <time>2016-04-19T10:31:44Z</time>
      </trkpt>
      <trkpt lat="43.66614" lon="3.8124">
        <ele>155</ele>
        <time>2016-04-19T10:31:45Z</time>
      </trkpt>
      <trkpt lat="43.66616" lon="3.81239">
        <ele>155.5</ele>
        <time>2016-04-19T10:31:46Z</time>
      </trkpt>
      <trkpt lat="43.66618" lon="3.81238">
        <ele>155.5</ele>
        <time>2016-04-19T10:31:47Z</time>
      </trkpt>
      <trkpt lat="43.66621" lon="3.81238">
        <ele>156</ele>
        <time>2016-04-19T10:31:48Z</time>
      </trkpt>
      <trkpt lat="43.66622" lon="3.81237">
        <ele>156</ele>
        <time>2016-04-19T10:31:49Z</time>
      </trkpt>
      <trkpt lat="43.66623" lon="3.81235">
        <ele>156.5</ele>
        <time>2016-04-19T10:31:50Z</time>
      </trkpt>
      <trkpt lat="43.66625" lon="3.81232">
        <ele>157.5</ele>
        <time>2016-04-19T10:31:51Z</time>
      </trkpt>
      <trkpt lat="43.66628" lon="3.81233">
        <ele>158</ele>
        <time>2016-04-19T10:31:52Z</time>
      </trkpt>
      <trkpt lat="43.6663" lon="3.81231">
        <ele>158.5</ele>
        <time>2016-04-19T10:31:53Z</time>
      </trkpt>
      <trkpt lat="43.66632" lon="3.8123">
        <ele>159</ele>
        <time>2016-04-19T10:31:54Z</time>
      </trkpt>
      <trkpt lat="43.66633" lon="3.81227">
        <ele>159.5</ele>
        <time>2016-04-19T10:31:55Z</time>
      </trkpt>
      <trkpt lat="43.66633" lon="3.81224">
        <ele>159.5</ele>
        <time>2016-04-19T10:31:56Z</time>
      </trkpt>
      <trkpt lat="43.66634" lon="3.81222">
        <ele>160</ele>
        <time>2016-04-19T10:31:57Z</time>
      </trkpt>
      <trkpt lat="43.66633" lon="3.8122">
        <ele>160</ele>
        <time>2016-04-19T10:31:58Z</time>
      </trkpt>
      <trkpt lat="43.66635" lon="3.81217">
        <ele>160.5</ele>
        <time>2016-04-19T10:32:00Z</time>
      </trkpt>
      <trkpt lat="43.66637" lon="3.81219">
        <ele>161</ele>
        <time>2016-04-19T10:32:01Z</time>
      </trkpt>
      <trkpt lat="43.66639" lon="3.8122">
        <ele>161.5</ele>
        <time>2016-04-19T10:32:02Z</time>
      </trkpt>
      <trkpt lat="43.66641" lon="3.81222">
        <ele>162</ele>
        <time>2016-04-19T10:32:03Z</time>
      </trkpt>
      <trkpt lat="43.66642" lon="3.81221">
        <ele>161.5</ele>
        <time>2016-04-19T10:32:04Z</time>
      </trkpt>
      <trkpt lat="43.66644" lon="3.81222">
        <ele>161.5</ele>
        <time>2016-04-19T10:32:05Z</time>
      </trkpt>
      <trkpt lat="43.66646" lon="3.81219">
        <ele>161.5</ele>
        <time>2016-04-19T10:32:06Z</time>
      </trkpt>
      <trkpt lat="43.66648" lon="3.81216">
        <ele>161.5</ele>
        <time>2016-04-19T10:32:07Z</time>
      </trkpt>
      <trkpt lat="43.66649" lon="3.81213">
        <ele>161.5</ele>
        <time>2016-04-19T10:32:08Z</time>
      </trkpt>
      <trkpt lat="43.66651" lon="3.8121">
        <ele>161.5</ele>
        <time>2016-04-19T10:32:09Z</time>
      </trkpt>
      <trkpt lat="43.66653" lon="3.81207">
        <ele>162</ele>
        <time>2016-04-19T10:32:10Z</time>
      </trkpt>
      <trkpt lat="43.66654" lon="3.81206">
        <ele>161</ele>
        <time>2016-04-19T10:32:12Z</time>
      </trkpt>
      <trkpt lat="43.66656" lon="3.81203">
        <ele>161.5</ele>
        <time>2016-04-19T10:32:13Z</time>
      </trkpt>
      <trkpt lat="43.66656" lon="3.812">
        <ele>163.5</ele>
        <time>2016-04-19T10:32:14Z</time>
      </trkpt>
      <trkpt lat="43.66656" lon="3.81198">
        <ele>165</ele>
        <time>2016-04-19T10:32:15Z</time>
      </trkpt>
      <trkpt lat="43.66658" lon="3.81195">
        <ele>165</ele>
        <time>2016-04-19T10:32:16Z</time>
      </trkpt>
      <trkpt lat="43.66659" lon="3.81192">
        <ele>165.5</ele>
        <time>2016-04-19T10:32:17Z</time>
      </trkpt>
      <trkpt lat="43.66661" lon="3.81189">
        <ele>164.5</ele>
        <time>2016-04-19T10:32:18Z</time>
      </trkpt>
      <trkpt lat="43.66663" lon="3.81187">
        <ele>165</ele>
        <time>2016-04-19T10:32:19Z</time>
      </trkpt>
      <trkpt lat="43.66664" lon="3.81185">
        <ele>165</ele>
        <time>2016-04-19T10:32:20Z</time>
      </trkpt>
      <trkpt lat="43.66665" lon="3.81182">
        <ele>165.5</ele>
        <time>2016-04-19T10:32:21Z</time>
      </trkpt>
      <trkpt lat="43.66667" lon="3.81179">
        <ele>165</ele>
        <time>2016-04-19T10:32:22Z</time>
      </trkpt>
      <trkpt lat="43.66668" lon="3.81175">
        <ele>164</ele>
        <time>2016-04-19T10:32:23Z</time>
      </trkpt>
      <trkpt lat="43.66669" lon="3.81172">
        <ele>164</ele>
        <time>2016-04-19T10:32:24Z</time>
      </trkpt>
      <trkpt lat="43.6667" lon="3.81169">
        <ele>163.5</ele>
        <time>2016-04-19T10:32:25Z</time>
      </trkpt>
      <trkpt lat="43.66671" lon="3.81166">
        <ele>164</ele>
        <time>2016-04-19T10:32:26Z</time>
      </trkpt>
      <trkpt lat="43.66673" lon="3.81164">
        <ele>164</ele>
        <time>2016-04-19T10:32:27Z</time>
      </trkpt>
      <trkpt lat="43.66674" lon="3.81161">
        <ele>165.5</ele>
        <time>2016-04-19T10:32:28Z</time>
      </trkpt>
      <trkpt lat="43.66676" lon="3.8116">
        <ele>164.5</ele>
        <time>2016-04-19T10:32:29Z</time>
      </trkpt>
      <trkpt lat="43.66677" lon="3.81156">
        <ele>164.5</ele>
        <time>2016-04-19T10:32:30Z</time>
      </trkpt>
      <trkpt lat="43.66679" lon="3.81153">
        <ele>164.5</ele>
        <time>2016-04-19T10:32:31Z</time>
      </trkpt>
      <trkpt lat="43.66679" lon="3.81149">
        <ele>166.5</ele>
        <time>2016-04-19T10:32:32Z</time>
      </trkpt>
      <trkpt lat="43.66679" lon="3.81146">
        <ele>166.5</ele>
        <time>2016-04-19T10:32:33Z</time>
      </trkpt>
      <trkpt lat="43.66678" lon="3.81142">
        <ele>168.5</ele>
        <time>2016-04-19T10:32:34Z</time>
      </trkpt>
      <trkpt lat="43.66677" lon="3.81138">
        <ele>168.5</ele>
        <time>2016-04-19T10:32:36Z</time>
      </trkpt>
      <trkpt lat="43.66675" lon="3.81136">
        <ele>168.5</ele>
        <time>2016-04-19T10:32:37Z</time>
      </trkpt>
      <trkpt lat="43.66673" lon="3.81134">
        <ele>171</ele>
        <time>2016-04-19T10:32:38Z</time>
      </trkpt>
      <trkpt lat="43.6667" lon="3.81133">
        <ele>173</ele>
        <time>2016-04-19T10:32:39Z</time>
      </trkpt>
      <trkpt lat="43.66668" lon="3.81133">
        <ele>176</ele>
        <time>2016-04-19T10:32:40Z</time>
      </trkpt>
      <trkpt lat="43.66666" lon="3.81132">
        <ele>178.5</ele>
        <time>2016-04-19T10:32:41Z</time>
      </trkpt>
      <trkpt lat="43.66664" lon="3.8113">
        <ele>179.5</ele>
        <time>2016-04-19T10:32:42Z</time>
      </trkpt>
      <trkpt lat="43.66661" lon="3.81127">
        <ele>181.5</ele>
        <time>2016-04-19T10:32:43Z</time>
      </trkpt>
      <trkpt lat="43.66659" lon="3.81124">
        <ele>184</ele>
        <time>2016-04-19T10:32:44Z</time>
      </trkpt>
      <trkpt lat="43.66657" lon="3.8112">
        <ele>185.5</ele>
        <time>2016-04-19T10:32:45Z</time>
      </trkpt>
      <trkpt lat="43.66654" lon="3.81117">
        <ele>187.5</ele>
        <time>2016-04-19T10:32:46Z</time>
      </trkpt>
      <trkpt lat="43.66651" lon="3.81116">
        <ele>189</ele>
        <time>2016-04-19T10:32:47Z</time>
      </trkpt>
      <trkpt lat="43.66649" lon="3.81112">
        <ele>189.5</ele>
        <time>2016-04-19T10:32:48Z</time>
      </trkpt>
      <trkpt lat="43.66648" lon="3.81107">
        <ele>190.5</ele>
        <time>2016-04-19T10:32:49Z</time>
      </trkpt>
      <trkpt lat="43.66646" lon="3.81103">
        <ele>191</ele>
        <time>2016-04-19T10:32:50Z</time>
      </trkpt>
      <trkpt lat="43.66644" lon="3.81102">
        <ele>192.5</ele>
        <time>2016-04-19T10:32:51Z</time>
      </trkpt>
      <trkpt lat="43.66642" lon="3.81099">
        <ele>193.5</ele>
        <time>2016-04-19T10:32:52Z</time>
      </trkpt>
      <trkpt lat="43.66641" lon="3.81096">
        <ele>194</ele>
        <time>2016-04-19T10:32:53Z</time>
      </trkpt>
      <trkpt lat="43.6664" lon="3.81092">
        <ele>194.5</ele>
        <time>2016-04-19T10:32:54Z</time>
      </trkpt>
      <trkpt lat="43.6664" lon="3.81088">
        <ele>194.5</ele>
        <time>2016-04-19T10:32:55Z</time>
      </trkpt>
      <trkpt lat="43.66641" lon="3.81083">
        <ele>195</ele>
        <time>2016-04-19T10:32:56Z</time>
      </trkpt>
      <trkpt lat="43.6664" lon="3.8108">
        <ele>197</ele>
        <time>2016-04-19T10:32:57Z</time>
      </trkpt>
      <trkpt lat="43.6664" lon="3.81077">
        <ele>199</ele>
        <time>2016-04-19T10:32:58Z</time>
      </trkpt>
      <trkpt lat="43.66641" lon="3.81072">
        <ele>199.5</ele>
        <time>2016-04-19T10:32:59Z</time>
      </trkpt>
      <trkpt lat="43.66641" lon="3.81068">
        <ele>198.5</ele>
        <time>2016-04-19T10:33:00Z</time>
      </trkpt>
      <trkpt lat="43.6664" lon="3.81056">
        <ele>199.5</ele>
        <time>2016-04-19T10:33:02Z</time>
      </trkpt>
      <trkpt lat="43.66637" lon="3.81047">
        <ele>201</ele>
        <time>2016-04-19T10:33:04Z</time>
      </trkpt>
      <trkpt lat="43.66635" lon="3.81045">
        <ele>201.5</ele>
        <time>2016-04-19T10:33:05Z</time>
      </trkpt>
      <trkpt lat="43.66634" lon="3.8104">
        <ele>203</ele>
        <time>2016-04-19T10:33:06Z</time>
      </trkpt>
      <trkpt lat="43.66633" lon="3.81035">
        <ele>205</ele>
        <time>2016-04-19T10:33:07Z</time>
      </trkpt>
      <trkpt lat="43.66631" lon="3.81031">
        <ele>207</ele>
        <time>2016-04-19T10:33:08Z</time>
      </trkpt>
      <trkpt lat="43.6663" lon="3.81027">
        <ele>208.5</ele>
        <time>2016-04-19T10:33:09Z</time>
      </trkpt>
      <trkpt lat="43.66629" lon="3.81023">
        <ele>209</ele>
        <time>2016-04-19T10:33:10Z</time>
      </trkpt>
      <trkpt lat="43.66629" lon="3.81018">
        <ele>209.5</ele>
        <time>2016-04-19T10:33:11Z</time>
      </trkpt>
      <trkpt lat="43.66627" lon="3.81016">
        <ele>209.5</ele>
        <time>2016-04-19T10:33:12Z</time>
      </trkpt>
      <trkpt lat="43.66627" lon="3.81011">
        <ele>209</ele>
        <time>2016-04-19T10:33:13Z</time>
      </trkpt>
      <trkpt lat="43.66625" lon="3.81009">
        <ele>209.5</ele>
        <time>2016-04-19T10:33:14Z</time>
      </trkpt>
      <trkpt lat="43.66624" lon="3.81006">
        <ele>209.5</ele>
        <time>2016-04-19T10:33:15Z</time>
      </trkpt>
      <trkpt lat="43.66622" lon="3.81002">
        <ele>210</ele>
        <time>2016-04-19T10:33:16Z</time>
      </trkpt>
      <trkpt lat="43.66621" lon="3.80999">
        <ele>210</ele>
        <time>2016-04-19T10:33:17Z</time>
      </trkpt>
      <trkpt lat="43.66619" lon="3.80996">
        <ele>209.5</ele>
        <time>2016-04-19T10:33:18Z</time>
      </trkpt>
      <trkpt lat="43.66619" lon="3.80992">
        <ele>208.5</ele>
        <time>2016-04-19T10:33:19Z</time>
      </trkpt>
      <trkpt lat="43.66617" lon="3.80995">
        <ele>209</ele>
        <time>2016-04-19T10:33:20Z</time>
      </trkpt>
      <trkpt lat="43.66617" lon="3.80989">
        <ele>209</ele>
        <time>2016-04-19T10:33:21Z</time>
      </trkpt>
      <trkpt lat="43.66615" lon="3.80983">
        <ele>209</ele>
        <time>2016-04-19T10:33:23Z</time>
      </trkpt>
      <trkpt lat="43.66613" lon="3.80981">
        <ele>209.5</ele>
        <time>2016-04-19T10:33:24Z</time>
      </trkpt>
      <trkpt lat="43.66612" lon="3.80977">
        <ele>210</ele>
        <time>2016-04-19T10:33:25Z</time>
      </trkpt>
      <trkpt lat="43.6661" lon="3.80974">
        <ele>210.5</ele>
        <time>2016-04-19T10:33:26Z</time>
      </trkpt>
      <trkpt lat="43.6661" lon="3.8097">
        <ele>210.5</ele>
        <time>2016-04-19T10:33:27Z</time>
      </trkpt>
      <trkpt lat="43.66609" lon="3.80967">
        <ele>210.5</ele>
        <time>2016-04-19T10:33:28Z</time>
      </trkpt>
      <trkpt lat="43.66608" lon="3.80964">
        <ele>211</ele>
        <time>2016-04-19T10:33:29Z</time>
      </trkpt>
      <trkpt lat="43.66606" lon="3.80962">
        <ele>212</ele>
        <time>2016-04-19T10:33:30Z</time>
      </trkpt>
      <trkpt lat="43.66604" lon="3.80958">
        <ele>213</ele>
        <time>2016-04-19T10:33:31Z</time>
      </trkpt>
      <trkpt lat="43.66602" lon="3.80956">
        <ele>213.5</ele>
        <time>2016-04-19T10:33:32Z</time>
      </trkpt>
      <trkpt lat="43.66602" lon="3.80952">
        <ele>213.5</ele>
        <time>2016-04-19T10:33:33Z</time>
      </trkpt>
      <trkpt lat="43.66601" lon="3.80948">
        <ele>213.5</ele>
        <time>2016-04-19T10:33:34Z</time>
      </trkpt>
      <trkpt lat="43.66601" lon="3.80943">
        <ele>213</ele>
        <time>2016-04-19T10:33:35Z</time>
      </trkpt>
      <trkpt lat="43.66599" lon="3.80941">
        <ele>213.5</ele>
        <time>2016-04-19T10:33:36Z</time>
      </trkpt>
      <trkpt lat="43.66598" lon="3.80938">
        <ele>214</ele>
        <time>2016-04-19T10:33:37Z</time>
      </trkpt>
      <trkpt lat="43.66597" lon="3.80934">
        <ele>215</ele>
        <time>2016-04-19T10:33:38Z</time>
      </trkpt>
      <trkpt lat="43.66596" lon="3.80929">
        <ele>216</ele>
        <time>2016-04-19T10:33:39Z</time>
      </trkpt>
      <trkpt lat="43.66596" lon="3.80925">
        <ele>216</ele>
        <time>2016-04-19T10:33:40Z</time>
      </trkpt>
      <trkpt lat="43.66595" lon="3.8092">
        <ele>216</ele>
        <time>2016-04-19T10:33:41Z</time>
      </trkpt>
      <trkpt lat="43.66594" lon="3.80916">
        <ele>216</ele>
        <time>2016-04-19T10:33:42Z</time>
      </trkpt>
      <trkpt lat="43.66593" lon="3.80913">
        <ele>216</ele>
        <time>2016-04-19T10:33:43Z</time>
      </trkpt>
      <trkpt lat="43.66591" lon="3.8091">
        <ele>216</ele>
        <time>2016-04-19T10:33:44Z</time>
      </trkpt>
      <trkpt lat="43.6659" lon="3.80905">
        <ele>216</ele>
        <time>2016-04-19T10:33:45Z</time>
      </trkpt>
      <trkpt lat="43.66589" lon="3.80899">
        <ele>216</ele>
        <time>2016-04-19T10:33:46Z</time>
      </trkpt>
      <trkpt lat="43.66588" lon="3.80894">
        <ele>216</ele>
        <time>2016-04-19T10:33:47Z</time>
      </trkpt>
      <trkpt lat="43.66587" lon="3.80888">
        <ele>216</ele>
        <time>2016-04-19T10:33:48Z</time>
      </trkpt>
      <trkpt lat="43.66586" lon="3.80883">
        <ele>216</ele>
        <time>2016-04-19T10:33:49Z</time>
      </trkpt>
      <trkpt lat="43.6659" lon="3.80854">
        <ele>212.5</ele>
        <time>2016-04-19T10:33:54Z</time>
      </trkpt>
      <trkpt lat="43.66588" lon="3.80843">
        <ele>212.5</ele>
        <time>2016-04-19T10:33:56Z</time>
      </trkpt>
      <trkpt lat="43.66586" lon="3.80829">
        <ele>212</ele>
        <time>2016-04-19T10:33:58Z</time>
      </trkpt>
      <trkpt lat="43.66584" lon="3.80824">
        <ele>212.5</ele>
        <time>2016-04-19T10:33:59Z</time>
      </trkpt>
      <trkpt lat="43.66583" lon="3.80819">
        <ele>212.5</ele>
        <time>2016-04-19T10:34:00Z</time>
      </trkpt>
      <trkpt lat="43.6658" lon="3.80813">
        <ele>213</ele>
        <time>2016-04-19T10:34:01Z</time>
      </trkpt>
      <trkpt lat="43.66577" lon="3.80811">
        <ele>213</ele>
        <time>2016-04-19T10:34:02Z</time>
      </trkpt>
      <trkpt lat="43.66575" lon="3.80804">
        <ele>213.5</ele>
        <time>2016-04-19T10:34:03Z</time>
      </trkpt>
      <trkpt lat="43.66571" lon="3.80799">
        <ele>213.5</ele>
        <time>2016-04-19T10:34:04Z</time>
      </trkpt>
      <trkpt lat="43.66568" lon="3.80794">
        <ele>214</ele>
        <time>2016-04-19T10:34:05Z</time>
      </trkpt>
      <trkpt lat="43.66565" lon="3.8079">
        <ele>214</ele>
        <time>2016-04-19T10:34:06Z</time>
      </trkpt>
      <trkpt lat="43.66562" lon="3.80784">
        <ele>214</ele>
        <time>2016-04-19T10:34:07Z</time>
      </trkpt>
      <trkpt lat="43.6656" lon="3.80778">
        <ele>214</ele>
        <time>2016-04-19T10:34:08Z</time>
      </trkpt>
      <trkpt lat="43.66558" lon="3.80772">
        <ele>214</ele>
        <time>2016-04-19T10:34:09Z</time>
      </trkpt>
      <trkpt lat="43.66555" lon="3.80767">
        <ele>214</ele>
        <time>2016-04-19T10:34:10Z</time>
      </trkpt>
      <trkpt lat="43.66552" lon="3.80761">
        <ele>213.5</ele>
        <time>2016-04-19T10:34:11Z</time>
      </trkpt>
      <trkpt lat="43.66548" lon="3.80758">
        <ele>214</ele>
        <time>2016-04-19T10:34:12Z</time>
      </trkpt>
      <trkpt lat="43.66544" lon="3.80754">
        <ele>214</ele>
        <time>2016-04-19T10:34:13Z</time>
      </trkpt>
      <trkpt lat="43.66543" lon="3.80748">
        <ele>214</ele>
        <time>2016-04-19T10:34:14Z</time>
      </trkpt>
      <trkpt lat="43.66537" lon="3.80745">
        <ele>214.5</ele>
        <time>2016-04-19T10:34:15Z</time>
      </trkpt>
      <trkpt lat="43.66533" lon="3.80741">
        <ele>215.5</ele>
        <time>2016-04-19T10:34:16Z</time>
      </trkpt>
      <trkpt lat="43.66529" lon="3.80734">
        <ele>215</ele>
        <time>2016-04-19T10:34:17Z</time>
      </trkpt>
      <trkpt lat="43.66526" lon="3.80728">
        <ele>215.5</ele>
        <time>2016-04-19T10:34:18Z</time>
      </trkpt>
      <trkpt lat="43.66524" lon="3.80722">
        <ele>215.5</ele>
        <time>2016-04-19T10:34:19Z</time>
      </trkpt>
      <trkpt lat="43.66519" lon="3.80717">
        <ele>216</ele>
        <time>2016-04-19T10:34:20Z</time>
      </trkpt>
      <trkpt lat="43.66516" lon="3.80709">
        <ele>216</ele>
        <time>2016-04-19T10:34:21Z</time>
      </trkpt>
      <trkpt lat="43.66513" lon="3.80704">
        <ele>216</ele>
        <time>2016-04-19T10:34:22Z</time>
      </trkpt>
      <trkpt lat="43.6651" lon="3.80697">
        <ele>215.5</ele>
        <time>2016-04-19T10:34:23Z</time>
      </trkpt>
      <trkpt lat="43.66506" lon="3.8069">
        <ele>216.5</ele>
        <time>2016-04-19T10:34:24Z</time>
      </trkpt>
      <trkpt lat="43.66504" lon="3.80683">
        <ele>216</ele>
        <time>2016-04-19T10:34:25Z</time>
      </trkpt>
      <trkpt lat="43.66499" lon="3.8068">
        <ele>216</ele>
        <time>2016-04-19T10:34:26Z</time>
      </trkpt>
      <trkpt lat="43.66497" lon="3.80673">
        <ele>216</ele>
        <time>2016-04-19T10:34:27Z</time>
      </trkpt>
      <trkpt lat="43.66493" lon="3.80667">
        <ele>217</ele>
        <time>2016-04-19T10:34:28Z</time>
      </trkpt>
      <trkpt lat="43.66491" lon="3.8066">
        <ele>217</ele>
        <time>2016-04-19T10:34:29Z</time>
      </trkpt>
      <trkpt lat="43.66488" lon="3.80654">
        <ele>217</ele>
        <time>2016-04-19T10:34:30Z</time>
      </trkpt>
      <trkpt lat="43.66486" lon="3.8065">
        <ele>217</ele>
        <time>2016-04-19T10:34:31Z</time>
      </trkpt>
      <trkpt lat="43.66483" lon="3.80643">
        <ele>216</ele>
        <time>2016-04-19T10:34:32Z</time>
      </trkpt>
      <trkpt lat="43.66483" lon="3.80638">
        <ele>216</ele>
        <time>2016-04-19T10:34:33Z</time>
      </trkpt>
      <trkpt lat="43.66481" lon="3.80634">
        <ele>216</ele>
        <time>2016-04-19T10:34:34Z</time>
      </trkpt>
      <trkpt lat="43.66466" lon="3.80614">
        <ele>216.5</ele>
        <time>2016-04-19T10:34:37Z</time>
      </trkpt>
      <trkpt lat="43.66462" lon="3.80609">
        <ele>217</ele>
        <time>2016-04-19T10:34:38Z</time>
      </trkpt>
      <trkpt lat="43.66458" lon="3.80605">
        <ele>217.5</ele>
        <time>2016-04-19T10:34:39Z</time>
      </trkpt>
      <trkpt lat="43.66454" lon="3.80599">
        <ele>218.5</ele>
        <time>2016-04-19T10:34:40Z</time>
      </trkpt>
      <trkpt lat="43.66453" lon="3.80591">
        <ele>218.5</ele>
        <time>2016-04-19T10:34:41Z</time>
      </trkpt>
      <trkpt lat="43.66457" lon="3.80574">
        <ele>217.5</ele>
        <time>2016-04-19T10:34:43Z</time>
      </trkpt>
      <trkpt lat="43.66456" lon="3.80565">
        <ele>217</ele>
        <time>2016-04-19T10:34:44Z</time>
      </trkpt>
      <trkpt lat="43.66454" lon="3.80559">
        <ele>217</ele>
        <time>2016-04-19T10:34:45Z</time>
      </trkpt>
      <trkpt lat="43.66445" lon="3.80554">
        <ele>217</ele>
        <time>2016-04-19T10:34:47Z</time>
      </trkpt>
      <trkpt lat="43.66434" lon="3.80551">
        <ele>217</ele>
        <time>2016-04-19T10:34:49Z</time>
      </trkpt>
      <trkpt lat="43.66431" lon="3.80547">
        <ele>216.5</ele>
        <time>2016-04-19T10:34:50Z</time>
      </trkpt>
      <trkpt lat="43.66427" lon="3.80542">
        <ele>216.5</ele>
        <time>2016-04-19T10:34:51Z</time>
      </trkpt>
      <trkpt lat="43.66423" lon="3.80538">
        <ele>216.5</ele>
        <time>2016-04-19T10:34:52Z</time>
      </trkpt>
      <trkpt lat="43.66418" lon="3.80535">
        <ele>216.5</ele>
        <time>2016-04-19T10:34:53Z</time>
      </trkpt>
      <trkpt lat="43.66413" lon="3.80531">
        <ele>216</ele>
        <time>2016-04-19T10:34:54Z</time>
      </trkpt>
      <trkpt lat="43.66407" lon="3.80527">
        <ele>216.5</ele>
        <time>2016-04-19T10:34:55Z</time>
      </trkpt>
      <trkpt lat="43.66404" lon="3.80523">
        <ele>216.5</ele>
        <time>2016-04-19T10:34:56Z</time>
      </trkpt>
      <trkpt lat="43.66399" lon="3.8052">
        <ele>216.5</ele>
        <time>2016-04-19T10:34:57Z</time>
      </trkpt>
      <trkpt lat="43.66395" lon="3.80518">
        <ele>216.5</ele>
        <time>2016-04-19T10:34:58Z</time>
      </trkpt>
      <trkpt lat="43.66391" lon="3.80513">
        <ele>216.5</ele>
        <time>2016-04-19T10:34:59Z</time>
      </trkpt>
      <trkpt lat="43.66387" lon="3.8051">
        <ele>216.5</ele>
        <time>2016-04-19T10:35:00Z</time>
      </trkpt>
      <trkpt lat="43.66382" lon="3.80507">
        <ele>216.5</ele>
        <time>2016-04-19T10:35:01Z</time>
      </trkpt>
      <trkpt lat="43.66378" lon="3.80502">
        <ele>216.5</ele>
        <time>2016-04-19T10:35:02Z</time>
      </trkpt>
      <trkpt lat="43.66373" lon="3.805">
        <ele>216.5</ele>
        <time>2016-04-19T10:35:03Z</time>
      </trkpt>
      <trkpt lat="43.66368" lon="3.80497">
        <ele>216.5</ele>
        <time>2016-04-19T10:35:04Z</time>
      </trkpt>
      <trkpt lat="43.66362" lon="3.80495">
        <ele>216</ele>
        <time>2016-04-19T10:35:05Z</time>
      </trkpt>
      <trkpt lat="43.66358" lon="3.80492">
        <ele>216</ele>
        <time>2016-04-19T10:35:06Z</time>
      </trkpt>
      <trkpt lat="43.66354" lon="3.80488">
        <ele>216</ele>
        <time>2016-04-19T10:35:07Z</time>
      </trkpt>
      <trkpt lat="43.66349" lon="3.80484">
        <ele>216</ele>
        <time>2016-04-19T10:35:08Z</time>
      </trkpt>
      <trkpt lat="43.66345" lon="3.80481">
        <ele>216</ele>
        <time>2016-04-19T10:35:09Z</time>
      </trkpt>
      <trkpt lat="43.6634" lon="3.80477">
        <ele>216</ele>
        <time>2016-04-19T10:35:10Z</time>
      </trkpt>
      <trkpt lat="43.66336" lon="3.80473">
        <ele>216</ele>
        <time>2016-04-19T10:35:11Z</time>
      </trkpt>
      <trkpt lat="43.66332" lon="3.80469">
        <ele>216</ele>
        <time>2016-04-19T10:35:12Z</time>
      </trkpt>
      <trkpt lat="43.66329" lon="3.80463">
        <ele>216</ele>
        <time>2016-04-19T10:35:13Z</time>
      </trkpt>
      <trkpt lat="43.66325" lon="3.8046">
        <ele>216</ele>
        <time>2016-04-19T10:35:14Z</time>
      </trkpt>
      <trkpt lat="43.66321" lon="3.80458">
        <ele>215.5</ele>
        <time>2016-04-19T10:35:15Z</time>
      </trkpt>
      <trkpt lat="43.66316" lon="3.80456">
        <ele>215.5</ele>
        <time>2016-04-19T10:35:16Z</time>
      </trkpt>
      <trkpt lat="43.66313" lon="3.80452">
        <ele>215.5</ele>
        <time>2016-04-19T10:35:17Z</time>
      </trkpt>
      <trkpt lat="43.66309" lon="3.80447">
        <ele>215.5</ele>
        <time>2016-04-19T10:35:18Z</time>
      </trkpt>
      <trkpt lat="43.66305" lon="3.80443">
        <ele>215.5</ele>
        <time>2016-04-19T10:35:19Z</time>
      </trkpt>
      <trkpt lat="43.66303" lon="3.80434">
        <ele>215.5</ele>
        <time>2016-04-19T10:35:20Z</time>
      </trkpt>
      <trkpt lat="43.663" lon="3.80432">
        <ele>215.5</ele>
        <time>2016-04-19T10:35:21Z</time>
      </trkpt>
      <trkpt lat="43.66297" lon="3.80429">
        <ele>215.5</ele>
        <time>2016-04-19T10:35:22Z</time>
      </trkpt>
      <trkpt lat="43.66291" lon="3.80424">
        <ele>215</ele>
        <time>2016-04-19T10:35:24Z</time>
      </trkpt>
      <trkpt lat="43.66287" lon="3.8042">
        <ele>215</ele>
        <time>2016-04-19T10:35:25Z</time>
      </trkpt>
      <trkpt lat="43.66283" lon="3.80415">
        <ele>215</ele>
        <time>2016-04-19T10:35:26Z</time>
      </trkpt>
      <trkpt lat="43.66278" lon="3.80411">
        <ele>215</ele>
        <time>2016-04-19T10:35:27Z</time>
      </trkpt>
      <trkpt lat="43.66273" lon="3.80407">
        <ele>215</ele>
        <time>2016-04-19T10:35:28Z</time>
      </trkpt>
      <trkpt lat="43.6627" lon="3.80401">
        <ele>214.5</ele>
        <time>2016-04-19T10:35:29Z</time>
      </trkpt>
      <trkpt lat="43.66265" lon="3.80396">
        <ele>214.5</ele>
        <time>2016-04-19T10:35:30Z</time>
      </trkpt>
      <trkpt lat="43.66261" lon="3.80391">
        <ele>214.5</ele>
        <time>2016-04-19T10:35:31Z</time>
      </trkpt>
      <trkpt lat="43.66258" lon="3.80383">
        <ele>214</ele>
        <time>2016-04-19T10:35:32Z</time>
      </trkpt>
      <trkpt lat="43.66254" lon="3.80376">
        <ele>214</ele>
        <time>2016-04-19T10:35:33Z</time>
      </trkpt>
      <trkpt lat="43.66249" lon="3.80356">
        <ele>213</ele>
        <time>2016-04-19T10:35:35Z</time>
      </trkpt>
      <trkpt lat="43.66245" lon="3.80351">
        <ele>212.5</ele>
        <time>2016-04-19T10:35:36Z</time>
      </trkpt>
      <trkpt lat="43.66241" lon="3.80346">
        <ele>212</ele>
        <time>2016-04-19T10:35:37Z</time>
      </trkpt>
      <trkpt lat="43.66236" lon="3.80343">
        <ele>212</ele>
        <time>2016-04-19T10:35:38Z</time>
      </trkpt>
      <trkpt lat="43.66231" lon="3.80339">
        <ele>212</ele>
        <time>2016-04-19T10:35:39Z</time>
      </trkpt>
      <trkpt lat="43.66228" lon="3.80332">
        <ele>211.5</ele>
        <time>2016-04-19T10:35:40Z</time>
      </trkpt>
      <trkpt lat="43.66224" lon="3.80328">
        <ele>211.5</ele>
        <time>2016-04-19T10:35:41Z</time>
      </trkpt>
      <trkpt lat="43.66218" lon="3.80312">
        <ele>211.5</ele>
        <time>2016-04-19T10:35:43Z</time>
      </trkpt>
      <trkpt lat="43.66213" lon="3.80307">
        <ele>211.5</ele>
        <time>2016-04-19T10:35:44Z</time>
      </trkpt>
      <trkpt lat="43.66209" lon="3.80303">
        <ele>211.5</ele>
        <time>2016-04-19T10:35:45Z</time>
      </trkpt>
      <trkpt lat="43.66205" lon="3.80297">
        <ele>211.5</ele>
        <time>2016-04-19T10:35:46Z</time>
      </trkpt>
      <trkpt lat="43.66191" lon="3.80298">
        <ele>211</ele>
        <time>2016-04-19T10:35:48Z</time>
      </trkpt>
      <trkpt lat="43.66186" lon="3.80293">
        <ele>211</ele>
        <time>2016-04-19T10:35:49Z</time>
      </trkpt>
      <trkpt lat="43.66183" lon="3.80286">
        <ele>211</ele>
        <time>2016-04-19T10:35:50Z</time>
      </trkpt>
      <trkpt lat="43.66178" lon="3.80283">
        <ele>211</ele>
        <time>2016-04-19T10:35:51Z</time>
      </trkpt>
      <trkpt lat="43.66173" lon="3.80279">
        <ele>211</ele>
        <time>2016-04-19T10:35:52Z</time>
      </trkpt>
      <trkpt lat="43.66168" lon="3.80276">
        <ele>211</ele>
        <time>2016-04-19T10:35:53Z</time>
      </trkpt>
      <trkpt lat="43.66164" lon="3.80272">
        <ele>211</ele>
        <time>2016-04-19T10:35:54Z</time>
      </trkpt>
      <trkpt lat="43.66159" lon="3.80269">
        <ele>210.5</ele>
        <time>2016-04-19T10:35:55Z</time>
      </trkpt>
      <trkpt lat="43.66154" lon="3.80268">
        <ele>210.5</ele>
        <time>2016-04-19T10:35:56Z</time>
      </trkpt>
      <trkpt lat="43.6615" lon="3.80263">
        <ele>210.5</ele>
        <time>2016-04-19T10:35:57Z</time>
      </trkpt>
      <trkpt lat="43.66145" lon="3.8026">
        <ele>210.5</ele>
        <time>2016-04-19T10:35:58Z</time>
      </trkpt>
      <trkpt lat="43.66141" lon="3.80257">
        <ele>210.5</ele>
        <time>2016-04-19T10:35:59Z</time>
      </trkpt>
      <trkpt lat="43.66135" lon="3.80255">
        <ele>210.5</ele>
        <time>2016-04-19T10:36:00Z</time>
      </trkpt>
      <trkpt lat="43.66131" lon="3.80252">
        <ele>210.5</ele>
        <time>2016-04-19T10:36:01Z</time>
      </trkpt>
      <trkpt lat="43.66126" lon="3.8025">
        <ele>210.5</ele>
        <time>2016-04-19T10:36:02Z</time>
      </trkpt>
      <trkpt lat="43.66122" lon="3.80246">
        <ele>210.5</ele>
        <time>2016-04-19T10:36:03Z</time>
      </trkpt>
      <trkpt lat="43.66117" lon="3.80244">
        <ele>210.5</ele>
        <time>2016-04-19T10:36:04Z</time>
      </trkpt>
      <trkpt lat="43.66112" lon="3.8024">
        <ele>210.5</ele>
        <time>2016-04-19T10:36:05Z</time>
      </trkpt>
      <trkpt lat="43.66107" lon="3.80237">
        <ele>210.5</ele>
        <time>2016-04-19T10:36:06Z</time>
      </trkpt>
      <trkpt lat="43.66102" lon="3.80234">
        <ele>210.5</ele>
        <time>2016-04-19T10:36:07Z</time>
      </trkpt>
      <trkpt lat="43.66097" lon="3.80233">
        <ele>210.5</ele>
        <time>2016-04-19T10:36:08Z</time>
      </trkpt>
      <trkpt lat="43.66092" lon="3.80231">
        <ele>210.5</ele>
        <time>2016-04-19T10:36:09Z</time>
      </trkpt>
      <trkpt lat="43.66085" lon="3.80232">
        <ele>210.5</ele>
        <time>2016-04-19T10:36:10Z</time>
      </trkpt>
      <trkpt lat="43.6608" lon="3.80234">
        <ele>210.5</ele>
        <time>2016-04-19T10:36:11Z</time>
      </trkpt>
      <trkpt lat="43.66068" lon="3.8024">
        <ele>210.5</ele>
        <time>2016-04-19T10:36:13Z</time>
      </trkpt>
      <trkpt lat="43.66065" lon="3.80242">
        <ele>210.5</ele>
        <time>2016-04-19T10:36:14Z</time>
      </trkpt>
      <trkpt lat="43.66062" lon="3.80244">
        <ele>210.5</ele>
        <time>2016-04-19T10:36:15Z</time>
      </trkpt>
      <trkpt lat="43.66047" lon="3.80252">
        <ele>210.5</ele>
        <time>2016-04-19T10:36:17Z</time>
      </trkpt>
      <trkpt lat="43.66043" lon="3.80254">
        <ele>210.5</ele>
        <time>2016-04-19T10:36:18Z</time>
      </trkpt>
      <trkpt lat="43.66036" lon="3.80254">
        <ele>210.5</ele>
        <time>2016-04-19T10:36:19Z</time>
      </trkpt>
      <trkpt lat="43.66029" lon="3.80248">
        <ele>213</ele>
        <time>2016-04-19T10:36:21Z</time>
      </trkpt>
      <trkpt lat="43.66026" lon="3.80247">
        <ele>213</ele>
        <time>2016-04-19T10:36:22Z</time>
      </trkpt>
      <trkpt lat="43.66017" lon="3.80246">
        <ele>213</ele>
        <time>2016-04-19T10:36:24Z</time>
      </trkpt>
      <trkpt lat="43.66009" lon="3.80246">
        <ele>213</ele>
        <time>2016-04-19T10:36:25Z</time>
      </trkpt>
      <trkpt lat="43.66002" lon="3.80247">
        <ele>213</ele>
        <time>2016-04-19T10:36:26Z</time>
      </trkpt>
      <trkpt lat="43.65995" lon="3.80248">
        <ele>213</ele>
        <time>2016-04-19T10:36:27Z</time>
      </trkpt>
      <trkpt lat="43.65989" lon="3.80247">
        <ele>213</ele>
        <time>2016-04-19T10:36:28Z</time>
      </trkpt>
      <trkpt lat="43.65981" lon="3.80246">
        <ele>213.5</ele>
        <time>2016-04-19T10:36:29Z</time>
      </trkpt>
      <trkpt lat="43.65975" lon="3.80245">
        <ele>213.5</ele>
        <time>2016-04-19T10:36:30Z</time>
      </trkpt>
      <trkpt lat="43.65968" lon="3.80243">
        <ele>213</ele>
        <time>2016-04-19T10:36:31Z</time>
      </trkpt>
      <trkpt lat="43.65953" lon="3.8024">
        <ele>213</ele>
        <time>2016-04-19T10:36:33Z</time>
      </trkpt>
      <trkpt lat="43.65948" lon="3.80235">
        <ele>213</ele>
        <time>2016-04-19T10:36:34Z</time>
      </trkpt>
      <trkpt lat="43.65942" lon="3.80231">
        <ele>212.5</ele>
        <time>2016-04-19T10:36:35Z</time>
      </trkpt>
      <trkpt lat="43.65935" lon="3.8023">
        <ele>212.5</ele>
        <time>2016-04-19T10:36:36Z</time>
      </trkpt>
      <trkpt lat="43.65929" lon="3.80226">
        <ele>212.5</ele>
        <time>2016-04-19T10:36:37Z</time>
      </trkpt>
      <trkpt lat="43.65923" lon="3.80222">
        <ele>212.5</ele>
        <time>2016-04-19T10:36:38Z</time>
      </trkpt>
      <trkpt lat="43.65916" lon="3.80219">
        <ele>212</ele>
        <time>2016-04-19T10:36:39Z</time>
      </trkpt>
      <trkpt lat="43.6591" lon="3.80216">
        <ele>212</ele>
        <time>2016-04-19T10:36:40Z</time>
      </trkpt>
      <trkpt lat="43.65905" lon="3.8021">
        <ele>212</ele>
        <time>2016-04-19T10:36:41Z</time>
      </trkpt>
      <trkpt lat="43.65901" lon="3.80206">
        <ele>212</ele>
        <time>2016-04-19T10:36:42Z</time>
      </trkpt>
      <trkpt lat="43.65894" lon="3.80202">
        <ele>211.5</ele>
        <time>2016-04-19T10:36:43Z</time>
      </trkpt>
      <trkpt lat="43.65888" lon="3.80198">
        <ele>211.5</ele>
        <time>2016-04-19T10:36:44Z</time>
      </trkpt>
      <trkpt lat="43.65882" lon="3.80195">
        <ele>211.5</ele>
        <time>2016-04-19T10:36:45Z</time>
      </trkpt>
      <trkpt lat="43.65876" lon="3.80189">
        <ele>211.5</ele>
        <time>2016-04-19T10:36:46Z</time>
      </trkpt>
      <trkpt lat="43.65871" lon="3.80185">
        <ele>211</ele>
        <time>2016-04-19T10:36:47Z</time>
      </trkpt>
      <trkpt lat="43.65865" lon="3.8018">
        <ele>211</ele>
        <time>2016-04-19T10:36:48Z</time>
      </trkpt>
      <trkpt lat="43.65858" lon="3.80178">
        <ele>210.5</ele>
        <time>2016-04-19T10:36:49Z</time>
      </trkpt>
      <trkpt lat="43.65853" lon="3.80172">
        <ele>210</ele>
        <time>2016-04-19T10:36:50Z</time>
      </trkpt>
      <trkpt lat="43.65848" lon="3.80166">
        <ele>209.5</ele>
        <time>2016-04-19T10:36:51Z</time>
      </trkpt>
      <trkpt lat="43.65843" lon="3.8016">
        <ele>208.5</ele>
        <time>2016-04-19T10:36:52Z</time>
      </trkpt>
      <trkpt lat="43.65839" lon="3.80151">
        <ele>208.5</ele>
        <time>2016-04-19T10:36:53Z</time>
      </trkpt>
      <trkpt lat="43.65834" lon="3.80144">
        <ele>208</ele>
        <time>2016-04-19T10:36:54Z</time>
      </trkpt>
      <trkpt lat="43.6583" lon="3.80135">
        <ele>208</ele>
        <time>2016-04-19T10:36:55Z</time>
      </trkpt>
      <trkpt lat="43.65825" lon="3.80127">
        <ele>208</ele>
        <time>2016-04-19T10:36:56Z</time>
      </trkpt>
      <trkpt lat="43.6582" lon="3.80121">
        <ele>207.5</ele>
        <time>2016-04-19T10:36:57Z</time>
      </trkpt>
      <trkpt lat="43.65816" lon="3.80111">
        <ele>207</ele>
        <time>2016-04-19T10:36:58Z</time>
      </trkpt>
      <trkpt lat="43.65811" lon="3.80104">
        <ele>206</ele>
        <time>2016-04-19T10:36:59Z</time>
      </trkpt>
      <trkpt lat="43.65806" lon="3.80097">
        <ele>206</ele>
        <time>2016-04-19T10:37:00Z</time>
      </trkpt>
      <trkpt lat="43.658" lon="3.80094">
        <ele>205.5</ele>
        <time>2016-04-19T10:37:01Z</time>
      </trkpt>
      <trkpt lat="43.65799" lon="3.80085">
        <ele>205.5</ele>
        <time>2016-04-19T10:37:02Z</time>
      </trkpt>
      <trkpt lat="43.65796" lon="3.80081">
        <ele>205</ele>
        <time>2016-04-19T10:37:03Z</time>
      </trkpt>
      <trkpt lat="43.65793" lon="3.80076">
        <ele>205</ele>
        <time>2016-04-19T10:37:04Z</time>
      </trkpt>
      <trkpt lat="43.65791" lon="3.8007">
        <ele>205</ele>
        <time>2016-04-19T10:37:05Z</time>
      </trkpt>
      <trkpt lat="43.65786" lon="3.80069">
        <ele>205</ele>
        <time>2016-04-19T10:37:06Z</time>
      </trkpt>
      <trkpt lat="43.65783" lon="3.80064">
        <ele>204.5</ele>
        <time>2016-04-19T10:37:07Z</time>
      </trkpt>
      <trkpt lat="43.65779" lon="3.80062">
        <ele>204.5</ele>
        <time>2016-04-19T10:37:08Z</time>
      </trkpt>
      <trkpt lat="43.65778" lon="3.80055">
        <ele>204</ele>
        <time>2016-04-19T10:37:09Z</time>
      </trkpt>
      <trkpt lat="43.65779" lon="3.8005">
        <ele>204</ele>
        <time>2016-04-19T10:37:10Z</time>
      </trkpt>
      <trkpt lat="43.65774" lon="3.8004">
        <ele>203</ele>
        <time>2016-04-19T10:37:12Z</time>
      </trkpt>
      <trkpt lat="43.65772" lon="3.80035">
        <ele>203.5</ele>
        <time>2016-04-19T10:37:13Z</time>
      </trkpt>
      <trkpt lat="43.65772" lon="3.80027">
        <ele>203.5</ele>
        <time>2016-04-19T10:37:15Z</time>
      </trkpt>
      <trkpt lat="43.65771" lon="3.80021">
        <ele>203.5</ele>
        <time>2016-04-19T10:37:16Z</time>
      </trkpt>
      <trkpt lat="43.6577" lon="3.80014">
        <ele>203.5</ele>
        <time>2016-04-19T10:37:18Z</time>
      </trkpt>
      <trkpt lat="43.65769" lon="3.8001">
        <ele>202.5</ele>
        <time>2016-04-19T10:37:19Z</time>
      </trkpt>
      <trkpt lat="43.65768" lon="3.80008">
        <ele>202.5</ele>
        <time>2016-04-19T10:37:20Z</time>
      </trkpt>
      <trkpt lat="43.65767" lon="3.80006">
        <ele>202.5</ele>
        <time>2016-04-19T10:37:21Z</time>
      </trkpt>
      <trkpt lat="43.65767" lon="3.80004">
        <ele>202.5</ele>
        <time>2016-04-19T10:37:22Z</time>
      </trkpt>
      <trkpt lat="43.65767" lon="3.80001">
        <ele>202</ele>
        <time>2016-04-19T10:37:23Z</time>
      </trkpt>
      <trkpt lat="43.65767" lon="3.79997">
        <ele>202</ele>
        <time>2016-04-19T10:37:24Z</time>
      </trkpt>
      <trkpt lat="43.65765" lon="3.79998">
        <ele>203.5</ele>
        <time>2016-04-19T10:37:25Z</time>
      </trkpt>
      <trkpt lat="43.65765" lon="3.79996">
        <ele>203.5</ele>
        <time>2016-04-19T10:37:26Z</time>
      </trkpt>
      <trkpt lat="43.65764" lon="3.79993">
        <ele>204.5</ele>
        <time>2016-04-19T10:37:27Z</time>
      </trkpt>
      <trkpt lat="43.65764" lon="3.7999">
        <ele>204.5</ele>
        <time>2016-04-19T10:37:28Z</time>
      </trkpt>
      <trkpt lat="43.65763" lon="3.79989">
        <ele>204.5</ele>
        <time>2016-04-19T10:37:28Z</time>
      </trkpt>
      <trkpt lat="43.65761" lon="3.79988">
        <ele>205</ele>
        <time>2016-04-19T10:37:29Z</time>
      </trkpt>
      <trkpt lat="43.65761" lon="3.79988">
        <ele>205</ele>
        <time>2016-04-19T10:37:30Z</time>
      </trkpt>
      <trkpt lat="43.6576" lon="3.79987">
        <ele>205</ele>
        <time>2016-04-19T10:37:31Z</time>
      </trkpt>
      <trkpt lat="43.65759" lon="3.79985">
        <ele>205.5</ele>
        <time>2016-04-19T10:37:33Z</time>
      </trkpt>
      <trkpt lat="43.65759" lon="3.79982">
        <ele>207</ele>
        <time>2016-04-19T10:37:33Z</time>
      </trkpt>
      <trkpt lat="43.65759" lon="3.79978">
        <ele>206.5</ele>
        <time>2016-04-19T10:37:34Z</time>
      </trkpt>
      <trkpt lat="43.65759" lon="3.79974">
        <ele>207</ele>
        <time>2016-04-19T10:37:35Z</time>
      </trkpt>
      <trkpt lat="43.65759" lon="3.79969">
        <ele>207</ele>
        <time>2016-04-19T10:37:36Z</time>
      </trkpt>
      <trkpt lat="43.65759" lon="3.79966">
        <ele>208</ele>
        <time>2016-04-19T10:37:37Z</time>
      </trkpt>
      <trkpt lat="43.6576" lon="3.79957">
        <ele>208</ele>
        <time>2016-04-19T10:37:39Z</time>
      </trkpt>
      <trkpt lat="43.65759" lon="3.79954">
        <ele>208</ele>
        <time>2016-04-19T10:37:40Z</time>
      </trkpt>
      <trkpt lat="43.65759" lon="3.79952">
        <ele>208.5</ele>
        <time>2016-04-19T10:37:41Z</time>
      </trkpt>
      <trkpt lat="43.65758" lon="3.79949">
        <ele>209</ele>
        <time>2016-04-19T10:37:42Z</time>
      </trkpt>
      <trkpt lat="43.65756" lon="3.79947">
        <ele>210</ele>
        <time>2016-04-19T10:37:43Z</time>
      </trkpt>
      <trkpt lat="43.65756" lon="3.79943">
        <ele>209.5</ele>
        <time>2016-04-19T10:37:45Z</time>
      </trkpt>
      <trkpt lat="43.65755" lon="3.79941">
        <ele>209.5</ele>
        <time>2016-04-19T10:37:45Z</time>
      </trkpt>
      <trkpt lat="43.65755" lon="3.79939">
        <ele>209.5</ele>
        <time>2016-04-19T10:37:46Z</time>
      </trkpt>
      <trkpt lat="43.65755" lon="3.79935">
        <ele>209.5</ele>
        <time>2016-04-19T10:37:48Z</time>
      </trkpt>
      <trkpt lat="43.65754" lon="3.79932">
        <ele>209.5</ele>
        <time>2016-04-19T10:37:48Z</time>
      </trkpt>
      <trkpt lat="43.65754" lon="3.79928">
        <ele>209.5</ele>
        <time>2016-04-19T10:37:49Z</time>
      </trkpt>
      <trkpt lat="43.65753" lon="3.79926">
        <ele>209</ele>
        <time>2016-04-19T10:37:50Z</time>
      </trkpt>
      <trkpt lat="43.65754" lon="3.79922">
        <ele>208</ele>
        <time>2016-04-19T10:37:51Z</time>
      </trkpt>
      <trkpt lat="43.65754" lon="3.79918">
        <ele>207.5</ele>
        <time>2016-04-19T10:37:52Z</time>
      </trkpt>
      <trkpt lat="43.65754" lon="3.79915">
        <ele>207</ele>
        <time>2016-04-19T10:37:53Z</time>
      </trkpt>
      <trkpt lat="43.65753" lon="3.79914">
        <ele>207</ele>
        <time>2016-04-19T10:37:54Z</time>
      </trkpt>
      <trkpt lat="43.65752" lon="3.7991">
        <ele>206.5</ele>
        <time>2016-04-19T10:37:55Z</time>
      </trkpt>
      <trkpt lat="43.65752" lon="3.79907">
        <ele>206</ele>
        <time>2016-04-19T10:37:56Z</time>
      </trkpt>
      <trkpt lat="43.6575" lon="3.79904">
        <ele>206.5</ele>
        <time>2016-04-19T10:37:58Z</time>
      </trkpt>
      <trkpt lat="43.65749" lon="3.79902">
        <ele>206</ele>
        <time>2016-04-19T10:37:58Z</time>
      </trkpt>
      <trkpt lat="43.65748" lon="3.799">
        <ele>205.5</ele>
        <time>2016-04-19T10:37:59Z</time>
      </trkpt>
      <trkpt lat="43.65747" lon="3.79897">
        <ele>205</ele>
        <time>2016-04-19T10:38:00Z</time>
      </trkpt>
      <trkpt lat="43.65745" lon="3.79894">
        <ele>204.5</ele>
        <time>2016-04-19T10:38:01Z</time>
      </trkpt>
      <trkpt lat="43.65744" lon="3.79893">
        <ele>204.5</ele>
        <time>2016-04-19T10:38:02Z</time>
      </trkpt>
      <trkpt lat="43.65742" lon="3.7989">
        <ele>204.5</ele>
        <time>2016-04-19T10:38:03Z</time>
      </trkpt>
      <trkpt lat="43.65742" lon="3.79888">
        <ele>204</ele>
        <time>2016-04-19T10:38:04Z</time>
      </trkpt>
      <trkpt lat="43.65742" lon="3.7988">
        <ele>204</ele>
        <time>2016-04-19T10:38:07Z</time>
      </trkpt>
      <trkpt lat="43.65743" lon="3.79875">
        <ele>204</ele>
        <time>2016-04-19T10:38:07Z</time>
      </trkpt>
      <trkpt lat="43.65743" lon="3.7987">
        <ele>204</ele>
        <time>2016-04-19T10:38:08Z</time>
      </trkpt>
      <trkpt lat="43.65741" lon="3.79869">
        <ele>204</ele>
        <time>2016-04-19T10:38:09Z</time>
      </trkpt>
      <trkpt lat="43.6574" lon="3.79867">
        <ele>204</ele>
        <time>2016-04-19T10:38:10Z</time>
      </trkpt>
      <trkpt lat="43.65739" lon="3.79867">
        <ele>204.5</ele>
        <time>2016-04-19T10:38:11Z</time>
      </trkpt>
      <trkpt lat="43.65738" lon="3.79866">
        <ele>204.5</ele>
        <time>2016-04-19T10:38:12Z</time>
      </trkpt>
      <trkpt lat="43.65738" lon="3.79862">
        <ele>204.5</ele>
        <time>2016-04-19T10:38:13Z</time>
      </trkpt>
      <trkpt lat="43.65737" lon="3.7986">
        <ele>204.5</ele>
        <time>2016-04-19T10:38:14Z</time>
      </trkpt>
      <trkpt lat="43.65736" lon="3.79859">
        <ele>205</ele>
        <time>2016-04-19T10:38:15Z</time>
      </trkpt>
      <trkpt lat="43.65735" lon="3.79858">
        <ele>205.5</ele>
        <time>2016-04-19T10:38:17Z</time>
      </trkpt>
      <trkpt lat="43.65732" lon="3.79856">
        <ele>205.5</ele>
        <time>2016-04-19T10:38:17Z</time>
      </trkpt>
      <trkpt lat="43.65731" lon="3.79851">
        <ele>205.5</ele>
        <time>2016-04-19T10:38:18Z</time>
      </trkpt>
      <trkpt lat="43.6573" lon="3.79848">
        <ele>205.5</ele>
        <time>2016-04-19T10:38:19Z</time>
      </trkpt>
      <trkpt lat="43.65725" lon="3.79848">
        <ele>205.5</ele>
        <time>2016-04-19T10:38:20Z</time>
      </trkpt>
      <trkpt lat="43.65722" lon="3.79846">
        <ele>206</ele>
        <time>2016-04-19T10:38:21Z</time>
      </trkpt>
      <trkpt lat="43.65717" lon="3.79844">
        <ele>206</ele>
        <time>2016-04-19T10:38:22Z</time>
      </trkpt>
      <trkpt lat="43.65714" lon="3.79843">
        <ele>206</ele>
        <time>2016-04-19T10:38:23Z</time>
      </trkpt>
      <trkpt lat="43.65712" lon="3.79842">
        <ele>206.5</ele>
        <time>2016-04-19T10:38:24Z</time>
      </trkpt>
      <trkpt lat="43.65707" lon="3.79841">
        <ele>206.5</ele>
        <time>2016-04-19T10:38:25Z</time>
      </trkpt>
      <trkpt lat="43.65703" lon="3.79838">
        <ele>206.5</ele>
        <time>2016-04-19T10:38:26Z</time>
      </trkpt>
      <trkpt lat="43.657" lon="3.79836">
        <ele>206.5</ele>
        <time>2016-04-19T10:38:27Z</time>
      </trkpt>
      <trkpt lat="43.65698" lon="3.79829">
        <ele>206.5</ele>
        <time>2016-04-19T10:38:28Z</time>
      </trkpt>
      <trkpt lat="43.65695" lon="3.79825">
        <ele>206.5</ele>
        <time>2016-04-19T10:38:29Z</time>
      </trkpt>
      <trkpt lat="43.6569" lon="3.79823">
        <ele>206.5</ele>
        <time>2016-04-19T10:38:30Z</time>
      </trkpt>
      <trkpt lat="43.65686" lon="3.79821">
        <ele>206.5</ele>
        <time>2016-04-19T10:38:31Z</time>
      </trkpt>
      <trkpt lat="43.6568" lon="3.79808">
        <ele>207</ele>
        <time>2016-04-19T10:38:33Z</time>
      </trkpt>
      <trkpt lat="43.65675" lon="3.79807">
        <ele>207</ele>
        <time>2016-04-19T10:38:34Z</time>
      </trkpt>
      <trkpt lat="43.65671" lon="3.79807">
        <ele>207</ele>
        <time>2016-04-19T10:38:35Z</time>
      </trkpt>
      <trkpt lat="43.65667" lon="3.79803">
        <ele>207</ele>
        <time>2016-04-19T10:38:36Z</time>
      </trkpt>
      <trkpt lat="43.65664" lon="3.79798">
        <ele>207</ele>
        <time>2016-04-19T10:38:37Z</time>
      </trkpt>
      <trkpt lat="43.65658" lon="3.79798">
        <ele>207</ele>
        <time>2016-04-19T10:38:38Z</time>
      </trkpt>
      <trkpt lat="43.65653" lon="3.79797">
        <ele>207</ele>
        <time>2016-04-19T10:38:39Z</time>
      </trkpt>
      <trkpt lat="43.65649" lon="3.79795">
        <ele>207</ele>
        <time>2016-04-19T10:38:40Z</time>
      </trkpt>
      <trkpt lat="43.65645" lon="3.79789">
        <ele>207</ele>
        <time>2016-04-19T10:38:41Z</time>
      </trkpt>
      <trkpt lat="43.65639" lon="3.79784">
        <ele>207</ele>
        <time>2016-04-19T10:38:42Z</time>
      </trkpt>
      <trkpt lat="43.65635" lon="3.79781">
        <ele>207</ele>
        <time>2016-04-19T10:38:43Z</time>
      </trkpt>
      <trkpt lat="43.65632" lon="3.79778">
        <ele>206.5</ele>
        <time>2016-04-19T10:38:44Z</time>
      </trkpt>
      <trkpt lat="43.65618" lon="3.79778">
        <ele>206.5</ele>
        <time>2016-04-19T10:38:46Z</time>
      </trkpt>
      <trkpt lat="43.65603" lon="3.79777">
        <ele>206.5</ele>
        <time>2016-04-19T10:38:48Z</time>
      </trkpt>
      <trkpt lat="43.65598" lon="3.79773">
        <ele>206.5</ele>
        <time>2016-04-19T10:38:49Z</time>
      </trkpt>
      <trkpt lat="43.65584" lon="3.79771">
        <ele>206.5</ele>
        <time>2016-04-19T10:38:51Z</time>
      </trkpt>
      <trkpt lat="43.6557" lon="3.79767">
        <ele>206</ele>
        <time>2016-04-19T10:38:53Z</time>
      </trkpt>
      <trkpt lat="43.65553" lon="3.79764">
        <ele>205.5</ele>
        <time>2016-04-19T10:38:55Z</time>
      </trkpt>
      <trkpt lat="43.65545" lon="3.7976">
        <ele>205.5</ele>
        <time>2016-04-19T10:38:56Z</time>
      </trkpt>
      <trkpt lat="43.65539" lon="3.79752">
        <ele>205.5</ele>
        <time>2016-04-19T10:38:57Z</time>
      </trkpt>
      <trkpt lat="43.65535" lon="3.79742">
        <ele>205.5</ele>
        <time>2016-04-19T10:38:58Z</time>
      </trkpt>
      <trkpt lat="43.65531" lon="3.79734">
        <ele>206</ele>
        <time>2016-04-19T10:38:59Z</time>
      </trkpt>
      <trkpt lat="43.65528" lon="3.79727">
        <ele>205.5</ele>
        <time>2016-04-19T10:39:00Z</time>
      </trkpt>
      <trkpt lat="43.65526" lon="3.7972">
        <ele>205.5</ele>
        <time>2016-04-19T10:39:01Z</time>
      </trkpt>
      <trkpt lat="43.65524" lon="3.79711">
        <ele>205.5</ele>
        <time>2016-04-19T10:39:02Z</time>
      </trkpt>
      <trkpt lat="43.65522" lon="3.79703">
        <ele>205.5</ele>
        <time>2016-04-19T10:39:03Z</time>
      </trkpt>
      <trkpt lat="43.65521" lon="3.79694">
        <ele>205.5</ele>
        <time>2016-04-19T10:39:04Z</time>
      </trkpt>
      <trkpt lat="43.6552" lon="3.79687">
        <ele>205.5</ele>
        <time>2016-04-19T10:39:05Z</time>
      </trkpt>
      <trkpt lat="43.65518" lon="3.79681">
        <ele>205.5</ele>
        <time>2016-04-19T10:39:06Z</time>
      </trkpt>
      <trkpt lat="43.65516" lon="3.79677">
        <ele>205.5</ele>
        <time>2016-04-19T10:39:07Z</time>
      </trkpt>
      <trkpt lat="43.65515" lon="3.79673">
        <ele>205.5</ele>
        <time>2016-04-19T10:39:08Z</time>
      </trkpt>
      <trkpt lat="43.65514" lon="3.79669">
        <ele>205</ele>
        <time>2016-04-19T10:39:09Z</time>
      </trkpt>
      <trkpt lat="43.65512" lon="3.79666">
        <ele>205</ele>
        <time>2016-04-19T10:39:10Z</time>
      </trkpt>
      <trkpt lat="43.65511" lon="3.79662">
        <ele>205</ele>
        <time>2016-04-19T10:39:11Z</time>
      </trkpt>
      <trkpt lat="43.65509" lon="3.79659">
        <ele>205</ele>
        <time>2016-04-19T10:39:12Z</time>
      </trkpt>
      <trkpt lat="43.65508" lon="3.79654">
        <ele>205</ele>
        <time>2016-04-19T10:39:13Z</time>
      </trkpt>
      <trkpt lat="43.65507" lon="3.79649">
        <ele>205</ele>
        <time>2016-04-19T10:39:14Z</time>
      </trkpt>
      <trkpt lat="43.65504" lon="3.79647">
        <ele>205.5</ele>
        <time>2016-04-19T10:39:15Z</time>
      </trkpt>
      <trkpt lat="43.65503" lon="3.79643">
        <ele>205.5</ele>
        <time>2016-04-19T10:39:16Z</time>
      </trkpt>
      <trkpt lat="43.65501" lon="3.7964">
        <ele>205</ele>
        <time>2016-04-19T10:39:17Z</time>
      </trkpt>
      <trkpt lat="43.65498" lon="3.79639">
        <ele>205</ele>
        <time>2016-04-19T10:39:18Z</time>
      </trkpt>
      <trkpt lat="43.65496" lon="3.79636">
        <ele>206</ele>
        <time>2016-04-19T10:39:19Z</time>
      </trkpt>
      <trkpt lat="43.65494" lon="3.79632">
        <ele>205.5</ele>
        <time>2016-04-19T10:39:20Z</time>
      </trkpt>
      <trkpt lat="43.65492" lon="3.7963">
        <ele>205.5</ele>
        <time>2016-04-19T10:39:21Z</time>
      </trkpt>
      <trkpt lat="43.65491" lon="3.79624">
        <ele>205.5</ele>
        <time>2016-04-19T10:39:22Z</time>
      </trkpt>
      <trkpt lat="43.65488" lon="3.79622">
        <ele>205.5</ele>
        <time>2016-04-19T10:39:23Z</time>
      </trkpt>
      <trkpt lat="43.65486" lon="3.79619">
        <ele>205.5</ele>
        <time>2016-04-19T10:39:24Z</time>
      </trkpt>
      <trkpt lat="43.65483" lon="3.79616">
        <ele>205.5</ele>
        <time>2016-04-19T10:39:25Z</time>
      </trkpt>
      <trkpt lat="43.6548" lon="3.79613">
        <ele>205</ele>
        <time>2016-04-19T10:39:26Z</time>
      </trkpt>
      <trkpt lat="43.65478" lon="3.7961">
        <ele>205</ele>
        <time>2016-04-19T10:39:27Z</time>
      </trkpt>
      <trkpt lat="43.65475" lon="3.79607">
        <ele>204.5</ele>
        <time>2016-04-19T10:39:28Z</time>
      </trkpt>
      <trkpt lat="43.65473" lon="3.79604">
        <ele>204.5</ele>
        <time>2016-04-19T10:39:29Z</time>
      </trkpt>
      <trkpt lat="43.6547" lon="3.79601">
        <ele>204</ele>
        <time>2016-04-19T10:39:30Z</time>
      </trkpt>
      <trkpt lat="43.65467" lon="3.79599">
        <ele>204.5</ele>
        <time>2016-04-19T10:39:31Z</time>
      </trkpt>
      <trkpt lat="43.65466" lon="3.79596">
        <ele>204</ele>
        <time>2016-04-19T10:39:32Z</time>
      </trkpt>
      <trkpt lat="43.65463" lon="3.79594">
        <ele>204.5</ele>
        <time>2016-04-19T10:39:33Z</time>
      </trkpt>
      <trkpt lat="43.65461" lon="3.79591">
        <ele>204.5</ele>
        <time>2016-04-19T10:39:34Z</time>
      </trkpt>
      <trkpt lat="43.65459" lon="3.79588">
        <ele>204.5</ele>
        <time>2016-04-19T10:39:35Z</time>
      </trkpt>
      <trkpt lat="43.65458" lon="3.79584">
        <ele>204.5</ele>
        <time>2016-04-19T10:39:36Z</time>
      </trkpt>
      <trkpt lat="43.65456" lon="3.79582">
        <ele>204.5</ele>
        <time>2016-04-19T10:39:37Z</time>
      </trkpt>
      <trkpt lat="43.65454" lon="3.79579">
        <ele>204.5</ele>
        <time>2016-04-19T10:39:38Z</time>
      </trkpt>
      <trkpt lat="43.65452" lon="3.79577">
        <ele>204.5</ele>
        <time>2016-04-19T10:39:39Z</time>
      </trkpt>
      <trkpt lat="43.65449" lon="3.79574">
        <ele>204</ele>
        <time>2016-04-19T10:39:40Z</time>
      </trkpt>
      <trkpt lat="43.65447" lon="3.79572">
        <ele>204</ele>
        <time>2016-04-19T10:39:41Z</time>
      </trkpt>
      <trkpt lat="43.65445" lon="3.79571">
        <ele>203.5</ele>
        <time>2016-04-19T10:39:42Z</time>
      </trkpt>
      <trkpt lat="43.65444" lon="3.79566">
        <ele>202.5</ele>
        <time>2016-04-19T10:39:43Z</time>
      </trkpt>
      <trkpt lat="43.65441" lon="3.79565">
        <ele>202.5</ele>
        <time>2016-04-19T10:39:44Z</time>
      </trkpt>
      <trkpt lat="43.65438" lon="3.79562">
        <ele>202.5</ele>
        <time>2016-04-19T10:39:45Z</time>
      </trkpt>
      <trkpt lat="43.65434" lon="3.7956">
        <ele>202.5</ele>
        <time>2016-04-19T10:39:46Z</time>
      </trkpt>
      <trkpt lat="43.65432" lon="3.79557">
        <ele>202</ele>
        <time>2016-04-19T10:39:47Z</time>
      </trkpt>
      <trkpt lat="43.65429" lon="3.79555">
        <ele>202</ele>
        <time>2016-04-19T10:39:48Z</time>
      </trkpt>
      <trkpt lat="43.65426" lon="3.79553">
        <ele>201.5</ele>
        <time>2016-04-19T10:39:49Z</time>
      </trkpt>
      <trkpt lat="43.65422" lon="3.79551">
        <ele>201</ele>
        <time>2016-04-19T10:39:50Z</time>
      </trkpt>
      <trkpt lat="43.65418" lon="3.79548">
        <ele>201</ele>
        <time>2016-04-19T10:39:51Z</time>
      </trkpt>
      <trkpt lat="43.65414" lon="3.79547">
        <ele>200.5</ele>
        <time>2016-04-19T10:39:52Z</time>
      </trkpt>
      <trkpt lat="43.6541" lon="3.79544">
        <ele>200.5</ele>
        <time>2016-04-19T10:39:53Z</time>
      </trkpt>
      <trkpt lat="43.65412" lon="3.79541">
        <ele>200.5</ele>
        <time>2016-04-19T10:39:54Z</time>
      </trkpt>
      <trkpt lat="43.65404" lon="3.79533">
        <ele>200.5</ele>
        <time>2016-04-19T10:39:56Z</time>
      </trkpt>
      <trkpt lat="43.654" lon="3.7953">
        <ele>200.5</ele>
        <time>2016-04-19T10:39:57Z</time>
      </trkpt>
      <trkpt lat="43.65394" lon="3.79526">
        <ele>199.5</ele>
        <time>2016-04-19T10:39:58Z</time>
      </trkpt>
      <trkpt lat="43.65387" lon="3.79525">
        <ele>199.5</ele>
        <time>2016-04-19T10:39:59Z</time>
      </trkpt>
      <trkpt lat="43.65368" lon="3.79528">
        <ele>199.5</ele>
        <time>2016-04-19T10:40:01Z</time>
      </trkpt>
      <trkpt lat="43.6535" lon="3.79528">
        <ele>197.5</ele>
        <time>2016-04-19T10:40:03Z</time>
      </trkpt>
      <trkpt lat="43.65339" lon="3.7953">
        <ele>197</ele>
        <time>2016-04-19T10:40:04Z</time>
      </trkpt>
      <trkpt lat="43.65329" lon="3.79531">
        <ele>197</ele>
        <time>2016-04-19T10:40:05Z</time>
      </trkpt>
      <trkpt lat="43.6531" lon="3.79531">
        <ele>196</ele>
        <time>2016-04-19T10:40:07Z</time>
      </trkpt>
      <trkpt lat="43.653" lon="3.79528">
        <ele>196</ele>
        <time>2016-04-19T10:40:08Z</time>
      </trkpt>
      <trkpt lat="43.65288" lon="3.79527">
        <ele>196</ele>
        <time>2016-04-19T10:40:09Z</time>
      </trkpt>
      <trkpt lat="43.65277" lon="3.79509">
        <ele>193.5</ele>
        <time>2016-04-19T10:40:11Z</time>
      </trkpt>
      <trkpt lat="43.65269" lon="3.79502">
        <ele>193</ele>
        <time>2016-04-19T10:40:12Z</time>
      </trkpt>
      <trkpt lat="43.65261" lon="3.79496">
        <ele>193.5</ele>
        <time>2016-04-19T10:40:13Z</time>
      </trkpt>
      <trkpt lat="43.65255" lon="3.79487">
        <ele>193</ele>
        <time>2016-04-19T10:40:14Z</time>
      </trkpt>
      <trkpt lat="43.65249" lon="3.79478">
        <ele>193</ele>
        <time>2016-04-19T10:40:15Z</time>
      </trkpt>
      <trkpt lat="43.65241" lon="3.79472">
        <ele>192.5</ele>
        <time>2016-04-19T10:40:16Z</time>
      </trkpt>
      <trkpt lat="43.65234" lon="3.79467">
        <ele>192.5</ele>
        <time>2016-04-19T10:40:17Z</time>
      </trkpt>
      <trkpt lat="43.65226" lon="3.79462">
        <ele>192.5</ele>
        <time>2016-04-19T10:40:18Z</time>
      </trkpt>
      <trkpt lat="43.6522" lon="3.79455">
        <ele>192</ele>
        <time>2016-04-19T10:40:19Z</time>
      </trkpt>
      <trkpt lat="43.65213" lon="3.79448">
        <ele>191</ele>
        <time>2016-04-19T10:40:20Z</time>
      </trkpt>
      <trkpt lat="43.65208" lon="3.79439">
        <ele>190</ele>
        <time>2016-04-19T10:40:21Z</time>
      </trkpt>
      <trkpt lat="43.65203" lon="3.7943">
        <ele>189</ele>
        <time>2016-04-19T10:40:22Z</time>
      </trkpt>
      <trkpt lat="43.65198" lon="3.79421">
        <ele>188</ele>
        <time>2016-04-19T10:40:23Z</time>
      </trkpt>
      <trkpt lat="43.65195" lon="3.79412">
        <ele>187.5</ele>
        <time>2016-04-19T10:40:24Z</time>
      </trkpt>
      <trkpt lat="43.65193" lon="3.79404">
        <ele>186.5</ele>
        <time>2016-04-19T10:40:25Z</time>
      </trkpt>
      <trkpt lat="43.65191" lon="3.79394">
        <ele>185</ele>
        <time>2016-04-19T10:40:26Z</time>
      </trkpt>
      <trkpt lat="43.65187" lon="3.79383">
        <ele>184.5</ele>
        <time>2016-04-19T10:40:27Z</time>
      </trkpt>
      <trkpt lat="43.65184" lon="3.79375">
        <ele>184</ele>
        <time>2016-04-19T10:40:28Z</time>
      </trkpt>
      <trkpt lat="43.65179" lon="3.7937">
        <ele>184</ele>
        <time>2016-04-19T10:40:29Z</time>
      </trkpt>
      <trkpt lat="43.65175" lon="3.79364">
        <ele>182.5</ele>
        <time>2016-04-19T10:40:30Z</time>
      </trkpt>
      <trkpt lat="43.65172" lon="3.79356">
        <ele>180.5</ele>
        <time>2016-04-19T10:40:31Z</time>
      </trkpt>
      <trkpt lat="43.6517" lon="3.79348">
        <ele>178.5</ele>
        <time>2016-04-19T10:40:32Z</time>
      </trkpt>
      <trkpt lat="43.65168" lon="3.79339">
        <ele>177.5</ele>
        <time>2016-04-19T10:40:33Z</time>
      </trkpt>
      <trkpt lat="43.65168" lon="3.79331">
        <ele>177.5</ele>
        <time>2016-04-19T10:40:34Z</time>
      </trkpt>
      <trkpt lat="43.65171" lon="3.79323">
        <ele>177</ele>
        <time>2016-04-19T10:40:35Z</time>
      </trkpt>
      <trkpt lat="43.65174" lon="3.79309">
        <ele>176.5</ele>
        <time>2016-04-19T10:40:37Z</time>
      </trkpt>
      <trkpt lat="43.65176" lon="3.793">
        <ele>176.5</ele>
        <time>2016-04-19T10:40:38Z</time>
      </trkpt>
      <trkpt lat="43.65177" lon="3.7929">
        <ele>176</ele>
        <time>2016-04-19T10:40:39Z</time>
      </trkpt>
      <trkpt lat="43.65179" lon="3.7928">
        <ele>173.5</ele>
        <time>2016-04-19T10:40:40Z</time>
      </trkpt>
      <trkpt lat="43.65181" lon="3.79269">
        <ele>173.5</ele>
        <time>2016-04-19T10:40:41Z</time>
      </trkpt>
      <trkpt lat="43.65182" lon="3.79259">
        <ele>172</ele>
        <time>2016-04-19T10:40:42Z</time>
      </trkpt>
      <trkpt lat="43.65186" lon="3.79252">
        <ele>172</ele>
        <time>2016-04-19T10:40:43Z</time>
      </trkpt>
      <trkpt lat="43.65194" lon="3.79236">
        <ele>171.5</ele>
        <time>2016-04-19T10:40:45Z</time>
      </trkpt>
      <trkpt lat="43.65196" lon="3.79231">
        <ele>171</ele>
        <time>2016-04-19T10:40:46Z</time>
      </trkpt>
      <trkpt lat="43.65197" lon="3.79225">
        <ele>171</ele>
        <time>2016-04-19T10:40:47Z</time>
      </trkpt>
      <trkpt lat="43.65199" lon="3.7922">
        <ele>171</ele>
        <time>2016-04-19T10:40:48Z</time>
      </trkpt>
      <trkpt lat="43.65202" lon="3.79215">
        <ele>171</ele>
        <time>2016-04-19T10:40:49Z</time>
      </trkpt>
      <trkpt lat="43.65203" lon="3.7921">
        <ele>171</ele>
        <time>2016-04-19T10:40:50Z</time>
      </trkpt>
      <trkpt lat="43.65207" lon="3.79204">
        <ele>171</ele>
        <time>2016-04-19T10:40:51Z</time>
      </trkpt>
      <trkpt lat="43.65211" lon="3.79199">
        <ele>170.5</ele>
        <time>2016-04-19T10:40:52Z</time>
      </trkpt>
      <trkpt lat="43.65215" lon="3.79193">
        <ele>170.5</ele>
        <time>2016-04-19T10:40:53Z</time>
      </trkpt>
      <trkpt lat="43.65217" lon="3.79188">
        <ele>170.5</ele>
        <time>2016-04-19T10:40:54Z</time>
      </trkpt>
      <trkpt lat="43.6522" lon="3.79186">
        <ele>170</ele>
        <time>2016-04-19T10:40:55Z</time>
      </trkpt>
      <trkpt lat="43.6522" lon="3.79183">
        <ele>170</ele>
        <time>2016-04-19T10:40:56Z</time>
      </trkpt>
      <trkpt lat="43.65223" lon="3.79181">
        <ele>170</ele>
        <time>2016-04-19T10:40:58Z</time>
      </trkpt>
      <trkpt lat="43.65222" lon="3.79178">
        <ele>170</ele>
        <time>2016-04-19T10:41:00Z</time>
      </trkpt>
      <trkpt lat="43.65225" lon="3.79167">
        <ele>169.5</ele>
        <time>2016-04-19T10:41:02Z</time>
      </trkpt>
      <trkpt lat="43.65233" lon="3.79157">
        <ele>169.5</ele>
        <time>2016-04-19T10:41:04Z</time>
      </trkpt>
      <trkpt lat="43.65235" lon="3.79155">
        <ele>169</ele>
        <time>2016-04-19T10:41:05Z</time>
      </trkpt>
      <trkpt lat="43.65236" lon="3.79151">
        <ele>169</ele>
        <time>2016-04-19T10:41:06Z</time>
      </trkpt>
      <trkpt lat="43.65239" lon="3.79148">
        <ele>169</ele>
        <time>2016-04-19T10:41:07Z</time>
      </trkpt>
      <trkpt lat="43.6524" lon="3.79147">
        <ele>169</ele>
        <time>2016-04-19T10:41:08Z</time>
      </trkpt>
      <trkpt lat="43.65243" lon="3.79146">
        <ele>169</ele>
        <time>2016-04-19T10:41:09Z</time>
      </trkpt>
      <trkpt lat="43.65245" lon="3.79145">
        <ele>168.5</ele>
        <time>2016-04-19T10:41:10Z</time>
      </trkpt>
      <trkpt lat="43.65246" lon="3.79142">
        <ele>168.5</ele>
        <time>2016-04-19T10:41:11Z</time>
      </trkpt>
      <trkpt lat="43.65247" lon="3.79141">
        <ele>168.5</ele>
        <time>2016-04-19T10:41:12Z</time>
      </trkpt>
      <trkpt lat="43.65248" lon="3.7914">
        <ele>168</ele>
        <time>2016-04-19T10:41:13Z</time>
      </trkpt>
      <trkpt lat="43.65249" lon="3.79138">
        <ele>167</ele>
        <time>2016-04-19T10:41:14Z</time>
      </trkpt>
      <trkpt lat="43.65248" lon="3.79136">
        <ele>166</ele>
        <time>2016-04-19T10:41:15Z</time>
      </trkpt>
      <trkpt lat="43.65248" lon="3.79132">
        <ele>166</ele>
        <time>2016-04-19T10:41:16Z</time>
      </trkpt>
      <trkpt lat="43.65248" lon="3.79129">
        <ele>164.5</ele>
        <time>2016-04-19T10:41:17Z</time>
      </trkpt>
      <trkpt lat="43.65247" lon="3.79124">
        <ele>164</ele>
        <time>2016-04-19T10:41:18Z</time>
      </trkpt>
      <trkpt lat="43.65244" lon="3.79119">
        <ele>163.5</ele>
        <time>2016-04-19T10:41:19Z</time>
      </trkpt>
      <trkpt lat="43.65245" lon="3.79113">
        <ele>163.5</ele>
        <time>2016-04-19T10:41:20Z</time>
      </trkpt>
      <trkpt lat="43.65245" lon="3.79109">
        <ele>163</ele>
        <time>2016-04-19T10:41:21Z</time>
      </trkpt>
      <trkpt lat="43.65247" lon="3.79105">
        <ele>163</ele>
        <time>2016-04-19T10:41:22Z</time>
      </trkpt>
      <trkpt lat="43.6525" lon="3.79104">
        <ele>162.5</ele>
        <time>2016-04-19T10:41:23Z</time>
      </trkpt>
      <trkpt lat="43.65253" lon="3.79105">
        <ele>162</ele>
        <time>2016-04-19T10:41:24Z</time>
      </trkpt>
      <trkpt lat="43.65257" lon="3.79105">
        <ele>162</ele>
        <time>2016-04-19T10:41:25Z</time>
      </trkpt>
      <trkpt lat="43.65259" lon="3.79108">
        <ele>161.5</ele>
        <time>2016-04-19T10:41:26Z</time>
      </trkpt>
      <trkpt lat="43.65262" lon="3.79107">
        <ele>160.5</ele>
        <time>2016-04-19T10:41:27Z</time>
      </trkpt>
      <trkpt lat="43.65265" lon="3.79106">
        <ele>160</ele>
        <time>2016-04-19T10:41:27Z</time>
      </trkpt>
      <trkpt lat="43.65269" lon="3.79105">
        <ele>160</ele>
        <time>2016-04-19T10:41:29Z</time>
      </trkpt>
      <trkpt lat="43.65273" lon="3.79104">
        <ele>159.5</ele>
        <time>2016-04-19T10:41:30Z</time>
      </trkpt>
      <trkpt lat="43.65276" lon="3.79104">
        <ele>159</ele>
        <time>2016-04-19T10:41:30Z</time>
      </trkpt>
      <trkpt lat="43.65279" lon="3.79105">
        <ele>158.5</ele>
        <time>2016-04-19T10:41:32Z</time>
      </trkpt>
      <trkpt lat="43.65282" lon="3.79104">
        <ele>158</ele>
        <time>2016-04-19T10:41:33Z</time>
      </trkpt>
      <trkpt lat="43.65285" lon="3.79104">
        <ele>157.5</ele>
        <time>2016-04-19T10:41:34Z</time>
      </trkpt>
      <trkpt lat="43.65288" lon="3.79106">
        <ele>157</ele>
        <time>2016-04-19T10:41:34Z</time>
      </trkpt>
      <trkpt lat="43.6529" lon="3.79108">
        <ele>156.5</ele>
        <time>2016-04-19T10:41:35Z</time>
      </trkpt>
      <trkpt lat="43.65292" lon="3.79108">
        <ele>156.5</ele>
        <time>2016-04-19T10:41:37Z</time>
      </trkpt>
      <trkpt lat="43.65294" lon="3.79108">
        <ele>156.5</ele>
        <time>2016-04-19T10:41:37Z</time>
      </trkpt>
      <trkpt lat="43.65295" lon="3.79109">
        <ele>156.5</ele>
        <time>2016-04-19T10:41:38Z</time>
      </trkpt>
      <trkpt lat="43.65297" lon="3.7911">
        <ele>156</ele>
        <time>2016-04-19T10:41:39Z</time>
      </trkpt>
      <trkpt lat="43.65298" lon="3.7911">
        <ele>155.5</ele>
        <time>2016-04-19T10:41:40Z</time>
      </trkpt>
      <trkpt lat="43.653" lon="3.7911">
        <ele>155</ele>
        <time>2016-04-19T10:41:41Z</time>
      </trkpt>
      <trkpt lat="43.653" lon="3.79113">
        <ele>154.5</ele>
        <time>2016-04-19T10:41:42Z</time>
      </trkpt>
      <trkpt lat="43.65301" lon="3.79114">
        <ele>154.5</ele>
        <time>2016-04-19T10:41:43Z</time>
      </trkpt>
      <trkpt lat="43.65302" lon="3.79112">
        <ele>154.5</ele>
        <time>2016-04-19T10:41:44Z</time>
      </trkpt>
      <trkpt lat="43.65303" lon="3.79112">
        <ele>156</ele>
        <time>2016-04-19T10:41:45Z</time>
      </trkpt>
      <trkpt lat="43.65304" lon="3.79113">
        <ele>156</ele>
        <time>2016-04-19T10:41:46Z</time>
      </trkpt>
      <trkpt lat="43.65305" lon="3.79114">
        <ele>156.5</ele>
        <time>2016-04-19T10:41:47Z</time>
      </trkpt>
      <trkpt lat="43.65306" lon="3.79114">
        <ele>156</ele>
        <time>2016-04-19T10:41:48Z</time>
      </trkpt>
      <trkpt lat="43.65307" lon="3.79114">
        <ele>156</ele>
        <time>2016-04-19T10:41:49Z</time>
      </trkpt>
      <trkpt lat="43.65309" lon="3.79114">
        <ele>156</ele>
        <time>2016-04-19T10:41:50Z</time>
      </trkpt>
      <trkpt lat="43.6531" lon="3.79116">
        <ele>155.5</ele>
        <time>2016-04-19T10:41:51Z</time>
      </trkpt>
      <trkpt lat="43.65313" lon="3.79116">
        <ele>155.5</ele>
        <time>2016-04-19T10:41:52Z</time>
      </trkpt>
      <trkpt lat="43.65314" lon="3.79116">
        <ele>154</ele>
        <time>2016-04-19T10:41:53Z</time>
      </trkpt>
      <trkpt lat="43.65315" lon="3.79115">
        <ele>153.5</ele>
        <time>2016-04-19T10:41:54Z</time>
      </trkpt>
      <trkpt lat="43.65317" lon="3.79115">
        <ele>153</ele>
        <time>2016-04-19T10:41:55Z</time>
      </trkpt>
      <trkpt lat="43.65321" lon="3.79111">
        <ele>151.5</ele>
        <time>2016-04-19T10:41:57Z</time>
      </trkpt>
      <trkpt lat="43.65323" lon="3.79111">
        <ele>153</ele>
        <time>2016-04-19T10:41:58Z</time>
      </trkpt>
      <trkpt lat="43.65325" lon="3.79111">
        <ele>154</ele>
        <time>2016-04-19T10:41:59Z</time>
      </trkpt>
      <trkpt lat="43.65327" lon="3.79111">
        <ele>153.5</ele>
        <time>2016-04-19T10:42:00Z</time>
      </trkpt>
      <trkpt lat="43.6533" lon="3.79109">
        <ele>153.5</ele>
        <time>2016-04-19T10:42:01Z</time>
      </trkpt>
      <trkpt lat="43.65332" lon="3.79108">
        <ele>155</ele>
        <time>2016-04-19T10:42:02Z</time>
      </trkpt>
      <trkpt lat="43.65336" lon="3.79108">
        <ele>153.5</ele>
        <time>2016-04-19T10:42:03Z</time>
      </trkpt>
      <trkpt lat="43.6534" lon="3.79109">
        <ele>153.5</ele>
        <time>2016-04-19T10:42:04Z</time>
      </trkpt>
      <trkpt lat="43.65344" lon="3.79109">
        <ele>153.5</ele>
        <time>2016-04-19T10:42:05Z</time>
      </trkpt>
      <trkpt lat="43.65348" lon="3.7911">
        <ele>154</ele>
        <time>2016-04-19T10:42:06Z</time>
      </trkpt>
      <trkpt lat="43.65351" lon="3.79109">
        <ele>154</ele>
        <time>2016-04-19T10:42:07Z</time>
      </trkpt>
      <trkpt lat="43.65355" lon="3.79109">
        <ele>154.5</ele>
        <time>2016-04-19T10:42:08Z</time>
      </trkpt>
      <trkpt lat="43.6536" lon="3.79109">
        <ele>154</ele>
        <time>2016-04-19T10:42:09Z</time>
      </trkpt>
      <trkpt lat="43.65363" lon="3.7911">
        <ele>154</ele>
        <time>2016-04-19T10:42:10Z</time>
      </trkpt>
      <trkpt lat="43.65367" lon="3.79111">
        <ele>154</ele>
        <time>2016-04-19T10:42:11Z</time>
      </trkpt>
      <trkpt lat="43.65378" lon="3.79111">
        <ele>153.5</ele>
        <time>2016-04-19T10:42:13Z</time>
      </trkpt>
      <trkpt lat="43.65384" lon="3.79112">
        <ele>153.5</ele>
        <time>2016-04-19T10:42:14Z</time>
      </trkpt>
      <trkpt lat="43.65388" lon="3.79112">
        <ele>153</ele>
        <time>2016-04-19T10:42:15Z</time>
      </trkpt>
      <trkpt lat="43.65393" lon="3.79109">
        <ele>153</ele>
        <time>2016-04-19T10:42:16Z</time>
      </trkpt>
      <trkpt lat="43.65398" lon="3.79114">
        <ele>153</ele>
        <time>2016-04-19T10:42:17Z</time>
      </trkpt>
      <trkpt lat="43.65403" lon="3.79117">
        <ele>152.5</ele>
        <time>2016-04-19T10:42:18Z</time>
      </trkpt>
      <trkpt lat="43.65408" lon="3.7912">
        <ele>152.5</ele>
        <time>2016-04-19T10:42:19Z</time>
      </trkpt>
      <trkpt lat="43.65412" lon="3.79121">
        <ele>153</ele>
        <time>2016-04-19T10:42:20Z</time>
      </trkpt>
      <trkpt lat="43.65416" lon="3.79123">
        <ele>153</ele>
        <time>2016-04-19T10:42:21Z</time>
      </trkpt>
      <trkpt lat="43.6542" lon="3.79125">
        <ele>152.5</ele>
        <time>2016-04-19T10:42:22Z</time>
      </trkpt>
      <trkpt lat="43.65424" lon="3.79125">
        <ele>152.5</ele>
        <time>2016-04-19T10:42:23Z</time>
      </trkpt>
      <trkpt lat="43.65428" lon="3.79127">
        <ele>152</ele>
        <time>2016-04-19T10:42:24Z</time>
      </trkpt>
      <trkpt lat="43.65432" lon="3.79127">
        <ele>152.5</ele>
        <time>2016-04-19T10:42:25Z</time>
      </trkpt>
      <trkpt lat="43.65436" lon="3.79127">
        <ele>152.5</ele>
        <time>2016-04-19T10:42:26Z</time>
      </trkpt>
      <trkpt lat="43.65441" lon="3.79128">
        <ele>152.5</ele>
        <time>2016-04-19T10:42:27Z</time>
      </trkpt>
      <trkpt lat="43.65445" lon="3.79131">
        <ele>152.5</ele>
        <time>2016-04-19T10:42:28Z</time>
      </trkpt>
      <trkpt lat="43.65449" lon="3.79134">
        <ele>152</ele>
        <time>2016-04-19T10:42:29Z</time>
      </trkpt>
      <trkpt lat="43.65449" lon="3.7913">
        <ele>151.5</ele>
        <time>2016-04-19T10:42:30Z</time>
      </trkpt>
      <trkpt lat="43.6545" lon="3.7913">
        <ele>151</ele>
        <time>2016-04-19T10:42:31Z</time>
      </trkpt>
      <trkpt lat="43.65453" lon="3.79129">
        <ele>150.5</ele>
        <time>2016-04-19T10:42:32Z</time>
      </trkpt>
      <trkpt lat="43.65453" lon="3.79126">
        <ele>151.5</ele>
        <time>2016-04-19T10:42:33Z</time>
      </trkpt>
      <trkpt lat="43.65456" lon="3.79126">
        <ele>150</ele>
        <time>2016-04-19T10:42:34Z</time>
      </trkpt>
      <trkpt lat="43.65458" lon="3.79125">
        <ele>149.5</ele>
        <time>2016-04-19T10:42:35Z</time>
      </trkpt>
      <trkpt lat="43.65461" lon="3.79125">
        <ele>149.5</ele>
        <time>2016-04-19T10:42:36Z</time>
      </trkpt>
      <trkpt lat="43.65463" lon="3.79125">
        <ele>149.5</ele>
        <time>2016-04-19T10:42:37Z</time>
      </trkpt>
      <trkpt lat="43.65466" lon="3.79124">
        <ele>149</ele>
        <time>2016-04-19T10:42:38Z</time>
      </trkpt>
      <trkpt lat="43.6547" lon="3.79125">
        <ele>148.5</ele>
        <time>2016-04-19T10:42:40Z</time>
      </trkpt>
      <trkpt lat="43.65473" lon="3.79126">
        <ele>148.5</ele>
        <time>2016-04-19T10:42:40Z</time>
      </trkpt>
      <trkpt lat="43.65474" lon="3.79123">
        <ele>148.5</ele>
        <time>2016-04-19T10:42:41Z</time>
      </trkpt>
      <trkpt lat="43.65478" lon="3.79124">
        <ele>149.5</ele>
        <time>2016-04-19T10:42:42Z</time>
      </trkpt>
      <trkpt lat="43.65485" lon="3.7913">
        <ele>149.5</ele>
        <time>2016-04-19T10:42:44Z</time>
      </trkpt>
      <trkpt lat="43.65489" lon="3.79132">
        <ele>150</ele>
        <time>2016-04-19T10:42:45Z</time>
      </trkpt>
      <trkpt lat="43.65493" lon="3.79133">
        <ele>150</ele>
        <time>2016-04-19T10:42:46Z</time>
      </trkpt>
      <trkpt lat="43.65496" lon="3.79133">
        <ele>150</ele>
        <time>2016-04-19T10:42:47Z</time>
      </trkpt>
      <trkpt lat="43.655" lon="3.79134">
        <ele>150</ele>
        <time>2016-04-19T10:42:48Z</time>
      </trkpt>
      <trkpt lat="43.65504" lon="3.79135">
        <ele>150</ele>
        <time>2016-04-19T10:42:49Z</time>
      </trkpt>
      <trkpt lat="43.65508" lon="3.79135">
        <ele>150</ele>
        <time>2016-04-19T10:42:50Z</time>
      </trkpt>
      <trkpt lat="43.65511" lon="3.79133">
        <ele>149</ele>
        <time>2016-04-19T10:42:51Z</time>
      </trkpt>
      <trkpt lat="43.65515" lon="3.79134">
        <ele>148.5</ele>
        <time>2016-04-19T10:42:52Z</time>
      </trkpt>
      <trkpt lat="43.65517" lon="3.79134">
        <ele>148.5</ele>
        <time>2016-04-19T10:42:53Z</time>
      </trkpt>
      <trkpt lat="43.65527" lon="3.79139">
        <ele>147.5</ele>
        <time>2016-04-19T10:42:55Z</time>
      </trkpt>
      <trkpt lat="43.65532" lon="3.79142">
        <ele>147</ele>
        <time>2016-04-19T10:42:56Z</time>
      </trkpt>
      <trkpt lat="43.65535" lon="3.79148">
        <ele>146</ele>
        <time>2016-04-19T10:42:57Z</time>
      </trkpt>
      <trkpt lat="43.65539" lon="3.79153">
        <ele>145</ele>
        <time>2016-04-19T10:42:58Z</time>
      </trkpt>
      <trkpt lat="43.65543" lon="3.79163">
        <ele>143.5</ele>
        <time>2016-04-19T10:43:00Z</time>
      </trkpt>
      <trkpt lat="43.6555" lon="3.79162">
        <ele>142</ele>
        <time>2016-04-19T10:43:02Z</time>
      </trkpt>
      <trkpt lat="43.65552" lon="3.79162">
        <ele>142</ele>
        <time>2016-04-19T10:43:03Z</time>
      </trkpt>
      <trkpt lat="43.65557" lon="3.79161">
        <ele>142</ele>
        <time>2016-04-19T10:43:05Z</time>
      </trkpt>
      <trkpt lat="43.65559" lon="3.79163">
        <ele>142</ele>
        <time>2016-04-19T10:43:06Z</time>
      </trkpt>
      <trkpt lat="43.6556" lon="3.79165">
        <ele>142</ele>
        <time>2016-04-19T10:43:07Z</time>
      </trkpt>
      <trkpt lat="43.65562" lon="3.79166">
        <ele>142</ele>
        <time>2016-04-19T10:43:08Z</time>
      </trkpt>
      <trkpt lat="43.65564" lon="3.79168">
        <ele>142</ele>
        <time>2016-04-19T10:43:09Z</time>
      </trkpt>
      <trkpt lat="43.65565" lon="3.7917">
        <ele>142.5</ele>
        <time>2016-04-19T10:43:10Z</time>
      </trkpt>
      <trkpt lat="43.65566" lon="3.79171">
        <ele>142.5</ele>
        <time>2016-04-19T10:43:11Z</time>
      </trkpt>
      <trkpt lat="43.65569" lon="3.79172">
        <ele>142.5</ele>
        <time>2016-04-19T10:43:12Z</time>
      </trkpt>
      <trkpt lat="43.65572" lon="3.79174">
        <ele>143.5</ele>
        <time>2016-04-19T10:43:13Z</time>
      </trkpt>
      <trkpt lat="43.65575" lon="3.79181">
        <ele>142.5</ele>
        <time>2016-04-19T10:43:15Z</time>
      </trkpt>
      <trkpt lat="43.65577" lon="3.79182">
        <ele>142.5</ele>
        <time>2016-04-19T10:43:16Z</time>
      </trkpt>
      <trkpt lat="43.65581" lon="3.7918">
        <ele>143</ele>
        <time>2016-04-19T10:43:17Z</time>
      </trkpt>
      <trkpt lat="43.65584" lon="3.79182">
        <ele>143</ele>
        <time>2016-04-19T10:43:18Z</time>
      </trkpt>
      <trkpt lat="43.65587" lon="3.79184">
        <ele>144</ele>
        <time>2016-04-19T10:43:19Z</time>
      </trkpt>
      <trkpt lat="43.6559" lon="3.79185">
        <ele>145</ele>
        <time>2016-04-19T10:43:20Z</time>
      </trkpt>
      <trkpt lat="43.65592" lon="3.79187">
        <ele>146</ele>
        <time>2016-04-19T10:43:21Z</time>
      </trkpt>
      <trkpt lat="43.65594" lon="3.79187">
        <ele>147</ele>
        <time>2016-04-19T10:43:22Z</time>
      </trkpt>
      <trkpt lat="43.65595" lon="3.79189">
        <ele>148</ele>
        <time>2016-04-19T10:43:23Z</time>
      </trkpt>
      <trkpt lat="43.65597" lon="3.79191">
        <ele>148.5</ele>
        <time>2016-04-19T10:43:24Z</time>
      </trkpt>
      <trkpt lat="43.65599" lon="3.79195">
        <ele>149.5</ele>
        <time>2016-04-19T10:43:25Z</time>
      </trkpt>
      <trkpt lat="43.65601" lon="3.79196">
        <ele>149.5</ele>
        <time>2016-04-19T10:43:26Z</time>
      </trkpt>
      <trkpt lat="43.65602" lon="3.79198">
        <ele>150.5</ele>
        <time>2016-04-19T10:43:27Z</time>
      </trkpt>
      <trkpt lat="43.65603" lon="3.79203">
        <ele>150</ele>
        <time>2016-04-19T10:43:28Z</time>
      </trkpt>
      <trkpt lat="43.65605" lon="3.79205">
        <ele>149.5</ele>
        <time>2016-04-19T10:43:29Z</time>
      </trkpt>
      <trkpt lat="43.65606" lon="3.79208">
        <ele>149</ele>
        <time>2016-04-19T10:43:30Z</time>
      </trkpt>
      <trkpt lat="43.65608" lon="3.79209">
        <ele>149</ele>
        <time>2016-04-19T10:43:31Z</time>
      </trkpt>
      <trkpt lat="43.65609" lon="3.79211">
        <ele>149</ele>
        <time>2016-04-19T10:43:32Z</time>
      </trkpt>
      <trkpt lat="43.65611" lon="3.79212">
        <ele>148.5</ele>
        <time>2016-04-19T10:43:33Z</time>
      </trkpt>
      <trkpt lat="43.65613" lon="3.79214">
        <ele>148.5</ele>
        <time>2016-04-19T10:43:34Z</time>
      </trkpt>
      <trkpt lat="43.65615" lon="3.79215">
        <ele>148.5</ele>
        <time>2016-04-19T10:43:35Z</time>
      </trkpt>
      <trkpt lat="43.65617" lon="3.79217">
        <ele>148</ele>
        <time>2016-04-19T10:43:36Z</time>
      </trkpt>
      <trkpt lat="43.65619" lon="3.79218">
        <ele>148.5</ele>
        <time>2016-04-19T10:43:37Z</time>
      </trkpt>
      <trkpt lat="43.65622" lon="3.79221">
        <ele>147</ele>
        <time>2016-04-19T10:43:38Z</time>
      </trkpt>
      <trkpt lat="43.65623" lon="3.79222">
        <ele>147</ele>
        <time>2016-04-19T10:43:39Z</time>
      </trkpt>
      <trkpt lat="43.65624" lon="3.79223">
        <ele>147</ele>
        <time>2016-04-19T10:43:40Z</time>
      </trkpt>
      <trkpt lat="43.65626" lon="3.79224">
        <ele>146.5</ele>
        <time>2016-04-19T10:43:41Z</time>
      </trkpt>
      <trkpt lat="43.65628" lon="3.79225">
        <ele>146.5</ele>
        <time>2016-04-19T10:43:42Z</time>
      </trkpt>
      <trkpt lat="43.6563" lon="3.79227">
        <ele>146</ele>
        <time>2016-04-19T10:43:43Z</time>
      </trkpt>
      <trkpt lat="43.65631" lon="3.79231">
        <ele>146</ele>
        <time>2016-04-19T10:43:44Z</time>
      </trkpt>
      <trkpt lat="43.65631" lon="3.79235">
        <ele>146</ele>
        <time>2016-04-19T10:43:45Z</time>
      </trkpt>
      <trkpt lat="43.65622" lon="3.79235">
        <ele>146.5</ele>
        <time>2016-04-19T10:43:47Z</time>
      </trkpt>
      <trkpt lat="43.65625" lon="3.79241">
        <ele>145.5</ele>
        <time>2016-04-19T10:43:52Z</time>
      </trkpt>
      <trkpt lat="43.65626" lon="3.79244">
        <ele>145.5</ele>
        <time>2016-04-19T10:43:53Z</time>
      </trkpt>
      <trkpt lat="43.6563" lon="3.7925">
        <ele>145</ele>
        <time>2016-04-19T10:43:55Z</time>
      </trkpt>
      <trkpt lat="43.65631" lon="3.79253">
        <ele>145</ele>
        <time>2016-04-19T10:43:56Z</time>
      </trkpt>
      <trkpt lat="43.65646" lon="3.79254">
        <ele>145</ele>
        <time>2016-04-19T10:43:59Z</time>
      </trkpt>
      <trkpt lat="43.65649" lon="3.79261">
        <ele>144.5</ele>
        <time>2016-04-19T10:44:01Z</time>
      </trkpt>
      <trkpt lat="43.65652" lon="3.79269">
        <ele>144</ele>
        <time>2016-04-19T10:44:03Z</time>
      </trkpt>
      <trkpt lat="43.6566" lon="3.79268">
        <ele>144.5</ele>
        <time>2016-04-19T10:44:05Z</time>
      </trkpt>
      <trkpt lat="43.65664" lon="3.79271">
        <ele>144.5</ele>
        <time>2016-04-19T10:44:06Z</time>
      </trkpt>
      <trkpt lat="43.65667" lon="3.7927">
        <ele>144.5</ele>
        <time>2016-04-19T10:44:07Z</time>
      </trkpt>
      <trkpt lat="43.65671" lon="3.7927">
        <ele>144.5</ele>
        <time>2016-04-19T10:44:08Z</time>
      </trkpt>
      <trkpt lat="43.65675" lon="3.79269">
        <ele>144.5</ele>
        <time>2016-04-19T10:44:09Z</time>
      </trkpt>
      <trkpt lat="43.65677" lon="3.7927">
        <ele>144.5</ele>
        <time>2016-04-19T10:44:10Z</time>
      </trkpt>
      <trkpt lat="43.65679" lon="3.79271">
        <ele>145</ele>
        <time>2016-04-19T10:44:11Z</time>
      </trkpt>
      <trkpt lat="43.65681" lon="3.79272">
        <ele>145.5</ele>
        <time>2016-04-19T10:44:12Z</time>
      </trkpt>
      <trkpt lat="43.65683" lon="3.79273">
        <ele>145.5</ele>
        <time>2016-04-19T10:44:13Z</time>
      </trkpt>
      <trkpt lat="43.6569" lon="3.79272">
        <ele>145.5</ele>
        <time>2016-04-19T10:44:15Z</time>
      </trkpt>
      <trkpt lat="43.65692" lon="3.79276">
        <ele>146</ele>
        <time>2016-04-19T10:44:16Z</time>
      </trkpt>
      <trkpt lat="43.65695" lon="3.7928">
        <ele>146</ele>
        <time>2016-04-19T10:44:17Z</time>
      </trkpt>
      <trkpt lat="43.65697" lon="3.79282">
        <ele>146.5</ele>
        <time>2016-04-19T10:44:18Z</time>
      </trkpt>
      <trkpt lat="43.65698" lon="3.79283">
        <ele>146.5</ele>
        <time>2016-04-19T10:44:19Z</time>
      </trkpt>
      <trkpt lat="43.65701" lon="3.79285">
        <ele>147.5</ele>
        <time>2016-04-19T10:44:20Z</time>
      </trkpt>
      <trkpt lat="43.65705" lon="3.79285">
        <ele>148</ele>
        <time>2016-04-19T10:44:21Z</time>
      </trkpt>
      <trkpt lat="43.6571" lon="3.79285">
        <ele>147.5</ele>
        <time>2016-04-19T10:44:22Z</time>
      </trkpt>
      <trkpt lat="43.65714" lon="3.7929">
        <ele>147.5</ele>
        <time>2016-04-19T10:44:23Z</time>
      </trkpt>
      <trkpt lat="43.65718" lon="3.79294">
        <ele>147.5</ele>
        <time>2016-04-19T10:44:24Z</time>
      </trkpt>
      <trkpt lat="43.65721" lon="3.79299">
        <ele>148</ele>
        <time>2016-04-19T10:44:25Z</time>
      </trkpt>
      <trkpt lat="43.65723" lon="3.79303">
        <ele>148.5</ele>
        <time>2016-04-19T10:44:26Z</time>
      </trkpt>
      <trkpt lat="43.65727" lon="3.79306">
        <ele>149</ele>
        <time>2016-04-19T10:44:27Z</time>
      </trkpt>
      <trkpt lat="43.65731" lon="3.7931">
        <ele>149.5</ele>
        <time>2016-04-19T10:44:28Z</time>
      </trkpt>
      <trkpt lat="43.65742" lon="3.79319">
        <ele>149</ele>
        <time>2016-04-19T10:44:30Z</time>
      </trkpt>
      <trkpt lat="43.65747" lon="3.79325">
        <ele>148.5</ele>
        <time>2016-04-19T10:44:31Z</time>
      </trkpt>
      <trkpt lat="43.6575" lon="3.79333">
        <ele>147.5</ele>
        <time>2016-04-19T10:44:32Z</time>
      </trkpt>
      <trkpt lat="43.65752" lon="3.79338">
        <ele>147.5</ele>
        <time>2016-04-19T10:44:33Z</time>
      </trkpt>
      <trkpt lat="43.65755" lon="3.79343">
        <ele>147.5</ele>
        <time>2016-04-19T10:44:34Z</time>
      </trkpt>
      <trkpt lat="43.65759" lon="3.79347">
        <ele>148</ele>
        <time>2016-04-19T10:44:35Z</time>
      </trkpt>
      <trkpt lat="43.65761" lon="3.79352">
        <ele>148</ele>
        <time>2016-04-19T10:44:36Z</time>
      </trkpt>
      <trkpt lat="43.65764" lon="3.79356">
        <ele>148</ele>
        <time>2016-04-19T10:44:37Z</time>
      </trkpt>
      <trkpt lat="43.65766" lon="3.79359">
        <ele>148</ele>
        <time>2016-04-19T10:44:38Z</time>
      </trkpt>
      <trkpt lat="43.6577" lon="3.79365">
        <ele>147.5</ele>
        <time>2016-04-19T10:44:39Z</time>
      </trkpt>
      <trkpt lat="43.65773" lon="3.79369">
        <ele>147</ele>
        <time>2016-04-19T10:44:40Z</time>
      </trkpt>
      <trkpt lat="43.65777" lon="3.79373">
        <ele>146.5</ele>
        <time>2016-04-19T10:44:41Z</time>
      </trkpt>
      <trkpt lat="43.65783" lon="3.79379">
        <ele>147.5</ele>
        <time>2016-04-19T10:44:43Z</time>
      </trkpt>
      <trkpt lat="43.65786" lon="3.79384">
        <ele>146</ele>
        <time>2016-04-19T10:44:44Z</time>
      </trkpt>
      <trkpt lat="43.65793" lon="3.79392">
        <ele>144</ele>
        <time>2016-04-19T10:44:46Z</time>
      </trkpt>
      <trkpt lat="43.65797" lon="3.79394">
        <ele>143.5</ele>
        <time>2016-04-19T10:44:47Z</time>
      </trkpt>
      <trkpt lat="43.658" lon="3.79397">
        <ele>144</ele>
        <time>2016-04-19T10:44:48Z</time>
      </trkpt>
      <trkpt lat="43.65801" lon="3.794">
        <ele>145.5</ele>
        <time>2016-04-19T10:44:49Z</time>
      </trkpt>
      <trkpt lat="43.65804" lon="3.79403">
        <ele>145.5</ele>
        <time>2016-04-19T10:44:50Z</time>
      </trkpt>
      <trkpt lat="43.65806" lon="3.79405">
        <ele>145</ele>
        <time>2016-04-19T10:44:51Z</time>
      </trkpt>
      <trkpt lat="43.65807" lon="3.79405">
        <ele>145</ele>
        <time>2016-04-19T10:44:52Z</time>
      </trkpt>
      <trkpt lat="43.65809" lon="3.79406">
        <ele>145</ele>
        <time>2016-04-19T10:44:53Z</time>
      </trkpt>
      <trkpt lat="43.65812" lon="3.79407">
        <ele>144.5</ele>
        <time>2016-04-19T10:44:54Z</time>
      </trkpt>
      <trkpt lat="43.65813" lon="3.79405">
        <ele>144</ele>
        <time>2016-04-19T10:44:55Z</time>
      </trkpt>
      <trkpt lat="43.65816" lon="3.79403">
        <ele>142.5</ele>
        <time>2016-04-19T10:44:56Z</time>
      </trkpt>
      <trkpt lat="43.65819" lon="3.794">
        <ele>142</ele>
        <time>2016-04-19T10:44:57Z</time>
      </trkpt>
      <trkpt lat="43.65821" lon="3.79397">
        <ele>141.5</ele>
        <time>2016-04-19T10:44:58Z</time>
      </trkpt>
      <trkpt lat="43.65825" lon="3.79395">
        <ele>141</ele>
        <time>2016-04-19T10:44:59Z</time>
      </trkpt>
      <trkpt lat="43.65827" lon="3.79386">
        <ele>141</ele>
        <time>2016-04-19T10:45:01Z</time>
      </trkpt>
      <trkpt lat="43.6583" lon="3.79381">
        <ele>141</ele>
        <time>2016-04-19T10:45:02Z</time>
      </trkpt>
      <trkpt lat="43.65833" lon="3.79374">
        <ele>140.5</ele>
        <time>2016-04-19T10:45:03Z</time>
      </trkpt>
      <trkpt lat="43.65835" lon="3.79369">
        <ele>141</ele>
        <time>2016-04-19T10:45:04Z</time>
      </trkpt>
      <trkpt lat="43.6585" lon="3.79374">
        <ele>140.5</ele>
        <time>2016-04-19T10:45:06Z</time>
      </trkpt>
      <trkpt lat="43.65853" lon="3.79371">
        <ele>140.5</ele>
        <time>2016-04-19T10:45:07Z</time>
      </trkpt>
      <trkpt lat="43.65856" lon="3.79365">
        <ele>139.5</ele>
        <time>2016-04-19T10:45:08Z</time>
      </trkpt>
      <trkpt lat="43.65859" lon="3.79361">
        <ele>138</ele>
        <time>2016-04-19T10:45:09Z</time>
      </trkpt>
      <trkpt lat="43.65863" lon="3.79355">
        <ele>137.5</ele>
        <time>2016-04-19T10:45:10Z</time>
      </trkpt>
      <trkpt lat="43.65866" lon="3.79349">
        <ele>137.5</ele>
        <time>2016-04-19T10:45:11Z</time>
      </trkpt>
      <trkpt lat="43.65872" lon="3.79344">
        <ele>135</ele>
        <time>2016-04-19T10:45:13Z</time>
      </trkpt>
      <trkpt lat="43.65874" lon="3.79342">
        <ele>135</ele>
        <time>2016-04-19T10:45:14Z</time>
      </trkpt>
      <trkpt lat="43.65874" lon="3.79337">
        <ele>134.5</ele>
        <time>2016-04-19T10:45:15Z</time>
      </trkpt>
      <trkpt lat="43.65878" lon="3.79338">
        <ele>134.5</ele>
        <time>2016-04-19T10:45:16Z</time>
      </trkpt>
      <trkpt lat="43.65879" lon="3.79333">
        <ele>134.5</ele>
        <time>2016-04-19T10:45:17Z</time>
      </trkpt>
      <trkpt lat="43.65882" lon="3.79327">
        <ele>134</ele>
        <time>2016-04-19T10:45:18Z</time>
      </trkpt>
      <trkpt lat="43.65889" lon="3.79322">
        <ele>134</ele>
        <time>2016-04-19T10:45:20Z</time>
      </trkpt>
      <trkpt lat="43.65898" lon="3.7932">
        <ele>132.5</ele>
        <time>2016-04-19T10:45:22Z</time>
      </trkpt>
      <trkpt lat="43.65902" lon="3.79318">
        <ele>131.5</ele>
        <time>2016-04-19T10:45:23Z</time>
      </trkpt>
      <trkpt lat="43.65912" lon="3.79325">
        <ele>130.5</ele>
        <time>2016-04-19T10:45:25Z</time>
      </trkpt>
      <trkpt lat="43.65916" lon="3.79325">
        <ele>130.5</ele>
        <time>2016-04-19T10:45:26Z</time>
      </trkpt>
      <trkpt lat="43.6592" lon="3.79326">
        <ele>130</ele>
        <time>2016-04-19T10:45:27Z</time>
      </trkpt>
      <trkpt lat="43.65924" lon="3.79328">
        <ele>130</ele>
        <time>2016-04-19T10:45:28Z</time>
      </trkpt>
      <trkpt lat="43.65928" lon="3.79329">
        <ele>130</ele>
        <time>2016-04-19T10:45:29Z</time>
      </trkpt>
      <trkpt lat="43.65931" lon="3.79329">
        <ele>130</ele>
        <time>2016-04-19T10:45:30Z</time>
      </trkpt>
      <trkpt lat="43.65935" lon="3.79328">
        <ele>130</ele>
        <time>2016-04-19T10:45:31Z</time>
      </trkpt>
      <trkpt lat="43.65937" lon="3.79325">
        <ele>130</ele>
        <time>2016-04-19T10:45:32Z</time>
      </trkpt>
      <trkpt lat="43.65941" lon="3.79327">
        <ele>130</ele>
        <time>2016-04-19T10:45:33Z</time>
      </trkpt>
      <trkpt lat="43.65946" lon="3.79329">
        <ele>130</ele>
        <time>2016-04-19T10:45:34Z</time>
      </trkpt>
      <trkpt lat="43.65949" lon="3.7933">
        <ele>130</ele>
        <time>2016-04-19T10:45:35Z</time>
      </trkpt>
      <trkpt lat="43.65953" lon="3.79332">
        <ele>130</ele>
        <time>2016-04-19T10:45:36Z</time>
      </trkpt>
      <trkpt lat="43.65956" lon="3.79332">
        <ele>130</ele>
        <time>2016-04-19T10:45:37Z</time>
      </trkpt>
      <trkpt lat="43.65967" lon="3.79341">
        <ele>130</ele>
        <time>2016-04-19T10:45:39Z</time>
      </trkpt>
      <trkpt lat="43.6597" lon="3.79345">
        <ele>130</ele>
        <time>2016-04-19T10:45:40Z</time>
      </trkpt>
      <trkpt lat="43.65974" lon="3.79342">
        <ele>130</ele>
        <time>2016-04-19T10:45:41Z</time>
      </trkpt>
      <trkpt lat="43.65977" lon="3.79343">
        <ele>129.5</ele>
        <time>2016-04-19T10:45:42Z</time>
      </trkpt>
      <trkpt lat="43.6598" lon="3.79344">
        <ele>130</ele>
        <time>2016-04-19T10:45:43Z</time>
      </trkpt>
      <trkpt lat="43.65983" lon="3.79348">
        <ele>130</ele>
        <time>2016-04-19T10:45:44Z</time>
      </trkpt>
      <trkpt lat="43.65987" lon="3.79348">
        <ele>129.5</ele>
        <time>2016-04-19T10:45:45Z</time>
      </trkpt>
      <trkpt lat="43.65992" lon="3.79347">
        <ele>129.5</ele>
        <time>2016-04-19T10:45:46Z</time>
      </trkpt>
      <trkpt lat="43.65996" lon="3.79347">
        <ele>130</ele>
        <time>2016-04-19T10:45:47Z</time>
      </trkpt>
      <trkpt lat="43.66" lon="3.79348">
        <ele>130</ele>
        <time>2016-04-19T10:45:48Z</time>
      </trkpt>
      <trkpt lat="43.66003" lon="3.79352">
        <ele>130.5</ele>
        <time>2016-04-19T10:45:49Z</time>
      </trkpt>
      <trkpt lat="43.66005" lon="3.79355">
        <ele>131</ele>
        <time>2016-04-19T10:45:50Z</time>
      </trkpt>
      <trkpt lat="43.66006" lon="3.79358">
        <ele>131</ele>
        <time>2016-04-19T10:45:51Z</time>
      </trkpt>
      <trkpt lat="43.66006" lon="3.79362">
        <ele>131</ele>
        <time>2016-04-19T10:45:52Z</time>
      </trkpt>
      <trkpt lat="43.66008" lon="3.79365">
        <ele>131</ele>
        <time>2016-04-19T10:45:53Z</time>
      </trkpt>
      <trkpt lat="43.6601" lon="3.79369">
        <ele>131</ele>
        <time>2016-04-19T10:45:54Z</time>
      </trkpt>
      <trkpt lat="43.66011" lon="3.79372">
        <ele>131</ele>
        <time>2016-04-19T10:45:55Z</time>
      </trkpt>
      <trkpt lat="43.66012" lon="3.79375">
        <ele>130.5</ele>
        <time>2016-04-19T10:45:56Z</time>
      </trkpt>
      <trkpt lat="43.66014" lon="3.79378">
        <ele>130.5</ele>
        <time>2016-04-19T10:45:57Z</time>
      </trkpt>
      <trkpt lat="43.66015" lon="3.79386">
        <ele>130.5</ele>
        <time>2016-04-19T10:45:59Z</time>
      </trkpt>
      <trkpt lat="43.66017" lon="3.79388">
        <ele>130.5</ele>
        <time>2016-04-19T10:46:00Z</time>
      </trkpt>
      <trkpt lat="43.66018" lon="3.79389">
        <ele>130.5</ele>
        <time>2016-04-19T10:46:01Z</time>
      </trkpt>
      <trkpt lat="43.66019" lon="3.79392">
        <ele>130.5</ele>
        <time>2016-04-19T10:46:02Z</time>
      </trkpt>
      <trkpt lat="43.66021" lon="3.79399">
        <ele>132.5</ele>
        <time>2016-04-19T10:46:04Z</time>
      </trkpt>
      <trkpt lat="43.66022" lon="3.79402">
        <ele>132.5</ele>
        <time>2016-04-19T10:46:05Z</time>
      </trkpt>
      <trkpt lat="43.66022" lon="3.79406">
        <ele>132.5</ele>
        <time>2016-04-19T10:46:06Z</time>
      </trkpt>
      <trkpt lat="43.66022" lon="3.79409">
        <ele>132.5</ele>
        <time>2016-04-19T10:46:07Z</time>
      </trkpt>
      <trkpt lat="43.66021" lon="3.79413">
        <ele>133.5</ele>
        <time>2016-04-19T10:46:08Z</time>
      </trkpt>
      <trkpt lat="43.66021" lon="3.79416">
        <ele>133.5</ele>
        <time>2016-04-19T10:46:09Z</time>
      </trkpt>
      <trkpt lat="43.66021" lon="3.7942">
        <ele>133</ele>
        <time>2016-04-19T10:46:10Z</time>
      </trkpt>
      <trkpt lat="43.66022" lon="3.79424">
        <ele>133</ele>
        <time>2016-04-19T10:46:11Z</time>
      </trkpt>
      <trkpt lat="43.66022" lon="3.79428">
        <ele>133</ele>
        <time>2016-04-19T10:46:12Z</time>
      </trkpt>
      <trkpt lat="43.66023" lon="3.79432">
        <ele>133.5</ele>
        <time>2016-04-19T10:46:13Z</time>
      </trkpt>
      <trkpt lat="43.66024" lon="3.79437">
        <ele>133</ele>
        <time>2016-04-19T10:46:14Z</time>
      </trkpt>
      <trkpt lat="43.66024" lon="3.79442">
        <ele>133</ele>
        <time>2016-04-19T10:46:15Z</time>
      </trkpt>
      <trkpt lat="43.66024" lon="3.79446">
        <ele>133</ele>
        <time>2016-04-19T10:46:16Z</time>
      </trkpt>
      <trkpt lat="43.66025" lon="3.79453">
        <ele>133</ele>
        <time>2016-04-19T10:46:18Z</time>
      </trkpt>
      <trkpt lat="43.66027" lon="3.79457">
        <ele>133</ele>
        <time>2016-04-19T10:46:19Z</time>
      </trkpt>
      <trkpt lat="43.66028" lon="3.7946">
        <ele>133</ele>
        <time>2016-04-19T10:46:20Z</time>
      </trkpt>
      <trkpt lat="43.66029" lon="3.79463">
        <ele>133</ele>
        <time>2016-04-19T10:46:21Z</time>
      </trkpt>
      <trkpt lat="43.66028" lon="3.79467">
        <ele>132.5</ele>
        <time>2016-04-19T10:46:22Z</time>
      </trkpt>
      <trkpt lat="43.66029" lon="3.7947">
        <ele>132.5</ele>
        <time>2016-04-19T10:46:23Z</time>
      </trkpt>
      <trkpt lat="43.6603" lon="3.79473">
        <ele>132.5</ele>
        <time>2016-04-19T10:46:24Z</time>
      </trkpt>
      <trkpt lat="43.66029" lon="3.79477">
        <ele>132.5</ele>
        <time>2016-04-19T10:46:25Z</time>
      </trkpt>
      <trkpt lat="43.6603" lon="3.79481">
        <ele>132</ele>
        <time>2016-04-19T10:46:26Z</time>
      </trkpt>
      <trkpt lat="43.66031" lon="3.79484">
        <ele>131.5</ele>
        <time>2016-04-19T10:46:27Z</time>
      </trkpt>
      <trkpt lat="43.66032" lon="3.79488">
        <ele>132</ele>
        <time>2016-04-19T10:46:28Z</time>
      </trkpt>
      <trkpt lat="43.66033" lon="3.7949">
        <ele>132</ele>
        <time>2016-04-19T10:46:29Z</time>
      </trkpt>
      <trkpt lat="43.66033" lon="3.79494">
        <ele>132</ele>
        <time>2016-04-19T10:46:30Z</time>
      </trkpt>
      <trkpt lat="43.66034" lon="3.79496">
        <ele>132.5</ele>
        <time>2016-04-19T10:46:31Z</time>
      </trkpt>
      <trkpt lat="43.66034" lon="3.79499">
        <ele>133.5</ele>
        <time>2016-04-19T10:46:32Z</time>
      </trkpt>
      <trkpt lat="43.66034" lon="3.79503">
        <ele>134</ele>
        <time>2016-04-19T10:46:33Z</time>
      </trkpt>
      <trkpt lat="43.66034" lon="3.79506">
        <ele>134</ele>
        <time>2016-04-19T10:46:34Z</time>
      </trkpt>
      <trkpt lat="43.66034" lon="3.79512">
        <ele>134</ele>
        <time>2016-04-19T10:46:35Z</time>
      </trkpt>
      <trkpt lat="43.66035" lon="3.79516">
        <ele>134</ele>
        <time>2016-04-19T10:46:36Z</time>
      </trkpt>
      <trkpt lat="43.66036" lon="3.79519">
        <ele>134</ele>
        <time>2016-04-19T10:46:37Z</time>
      </trkpt>
      <trkpt lat="43.66037" lon="3.79522">
        <ele>133.5</ele>
        <time>2016-04-19T10:46:38Z</time>
      </trkpt>
      <trkpt lat="43.66036" lon="3.79525">
        <ele>134.5</ele>
        <time>2016-04-19T10:46:39Z</time>
      </trkpt>
      <trkpt lat="43.66036" lon="3.79529">
        <ele>134.5</ele>
        <time>2016-04-19T10:46:40Z</time>
      </trkpt>
      <trkpt lat="43.66037" lon="3.79533">
        <ele>134.5</ele>
        <time>2016-04-19T10:46:41Z</time>
      </trkpt>
      <trkpt lat="43.66037" lon="3.79537">
        <ele>134</ele>
        <time>2016-04-19T10:46:42Z</time>
      </trkpt>
      <trkpt lat="43.66036" lon="3.7954">
        <ele>134.5</ele>
        <time>2016-04-19T10:46:43Z</time>
      </trkpt>
      <trkpt lat="43.66035" lon="3.79544">
        <ele>135.5</ele>
        <time>2016-04-19T10:46:44Z</time>
      </trkpt>
      <trkpt lat="43.66035" lon="3.79548">
        <ele>136</ele>
        <time>2016-04-19T10:46:45Z</time>
      </trkpt>
      <trkpt lat="43.66035" lon="3.79552">
        <ele>136</ele>
        <time>2016-04-19T10:46:46Z</time>
      </trkpt>
      <trkpt lat="43.66035" lon="3.79555">
        <ele>136</ele>
        <time>2016-04-19T10:46:47Z</time>
      </trkpt>
      <trkpt lat="43.66036" lon="3.79559">
        <ele>136</ele>
        <time>2016-04-19T10:46:48Z</time>
      </trkpt>
      <trkpt lat="43.66036" lon="3.79561">
        <ele>136.5</ele>
        <time>2016-04-19T10:46:49Z</time>
      </trkpt>
      <trkpt lat="43.66036" lon="3.79564">
        <ele>137</ele>
        <time>2016-04-19T10:46:50Z</time>
      </trkpt>
      <trkpt lat="43.66037" lon="3.79573">
        <ele>135.5</ele>
        <time>2016-04-19T10:46:52Z</time>
      </trkpt>
      <trkpt lat="43.66038" lon="3.79577">
        <ele>135</ele>
        <time>2016-04-19T10:46:53Z</time>
      </trkpt>
      <trkpt lat="43.66038" lon="3.7958">
        <ele>134.5</ele>
        <time>2016-04-19T10:46:54Z</time>
      </trkpt>
      <trkpt lat="43.66038" lon="3.79584">
        <ele>135</ele>
        <time>2016-04-19T10:46:55Z</time>
      </trkpt>
      <trkpt lat="43.66038" lon="3.79589">
        <ele>135</ele>
        <time>2016-04-19T10:46:56Z</time>
      </trkpt>
      <trkpt lat="43.66038" lon="3.79593">
        <ele>135</ele>
        <time>2016-04-19T10:46:56Z</time>
      </trkpt>
      <trkpt lat="43.66037" lon="3.79597">
        <ele>135.5</ele>
        <time>2016-04-19T10:46:57Z</time>
      </trkpt>
      <trkpt lat="43.66037" lon="3.796">
        <ele>135</ele>
        <time>2016-04-19T10:46:58Z</time>
      </trkpt>
      <trkpt lat="43.66037" lon="3.79605">
        <ele>135</ele>
        <time>2016-04-19T10:46:59Z</time>
      </trkpt>
      <trkpt lat="43.6604" lon="3.79606">
        <ele>135.5</ele>
        <time>2016-04-19T10:47:00Z</time>
      </trkpt>
      <trkpt lat="43.66039" lon="3.79609">
        <ele>135</ele>
        <time>2016-04-19T10:47:01Z</time>
      </trkpt>
      <trkpt lat="43.66038" lon="3.79613">
        <ele>135</ele>
        <time>2016-04-19T10:47:02Z</time>
      </trkpt>
      <trkpt lat="43.66037" lon="3.79617">
        <ele>135</ele>
        <time>2016-04-19T10:47:03Z</time>
      </trkpt>
      <trkpt lat="43.66036" lon="3.79621">
        <ele>135</ele>
        <time>2016-04-19T10:47:05Z</time>
      </trkpt>
      <trkpt lat="43.66036" lon="3.79625">
        <ele>134.5</ele>
        <time>2016-04-19T10:47:05Z</time>
      </trkpt>
      <trkpt lat="43.66035" lon="3.79629">
        <ele>134.5</ele>
        <time>2016-04-19T10:47:06Z</time>
      </trkpt>
      <trkpt lat="43.66034" lon="3.79633">
        <ele>135</ele>
        <time>2016-04-19T10:47:07Z</time>
      </trkpt>
      <trkpt lat="43.66033" lon="3.79636">
        <ele>135.5</ele>
        <time>2016-04-19T10:47:08Z</time>
      </trkpt>
      <trkpt lat="43.66032" lon="3.7964">
        <ele>136.5</ele>
        <time>2016-04-19T10:47:10Z</time>
      </trkpt>
      <trkpt lat="43.66031" lon="3.79643">
        <ele>136.5</ele>
        <time>2016-04-19T10:47:10Z</time>
      </trkpt>
      <trkpt lat="43.6603" lon="3.79647">
        <ele>137</ele>
        <time>2016-04-19T10:47:12Z</time>
      </trkpt>
      <trkpt lat="43.66029" lon="3.79651">
        <ele>137</ele>
        <time>2016-04-19T10:47:12Z</time>
      </trkpt>
      <trkpt lat="43.66029" lon="3.79654">
        <ele>137.5</ele>
        <time>2016-04-19T10:47:13Z</time>
      </trkpt>
      <trkpt lat="43.66029" lon="3.79657">
        <ele>138</ele>
        <time>2016-04-19T10:47:14Z</time>
      </trkpt>
      <trkpt lat="43.66026" lon="3.79665">
        <ele>140.5</ele>
        <time>2016-04-19T10:47:16Z</time>
      </trkpt>
      <trkpt lat="43.66026" lon="3.79669">
        <ele>140.5</ele>
        <time>2016-04-19T10:47:17Z</time>
      </trkpt>
      <trkpt lat="43.66025" lon="3.79677">
        <ele>140.5</ele>
        <time>2016-04-19T10:47:19Z</time>
      </trkpt>
      <trkpt lat="43.66023" lon="3.79681">
        <ele>141</ele>
        <time>2016-04-19T10:47:20Z</time>
      </trkpt>
      <trkpt lat="43.66022" lon="3.79685">
        <ele>141.5</ele>
        <time>2016-04-19T10:47:21Z</time>
      </trkpt>
      <trkpt lat="43.66022" lon="3.79688">
        <ele>142</ele>
        <time>2016-04-19T10:47:22Z</time>
      </trkpt>
      <trkpt lat="43.6602" lon="3.79692">
        <ele>142</ele>
        <time>2016-04-19T10:47:23Z</time>
      </trkpt>
      <trkpt lat="43.6602" lon="3.79695">
        <ele>142</ele>
        <time>2016-04-19T10:47:24Z</time>
      </trkpt>
      <trkpt lat="43.66019" lon="3.79698">
        <ele>142.5</ele>
        <time>2016-04-19T10:47:25Z</time>
      </trkpt>
      <trkpt lat="43.66017" lon="3.79702">
        <ele>143.5</ele>
        <time>2016-04-19T10:47:26Z</time>
      </trkpt>
      <trkpt lat="43.66014" lon="3.79706">
        <ele>143.5</ele>
        <time>2016-04-19T10:47:27Z</time>
      </trkpt>
      <trkpt lat="43.66014" lon="3.79709">
        <ele>144</ele>
        <time>2016-04-19T10:47:28Z</time>
      </trkpt>
      <trkpt lat="43.66012" lon="3.79712">
        <ele>144</ele>
        <time>2016-04-19T10:47:29Z</time>
      </trkpt>
      <trkpt lat="43.66011" lon="3.79715">
        <ele>144</ele>
        <time>2016-04-19T10:47:30Z</time>
      </trkpt>
      <trkpt lat="43.6601" lon="3.79719">
        <ele>143.5</ele>
        <time>2016-04-19T10:47:31Z</time>
      </trkpt>
      <trkpt lat="43.66011" lon="3.79721">
        <ele>143.5</ele>
        <time>2016-04-19T10:47:32Z</time>
      </trkpt>
      <trkpt lat="43.66012" lon="3.79724">
        <ele>143.5</ele>
        <time>2016-04-19T10:47:33Z</time>
      </trkpt>
      <trkpt lat="43.66011" lon="3.79727">
        <ele>143.5</ele>
        <time>2016-04-19T10:47:34Z</time>
      </trkpt>
      <trkpt lat="43.6601" lon="3.7973">
        <ele>143.5</ele>
        <time>2016-04-19T10:47:35Z</time>
      </trkpt>
      <trkpt lat="43.66011" lon="3.79733">
        <ele>143</ele>
        <time>2016-04-19T10:47:36Z</time>
      </trkpt>
      <trkpt lat="43.6601" lon="3.79736">
        <ele>143</ele>
        <time>2016-04-19T10:47:37Z</time>
      </trkpt>
      <trkpt lat="43.66011" lon="3.79739">
        <ele>143</ele>
        <time>2016-04-19T10:47:38Z</time>
      </trkpt>
      <trkpt lat="43.6601" lon="3.79742">
        <ele>143</ele>
        <time>2016-04-19T10:47:39Z</time>
      </trkpt>
      <trkpt lat="43.6601" lon="3.79745">
        <ele>143</ele>
        <time>2016-04-19T10:47:40Z</time>
      </trkpt>
      <trkpt lat="43.66009" lon="3.79749">
        <ele>143</ele>
        <time>2016-04-19T10:47:41Z</time>
      </trkpt>
      <trkpt lat="43.6601" lon="3.79752">
        <ele>143</ele>
        <time>2016-04-19T10:47:42Z</time>
      </trkpt>
      <trkpt lat="43.66009" lon="3.79755">
        <ele>143</ele>
        <time>2016-04-19T10:47:43Z</time>
      </trkpt>
      <trkpt lat="43.66009" lon="3.79757">
        <ele>143.5</ele>
        <time>2016-04-19T10:47:44Z</time>
      </trkpt>
      <trkpt lat="43.6601" lon="3.7976">
        <ele>143.5</ele>
        <time>2016-04-19T10:47:45Z</time>
      </trkpt>
      <trkpt lat="43.6601" lon="3.79763">
        <ele>144</ele>
        <time>2016-04-19T10:47:46Z</time>
      </trkpt>
      <trkpt lat="43.6601" lon="3.79766">
        <ele>144</ele>
        <time>2016-04-19T10:47:47Z</time>
      </trkpt>
      <trkpt lat="43.6601" lon="3.79769">
        <ele>144</ele>
        <time>2016-04-19T10:47:48Z</time>
      </trkpt>
      <trkpt lat="43.66011" lon="3.79772">
        <ele>144</ele>
        <time>2016-04-19T10:47:49Z</time>
      </trkpt>
      <trkpt lat="43.6601" lon="3.79775">
        <ele>144</ele>
        <time>2016-04-19T10:47:50Z</time>
      </trkpt>
      <trkpt lat="43.6601" lon="3.79778">
        <ele>144</ele>
        <time>2016-04-19T10:47:51Z</time>
      </trkpt>
      <trkpt lat="43.66008" lon="3.79782">
        <ele>144.5</ele>
        <time>2016-04-19T10:47:52Z</time>
      </trkpt>
      <trkpt lat="43.66007" lon="3.79785">
        <ele>145</ele>
        <time>2016-04-19T10:47:53Z</time>
      </trkpt>
      <trkpt lat="43.66007" lon="3.79788">
        <ele>146</ele>
        <time>2016-04-19T10:47:54Z</time>
      </trkpt>
      <trkpt lat="43.66008" lon="3.7979">
        <ele>146</ele>
        <time>2016-04-19T10:47:55Z</time>
      </trkpt>
      <trkpt lat="43.66007" lon="3.79794">
        <ele>147</ele>
        <time>2016-04-19T10:47:56Z</time>
      </trkpt>
      <trkpt lat="43.66008" lon="3.79798">
        <ele>147</ele>
        <time>2016-04-19T10:47:57Z</time>
      </trkpt>
      <trkpt lat="43.66008" lon="3.798">
        <ele>147.5</ele>
        <time>2016-04-19T10:47:58Z</time>
      </trkpt>
      <trkpt lat="43.66008" lon="3.79802">
        <ele>147.5</ele>
        <time>2016-04-19T10:47:59Z</time>
      </trkpt>
      <trkpt lat="43.66009" lon="3.79805">
        <ele>148</ele>
        <time>2016-04-19T10:48:00Z</time>
      </trkpt>
      <trkpt lat="43.66009" lon="3.79808">
        <ele>148</ele>
        <time>2016-04-19T10:48:01Z</time>
      </trkpt>
      <trkpt lat="43.66011" lon="3.7981">
        <ele>148</ele>
        <time>2016-04-19T10:48:02Z</time>
      </trkpt>
      <trkpt lat="43.66012" lon="3.79812">
        <ele>148.5</ele>
        <time>2016-04-19T10:48:03Z</time>
      </trkpt>
      <trkpt lat="43.66012" lon="3.79815">
        <ele>148.5</ele>
        <time>2016-04-19T10:48:04Z</time>
      </trkpt>
      <trkpt lat="43.6601" lon="3.79818">
        <ele>149.5</ele>
        <time>2016-04-19T10:48:05Z</time>
      </trkpt>
      <trkpt lat="43.66009" lon="3.79821">
        <ele>151</ele>
        <time>2016-04-19T10:48:06Z</time>
      </trkpt>
      <trkpt lat="43.66008" lon="3.79824">
        <ele>152</ele>
        <time>2016-04-19T10:48:07Z</time>
      </trkpt>
      <trkpt lat="43.66007" lon="3.79827">
        <ele>152.5</ele>
        <time>2016-04-19T10:48:08Z</time>
      </trkpt>
      <trkpt lat="43.66005" lon="3.7983">
        <ele>154</ele>
        <time>2016-04-19T10:48:09Z</time>
      </trkpt>
      <trkpt lat="43.66005" lon="3.79833">
        <ele>154</ele>
        <time>2016-04-19T10:48:10Z</time>
      </trkpt>
      <trkpt lat="43.66006" lon="3.79835">
        <ele>154</ele>
        <time>2016-04-19T10:48:11Z</time>
      </trkpt>
      <trkpt lat="43.66006" lon="3.79838">
        <ele>154</ele>
        <time>2016-04-19T10:48:12Z</time>
      </trkpt>
      <trkpt lat="43.66006" lon="3.7984">
        <ele>154</ele>
        <time>2016-04-19T10:48:13Z</time>
      </trkpt>
      <trkpt lat="43.66006" lon="3.79843">
        <ele>154.5</ele>
        <time>2016-04-19T10:48:14Z</time>
      </trkpt>
      <trkpt lat="43.66005" lon="3.79846">
        <ele>154.5</ele>
        <time>2016-04-19T10:48:15Z</time>
      </trkpt>
      <trkpt lat="43.66005" lon="3.79849">
        <ele>156</ele>
        <time>2016-04-19T10:48:16Z</time>
      </trkpt>
      <trkpt lat="43.66005" lon="3.79851">
        <ele>155.5</ele>
        <time>2016-04-19T10:48:17Z</time>
      </trkpt>
      <trkpt lat="43.66005" lon="3.79854">
        <ele>155</ele>
        <time>2016-04-19T10:48:18Z</time>
      </trkpt>
      <trkpt lat="43.66003" lon="3.79857">
        <ele>155</ele>
        <time>2016-04-19T10:48:19Z</time>
      </trkpt>
      <trkpt lat="43.66002" lon="3.79859">
        <ele>155</ele>
        <time>2016-04-19T10:48:20Z</time>
      </trkpt>
      <trkpt lat="43.65997" lon="3.79866">
        <ele>154</ele>
        <time>2016-04-19T10:48:22Z</time>
      </trkpt>
      <trkpt lat="43.65997" lon="3.79868">
        <ele>154</ele>
        <time>2016-04-19T10:48:23Z</time>
      </trkpt>
      <trkpt lat="43.65995" lon="3.79871">
        <ele>154</ele>
        <time>2016-04-19T10:48:24Z</time>
      </trkpt>
      <trkpt lat="43.65994" lon="3.79874">
        <ele>154.5</ele>
        <time>2016-04-19T10:48:25Z</time>
      </trkpt>
      <trkpt lat="43.65994" lon="3.79876">
        <ele>154.5</ele>
        <time>2016-04-19T10:48:26Z</time>
      </trkpt>
      <trkpt lat="43.65993" lon="3.79879">
        <ele>155</ele>
        <time>2016-04-19T10:48:27Z</time>
      </trkpt>
      <trkpt lat="43.65993" lon="3.79882">
        <ele>157</ele>
        <time>2016-04-19T10:48:28Z</time>
      </trkpt>
      <trkpt lat="43.65993" lon="3.79884">
        <ele>157</ele>
        <time>2016-04-19T10:48:29Z</time>
      </trkpt>
      <trkpt lat="43.65986" lon="3.7989">
        <ele>157.5</ele>
        <time>2016-04-19T10:48:31Z</time>
      </trkpt>
      <trkpt lat="43.65984" lon="3.79892">
        <ele>158</ele>
        <time>2016-04-19T10:48:32Z</time>
      </trkpt>
      <trkpt lat="43.65983" lon="3.79894">
        <ele>158</ele>
        <time>2016-04-19T10:48:33Z</time>
      </trkpt>
      <trkpt lat="43.6598" lon="3.79896">
        <ele>158</ele>
        <time>2016-04-19T10:48:34Z</time>
      </trkpt>
      <trkpt lat="43.65979" lon="3.79898">
        <ele>158.5</ele>
        <time>2016-04-19T10:48:35Z</time>
      </trkpt>
      <trkpt lat="43.65976" lon="3.79901">
        <ele>159</ele>
        <time>2016-04-19T10:48:36Z</time>
      </trkpt>
      <trkpt lat="43.65976" lon="3.79902">
        <ele>160</ele>
        <time>2016-04-19T10:48:37Z</time>
      </trkpt>
      <trkpt lat="43.65974" lon="3.79904">
        <ele>160.5</ele>
        <time>2016-04-19T10:48:38Z</time>
      </trkpt>
      <trkpt lat="43.65972" lon="3.79906">
        <ele>162.5</ele>
        <time>2016-04-19T10:48:39Z</time>
      </trkpt>
      <trkpt lat="43.65971" lon="3.79909">
        <ele>163</ele>
        <time>2016-04-19T10:48:40Z</time>
      </trkpt>
      <trkpt lat="43.65969" lon="3.79911">
        <ele>164</ele>
        <time>2016-04-19T10:48:41Z</time>
      </trkpt>
      <trkpt lat="43.65967" lon="3.79913">
        <ele>164</ele>
        <time>2016-04-19T10:48:42Z</time>
      </trkpt>
      <trkpt lat="43.65965" lon="3.79915">
        <ele>164</ele>
        <time>2016-04-19T10:48:43Z</time>
      </trkpt>
      <trkpt lat="43.65965" lon="3.79918">
        <ele>163.5</ele>
        <time>2016-04-19T10:48:45Z</time>
      </trkpt>
      <trkpt lat="43.65963" lon="3.79921">
        <ele>163</ele>
        <time>2016-04-19T10:48:47Z</time>
      </trkpt>
      <trkpt lat="43.65962" lon="3.79923">
        <ele>162</ele>
        <time>2016-04-19T10:48:48Z</time>
      </trkpt>
      <trkpt lat="43.65961" lon="3.79925">
        <ele>162</ele>
        <time>2016-04-19T10:48:49Z</time>
      </trkpt>
      <trkpt lat="43.65959" lon="3.79927">
        <ele>162</ele>
        <time>2016-04-19T10:48:50Z</time>
      </trkpt>
      <trkpt lat="43.65958" lon="3.79929">
        <ele>162</ele>
        <time>2016-04-19T10:48:51Z</time>
      </trkpt>
      <trkpt lat="43.65956" lon="3.79931">
        <ele>161.5</ele>
        <time>2016-04-19T10:48:52Z</time>
      </trkpt>
      <trkpt lat="43.65956" lon="3.79933">
        <ele>161.5</ele>
        <time>2016-04-19T10:48:53Z</time>
      </trkpt>
      <trkpt lat="43.65954" lon="3.79935">
        <ele>161.5</ele>
        <time>2016-04-19T10:48:54Z</time>
      </trkpt>
      <trkpt lat="43.65954" lon="3.79937">
        <ele>161.5</ele>
        <time>2016-04-19T10:48:55Z</time>
      </trkpt>
      <trkpt lat="43.65952" lon="3.7994">
        <ele>162</ele>
        <time>2016-04-19T10:48:56Z</time>
      </trkpt>
      <trkpt lat="43.6595" lon="3.79942">
        <ele>162</ele>
        <time>2016-04-19T10:48:57Z</time>
      </trkpt>
      <trkpt lat="43.65951" lon="3.79944">
        <ele>162.5</ele>
        <time>2016-04-19T10:48:58Z</time>
      </trkpt>
      <trkpt lat="43.65951" lon="3.79946">
        <ele>163</ele>
        <time>2016-04-19T10:48:59Z</time>
      </trkpt>
      <trkpt lat="43.65948" lon="3.79951">
        <ele>162</ele>
        <time>2016-04-19T10:49:01Z</time>
      </trkpt>
      <trkpt lat="43.65946" lon="3.79953">
        <ele>162</ele>
        <time>2016-04-19T10:49:02Z</time>
      </trkpt>
      <trkpt lat="43.65945" lon="3.79956">
        <ele>162</ele>
        <time>2016-04-19T10:49:03Z</time>
      </trkpt>
      <trkpt lat="43.65944" lon="3.79958">
        <ele>162</ele>
        <time>2016-04-19T10:49:04Z</time>
      </trkpt>
      <trkpt lat="43.65943" lon="3.7996">
        <ele>162</ele>
        <time>2016-04-19T10:49:05Z</time>
      </trkpt>
      <trkpt lat="43.65942" lon="3.79962">
        <ele>161.5</ele>
        <time>2016-04-19T10:49:06Z</time>
      </trkpt>
      <trkpt lat="43.65942" lon="3.79964">
        <ele>161.5</ele>
        <time>2016-04-19T10:49:07Z</time>
      </trkpt>
      <trkpt lat="43.65941" lon="3.79967">
        <ele>161.5</ele>
        <time>2016-04-19T10:49:08Z</time>
      </trkpt>
      <trkpt lat="43.65941" lon="3.79969">
        <ele>161.5</ele>
        <time>2016-04-19T10:49:09Z</time>
      </trkpt>
      <trkpt lat="43.65938" lon="3.79971">
        <ele>161</ele>
        <time>2016-04-19T10:49:10Z</time>
      </trkpt>
      <trkpt lat="43.65937" lon="3.79975">
        <ele>161.5</ele>
        <time>2016-04-19T10:49:12Z</time>
      </trkpt>
      <trkpt lat="43.65928" lon="3.79982">
        <ele>162.5</ele>
        <time>2016-04-19T10:49:14Z</time>
      </trkpt>
      <trkpt lat="43.65926" lon="3.79985">
        <ele>163.5</ele>
        <time>2016-04-19T10:49:15Z</time>
      </trkpt>
      <trkpt lat="43.65923" lon="3.79987">
        <ele>163</ele>
        <time>2016-04-19T10:49:16Z</time>
      </trkpt>
      <trkpt lat="43.65921" lon="3.79988">
        <ele>163</ele>
        <time>2016-04-19T10:49:17Z</time>
      </trkpt>
      <trkpt lat="43.65919" lon="3.79989">
        <ele>163.5</ele>
        <time>2016-04-19T10:49:18Z</time>
      </trkpt>
      <trkpt lat="43.65917" lon="3.7999">
        <ele>164</ele>
        <time>2016-04-19T10:49:19Z</time>
      </trkpt>
      <trkpt lat="43.65915" lon="3.79991">
        <ele>164</ele>
        <time>2016-04-19T10:49:20Z</time>
      </trkpt>
      <trkpt lat="43.65912" lon="3.79992">
        <ele>163.5</ele>
        <time>2016-04-19T10:49:21Z</time>
      </trkpt>
      <trkpt lat="43.65909" lon="3.79992">
        <ele>163.5</ele>
        <time>2016-04-19T10:49:22Z</time>
      </trkpt>
      <trkpt lat="43.65907" lon="3.79993">
        <ele>163.5</ele>
        <time>2016-04-19T10:49:23Z</time>
      </trkpt>
      <trkpt lat="43.65905" lon="3.79993">
        <ele>163.5</ele>
        <time>2016-04-19T10:49:24Z</time>
      </trkpt>
      <trkpt lat="43.65901" lon="3.79994">
        <ele>163.5</ele>
        <time>2016-04-19T10:49:25Z</time>
      </trkpt>
      <trkpt lat="43.65899" lon="3.79995">
        <ele>163.5</ele>
        <time>2016-04-19T10:49:26Z</time>
      </trkpt>
      <trkpt lat="43.65896" lon="3.79996">
        <ele>163.5</ele>
        <time>2016-04-19T10:49:27Z</time>
      </trkpt>
      <trkpt lat="43.65894" lon="3.79997">
        <ele>164</ele>
        <time>2016-04-19T10:49:28Z</time>
      </trkpt>
      <trkpt lat="43.65892" lon="3.79996">
        <ele>164</ele>
        <time>2016-04-19T10:49:29Z</time>
      </trkpt>
      <trkpt lat="43.65887" lon="3.79997">
        <ele>164.5</ele>
        <time>2016-04-19T10:49:31Z</time>
      </trkpt>
      <trkpt lat="43.65884" lon="3.79998">
        <ele>164.5</ele>
        <time>2016-04-19T10:49:32Z</time>
      </trkpt>
      <trkpt lat="43.65882" lon="3.79999">
        <ele>164.5</ele>
        <time>2016-04-19T10:49:33Z</time>
      </trkpt>
      <trkpt lat="43.65879" lon="3.80001">
        <ele>164.5</ele>
        <time>2016-04-19T10:49:34Z</time>
      </trkpt>
      <trkpt lat="43.65876" lon="3.80002">
        <ele>164</ele>
        <time>2016-04-19T10:49:35Z</time>
      </trkpt>
      <trkpt lat="43.65873" lon="3.80004">
        <ele>164</ele>
        <time>2016-04-19T10:49:36Z</time>
      </trkpt>
      <trkpt lat="43.6587" lon="3.80006">
        <ele>165</ele>
        <time>2016-04-19T10:49:37Z</time>
      </trkpt>
      <trkpt lat="43.65863" lon="3.8001">
        <ele>166</ele>
        <time>2016-04-19T10:49:39Z</time>
      </trkpt>
      <trkpt lat="43.65857" lon="3.80012">
        <ele>167.5</ele>
        <time>2016-04-19T10:49:41Z</time>
      </trkpt>
      <trkpt lat="43.65855" lon="3.80012">
        <ele>167.5</ele>
        <time>2016-04-19T10:49:42Z</time>
      </trkpt>
      <trkpt lat="43.65856" lon="3.80011">
        <ele>167.5</ele>
        <time>2016-04-19T10:49:43Z</time>
      </trkpt>
      <trkpt lat="43.65854" lon="3.80011">
        <ele>168</ele>
        <time>2016-04-19T10:49:44Z</time>
      </trkpt>
      <trkpt lat="43.65852" lon="3.80011">
        <ele>169.5</ele>
        <time>2016-04-19T10:49:45Z</time>
      </trkpt>
      <trkpt lat="43.6585" lon="3.80011">
        <ele>169.5</ele>
        <time>2016-04-19T10:49:46Z</time>
      </trkpt>
      <trkpt lat="43.65848" lon="3.80012">
        <ele>170.5</ele>
        <time>2016-04-19T10:49:47Z</time>
      </trkpt>
      <trkpt lat="43.65845" lon="3.80014">
        <ele>171</ele>
        <time>2016-04-19T10:49:48Z</time>
      </trkpt>
      <trkpt lat="43.65843" lon="3.80015">
        <ele>172.5</ele>
        <time>2016-04-19T10:49:49Z</time>
      </trkpt>
      <trkpt lat="43.65841" lon="3.80014">
        <ele>173</ele>
        <time>2016-04-19T10:49:50Z</time>
      </trkpt>
      <trkpt lat="43.6584" lon="3.80014">
        <ele>173.5</ele>
        <time>2016-04-19T10:49:51Z</time>
      </trkpt>
      <trkpt lat="43.65832" lon="3.8002">
        <ele>174.5</ele>
        <time>2016-04-19T10:49:53Z</time>
      </trkpt>
      <trkpt lat="43.6583" lon="3.80021">
        <ele>174.5</ele>
        <time>2016-04-19T10:49:54Z</time>
      </trkpt>
      <trkpt lat="43.65827" lon="3.8002">
        <ele>175</ele>
        <time>2016-04-19T10:49:55Z</time>
      </trkpt>
      <trkpt lat="43.65825" lon="3.8002">
        <ele>175</ele>
        <time>2016-04-19T10:49:56Z</time>
      </trkpt>
      <trkpt lat="43.65822" lon="3.80021">
        <ele>175.5</ele>
        <time>2016-04-19T10:49:57Z</time>
      </trkpt>
      <trkpt lat="43.65819" lon="3.80022">
        <ele>176</ele>
        <time>2016-04-19T10:49:58Z</time>
      </trkpt>
      <trkpt lat="43.65816" lon="3.80023">
        <ele>176</ele>
        <time>2016-04-19T10:49:59Z</time>
      </trkpt>
      <trkpt lat="43.65813" lon="3.80023">
        <ele>176.5</ele>
        <time>2016-04-19T10:50:00Z</time>
      </trkpt>
      <trkpt lat="43.65811" lon="3.80024">
        <ele>177</ele>
        <time>2016-04-19T10:50:01Z</time>
      </trkpt>
      <trkpt lat="43.65809" lon="3.80024">
        <ele>177</ele>
        <time>2016-04-19T10:50:02Z</time>
      </trkpt>
      <trkpt lat="43.65807" lon="3.80024">
        <ele>177.5</ele>
        <time>2016-04-19T10:50:03Z</time>
      </trkpt>
      <trkpt lat="43.65805" lon="3.80024">
        <ele>177.5</ele>
        <time>2016-04-19T10:50:04Z</time>
      </trkpt>
      <trkpt lat="43.65802" lon="3.80026">
        <ele>177.5</ele>
        <time>2016-04-19T10:50:05Z</time>
      </trkpt>
      <trkpt lat="43.65799" lon="3.80026">
        <ele>177.5</ele>
        <time>2016-04-19T10:50:06Z</time>
      </trkpt>
      <trkpt lat="43.65797" lon="3.80027">
        <ele>177.5</ele>
        <time>2016-04-19T10:50:07Z</time>
      </trkpt>
      <trkpt lat="43.65795" lon="3.80024">
        <ele>177.5</ele>
        <time>2016-04-19T10:50:08Z</time>
      </trkpt>
      <trkpt lat="43.65794" lon="3.80023">
        <ele>178</ele>
        <time>2016-04-19T10:50:09Z</time>
      </trkpt>
      <trkpt lat="43.65792" lon="3.80022">
        <ele>178</ele>
        <time>2016-04-19T10:50:10Z</time>
      </trkpt>
      <trkpt lat="43.6579" lon="3.80022">
        <ele>176.5</ele>
        <time>2016-04-19T10:50:11Z</time>
      </trkpt>
      <trkpt lat="43.65787" lon="3.80022">
        <ele>176.5</ele>
        <time>2016-04-19T10:50:12Z</time>
      </trkpt>
      <trkpt lat="43.65783" lon="3.80025">
        <ele>177</ele>
        <time>2016-04-19T10:50:13Z</time>
      </trkpt>
      <trkpt lat="43.65782" lon="3.80024">
        <ele>176.5</ele>
        <time>2016-04-19T10:50:14Z</time>
      </trkpt>
      <trkpt lat="43.65777" lon="3.80027">
        <ele>177</ele>
        <time>2016-04-19T10:50:16Z</time>
      </trkpt>
      <trkpt lat="43.65775" lon="3.80028">
        <ele>177.5</ele>
        <time>2016-04-19T10:50:17Z</time>
      </trkpt>
      <trkpt lat="43.65773" lon="3.80028">
        <ele>177</ele>
        <time>2016-04-19T10:50:18Z</time>
      </trkpt>
      <trkpt lat="43.65771" lon="3.80029">
        <ele>177.5</ele>
        <time>2016-04-19T10:50:19Z</time>
      </trkpt>
      <trkpt lat="43.65768" lon="3.8003">
        <ele>177.5</ele>
        <time>2016-04-19T10:50:20Z</time>
      </trkpt>
      <trkpt lat="43.65767" lon="3.80032">
        <ele>178</ele>
        <time>2016-04-19T10:50:21Z</time>
      </trkpt>
      <trkpt lat="43.65764" lon="3.80033">
        <ele>177.5</ele>
        <time>2016-04-19T10:50:22Z</time>
      </trkpt>
      <trkpt lat="43.65762" lon="3.80035">
        <ele>178</ele>
        <time>2016-04-19T10:50:23Z</time>
      </trkpt>
      <trkpt lat="43.65759" lon="3.80036">
        <ele>178</ele>
        <time>2016-04-19T10:50:24Z</time>
      </trkpt>
      <trkpt lat="43.65757" lon="3.80036">
        <ele>178</ele>
        <time>2016-04-19T10:50:25Z</time>
      </trkpt>
      <trkpt lat="43.65755" lon="3.80037">
        <ele>178.5</ele>
        <time>2016-04-19T10:50:26Z</time>
      </trkpt>
      <trkpt lat="43.65752" lon="3.8004">
        <ele>178.5</ele>
        <time>2016-04-19T10:50:27Z</time>
      </trkpt>
      <trkpt lat="43.65749" lon="3.80042">
        <ele>179</ele>
        <time>2016-04-19T10:50:28Z</time>
      </trkpt>
      <trkpt lat="43.65747" lon="3.80043">
        <ele>179</ele>
        <time>2016-04-19T10:50:29Z</time>
      </trkpt>
      <trkpt lat="43.65744" lon="3.80044">
        <ele>179</ele>
        <time>2016-04-19T10:50:30Z</time>
      </trkpt>
      <trkpt lat="43.65742" lon="3.80044">
        <ele>179.5</ele>
        <time>2016-04-19T10:50:31Z</time>
      </trkpt>
      <trkpt lat="43.6574" lon="3.80045">
        <ele>180</ele>
        <time>2016-04-19T10:50:32Z</time>
      </trkpt>
      <trkpt lat="43.65737" lon="3.80045">
        <ele>180</ele>
        <time>2016-04-19T10:50:33Z</time>
      </trkpt>
      <trkpt lat="43.65734" lon="3.80046">
        <ele>180</ele>
        <time>2016-04-19T10:50:34Z</time>
      </trkpt>
      <trkpt lat="43.65732" lon="3.80046">
        <ele>180</ele>
        <time>2016-04-19T10:50:35Z</time>
      </trkpt>
      <trkpt lat="43.65731" lon="3.80046">
        <ele>180.5</ele>
        <time>2016-04-19T10:50:36Z</time>
      </trkpt>
      <trkpt lat="43.65728" lon="3.80046">
        <ele>180.5</ele>
        <time>2016-04-19T10:50:37Z</time>
      </trkpt>
      <trkpt lat="43.65726" lon="3.80046">
        <ele>180.5</ele>
        <time>2016-04-19T10:50:38Z</time>
      </trkpt>
      <trkpt lat="43.65724" lon="3.80047">
        <ele>180.5</ele>
        <time>2016-04-19T10:50:39Z</time>
      </trkpt>
      <trkpt lat="43.65723" lon="3.80047">
        <ele>180.5</ele>
        <time>2016-04-19T10:50:40Z</time>
      </trkpt>
      <trkpt lat="43.65721" lon="3.80049">
        <ele>180.5</ele>
        <time>2016-04-19T10:50:41Z</time>
      </trkpt>
      <trkpt lat="43.65719" lon="3.80049">
        <ele>180.5</ele>
        <time>2016-04-19T10:50:42Z</time>
      </trkpt>
      <trkpt lat="43.65716" lon="3.8005">
        <ele>180.5</ele>
        <time>2016-04-19T10:50:43Z</time>
      </trkpt>
      <trkpt lat="43.65714" lon="3.80051">
        <ele>180.5</ele>
        <time>2016-04-19T10:50:44Z</time>
      </trkpt>
      <trkpt lat="43.65713" lon="3.80053">
        <ele>180.5</ele>
        <time>2016-04-19T10:50:45Z</time>
      </trkpt>
      <trkpt lat="43.65711" lon="3.80054">
        <ele>180.5</ele>
        <time>2016-04-19T10:50:46Z</time>
      </trkpt>
      <trkpt lat="43.6571" lon="3.80056">
        <ele>180.5</ele>
        <time>2016-04-19T10:50:47Z</time>
      </trkpt>
      <trkpt lat="43.65708" lon="3.80058">
        <ele>180.5</ele>
        <time>2016-04-19T10:50:47Z</time>
      </trkpt>
      <trkpt lat="43.65707" lon="3.8006">
        <ele>180.5</ele>
        <time>2016-04-19T10:50:49Z</time>
      </trkpt>
      <trkpt lat="43.65704" lon="3.80061">
        <ele>180.5</ele>
        <time>2016-04-19T10:50:49Z</time>
      </trkpt>
      <trkpt lat="43.65702" lon="3.80062">
        <ele>180.5</ele>
        <time>2016-04-19T10:50:50Z</time>
      </trkpt>
      <trkpt lat="43.65701" lon="3.80064">
        <ele>180.5</ele>
        <time>2016-04-19T10:50:51Z</time>
      </trkpt>
      <trkpt lat="43.65699" lon="3.80066">
        <ele>180.5</ele>
        <time>2016-04-19T10:50:53Z</time>
      </trkpt>
      <trkpt lat="43.65698" lon="3.80068">
        <ele>181</ele>
        <time>2016-04-19T10:50:53Z</time>
      </trkpt>
      <trkpt lat="43.65696" lon="3.8007">
        <ele>181</ele>
        <time>2016-04-19T10:50:54Z</time>
      </trkpt>
      <trkpt lat="43.65693" lon="3.80072">
        <ele>181</ele>
        <time>2016-04-19T10:50:55Z</time>
      </trkpt>
      <trkpt lat="43.65691" lon="3.80074">
        <ele>181.5</ele>
        <time>2016-04-19T10:50:56Z</time>
      </trkpt>
      <trkpt lat="43.65688" lon="3.80077">
        <ele>182</ele>
        <time>2016-04-19T10:50:57Z</time>
      </trkpt>
      <trkpt lat="43.65681" lon="3.80082">
        <ele>183</ele>
        <time>2016-04-19T10:50:59Z</time>
      </trkpt>
      <trkpt lat="43.65679" lon="3.80085">
        <ele>183.5</ele>
        <time>2016-04-19T10:51:00Z</time>
      </trkpt>
      <trkpt lat="43.65677" lon="3.80088">
        <ele>183.5</ele>
        <time>2016-04-19T10:51:01Z</time>
      </trkpt>
      <trkpt lat="43.65674" lon="3.8009">
        <ele>184</ele>
        <time>2016-04-19T10:51:03Z</time>
      </trkpt>
      <trkpt lat="43.65672" lon="3.80092">
        <ele>184</ele>
        <time>2016-04-19T10:51:03Z</time>
      </trkpt>
      <trkpt lat="43.6567" lon="3.80095">
        <ele>184</ele>
        <time>2016-04-19T10:51:04Z</time>
      </trkpt>
      <trkpt lat="43.65668" lon="3.80097">
        <ele>184</ele>
        <time>2016-04-19T10:51:05Z</time>
      </trkpt>
      <trkpt lat="43.65667" lon="3.80098">
        <ele>183</ele>
        <time>2016-04-19T10:51:06Z</time>
      </trkpt>
      <trkpt lat="43.65666" lon="3.80099">
        <ele>181.5</ele>
        <time>2016-04-19T10:51:07Z</time>
      </trkpt>
      <trkpt lat="43.65664" lon="3.801">
        <ele>181.5</ele>
        <time>2016-04-19T10:51:09Z</time>
      </trkpt>
      <trkpt lat="43.65662" lon="3.80101">
        <ele>181</ele>
        <time>2016-04-19T10:51:09Z</time>
      </trkpt>
      <trkpt lat="43.65659" lon="3.80103">
        <ele>181</ele>
        <time>2016-04-19T10:51:10Z</time>
      </trkpt>
      <trkpt lat="43.65657" lon="3.80105">
        <ele>181</ele>
        <time>2016-04-19T10:51:11Z</time>
      </trkpt>
      <trkpt lat="43.65655" lon="3.80107">
        <ele>181</ele>
        <time>2016-04-19T10:51:12Z</time>
      </trkpt>
      <trkpt lat="43.65652" lon="3.80111">
        <ele>180.5</ele>
        <time>2016-04-19T10:51:14Z</time>
      </trkpt>
      <trkpt lat="43.6565" lon="3.80113">
        <ele>180.5</ele>
        <time>2016-04-19T10:51:15Z</time>
      </trkpt>
      <trkpt lat="43.65648" lon="3.80114">
        <ele>180.5</ele>
        <time>2016-04-19T10:51:16Z</time>
      </trkpt>
      <trkpt lat="43.65646" lon="3.80116">
        <ele>180.5</ele>
        <time>2016-04-19T10:51:17Z</time>
      </trkpt>
      <trkpt lat="43.65644" lon="3.80117">
        <ele>180</ele>
        <time>2016-04-19T10:51:19Z</time>
      </trkpt>
      <trkpt lat="43.65641" lon="3.80119">
        <ele>180.5</ele>
        <time>2016-04-19T10:51:19Z</time>
      </trkpt>
      <trkpt lat="43.65639" lon="3.80121">
        <ele>180</ele>
        <time>2016-04-19T10:51:20Z</time>
      </trkpt>
      <trkpt lat="43.65636" lon="3.80123">
        <ele>180</ele>
        <time>2016-04-19T10:51:21Z</time>
      </trkpt>
      <trkpt lat="43.65634" lon="3.80126">
        <ele>180.5</ele>
        <time>2016-04-19T10:51:22Z</time>
      </trkpt>
      <trkpt lat="43.6563" lon="3.80128">
        <ele>181</ele>
        <time>2016-04-19T10:51:24Z</time>
      </trkpt>
      <trkpt lat="43.65628" lon="3.8013">
        <ele>181.5</ele>
        <time>2016-04-19T10:51:25Z</time>
      </trkpt>
      <trkpt lat="43.65625" lon="3.80133">
        <ele>181.5</ele>
        <time>2016-04-19T10:51:25Z</time>
      </trkpt>
      <trkpt lat="43.65624" lon="3.80135">
        <ele>181.5</ele>
        <time>2016-04-19T10:51:26Z</time>
      </trkpt>
      <trkpt lat="43.65622" lon="3.80137">
        <ele>181.5</ele>
        <time>2016-04-19T10:51:27Z</time>
      </trkpt>
      <trkpt lat="43.65619" lon="3.8014">
        <ele>182.5</ele>
        <time>2016-04-19T10:51:28Z</time>
      </trkpt>
      <trkpt lat="43.65618" lon="3.80143">
        <ele>183</ele>
        <time>2016-04-19T10:51:29Z</time>
      </trkpt>
      <trkpt lat="43.65617" lon="3.80147">
        <ele>182.5</ele>
        <time>2016-04-19T10:51:31Z</time>
      </trkpt>
      <trkpt lat="43.65616" lon="3.8015">
        <ele>182.5</ele>
        <time>2016-04-19T10:51:32Z</time>
      </trkpt>
      <trkpt lat="43.65615" lon="3.80152">
        <ele>183</ele>
        <time>2016-04-19T10:51:33Z</time>
      </trkpt>
      <trkpt lat="43.65614" lon="3.80155">
        <ele>183</ele>
        <time>2016-04-19T10:51:34Z</time>
      </trkpt>
      <trkpt lat="43.65609" lon="3.80161">
        <ele>185.5</ele>
        <time>2016-04-19T10:51:36Z</time>
      </trkpt>
      <trkpt lat="43.65607" lon="3.80164">
        <ele>185.5</ele>
        <time>2016-04-19T10:51:37Z</time>
      </trkpt>
      <trkpt lat="43.65605" lon="3.80167">
        <ele>186.5</ele>
        <time>2016-04-19T10:51:38Z</time>
      </trkpt>
      <trkpt lat="43.65602" lon="3.80171">
        <ele>189</ele>
        <time>2016-04-19T10:51:39Z</time>
      </trkpt>
      <trkpt lat="43.65599" lon="3.80173">
        <ele>189</ele>
        <time>2016-04-19T10:51:40Z</time>
      </trkpt>
      <trkpt lat="43.65596" lon="3.80176">
        <ele>189.5</ele>
        <time>2016-04-19T10:51:41Z</time>
      </trkpt>
      <trkpt lat="43.65594" lon="3.80181">
        <ele>189.5</ele>
        <time>2016-04-19T10:51:42Z</time>
      </trkpt>
      <trkpt lat="43.65592" lon="3.80184">
        <ele>190</ele>
        <time>2016-04-19T10:51:43Z</time>
      </trkpt>
      <trkpt lat="43.6559" lon="3.80187">
        <ele>190.5</ele>
        <time>2016-04-19T10:51:44Z</time>
      </trkpt>
      <trkpt lat="43.65589" lon="3.80189">
        <ele>190.5</ele>
        <time>2016-04-19T10:51:45Z</time>
      </trkpt>
      <trkpt lat="43.65586" lon="3.80192">
        <ele>190.5</ele>
        <time>2016-04-19T10:51:46Z</time>
      </trkpt>
      <trkpt lat="43.65585" lon="3.80195">
        <ele>190</ele>
        <time>2016-04-19T10:51:47Z</time>
      </trkpt>
      <trkpt lat="43.65583" lon="3.80198">
        <ele>190</ele>
        <time>2016-04-19T10:51:48Z</time>
      </trkpt>
      <trkpt lat="43.65582" lon="3.80201">
        <ele>189.5</ele>
        <time>2016-04-19T10:51:49Z</time>
      </trkpt>
      <trkpt lat="43.6558" lon="3.80203">
        <ele>189.5</ele>
        <time>2016-04-19T10:51:50Z</time>
      </trkpt>
      <trkpt lat="43.65577" lon="3.80206">
        <ele>189.5</ele>
        <time>2016-04-19T10:51:51Z</time>
      </trkpt>
      <trkpt lat="43.65575" lon="3.80208">
        <ele>189.5</ele>
        <time>2016-04-19T10:51:52Z</time>
      </trkpt>
      <trkpt lat="43.65573" lon="3.8021">
        <ele>189.5</ele>
        <time>2016-04-19T10:51:53Z</time>
      </trkpt>
      <trkpt lat="43.6557" lon="3.80212">
        <ele>189.5</ele>
        <time>2016-04-19T10:51:54Z</time>
      </trkpt>
      <trkpt lat="43.65567" lon="3.80214">
        <ele>189</ele>
        <time>2016-04-19T10:51:55Z</time>
      </trkpt>
      <trkpt lat="43.65565" lon="3.80217">
        <ele>189.5</ele>
        <time>2016-04-19T10:51:56Z</time>
      </trkpt>
      <trkpt lat="43.65562" lon="3.80219">
        <ele>189.5</ele>
        <time>2016-04-19T10:51:57Z</time>
      </trkpt>
      <trkpt lat="43.65555" lon="3.80223">
        <ele>190.5</ele>
        <time>2016-04-19T10:51:59Z</time>
      </trkpt>
      <trkpt lat="43.65549" lon="3.80225">
        <ele>190</ele>
        <time>2016-04-19T10:52:01Z</time>
      </trkpt>
      <trkpt lat="43.65552" lon="3.80225">
        <ele>190</ele>
        <time>2016-04-19T10:52:02Z</time>
      </trkpt>
      <trkpt lat="43.6555" lon="3.80226">
        <ele>190</ele>
        <time>2016-04-19T10:52:03Z</time>
      </trkpt>
      <trkpt lat="43.65547" lon="3.80227">
        <ele>190</ele>
        <time>2016-04-19T10:52:04Z</time>
      </trkpt>
      <trkpt lat="43.65538" lon="3.80233">
        <ele>190.5</ele>
        <time>2016-04-19T10:52:06Z</time>
      </trkpt>
      <trkpt lat="43.65534" lon="3.80235">
        <ele>190.5</ele>
        <time>2016-04-19T10:52:07Z</time>
      </trkpt>
      <trkpt lat="43.6551" lon="3.80243">
        <ele>191</ele>
        <time>2016-04-19T10:52:12Z</time>
      </trkpt>
      <trkpt lat="43.65508" lon="3.80244">
        <ele>190.5</ele>
        <time>2016-04-19T10:52:13Z</time>
      </trkpt>
      <trkpt lat="43.65499" lon="3.8025">
        <ele>189</ele>
        <time>2016-04-19T10:52:16Z</time>
      </trkpt>
      <trkpt lat="43.65497" lon="3.80252">
        <ele>188.5</ele>
        <time>2016-04-19T10:52:17Z</time>
      </trkpt>
      <trkpt lat="43.65495" lon="3.80253">
        <ele>187.5</ele>
        <time>2016-04-19T10:52:18Z</time>
      </trkpt>
      <trkpt lat="43.65491" lon="3.80256">
        <ele>187</ele>
        <time>2016-04-19T10:52:19Z</time>
      </trkpt>
      <trkpt lat="43.65486" lon="3.80259">
        <ele>187</ele>
        <time>2016-04-19T10:52:20Z</time>
      </trkpt>
      <trkpt lat="43.65483" lon="3.80264">
        <ele>187.5</ele>
        <time>2016-04-19T10:52:21Z</time>
      </trkpt>
      <trkpt lat="43.6548" lon="3.80268">
        <ele>187.5</ele>
        <time>2016-04-19T10:52:22Z</time>
      </trkpt>
      <trkpt lat="43.6548" lon="3.80289">
        <ele>187.5</ele>
        <time>2016-04-19T10:52:25Z</time>
      </trkpt>
      <trkpt lat="43.6548" lon="3.80295">
        <ele>187.5</ele>
        <time>2016-04-19T10:52:26Z</time>
      </trkpt>
      <trkpt lat="43.65482" lon="3.80301">
        <ele>187.5</ele>
        <time>2016-04-19T10:52:27Z</time>
      </trkpt>
      <trkpt lat="43.65485" lon="3.80305">
        <ele>187.5</ele>
        <time>2016-04-19T10:52:28Z</time>
      </trkpt>
      <trkpt lat="43.65489" lon="3.80309">
        <ele>188</ele>
        <time>2016-04-19T10:52:29Z</time>
      </trkpt>
      <trkpt lat="43.65494" lon="3.80311">
        <ele>188</ele>
        <time>2016-04-19T10:52:30Z</time>
      </trkpt>
      <trkpt lat="43.65498" lon="3.80313">
        <ele>188</ele>
        <time>2016-04-19T10:52:31Z</time>
      </trkpt>
      <trkpt lat="43.65502" lon="3.80315">
        <ele>188</ele>
        <time>2016-04-19T10:52:32Z</time>
      </trkpt>
      <trkpt lat="43.65505" lon="3.80317">
        <ele>188</ele>
        <time>2016-04-19T10:52:33Z</time>
      </trkpt>
      <trkpt lat="43.65505" lon="3.80312">
        <ele>188</ele>
        <time>2016-04-19T10:52:34Z</time>
      </trkpt>
      <trkpt lat="43.65508" lon="3.80312">
        <ele>188</ele>
        <time>2016-04-19T10:52:35Z</time>
      </trkpt>
      <trkpt lat="43.65508" lon="3.80316">
        <ele>188</ele>
        <time>2016-04-19T10:52:36Z</time>
      </trkpt>
      <trkpt lat="43.65507" lon="3.80319">
        <ele>188.5</ele>
        <time>2016-04-19T10:52:37Z</time>
      </trkpt>
      <trkpt lat="43.65507" lon="3.80321">
        <ele>188</ele>
        <time>2016-04-19T10:52:38Z</time>
      </trkpt>
      <trkpt lat="43.65507" lon="3.80324">
        <ele>188.5</ele>
        <time>2016-04-19T10:52:39Z</time>
      </trkpt>
      <trkpt lat="43.65506" lon="3.80326">
        <ele>188.5</ele>
        <time>2016-04-19T10:52:40Z</time>
      </trkpt>
      <trkpt lat="43.65506" lon="3.80328">
        <ele>188.5</ele>
        <time>2016-04-19T10:52:41Z</time>
      </trkpt>
      <trkpt lat="43.65505" lon="3.8033">
        <ele>188.5</ele>
        <time>2016-04-19T10:52:42Z</time>
      </trkpt>
      <trkpt lat="43.65503" lon="3.80333">
        <ele>188.5</ele>
        <time>2016-04-19T10:52:43Z</time>
      </trkpt>
      <trkpt lat="43.65505" lon="3.80335">
        <ele>188.5</ele>
        <time>2016-04-19T10:52:44Z</time>
      </trkpt>
      <trkpt lat="43.65506" lon="3.80337">
        <ele>188.5</ele>
        <time>2016-04-19T10:52:45Z</time>
      </trkpt>
      <trkpt lat="43.65507" lon="3.80339">
        <ele>188.5</ele>
        <time>2016-04-19T10:52:46Z</time>
      </trkpt>
      <trkpt lat="43.6551" lon="3.80341">
        <ele>188</ele>
        <time>2016-04-19T10:52:47Z</time>
      </trkpt>
      <trkpt lat="43.65512" lon="3.80343">
        <ele>188</ele>
        <time>2016-04-19T10:52:48Z</time>
      </trkpt>
      <trkpt lat="43.65513" lon="3.80346">
        <ele>188</ele>
        <time>2016-04-19T10:52:49Z</time>
      </trkpt>
      <trkpt lat="43.65515" lon="3.8035">
        <ele>188</ele>
        <time>2016-04-19T10:52:50Z</time>
      </trkpt>
      <trkpt lat="43.65518" lon="3.80354">
        <ele>188</ele>
        <time>2016-04-19T10:52:51Z</time>
      </trkpt>
      <trkpt lat="43.65521" lon="3.80356">
        <ele>188.5</ele>
        <time>2016-04-19T10:52:52Z</time>
      </trkpt>
      <trkpt lat="43.65524" lon="3.8036">
        <ele>188.5</ele>
        <time>2016-04-19T10:52:53Z</time>
      </trkpt>
      <trkpt lat="43.65528" lon="3.80359">
        <ele>188.5</ele>
        <time>2016-04-19T10:52:54Z</time>
      </trkpt>
      <trkpt lat="43.65531" lon="3.80361">
        <ele>188.5</ele>
        <time>2016-04-19T10:52:55Z</time>
      </trkpt>
      <trkpt lat="43.65536" lon="3.80361">
        <ele>188.5</ele>
        <time>2016-04-19T10:52:56Z</time>
      </trkpt>
      <trkpt lat="43.65539" lon="3.80364">
        <ele>188</ele>
        <time>2016-04-19T10:52:57Z</time>
      </trkpt>
      <trkpt lat="43.65544" lon="3.80366">
        <ele>188</ele>
        <time>2016-04-19T10:52:58Z</time>
      </trkpt>
      <trkpt lat="43.65549" lon="3.80367">
        <ele>188</ele>
        <time>2016-04-19T10:52:59Z</time>
      </trkpt>
      <trkpt lat="43.65554" lon="3.80368">
        <ele>188.5</ele>
        <time>2016-04-19T10:53:00Z</time>
      </trkpt>
      <trkpt lat="43.65559" lon="3.8037">
        <ele>188.5</ele>
        <time>2016-04-19T10:53:01Z</time>
      </trkpt>
      <trkpt lat="43.65565" lon="3.80369">
        <ele>188.5</ele>
        <time>2016-04-19T10:53:03Z</time>
      </trkpt>
      <trkpt lat="43.6557" lon="3.80372">
        <ele>189</ele>
        <time>2016-04-19T10:53:04Z</time>
      </trkpt>
      <trkpt lat="43.65574" lon="3.80376">
        <ele>189</ele>
        <time>2016-04-19T10:53:05Z</time>
      </trkpt>
      <trkpt lat="43.65578" lon="3.80378">
        <ele>189.5</ele>
        <time>2016-04-19T10:53:06Z</time>
      </trkpt>
      <trkpt lat="43.65583" lon="3.8038">
        <ele>189</ele>
        <time>2016-04-19T10:53:07Z</time>
      </trkpt>
      <trkpt lat="43.65589" lon="3.8038">
        <ele>189</ele>
        <time>2016-04-19T10:53:08Z</time>
      </trkpt>
      <trkpt lat="43.65594" lon="3.80382">
        <ele>189.5</ele>
        <time>2016-04-19T10:53:09Z</time>
      </trkpt>
      <trkpt lat="43.656" lon="3.80385">
        <ele>189.5</ele>
        <time>2016-04-19T10:53:10Z</time>
      </trkpt>
      <trkpt lat="43.65604" lon="3.80388">
        <ele>189.5</ele>
        <time>2016-04-19T10:53:11Z</time>
      </trkpt>
      <trkpt lat="43.65609" lon="3.80389">
        <ele>189.5</ele>
        <time>2016-04-19T10:53:12Z</time>
      </trkpt>
      <trkpt lat="43.6561" lon="3.80395">
        <ele>191.5</ele>
        <time>2016-04-19T10:53:14Z</time>
      </trkpt>
      <trkpt lat="43.6561" lon="3.80397">
        <ele>191.5</ele>
        <time>2016-04-19T10:53:15Z</time>
      </trkpt>
      <trkpt lat="43.65621" lon="3.80398">
        <ele>192</ele>
        <time>2016-04-19T10:53:17Z</time>
      </trkpt>
      <trkpt lat="43.65635" lon="3.80403">
        <ele>192</ele>
        <time>2016-04-19T10:53:19Z</time>
      </trkpt>
      <trkpt lat="43.6564" lon="3.80405">
        <ele>192</ele>
        <time>2016-04-19T10:53:20Z</time>
      </trkpt>
      <trkpt lat="43.65644" lon="3.80405">
        <ele>192</ele>
        <time>2016-04-19T10:53:21Z</time>
      </trkpt>
      <trkpt lat="43.65648" lon="3.80408">
        <ele>192</ele>
        <time>2016-04-19T10:53:22Z</time>
      </trkpt>
      <trkpt lat="43.65652" lon="3.80409">
        <ele>192</ele>
        <time>2016-04-19T10:53:23Z</time>
      </trkpt>
      <trkpt lat="43.65657" lon="3.80411">
        <ele>191.5</ele>
        <time>2016-04-19T10:53:24Z</time>
      </trkpt>
      <trkpt lat="43.65661" lon="3.80412">
        <ele>192</ele>
        <time>2016-04-19T10:53:25Z</time>
      </trkpt>
      <trkpt lat="43.65665" lon="3.80414">
        <ele>192</ele>
        <time>2016-04-19T10:53:26Z</time>
      </trkpt>
      <trkpt lat="43.65669" lon="3.80415">
        <ele>192</ele>
        <time>2016-04-19T10:53:27Z</time>
      </trkpt>
      <trkpt lat="43.65673" lon="3.80416">
        <ele>192</ele>
        <time>2016-04-19T10:53:28Z</time>
      </trkpt>
      <trkpt lat="43.65677" lon="3.80418">
        <ele>192.5</ele>
        <time>2016-04-19T10:53:29Z</time>
      </trkpt>
      <trkpt lat="43.65679" lon="3.80419">
        <ele>192</ele>
        <time>2016-04-19T10:53:30Z</time>
      </trkpt>
      <trkpt lat="43.65684" lon="3.80421">
        <ele>192</ele>
        <time>2016-04-19T10:53:31Z</time>
      </trkpt>
      <trkpt lat="43.65687" lon="3.80422">
        <ele>192</ele>
        <time>2016-04-19T10:53:32Z</time>
      </trkpt>
      <trkpt lat="43.65689" lon="3.80427">
        <ele>192.5</ele>
        <time>2016-04-19T10:53:33Z</time>
      </trkpt>
      <trkpt lat="43.65691" lon="3.80433">
        <ele>192.5</ele>
        <time>2016-04-19T10:53:34Z</time>
      </trkpt>
      <trkpt lat="43.65694" lon="3.80433">
        <ele>192.5</ele>
        <time>2016-04-19T10:53:35Z</time>
      </trkpt>
      <trkpt lat="43.65696" lon="3.80436">
        <ele>192</ele>
        <time>2016-04-19T10:53:36Z</time>
      </trkpt>
      <trkpt lat="43.65701" lon="3.80436">
        <ele>192</ele>
        <time>2016-04-19T10:53:37Z</time>
      </trkpt>
      <trkpt lat="43.65705" lon="3.80437">
        <ele>192</ele>
        <time>2016-04-19T10:53:38Z</time>
      </trkpt>
      <trkpt lat="43.65707" lon="3.80447">
        <ele>192.5</ele>
        <time>2016-04-19T10:53:40Z</time>
      </trkpt>
      <trkpt lat="43.65714" lon="3.80442">
        <ele>192</ele>
        <time>2016-04-19T10:53:42Z</time>
      </trkpt>
      <trkpt lat="43.65718" lon="3.80443">
        <ele>191.5</ele>
        <time>2016-04-19T10:53:43Z</time>
      </trkpt>
      <trkpt lat="43.65722" lon="3.80442">
        <ele>191</ele>
        <time>2016-04-19T10:53:44Z</time>
      </trkpt>
      <trkpt lat="43.65726" lon="3.8044">
        <ele>191</ele>
        <time>2016-04-19T10:53:45Z</time>
      </trkpt>
      <trkpt lat="43.65729" lon="3.8044">
        <ele>191</ele>
        <time>2016-04-19T10:53:46Z</time>
      </trkpt>
      <trkpt lat="43.65733" lon="3.8044">
        <ele>191</ele>
        <time>2016-04-19T10:53:47Z</time>
      </trkpt>
      <trkpt lat="43.65737" lon="3.80443">
        <ele>191</ele>
        <time>2016-04-19T10:53:48Z</time>
      </trkpt>
      <trkpt lat="43.65746" lon="3.80447">
        <ele>191</ele>
        <time>2016-04-19T10:53:50Z</time>
      </trkpt>
      <trkpt lat="43.65749" lon="3.80449">
        <ele>190.5</ele>
        <time>2016-04-19T10:53:51Z</time>
      </trkpt>
      <trkpt lat="43.65753" lon="3.80451">
        <ele>191</ele>
        <time>2016-04-19T10:53:52Z</time>
      </trkpt>
      <trkpt lat="43.65757" lon="3.80453">
        <ele>191</ele>
        <time>2016-04-19T10:53:53Z</time>
      </trkpt>
      <trkpt lat="43.65761" lon="3.80454">
        <ele>191</ele>
        <time>2016-04-19T10:53:54Z</time>
      </trkpt>
      <trkpt lat="43.65765" lon="3.80455">
        <ele>191</ele>
        <time>2016-04-19T10:53:55Z</time>
      </trkpt>
      <trkpt lat="43.65769" lon="3.80459">
        <ele>190.5</ele>
        <time>2016-04-19T10:53:56Z</time>
      </trkpt>
      <trkpt lat="43.65774" lon="3.8046">
        <ele>188</ele>
        <time>2016-04-19T10:53:57Z</time>
      </trkpt>
      <trkpt lat="43.65777" lon="3.80464">
        <ele>188</ele>
        <time>2016-04-19T10:53:58Z</time>
      </trkpt>
      <trkpt lat="43.65781" lon="3.80466">
        <ele>188</ele>
        <time>2016-04-19T10:53:59Z</time>
      </trkpt>
      <trkpt lat="43.65785" lon="3.80466">
        <ele>187.5</ele>
        <time>2016-04-19T10:54:00Z</time>
      </trkpt>
      <trkpt lat="43.6579" lon="3.80468">
        <ele>187</ele>
        <time>2016-04-19T10:54:01Z</time>
      </trkpt>
      <trkpt lat="43.65796" lon="3.80469">
        <ele>187</ele>
        <time>2016-04-19T10:54:02Z</time>
      </trkpt>
      <trkpt lat="43.658" lon="3.8047">
        <ele>187.5</ele>
        <time>2016-04-19T10:54:03Z</time>
      </trkpt>
      <trkpt lat="43.65805" lon="3.80472">
        <ele>187.5</ele>
        <time>2016-04-19T10:54:04Z</time>
      </trkpt>
      <trkpt lat="43.65811" lon="3.80475">
        <ele>187.5</ele>
        <time>2016-04-19T10:54:06Z</time>
      </trkpt>
      <trkpt lat="43.65814" lon="3.8048">
        <ele>187</ele>
        <time>2016-04-19T10:54:07Z</time>
      </trkpt>
      <trkpt lat="43.65817" lon="3.80482">
        <ele>186.5</ele>
        <time>2016-04-19T10:54:08Z</time>
      </trkpt>
      <trkpt lat="43.65821" lon="3.80484">
        <ele>186.5</ele>
        <time>2016-04-19T10:54:09Z</time>
      </trkpt>
      <trkpt lat="43.65823" lon="3.80488">
        <ele>186.5</ele>
        <time>2016-04-19T10:54:10Z</time>
      </trkpt>
      <trkpt lat="43.65834" lon="3.80487">
        <ele>186</ele>
        <time>2016-04-19T10:54:12Z</time>
      </trkpt>
      <trkpt lat="43.65838" lon="3.80488">
        <ele>186.5</ele>
        <time>2016-04-19T10:54:13Z</time>
      </trkpt>
      <trkpt lat="43.65843" lon="3.80488">
        <ele>186.5</ele>
        <time>2016-04-19T10:54:14Z</time>
      </trkpt>
      <trkpt lat="43.65846" lon="3.8049">
        <ele>186.5</ele>
        <time>2016-04-19T10:54:15Z</time>
      </trkpt>
      <trkpt lat="43.6585" lon="3.80493">
        <ele>186.5</ele>
        <time>2016-04-19T10:54:16Z</time>
      </trkpt>
      <trkpt lat="43.65853" lon="3.80495">
        <ele>186.5</ele>
        <time>2016-04-19T10:54:17Z</time>
      </trkpt>
      <trkpt lat="43.65856" lon="3.80496">
        <ele>186.5</ele>
        <time>2016-04-19T10:54:18Z</time>
      </trkpt>
      <trkpt lat="43.65869" lon="3.80501">
        <ele>186</ele>
        <time>2016-04-19T10:54:20Z</time>
      </trkpt>
      <trkpt lat="43.65874" lon="3.80501">
        <ele>186</ele>
        <time>2016-04-19T10:54:21Z</time>
      </trkpt>
      <trkpt lat="43.65878" lon="3.80503">
        <ele>186</ele>
        <time>2016-04-19T10:54:22Z</time>
      </trkpt>
      <trkpt lat="43.65881" lon="3.80504">
        <ele>186</ele>
        <time>2016-04-19T10:54:23Z</time>
      </trkpt>
      <trkpt lat="43.65883" lon="3.80506">
        <ele>186</ele>
        <time>2016-04-19T10:54:24Z</time>
      </trkpt>
      <trkpt lat="43.65885" lon="3.80508">
        <ele>186</ele>
        <time>2016-04-19T10:54:25Z</time>
      </trkpt>
      <trkpt lat="43.65885" lon="3.80511">
        <ele>187</ele>
        <time>2016-04-19T10:54:26Z</time>
      </trkpt>
      <trkpt lat="43.65886" lon="3.80512">
        <ele>187</ele>
        <time>2016-04-19T10:54:27Z</time>
      </trkpt>
      <trkpt lat="43.65895" lon="3.80514">
        <ele>185.5</ele>
        <time>2016-04-19T10:54:29Z</time>
      </trkpt>
      <trkpt lat="43.65899" lon="3.80514">
        <ele>186</ele>
        <time>2016-04-19T10:54:30Z</time>
      </trkpt>
      <trkpt lat="43.65902" lon="3.80514">
        <ele>186</ele>
        <time>2016-04-19T10:54:31Z</time>
      </trkpt>
      <trkpt lat="43.65904" lon="3.80517">
        <ele>186</ele>
        <time>2016-04-19T10:54:32Z</time>
      </trkpt>
      <trkpt lat="43.65907" lon="3.80519">
        <ele>186</ele>
        <time>2016-04-19T10:54:33Z</time>
      </trkpt>
      <trkpt lat="43.65909" lon="3.80521">
        <ele>186.5</ele>
        <time>2016-04-19T10:54:34Z</time>
      </trkpt>
      <trkpt lat="43.65911" lon="3.80525">
        <ele>188.5</ele>
        <time>2016-04-19T10:54:35Z</time>
      </trkpt>
      <trkpt lat="43.65912" lon="3.80529">
        <ele>189</ele>
        <time>2016-04-19T10:54:36Z</time>
      </trkpt>
      <trkpt lat="43.65912" lon="3.80533">
        <ele>189</ele>
        <time>2016-04-19T10:54:37Z</time>
      </trkpt>
      <trkpt lat="43.65913" lon="3.80537">
        <ele>190.5</ele>
        <time>2016-04-19T10:54:38Z</time>
      </trkpt>
      <trkpt lat="43.65916" lon="3.80538">
        <ele>190</ele>
        <time>2016-04-19T10:54:39Z</time>
      </trkpt>
      <trkpt lat="43.65919" lon="3.80539">
        <ele>190</ele>
        <time>2016-04-19T10:54:40Z</time>
      </trkpt>
      <trkpt lat="43.65922" lon="3.80542">
        <ele>189.5</ele>
        <time>2016-04-19T10:54:41Z</time>
      </trkpt>
      <trkpt lat="43.65921" lon="3.80545">
        <ele>189.5</ele>
        <time>2016-04-19T10:54:42Z</time>
      </trkpt>
      <trkpt lat="43.65922" lon="3.80549">
        <ele>188</ele>
        <time>2016-04-19T10:54:43Z</time>
      </trkpt>
      <trkpt lat="43.65922" lon="3.80553">
        <ele>187</ele>
        <time>2016-04-19T10:54:44Z</time>
      </trkpt>
      <trkpt lat="43.65924" lon="3.80554">
        <ele>185</ele>
        <time>2016-04-19T10:54:45Z</time>
      </trkpt>
      <trkpt lat="43.65924" lon="3.80556">
        <ele>183</ele>
        <time>2016-04-19T10:54:46Z</time>
      </trkpt>
      <trkpt lat="43.65924" lon="3.80558">
        <ele>179.5</ele>
        <time>2016-04-19T10:54:47Z</time>
      </trkpt>
      <trkpt lat="43.65925" lon="3.80562">
        <ele>177.5</ele>
        <time>2016-04-19T10:54:48Z</time>
      </trkpt>
      <trkpt lat="43.65925" lon="3.80564">
        <ele>177.5</ele>
        <time>2016-04-19T10:54:49Z</time>
      </trkpt>
      <trkpt lat="43.65924" lon="3.80567">
        <ele>178</ele>
        <time>2016-04-19T10:54:50Z</time>
      </trkpt>
      <trkpt lat="43.65926" lon="3.80568">
        <ele>178.5</ele>
        <time>2016-04-19T10:54:51Z</time>
      </trkpt>
      <trkpt lat="43.65927" lon="3.80569">
        <ele>178</ele>
        <time>2016-04-19T10:54:52Z</time>
      </trkpt>
      <trkpt lat="43.65926" lon="3.80576">
        <ele>179</ele>
        <time>2016-04-19T10:54:54Z</time>
      </trkpt>
      <trkpt lat="43.65926" lon="3.80582">
        <ele>178.5</ele>
        <time>2016-04-19T10:54:56Z</time>
      </trkpt>
      <trkpt lat="43.65926" lon="3.80586">
        <ele>175.5</ele>
        <time>2016-04-19T10:54:57Z</time>
      </trkpt>
      <trkpt lat="43.65926" lon="3.80591">
        <ele>172.5</ele>
        <time>2016-04-19T10:54:58Z</time>
      </trkpt>
      <trkpt lat="43.65925" lon="3.80597">
        <ele>170.5</ele>
        <time>2016-04-19T10:54:59Z</time>
      </trkpt>
      <trkpt lat="43.65923" lon="3.80601">
        <ele>169.5</ele>
        <time>2016-04-19T10:55:00Z</time>
      </trkpt>
      <trkpt lat="43.65923" lon="3.80605">
        <ele>169</ele>
        <time>2016-04-19T10:55:01Z</time>
      </trkpt>
      <trkpt lat="43.65923" lon="3.80608">
        <ele>168.5</ele>
        <time>2016-04-19T10:55:02Z</time>
      </trkpt>
      <trkpt lat="43.65917" lon="3.80618">
        <ele>167.5</ele>
        <time>2016-04-19T10:55:04Z</time>
      </trkpt>
      <trkpt lat="43.65915" lon="3.80623">
        <ele>167</ele>
        <time>2016-04-19T10:55:05Z</time>
      </trkpt>
      <trkpt lat="43.65913" lon="3.80625">
        <ele>166</ele>
        <time>2016-04-19T10:55:06Z</time>
      </trkpt>
      <trkpt lat="43.6591" lon="3.80626">
        <ele>163</ele>
        <time>2016-04-19T10:55:08Z</time>
      </trkpt>
      <trkpt lat="43.65907" lon="3.80628">
        <ele>164</ele>
        <time>2016-04-19T10:55:09Z</time>
      </trkpt>
      <trkpt lat="43.65904" lon="3.80631">
        <ele>164</ele>
        <time>2016-04-19T10:55:10Z</time>
      </trkpt>
      <trkpt lat="43.65901" lon="3.80634">
        <ele>163.5</ele>
        <time>2016-04-19T10:55:11Z</time>
      </trkpt>
      <trkpt lat="43.65898" lon="3.80638">
        <ele>163.5</ele>
        <time>2016-04-19T10:55:11Z</time>
      </trkpt>
      <trkpt lat="43.65896" lon="3.80641">
        <ele>164</ele>
        <time>2016-04-19T10:55:13Z</time>
      </trkpt>
      <trkpt lat="43.65897" lon="3.80655">
        <ele>166.5</ele>
        <time>2016-04-19T10:55:14Z</time>
      </trkpt>
      <trkpt lat="43.659" lon="3.80659">
        <ele>166.5</ele>
        <time>2016-04-19T10:55:15Z</time>
      </trkpt>
      <trkpt lat="43.65909" lon="3.80668">
        <ele>166.5</ele>
        <time>2016-04-19T10:55:18Z</time>
      </trkpt>
      <trkpt lat="43.65916" lon="3.80677">
        <ele>166</ele>
        <time>2016-04-19T10:55:19Z</time>
      </trkpt>
      <trkpt lat="43.65919" lon="3.80683">
        <ele>165</ele>
        <time>2016-04-19T10:55:21Z</time>
      </trkpt>
      <trkpt lat="43.65922" lon="3.8069">
        <ele>163</ele>
        <time>2016-04-19T10:55:21Z</time>
      </trkpt>
      <trkpt lat="43.65924" lon="3.80698">
        <ele>161</ele>
        <time>2016-04-19T10:55:22Z</time>
      </trkpt>
      <trkpt lat="43.65924" lon="3.80705">
        <ele>160</ele>
        <time>2016-04-19T10:55:23Z</time>
      </trkpt>
      <trkpt lat="43.65921" lon="3.8071">
        <ele>160</ele>
        <time>2016-04-19T10:55:24Z</time>
      </trkpt>
      <trkpt lat="43.65918" lon="3.80717">
        <ele>159</ele>
        <time>2016-04-19T10:55:25Z</time>
      </trkpt>
      <trkpt lat="43.65915" lon="3.80725">
        <ele>157</ele>
        <time>2016-04-19T10:55:26Z</time>
      </trkpt>
      <trkpt lat="43.65911" lon="3.80732">
        <ele>156</ele>
        <time>2016-04-19T10:55:27Z</time>
      </trkpt>
      <trkpt lat="43.65907" lon="3.8074">
        <ele>156</ele>
        <time>2016-04-19T10:55:28Z</time>
      </trkpt>
      <trkpt lat="43.65904" lon="3.80747">
        <ele>154</ele>
        <time>2016-04-19T10:55:29Z</time>
      </trkpt>
      <trkpt lat="43.65901" lon="3.80753">
        <ele>153.5</ele>
        <time>2016-04-19T10:55:30Z</time>
      </trkpt>
      <trkpt lat="43.65899" lon="3.8076">
        <ele>152.5</ele>
        <time>2016-04-19T10:55:31Z</time>
      </trkpt>
      <trkpt lat="43.65896" lon="3.80766">
        <ele>151.5</ele>
        <time>2016-04-19T10:55:32Z</time>
      </trkpt>
      <trkpt lat="43.65893" lon="3.8077">
        <ele>150.5</ele>
        <time>2016-04-19T10:55:33Z</time>
      </trkpt>
      <trkpt lat="43.65888" lon="3.80771">
        <ele>150</ele>
        <time>2016-04-19T10:55:34Z</time>
      </trkpt>
      <trkpt lat="43.65885" lon="3.80767">
        <ele>149.5</ele>
        <time>2016-04-19T10:55:35Z</time>
      </trkpt>
      <trkpt lat="43.65881" lon="3.80767">
        <ele>149</ele>
        <time>2016-04-19T10:55:36Z</time>
      </trkpt>
      <trkpt lat="43.65877" lon="3.80766">
        <ele>149</ele>
        <time>2016-04-19T10:55:38Z</time>
      </trkpt>
      <trkpt lat="43.65874" lon="3.80765">
        <ele>149</ele>
        <time>2016-04-19T10:55:38Z</time>
      </trkpt>
      <trkpt lat="43.65871" lon="3.80762">
        <ele>149</ele>
        <time>2016-04-19T10:55:39Z</time>
      </trkpt>
      <trkpt lat="43.65868" lon="3.8076">
        <ele>148.5</ele>
        <time>2016-04-19T10:55:40Z</time>
      </trkpt>
      <trkpt lat="43.65864" lon="3.8076">
        <ele>148</ele>
        <time>2016-04-19T10:55:41Z</time>
      </trkpt>
      <trkpt lat="43.6586" lon="3.80759">
        <ele>148</ele>
        <time>2016-04-19T10:55:42Z</time>
      </trkpt>
      <trkpt lat="43.65856" lon="3.80758">
        <ele>148</ele>
        <time>2016-04-19T10:55:43Z</time>
      </trkpt>
      <trkpt lat="43.65853" lon="3.80756">
        <ele>148</ele>
        <time>2016-04-19T10:55:44Z</time>
      </trkpt>
      <trkpt lat="43.6585" lon="3.80754">
        <ele>147.5</ele>
        <time>2016-04-19T10:55:45Z</time>
      </trkpt>
      <trkpt lat="43.65847" lon="3.80752">
        <ele>148</ele>
        <time>2016-04-19T10:55:46Z</time>
      </trkpt>
      <trkpt lat="43.65843" lon="3.8075">
        <ele>147.5</ele>
        <time>2016-04-19T10:55:47Z</time>
      </trkpt>
      <trkpt lat="43.65839" lon="3.80749">
        <ele>147.5</ele>
        <time>2016-04-19T10:55:48Z</time>
      </trkpt>
      <trkpt lat="43.65835" lon="3.80748">
        <ele>147.5</ele>
        <time>2016-04-19T10:55:49Z</time>
      </trkpt>
      <trkpt lat="43.65829" lon="3.80747">
        <ele>147.5</ele>
        <time>2016-04-19T10:55:50Z</time>
      </trkpt>
      <trkpt lat="43.65824" lon="3.80745">
        <ele>147.5</ele>
        <time>2016-04-19T10:55:51Z</time>
      </trkpt>
      <trkpt lat="43.65819" lon="3.80743">
        <ele>148</ele>
        <time>2016-04-19T10:55:52Z</time>
      </trkpt>
      <trkpt lat="43.65815" lon="3.80739">
        <ele>147.5</ele>
        <time>2016-04-19T10:55:53Z</time>
      </trkpt>
      <trkpt lat="43.6581" lon="3.80736">
        <ele>147</ele>
        <time>2016-04-19T10:55:54Z</time>
      </trkpt>
      <trkpt lat="43.65805" lon="3.80733">
        <ele>146.5</ele>
        <time>2016-04-19T10:55:55Z</time>
      </trkpt>
      <trkpt lat="43.658" lon="3.8073">
        <ele>146.5</ele>
        <time>2016-04-19T10:55:56Z</time>
      </trkpt>
      <trkpt lat="43.65788" lon="3.80729">
        <ele>146</ele>
        <time>2016-04-19T10:55:58Z</time>
      </trkpt>
      <trkpt lat="43.65779" lon="3.80728">
        <ele>146</ele>
        <time>2016-04-19T10:56:00Z</time>
      </trkpt>
      <trkpt lat="43.65773" lon="3.80728">
        <ele>146</ele>
        <time>2016-04-19T10:56:01Z</time>
      </trkpt>
      <trkpt lat="43.65769" lon="3.80728">
        <ele>146</ele>
        <time>2016-04-19T10:56:02Z</time>
      </trkpt>
      <trkpt lat="43.65765" lon="3.80727">
        <ele>146</ele>
        <time>2016-04-19T10:56:03Z</time>
      </trkpt>
      <trkpt lat="43.65761" lon="3.80725">
        <ele>146</ele>
        <time>2016-04-19T10:56:04Z</time>
      </trkpt>
      <trkpt lat="43.65756" lon="3.80725">
        <ele>146</ele>
        <time>2016-04-19T10:56:05Z</time>
      </trkpt>
      <trkpt lat="43.65752" lon="3.80724">
        <ele>146</ele>
        <time>2016-04-19T10:56:06Z</time>
      </trkpt>
      <trkpt lat="43.65747" lon="3.80723">
        <ele>146</ele>
        <time>2016-04-19T10:56:07Z</time>
      </trkpt>
      <trkpt lat="43.65737" lon="3.80724">
        <ele>146.5</ele>
        <time>2016-04-19T10:56:09Z</time>
      </trkpt>
      <trkpt lat="43.65733" lon="3.80721">
        <ele>146</ele>
        <time>2016-04-19T10:56:11Z</time>
      </trkpt>
      <trkpt lat="43.65727" lon="3.80717">
        <ele>146.5</ele>
        <time>2016-04-19T10:56:11Z</time>
      </trkpt>
      <trkpt lat="43.65721" lon="3.80715">
        <ele>146.5</ele>
        <time>2016-04-19T10:56:12Z</time>
      </trkpt>
      <trkpt lat="43.65716" lon="3.80714">
        <ele>146.5</ele>
        <time>2016-04-19T10:56:13Z</time>
      </trkpt>
      <trkpt lat="43.6571" lon="3.80712">
        <ele>146.5</ele>
        <time>2016-04-19T10:56:14Z</time>
      </trkpt>
      <trkpt lat="43.65705" lon="3.8071">
        <ele>147</ele>
        <time>2016-04-19T10:56:15Z</time>
      </trkpt>
      <trkpt lat="43.65699" lon="3.8071">
        <ele>147</ele>
        <time>2016-04-19T10:56:16Z</time>
      </trkpt>
      <trkpt lat="43.65694" lon="3.8071">
        <ele>147.5</ele>
        <time>2016-04-19T10:56:17Z</time>
      </trkpt>
      <trkpt lat="43.65689" lon="3.80711">
        <ele>147.5</ele>
        <time>2016-04-19T10:56:18Z</time>
      </trkpt>
      <trkpt lat="43.6568" lon="3.80712">
        <ele>148</ele>
        <time>2016-04-19T10:56:20Z</time>
      </trkpt>
      <trkpt lat="43.65668" lon="3.80721">
        <ele>147</ele>
        <time>2016-04-19T10:56:22Z</time>
      </trkpt>
      <trkpt lat="43.65661" lon="3.80724">
        <ele>146.5</ele>
        <time>2016-04-19T10:56:23Z</time>
      </trkpt>
      <trkpt lat="43.65656" lon="3.80725">
        <ele>145.5</ele>
        <time>2016-04-19T10:56:24Z</time>
      </trkpt>
      <trkpt lat="43.6565" lon="3.80729">
        <ele>145.5</ele>
        <time>2016-04-19T10:56:25Z</time>
      </trkpt>
      <trkpt lat="43.65644" lon="3.80732">
        <ele>144</ele>
        <time>2016-04-19T10:56:26Z</time>
      </trkpt>
      <trkpt lat="43.65637" lon="3.80737">
        <ele>143.5</ele>
        <time>2016-04-19T10:56:27Z</time>
      </trkpt>
      <trkpt lat="43.65632" lon="3.8074">
        <ele>142.5</ele>
        <time>2016-04-19T10:56:28Z</time>
      </trkpt>
      <trkpt lat="43.65625" lon="3.80745">
        <ele>142</ele>
        <time>2016-04-19T10:56:29Z</time>
      </trkpt>
      <trkpt lat="43.65619" lon="3.80749">
        <ele>141.5</ele>
        <time>2016-04-19T10:56:30Z</time>
      </trkpt>
      <trkpt lat="43.65613" lon="3.80755">
        <ele>141</ele>
        <time>2016-04-19T10:56:31Z</time>
      </trkpt>
      <trkpt lat="43.65607" lon="3.80761">
        <ele>140.5</ele>
        <time>2016-04-19T10:56:32Z</time>
      </trkpt>
      <trkpt lat="43.65601" lon="3.80768">
        <ele>139.5</ele>
        <time>2016-04-19T10:56:33Z</time>
      </trkpt>
      <trkpt lat="43.65571" lon="3.80788">
        <ele>138.5</ele>
        <time>2016-04-19T10:56:37Z</time>
      </trkpt>
      <trkpt lat="43.65564" lon="3.80794">
        <ele>138</ele>
        <time>2016-04-19T10:56:38Z</time>
      </trkpt>
      <trkpt lat="43.65558" lon="3.80798">
        <ele>137.5</ele>
        <time>2016-04-19T10:56:39Z</time>
      </trkpt>
      <trkpt lat="43.65549" lon="3.80799">
        <ele>137.5</ele>
        <time>2016-04-19T10:56:40Z</time>
      </trkpt>
      <trkpt lat="43.6554" lon="3.80797">
        <ele>137</ele>
        <time>2016-04-19T10:56:41Z</time>
      </trkpt>
      <trkpt lat="43.65529" lon="3.80789">
        <ele>136.5</ele>
        <time>2016-04-19T10:56:43Z</time>
      </trkpt>
      <trkpt lat="43.65524" lon="3.80788">
        <ele>136.5</ele>
        <time>2016-04-19T10:56:44Z</time>
      </trkpt>
      <trkpt lat="43.65516" lon="3.80783">
        <ele>137</ele>
        <time>2016-04-19T10:56:46Z</time>
      </trkpt>
      <trkpt lat="43.65511" lon="3.80782">
        <ele>136.5</ele>
        <time>2016-04-19T10:56:47Z</time>
      </trkpt>
      <trkpt lat="43.65505" lon="3.80783">
        <ele>137</ele>
        <time>2016-04-19T10:56:48Z</time>
      </trkpt>
      <trkpt lat="43.65501" lon="3.80782">
        <ele>136.5</ele>
        <time>2016-04-19T10:56:49Z</time>
      </trkpt>
      <trkpt lat="43.65494" lon="3.80783">
        <ele>136.5</ele>
        <time>2016-04-19T10:56:50Z</time>
      </trkpt>
      <trkpt lat="43.65487" lon="3.80784">
        <ele>136</ele>
        <time>2016-04-19T10:56:51Z</time>
      </trkpt>
      <trkpt lat="43.65481" lon="3.8078">
        <ele>136</ele>
        <time>2016-04-19T10:56:52Z</time>
      </trkpt>
      <trkpt lat="43.65468" lon="3.8077">
        <ele>134.5</ele>
        <time>2016-04-19T10:56:54Z</time>
      </trkpt>
      <trkpt lat="43.65461" lon="3.80767">
        <ele>134.5</ele>
        <time>2016-04-19T10:56:55Z</time>
      </trkpt>
      <trkpt lat="43.65455" lon="3.80764">
        <ele>133.5</ele>
        <time>2016-04-19T10:56:56Z</time>
      </trkpt>
      <trkpt lat="43.65449" lon="3.80764">
        <ele>134</ele>
        <time>2016-04-19T10:56:57Z</time>
      </trkpt>
      <trkpt lat="43.65442" lon="3.80765">
        <ele>134</ele>
        <time>2016-04-19T10:56:58Z</time>
      </trkpt>
      <trkpt lat="43.65435" lon="3.80765">
        <ele>134</ele>
        <time>2016-04-19T10:56:59Z</time>
      </trkpt>
      <trkpt lat="43.65429" lon="3.80765">
        <ele>133.5</ele>
        <time>2016-04-19T10:57:00Z</time>
      </trkpt>
      <trkpt lat="43.65422" lon="3.80765">
        <ele>133.5</ele>
        <time>2016-04-19T10:57:01Z</time>
      </trkpt>
      <trkpt lat="43.65417" lon="3.80765">
        <ele>133.5</ele>
        <time>2016-04-19T10:57:02Z</time>
      </trkpt>
      <trkpt lat="43.65409" lon="3.80764">
        <ele>133.5</ele>
        <time>2016-04-19T10:57:04Z</time>
      </trkpt>
      <trkpt lat="43.65404" lon="3.80762">
        <ele>135</ele>
        <time>2016-04-19T10:57:05Z</time>
      </trkpt>
      <trkpt lat="43.65399" lon="3.8076">
        <ele>135</ele>
        <time>2016-04-19T10:57:06Z</time>
      </trkpt>
      <trkpt lat="43.65393" lon="3.80758">
        <ele>135.5</ele>
        <time>2016-04-19T10:57:07Z</time>
      </trkpt>
      <trkpt lat="43.65387" lon="3.80757">
        <ele>135.5</ele>
        <time>2016-04-19T10:57:08Z</time>
      </trkpt>
      <trkpt lat="43.65381" lon="3.80755">
        <ele>135.5</ele>
        <time>2016-04-19T10:57:09Z</time>
      </trkpt>
      <trkpt lat="43.65375" lon="3.80754">
        <ele>135.5</ele>
        <time>2016-04-19T10:57:10Z</time>
      </trkpt>
      <trkpt lat="43.6537" lon="3.80753">
        <ele>135.5</ele>
        <time>2016-04-19T10:57:11Z</time>
      </trkpt>
      <trkpt lat="43.65364" lon="3.80751">
        <ele>135.5</ele>
        <time>2016-04-19T10:57:12Z</time>
      </trkpt>
      <trkpt lat="43.65358" lon="3.80749">
        <ele>135</ele>
        <time>2016-04-19T10:57:13Z</time>
      </trkpt>
      <trkpt lat="43.65352" lon="3.80747">
        <ele>134.5</ele>
        <time>2016-04-19T10:57:14Z</time>
      </trkpt>
      <trkpt lat="43.65347" lon="3.80745">
        <ele>134.5</ele>
        <time>2016-04-19T10:57:15Z</time>
      </trkpt>
      <trkpt lat="43.65341" lon="3.80749">
        <ele>134.5</ele>
        <time>2016-04-19T10:57:16Z</time>
      </trkpt>
      <trkpt lat="43.65337" lon="3.80753">
        <ele>134.5</ele>
        <time>2016-04-19T10:57:17Z</time>
      </trkpt>
      <trkpt lat="43.65329" lon="3.80769">
        <ele>134.5</ele>
        <time>2016-04-19T10:57:19Z</time>
      </trkpt>
      <trkpt lat="43.65325" lon="3.80778">
        <ele>134.5</ele>
        <time>2016-04-19T10:57:20Z</time>
      </trkpt>
      <trkpt lat="43.65311" lon="3.80791">
        <ele>134</ele>
        <time>2016-04-19T10:57:22Z</time>
      </trkpt>
      <trkpt lat="43.65305" lon="3.80803">
        <ele>133.5</ele>
        <time>2016-04-19T10:57:24Z</time>
      </trkpt>
      <trkpt lat="43.653" lon="3.8081">
        <ele>133.5</ele>
        <time>2016-04-19T10:57:25Z</time>
      </trkpt>
      <trkpt lat="43.65297" lon="3.80819">
        <ele>133.5</ele>
        <time>2016-04-19T10:57:26Z</time>
      </trkpt>
      <trkpt lat="43.65293" lon="3.80827">
        <ele>133.5</ele>
        <time>2016-04-19T10:57:27Z</time>
      </trkpt>
      <trkpt lat="43.6529" lon="3.80834">
        <ele>133.5</ele>
        <time>2016-04-19T10:57:28Z</time>
      </trkpt>
      <trkpt lat="43.65286" lon="3.80841">
        <ele>133.5</ele>
        <time>2016-04-19T10:57:29Z</time>
      </trkpt>
      <trkpt lat="43.65278" lon="3.80861">
        <ele>133.5</ele>
        <time>2016-04-19T10:57:31Z</time>
      </trkpt>
      <trkpt lat="43.65274" lon="3.80868">
        <ele>133.5</ele>
        <time>2016-04-19T10:57:32Z</time>
      </trkpt>
      <trkpt lat="43.65271" lon="3.80877">
        <ele>133.5</ele>
        <time>2016-04-19T10:57:33Z</time>
      </trkpt>
      <trkpt lat="43.65267" lon="3.80885">
        <ele>133.5</ele>
        <time>2016-04-19T10:57:34Z</time>
      </trkpt>
      <trkpt lat="43.65263" lon="3.80892">
        <ele>133.5</ele>
        <time>2016-04-19T10:57:35Z</time>
      </trkpt>
      <trkpt lat="43.65256" lon="3.80905">
        <ele>130</ele>
        <time>2016-04-19T10:57:37Z</time>
      </trkpt>
      <trkpt lat="43.65253" lon="3.80911">
        <ele>130.5</ele>
        <time>2016-04-19T10:57:38Z</time>
      </trkpt>
      <trkpt lat="43.65247" lon="3.80923">
        <ele>130.5</ele>
        <time>2016-04-19T10:57:40Z</time>
      </trkpt>
      <trkpt lat="43.65244" lon="3.80928">
        <ele>130.5</ele>
        <time>2016-04-19T10:57:41Z</time>
      </trkpt>
      <trkpt lat="43.65241" lon="3.80934">
        <ele>130</ele>
        <time>2016-04-19T10:57:43Z</time>
      </trkpt>
      <trkpt lat="43.65243" lon="3.80935">
        <ele>129.5</ele>
        <time>2016-04-19T10:57:44Z</time>
      </trkpt>
      <trkpt lat="43.65237" lon="3.80944">
        <ele>128</ele>
        <time>2016-04-19T10:57:46Z</time>
      </trkpt>
      <trkpt lat="43.65238" lon="3.80948">
        <ele>127.5</ele>
        <time>2016-04-19T10:57:47Z</time>
      </trkpt>
      <trkpt lat="43.65238" lon="3.80955">
        <ele>127.5</ele>
        <time>2016-04-19T10:57:48Z</time>
      </trkpt>
      <trkpt lat="43.65237" lon="3.80964">
        <ele>127.5</ele>
        <time>2016-04-19T10:57:50Z</time>
      </trkpt>
      <trkpt lat="43.65236" lon="3.80968">
        <ele>127</ele>
        <time>2016-04-19T10:57:51Z</time>
      </trkpt>
      <trkpt lat="43.65233" lon="3.80972">
        <ele>126</ele>
        <time>2016-04-19T10:57:52Z</time>
      </trkpt>
      <trkpt lat="43.65232" lon="3.80977">
        <ele>125</ele>
        <time>2016-04-19T10:57:53Z</time>
      </trkpt>
      <trkpt lat="43.65229" lon="3.80982">
        <ele>125</ele>
        <time>2016-04-19T10:57:54Z</time>
      </trkpt>
      <trkpt lat="43.65227" lon="3.80987">
        <ele>124</ele>
        <time>2016-04-19T10:57:55Z</time>
      </trkpt>
      <trkpt lat="43.65226" lon="3.80993">
        <ele>123</ele>
        <time>2016-04-19T10:57:56Z</time>
      </trkpt>
      <trkpt lat="43.65221" lon="3.81004">
        <ele>121.5</ele>
        <time>2016-04-19T10:57:58Z</time>
      </trkpt>
      <trkpt lat="43.65217" lon="3.8101">
        <ele>121</ele>
        <time>2016-04-19T10:57:59Z</time>
      </trkpt>
      <trkpt lat="43.65215" lon="3.81015">
        <ele>120.5</ele>
        <time>2016-04-19T10:58:00Z</time>
      </trkpt>
      <trkpt lat="43.65212" lon="3.8102">
        <ele>119.5</ele>
        <time>2016-04-19T10:58:01Z</time>
      </trkpt>
      <trkpt lat="43.65208" lon="3.81025">
        <ele>120</ele>
        <time>2016-04-19T10:58:02Z</time>
      </trkpt>
      <trkpt lat="43.65205" lon="3.81031">
        <ele>119.5</ele>
        <time>2016-04-19T10:58:03Z</time>
      </trkpt>
      <trkpt lat="43.65202" lon="3.81035">
        <ele>119.5</ele>
        <time>2016-04-19T10:58:04Z</time>
      </trkpt>
      <trkpt lat="43.65198" lon="3.8104">
        <ele>119.5</ele>
        <time>2016-04-19T10:58:05Z</time>
      </trkpt>
      <trkpt lat="43.65194" lon="3.81045">
        <ele>119.5</ele>
        <time>2016-04-19T10:58:06Z</time>
      </trkpt>
      <trkpt lat="43.65191" lon="3.8105">
        <ele>119</ele>
        <time>2016-04-19T10:58:07Z</time>
      </trkpt>
      <trkpt lat="43.65186" lon="3.81058">
        <ele>118</ele>
        <time>2016-04-19T10:58:09Z</time>
      </trkpt>
      <trkpt lat="43.65183" lon="3.81063">
        <ele>118</ele>
        <time>2016-04-19T10:58:10Z</time>
      </trkpt>
      <trkpt lat="43.6518" lon="3.81068">
        <ele>118</ele>
        <time>2016-04-19T10:58:11Z</time>
      </trkpt>
      <trkpt lat="43.65178" lon="3.81073">
        <ele>118</ele>
        <time>2016-04-19T10:58:12Z</time>
      </trkpt>
      <trkpt lat="43.65177" lon="3.81077">
        <ele>118</ele>
        <time>2016-04-19T10:58:13Z</time>
      </trkpt>
      <trkpt lat="43.65176" lon="3.81083">
        <ele>118</ele>
        <time>2016-04-19T10:58:14Z</time>
      </trkpt>
      <trkpt lat="43.65181" lon="3.81085">
        <ele>118</ele>
        <time>2016-04-19T10:58:15Z</time>
      </trkpt>
      <trkpt lat="43.65186" lon="3.81088">
        <ele>118.5</ele>
        <time>2016-04-19T10:58:16Z</time>
      </trkpt>
      <trkpt lat="43.65189" lon="3.8109">
        <ele>118.5</ele>
        <time>2016-04-19T10:58:17Z</time>
      </trkpt>
      <trkpt lat="43.65187" lon="3.81098">
        <ele>119</ele>
        <time>2016-04-19T10:58:19Z</time>
      </trkpt>
      <trkpt lat="43.65186" lon="3.81103">
        <ele>117</ele>
        <time>2016-04-19T10:58:20Z</time>
      </trkpt>
      <trkpt lat="43.65184" lon="3.81108">
        <ele>117</ele>
        <time>2016-04-19T10:58:21Z</time>
      </trkpt>
      <trkpt lat="43.65184" lon="3.81113">
        <ele>117.5</ele>
        <time>2016-04-19T10:58:22Z</time>
      </trkpt>
      <trkpt lat="43.65184" lon="3.81117">
        <ele>117.5</ele>
        <time>2016-04-19T10:58:23Z</time>
      </trkpt>
      <trkpt lat="43.65185" lon="3.81122">
        <ele>118</ele>
        <time>2016-04-19T10:58:24Z</time>
      </trkpt>
      <trkpt lat="43.65187" lon="3.81126">
        <ele>118.5</ele>
        <time>2016-04-19T10:58:25Z</time>
      </trkpt>
      <trkpt lat="43.65188" lon="3.8113">
        <ele>119</ele>
        <time>2016-04-19T10:58:26Z</time>
      </trkpt>
      <trkpt lat="43.6519" lon="3.81134">
        <ele>119.5</ele>
        <time>2016-04-19T10:58:27Z</time>
      </trkpt>
      <trkpt lat="43.65192" lon="3.81137">
        <ele>120</ele>
        <time>2016-04-19T10:58:28Z</time>
      </trkpt>
      <trkpt lat="43.65193" lon="3.81141">
        <ele>120</ele>
        <time>2016-04-19T10:58:29Z</time>
      </trkpt>
      <trkpt lat="43.65195" lon="3.81145">
        <ele>120.5</ele>
        <time>2016-04-19T10:58:30Z</time>
      </trkpt>
      <trkpt lat="43.65196" lon="3.81148">
        <ele>120.5</ele>
        <time>2016-04-19T10:58:31Z</time>
      </trkpt>
      <trkpt lat="43.65198" lon="3.81151">
        <ele>121.5</ele>
        <time>2016-04-19T10:58:32Z</time>
      </trkpt>
      <trkpt lat="43.652" lon="3.81154">
        <ele>121.5</ele>
        <time>2016-04-19T10:58:33Z</time>
      </trkpt>
      <trkpt lat="43.65202" lon="3.81156">
        <ele>122</ele>
        <time>2016-04-19T10:58:34Z</time>
      </trkpt>
      <trkpt lat="43.65207" lon="3.81161">
        <ele>122</ele>
        <time>2016-04-19T10:58:36Z</time>
      </trkpt>
      <trkpt lat="43.6521" lon="3.81163">
        <ele>122</ele>
        <time>2016-04-19T10:58:37Z</time>
      </trkpt>
      <trkpt lat="43.65213" lon="3.81166">
        <ele>122.5</ele>
        <time>2016-04-19T10:58:38Z</time>
      </trkpt>
      <trkpt lat="43.65216" lon="3.81167">
        <ele>124</ele>
        <time>2016-04-19T10:58:39Z</time>
      </trkpt>
      <trkpt lat="43.65218" lon="3.81169">
        <ele>124</ele>
        <time>2016-04-19T10:58:40Z</time>
      </trkpt>
      <trkpt lat="43.65221" lon="3.81172">
        <ele>124</ele>
        <time>2016-04-19T10:58:41Z</time>
      </trkpt>
      <trkpt lat="43.65223" lon="3.81175">
        <ele>124</ele>
        <time>2016-04-19T10:58:42Z</time>
      </trkpt>
      <trkpt lat="43.65226" lon="3.81178">
        <ele>123.5</ele>
        <time>2016-04-19T10:58:43Z</time>
      </trkpt>
      <trkpt lat="43.65228" lon="3.8118">
        <ele>123.5</ele>
        <time>2016-04-19T10:58:44Z</time>
      </trkpt>
      <trkpt lat="43.6523" lon="3.81182">
        <ele>124.5</ele>
        <time>2016-04-19T10:58:45Z</time>
      </trkpt>
      <trkpt lat="43.65231" lon="3.81184">
        <ele>125</ele>
        <time>2016-04-19T10:58:46Z</time>
      </trkpt>
      <trkpt lat="43.65233" lon="3.81187">
        <ele>125</ele>
        <time>2016-04-19T10:58:47Z</time>
      </trkpt>
      <trkpt lat="43.65234" lon="3.8119">
        <ele>125.5</ele>
        <time>2016-04-19T10:58:48Z</time>
      </trkpt>
      <trkpt lat="43.65235" lon="3.81193">
        <ele>126</ele>
        <time>2016-04-19T10:58:49Z</time>
      </trkpt>
      <trkpt lat="43.65236" lon="3.81198">
        <ele>124.5</ele>
        <time>2016-04-19T10:58:50Z</time>
      </trkpt>
      <trkpt lat="43.65235" lon="3.81202">
        <ele>125.5</ele>
        <time>2016-04-19T10:58:51Z</time>
      </trkpt>
      <trkpt lat="43.65234" lon="3.81207">
        <ele>125.5</ele>
        <time>2016-04-19T10:58:52Z</time>
      </trkpt>
      <trkpt lat="43.65234" lon="3.81226">
        <ele>126</ele>
        <time>2016-04-19T10:58:54Z</time>
      </trkpt>
      <trkpt lat="43.65236" lon="3.81236">
        <ele>124.5</ele>
        <time>2016-04-19T10:58:55Z</time>
      </trkpt>
      <trkpt lat="43.65237" lon="3.81246">
        <ele>123.5</ele>
        <time>2016-04-19T10:58:56Z</time>
      </trkpt>
      <trkpt lat="43.65237" lon="3.81254">
        <ele>123.5</ele>
        <time>2016-04-19T10:58:57Z</time>
      </trkpt>
      <trkpt lat="43.65238" lon="3.81262">
        <ele>123</ele>
        <time>2016-04-19T10:58:58Z</time>
      </trkpt>
      <trkpt lat="43.65239" lon="3.81269">
        <ele>123</ele>
        <time>2016-04-19T10:58:59Z</time>
      </trkpt>
      <trkpt lat="43.65243" lon="3.81274">
        <ele>121.5</ele>
        <time>2016-04-19T10:59:00Z</time>
      </trkpt>
      <trkpt lat="43.65244" lon="3.8128">
        <ele>121.5</ele>
        <time>2016-04-19T10:59:02Z</time>
      </trkpt>
      <trkpt lat="43.65245" lon="3.81283">
        <ele>121.5</ele>
        <time>2016-04-19T10:59:03Z</time>
      </trkpt>
      <trkpt lat="43.65247" lon="3.81287">
        <ele>121.5</ele>
        <time>2016-04-19T10:59:04Z</time>
      </trkpt>
      <trkpt lat="43.65249" lon="3.8129">
        <ele>121</ele>
        <time>2016-04-19T10:59:05Z</time>
      </trkpt>
      <trkpt lat="43.6525" lon="3.81293">
        <ele>121</ele>
        <time>2016-04-19T10:59:06Z</time>
      </trkpt>
      <trkpt lat="43.65251" lon="3.81296">
        <ele>121.5</ele>
        <time>2016-04-19T10:59:07Z</time>
      </trkpt>
      <trkpt lat="43.65259" lon="3.81294">
        <ele>121</ele>
        <time>2016-04-19T10:59:09Z</time>
      </trkpt>
      <trkpt lat="43.65262" lon="3.81295">
        <ele>120</ele>
        <time>2016-04-19T10:59:10Z</time>
      </trkpt>
      <trkpt lat="43.65264" lon="3.81298">
        <ele>120</ele>
        <time>2016-04-19T10:59:11Z</time>
      </trkpt>
      <trkpt lat="43.65266" lon="3.81302">
        <ele>120</ele>
        <time>2016-04-19T10:59:12Z</time>
      </trkpt>
      <trkpt lat="43.65267" lon="3.81307">
        <ele>120.5</ele>
        <time>2016-04-19T10:59:13Z</time>
      </trkpt>
      <trkpt lat="43.65267" lon="3.81311">
        <ele>120.5</ele>
        <time>2016-04-19T10:59:14Z</time>
      </trkpt>
      <trkpt lat="43.65267" lon="3.81316">
        <ele>121</ele>
        <time>2016-04-19T10:59:15Z</time>
      </trkpt>
      <trkpt lat="43.65267" lon="3.81321">
        <ele>121</ele>
        <time>2016-04-19T10:59:16Z</time>
      </trkpt>
      <trkpt lat="43.65267" lon="3.81326">
        <ele>121.5</ele>
        <time>2016-04-19T10:59:18Z</time>
      </trkpt>
      <trkpt lat="43.65266" lon="3.81331">
        <ele>121.5</ele>
        <time>2016-04-19T10:59:19Z</time>
      </trkpt>
      <trkpt lat="43.65267" lon="3.81334">
        <ele>121.5</ele>
        <time>2016-04-19T10:59:20Z</time>
      </trkpt>
      <trkpt lat="43.65267" lon="3.81339">
        <ele>122</ele>
        <time>2016-04-19T10:59:21Z</time>
      </trkpt>
      <trkpt lat="43.65268" lon="3.81343">
        <ele>122</ele>
        <time>2016-04-19T10:59:22Z</time>
      </trkpt>
      <trkpt lat="43.65268" lon="3.81348">
        <ele>121.5</ele>
        <time>2016-04-19T10:59:23Z</time>
      </trkpt>
      <trkpt lat="43.65268" lon="3.81353">
        <ele>121.5</ele>
        <time>2016-04-19T10:59:24Z</time>
      </trkpt>
      <trkpt lat="43.65269" lon="3.81357">
        <ele>122</ele>
        <time>2016-04-19T10:59:25Z</time>
      </trkpt>
      <trkpt lat="43.6527" lon="3.81361">
        <ele>121.5</ele>
        <time>2016-04-19T10:59:26Z</time>
      </trkpt>
      <trkpt lat="43.65269" lon="3.81366">
        <ele>121.5</ele>
        <time>2016-04-19T10:59:27Z</time>
      </trkpt>
      <trkpt lat="43.65269" lon="3.8137">
        <ele>122</ele>
        <time>2016-04-19T10:59:28Z</time>
      </trkpt>
      <trkpt lat="43.6527" lon="3.81373">
        <ele>122</ele>
        <time>2016-04-19T10:59:29Z</time>
      </trkpt>
      <trkpt lat="43.6527" lon="3.81377">
        <ele>123.5</ele>
        <time>2016-04-19T10:59:30Z</time>
      </trkpt>
      <trkpt lat="43.6527" lon="3.8138">
        <ele>124</ele>
        <time>2016-04-19T10:59:31Z</time>
      </trkpt>
      <trkpt lat="43.65271" lon="3.81384">
        <ele>124</ele>
        <time>2016-04-19T10:59:32Z</time>
      </trkpt>
      <trkpt lat="43.6527" lon="3.81387">
        <ele>123.5</ele>
        <time>2016-04-19T10:59:33Z</time>
      </trkpt>
      <trkpt lat="43.6527" lon="3.8139">
        <ele>124</ele>
        <time>2016-04-19T10:59:34Z</time>
      </trkpt>
      <trkpt lat="43.65266" lon="3.81395">
        <ele>124</ele>
        <time>2016-04-19T10:59:36Z</time>
      </trkpt>
      <trkpt lat="43.6526" lon="3.81399">
        <ele>122.5</ele>
        <time>2016-04-19T10:59:38Z</time>
      </trkpt>
      <trkpt lat="43.65261" lon="3.81407">
        <ele>122.5</ele>
        <time>2016-04-19T10:59:40Z</time>
      </trkpt>
      <trkpt lat="43.65262" lon="3.8141">
        <ele>122.5</ele>
        <time>2016-04-19T10:59:41Z</time>
      </trkpt>
      <trkpt lat="43.65264" lon="3.81412">
        <ele>123.5</ele>
        <time>2016-04-19T10:59:42Z</time>
      </trkpt>
      <trkpt lat="43.65266" lon="3.81415">
        <ele>125</ele>
        <time>2016-04-19T10:59:43Z</time>
      </trkpt>
      <trkpt lat="43.65269" lon="3.8142">
        <ele>125.5</ele>
        <time>2016-04-19T10:59:44Z</time>
      </trkpt>
      <trkpt lat="43.65271" lon="3.81425">
        <ele>125.5</ele>
        <time>2016-04-19T10:59:45Z</time>
      </trkpt>
      <trkpt lat="43.65273" lon="3.81432">
        <ele>126</ele>
        <time>2016-04-19T10:59:46Z</time>
      </trkpt>
      <trkpt lat="43.65274" lon="3.81438">
        <ele>126.5</ele>
        <time>2016-04-19T10:59:47Z</time>
      </trkpt>
      <trkpt lat="43.65276" lon="3.81444">
        <ele>127</ele>
        <time>2016-04-19T10:59:48Z</time>
      </trkpt>
      <trkpt lat="43.65277" lon="3.8145">
        <ele>127</ele>
        <time>2016-04-19T10:59:49Z</time>
      </trkpt>
      <trkpt lat="43.6528" lon="3.81455">
        <ele>127</ele>
        <time>2016-04-19T10:59:50Z</time>
      </trkpt>
      <trkpt lat="43.65282" lon="3.81459">
        <ele>127.5</ele>
        <time>2016-04-19T10:59:51Z</time>
      </trkpt>
      <trkpt lat="43.65284" lon="3.81463">
        <ele>128</ele>
        <time>2016-04-19T10:59:52Z</time>
      </trkpt>
      <trkpt lat="43.65286" lon="3.81467">
        <ele>128</ele>
        <time>2016-04-19T10:59:53Z</time>
      </trkpt>
      <trkpt lat="43.65288" lon="3.8147">
        <ele>129</ele>
        <time>2016-04-19T10:59:54Z</time>
      </trkpt>
      <trkpt lat="43.6529" lon="3.81474">
        <ele>130.5</ele>
        <time>2016-04-19T10:59:54Z</time>
      </trkpt>
      <trkpt lat="43.65291" lon="3.81477">
        <ele>130.5</ele>
        <time>2016-04-19T10:59:56Z</time>
      </trkpt>
      <trkpt lat="43.65293" lon="3.81482">
        <ele>130.5</ele>
        <time>2016-04-19T10:59:56Z</time>
      </trkpt>
      <trkpt lat="43.65295" lon="3.81487">
        <ele>131</ele>
        <time>2016-04-19T10:59:57Z</time>
      </trkpt>
      <trkpt lat="43.65297" lon="3.81492">
        <ele>131</ele>
        <time>2016-04-19T10:59:58Z</time>
      </trkpt>
      <trkpt lat="43.65299" lon="3.81493">
        <ele>133</ele>
        <time>2016-04-19T10:59:59Z</time>
      </trkpt>
      <trkpt lat="43.653" lon="3.81498">
        <ele>133</ele>
        <time>2016-04-19T11:00:00Z</time>
      </trkpt>
      <trkpt lat="43.65302" lon="3.81502">
        <ele>133.5</ele>
        <time>2016-04-19T11:00:02Z</time>
      </trkpt>
      <trkpt lat="43.65303" lon="3.81506">
        <ele>134</ele>
        <time>2016-04-19T11:00:02Z</time>
      </trkpt>
      <trkpt lat="43.65305" lon="3.81511">
        <ele>134</ele>
        <time>2016-04-19T11:00:03Z</time>
      </trkpt>
      <trkpt lat="43.65306" lon="3.81515">
        <ele>133.5</ele>
        <time>2016-04-19T11:00:05Z</time>
      </trkpt>
      <trkpt lat="43.65307" lon="3.81519">
        <ele>134.5</ele>
        <time>2016-04-19T11:00:05Z</time>
      </trkpt>
      <trkpt lat="43.65308" lon="3.81523">
        <ele>134.5</ele>
        <time>2016-04-19T11:00:06Z</time>
      </trkpt>
      <trkpt lat="43.6531" lon="3.81527">
        <ele>135</ele>
        <time>2016-04-19T11:00:07Z</time>
      </trkpt>
      <trkpt lat="43.65311" lon="3.81531">
        <ele>135.5</ele>
        <time>2016-04-19T11:00:08Z</time>
      </trkpt>
      <trkpt lat="43.65311" lon="3.81535">
        <ele>136</ele>
        <time>2016-04-19T11:00:09Z</time>
      </trkpt>
      <trkpt lat="43.65312" lon="3.81539">
        <ele>136</ele>
        <time>2016-04-19T11:00:10Z</time>
      </trkpt>
      <trkpt lat="43.65312" lon="3.81543">
        <ele>137</ele>
        <time>2016-04-19T11:00:12Z</time>
      </trkpt>
      <trkpt lat="43.65312" lon="3.81548">
        <ele>136.5</ele>
        <time>2016-04-19T11:00:12Z</time>
      </trkpt>
      <trkpt lat="43.6531" lon="3.81552">
        <ele>136.5</ele>
        <time>2016-04-19T11:00:13Z</time>
      </trkpt>
      <trkpt lat="43.6531" lon="3.81557">
        <ele>136.5</ele>
        <time>2016-04-19T11:00:15Z</time>
      </trkpt>
      <trkpt lat="43.65311" lon="3.81562">
        <ele>136</ele>
        <time>2016-04-19T11:00:16Z</time>
      </trkpt>
      <trkpt lat="43.65311" lon="3.81565">
        <ele>137</ele>
        <time>2016-04-19T11:00:16Z</time>
      </trkpt>
      <trkpt lat="43.65312" lon="3.81567">
        <ele>139</ele>
        <time>2016-04-19T11:00:17Z</time>
      </trkpt>
      <trkpt lat="43.65313" lon="3.81571">
        <ele>139</ele>
        <time>2016-04-19T11:00:18Z</time>
      </trkpt>
      <trkpt lat="43.65313" lon="3.81575">
        <ele>139</ele>
        <time>2016-04-19T11:00:19Z</time>
      </trkpt>
      <trkpt lat="43.65313" lon="3.81578">
        <ele>139.5</ele>
        <time>2016-04-19T11:00:20Z</time>
      </trkpt>
      <trkpt lat="43.65313" lon="3.81582">
        <ele>139.5</ele>
        <time>2016-04-19T11:00:21Z</time>
      </trkpt>
      <trkpt lat="43.65314" lon="3.81587">
        <ele>139.5</ele>
        <time>2016-04-19T11:00:22Z</time>
      </trkpt>
      <trkpt lat="43.65315" lon="3.81592">
        <ele>139</ele>
        <time>2016-04-19T11:00:24Z</time>
      </trkpt>
      <trkpt lat="43.65317" lon="3.81601">
        <ele>140</ele>
        <time>2016-04-19T11:00:25Z</time>
      </trkpt>
      <trkpt lat="43.65318" lon="3.81606">
        <ele>140</ele>
        <time>2016-04-19T11:00:26Z</time>
      </trkpt>
      <trkpt lat="43.6532" lon="3.81612">
        <ele>139.5</ele>
        <time>2016-04-19T11:00:27Z</time>
      </trkpt>
      <trkpt lat="43.65322" lon="3.81617">
        <ele>140</ele>
        <time>2016-04-19T11:00:28Z</time>
      </trkpt>
      <trkpt lat="43.65323" lon="3.81622">
        <ele>141</ele>
        <time>2016-04-19T11:00:30Z</time>
      </trkpt>
      <trkpt lat="43.65325" lon="3.81627">
        <ele>141.5</ele>
        <time>2016-04-19T11:00:30Z</time>
      </trkpt>
      <trkpt lat="43.65327" lon="3.81632">
        <ele>141.5</ele>
        <time>2016-04-19T11:00:31Z</time>
      </trkpt>
      <trkpt lat="43.65328" lon="3.81637">
        <ele>141.5</ele>
        <time>2016-04-19T11:00:32Z</time>
      </trkpt>
      <trkpt lat="43.6533" lon="3.81643">
        <ele>142</ele>
        <time>2016-04-19T11:00:33Z</time>
      </trkpt>
      <trkpt lat="43.65331" lon="3.81648">
        <ele>142</ele>
        <time>2016-04-19T11:00:34Z</time>
      </trkpt>
      <trkpt lat="43.65333" lon="3.81654">
        <ele>142</ele>
        <time>2016-04-19T11:00:35Z</time>
      </trkpt>
      <trkpt lat="43.65335" lon="3.81659">
        <ele>142</ele>
        <time>2016-04-19T11:00:36Z</time>
      </trkpt>
      <trkpt lat="43.65337" lon="3.81666">
        <ele>141.5</ele>
        <time>2016-04-19T11:00:37Z</time>
      </trkpt>
      <trkpt lat="43.6534" lon="3.81674">
        <ele>141.5</ele>
        <time>2016-04-19T11:00:39Z</time>
      </trkpt>
      <trkpt lat="43.65342" lon="3.81687">
        <ele>141.5</ele>
        <time>2016-04-19T11:00:40Z</time>
      </trkpt>
      <trkpt lat="43.65345" lon="3.81693">
        <ele>142</ele>
        <time>2016-04-19T11:00:41Z</time>
      </trkpt>
      <trkpt lat="43.65347" lon="3.817">
        <ele>142</ele>
        <time>2016-04-19T11:00:42Z</time>
      </trkpt>
      <trkpt lat="43.6535" lon="3.81706">
        <ele>141.5</ele>
        <time>2016-04-19T11:00:43Z</time>
      </trkpt>
      <trkpt lat="43.65352" lon="3.81712">
        <ele>141.5</ele>
        <time>2016-04-19T11:00:44Z</time>
      </trkpt>
      <trkpt lat="43.65354" lon="3.81719">
        <ele>140.5</ele>
        <time>2016-04-19T11:00:45Z</time>
      </trkpt>
      <trkpt lat="43.65356" lon="3.81725">
        <ele>140.5</ele>
        <time>2016-04-19T11:00:46Z</time>
      </trkpt>
      <trkpt lat="43.65359" lon="3.81732">
        <ele>141.5</ele>
        <time>2016-04-19T11:00:47Z</time>
      </trkpt>
      <trkpt lat="43.65361" lon="3.81738">
        <ele>141.5</ele>
        <time>2016-04-19T11:00:48Z</time>
      </trkpt>
      <trkpt lat="43.65364" lon="3.81743">
        <ele>143</ele>
        <time>2016-04-19T11:00:49Z</time>
      </trkpt>
      <trkpt lat="43.65366" lon="3.81744">
        <ele>143</ele>
        <time>2016-04-19T11:00:50Z</time>
      </trkpt>
      <trkpt lat="43.65369" lon="3.81748">
        <ele>143.5</ele>
        <time>2016-04-19T11:00:51Z</time>
      </trkpt>
      <trkpt lat="43.65372" lon="3.81752">
        <ele>142</ele>
        <time>2016-04-19T11:00:52Z</time>
      </trkpt>
      <trkpt lat="43.65374" lon="3.81756">
        <ele>142</ele>
        <time>2016-04-19T11:00:53Z</time>
      </trkpt>
      <trkpt lat="43.65377" lon="3.81759">
        <ele>142.5</ele>
        <time>2016-04-19T11:00:54Z</time>
      </trkpt>
      <trkpt lat="43.65378" lon="3.81761">
        <ele>142.5</ele>
        <time>2016-04-19T11:00:55Z</time>
      </trkpt>
      <trkpt lat="43.65385" lon="3.81769">
        <ele>142.5</ele>
        <time>2016-04-19T11:00:57Z</time>
      </trkpt>
      <trkpt lat="43.65388" lon="3.81772">
        <ele>142.5</ele>
        <time>2016-04-19T11:00:58Z</time>
      </trkpt>
      <trkpt lat="43.65391" lon="3.8179">
        <ele>143</ele>
        <time>2016-04-19T11:01:00Z</time>
      </trkpt>
      <trkpt lat="43.65393" lon="3.81798">
        <ele>142.5</ele>
        <time>2016-04-19T11:01:01Z</time>
      </trkpt>
      <trkpt lat="43.65393" lon="3.81808">
        <ele>141.5</ele>
        <time>2016-04-19T11:01:02Z</time>
      </trkpt>
      <trkpt lat="43.65393" lon="3.81818">
        <ele>140.5</ele>
        <time>2016-04-19T11:01:03Z</time>
      </trkpt>
      <trkpt lat="43.65392" lon="3.81826">
        <ele>140</ele>
        <time>2016-04-19T11:01:04Z</time>
      </trkpt>
      <trkpt lat="43.65389" lon="3.81831">
        <ele>139.5</ele>
        <time>2016-04-19T11:01:05Z</time>
      </trkpt>
      <trkpt lat="43.65387" lon="3.81835">
        <ele>139.5</ele>
        <time>2016-04-19T11:01:06Z</time>
      </trkpt>
      <trkpt lat="43.65381" lon="3.81846">
        <ele>137.5</ele>
        <time>2016-04-19T11:01:08Z</time>
      </trkpt>
      <trkpt lat="43.65378" lon="3.81851">
        <ele>136.5</ele>
        <time>2016-04-19T11:01:09Z</time>
      </trkpt>
      <trkpt lat="43.65373" lon="3.81856">
        <ele>135</ele>
        <time>2016-04-19T11:01:10Z</time>
      </trkpt>
      <trkpt lat="43.65369" lon="3.81862">
        <ele>134.5</ele>
        <time>2016-04-19T11:01:11Z</time>
      </trkpt>
      <trkpt lat="43.65364" lon="3.81868">
        <ele>133.5</ele>
        <time>2016-04-19T11:01:12Z</time>
      </trkpt>
      <trkpt lat="43.65359" lon="3.81874">
        <ele>132.5</ele>
        <time>2016-04-19T11:01:13Z</time>
      </trkpt>
      <trkpt lat="43.65355" lon="3.81881">
        <ele>133</ele>
        <time>2016-04-19T11:01:14Z</time>
      </trkpt>
      <trkpt lat="43.6535" lon="3.81889">
        <ele>130</ele>
        <time>2016-04-19T11:01:15Z</time>
      </trkpt>
      <trkpt lat="43.65345" lon="3.81894">
        <ele>130</ele>
        <time>2016-04-19T11:01:16Z</time>
      </trkpt>
      <trkpt lat="43.6534" lon="3.81899">
        <ele>128.5</ele>
        <time>2016-04-19T11:01:17Z</time>
      </trkpt>
      <trkpt lat="43.65334" lon="3.81904">
        <ele>127.5</ele>
        <time>2016-04-19T11:01:18Z</time>
      </trkpt>
      <trkpt lat="43.65329" lon="3.8191">
        <ele>127.5</ele>
        <time>2016-04-19T11:01:19Z</time>
      </trkpt>
      <trkpt lat="43.65324" lon="3.81916">
        <ele>127.5</ele>
        <time>2016-04-19T11:01:20Z</time>
      </trkpt>
      <trkpt lat="43.65318" lon="3.81921">
        <ele>127</ele>
        <time>2016-04-19T11:01:21Z</time>
      </trkpt>
      <trkpt lat="43.65313" lon="3.81925">
        <ele>127</ele>
        <time>2016-04-19T11:01:22Z</time>
      </trkpt>
      <trkpt lat="43.65307" lon="3.8193">
        <ele>126.5</ele>
        <time>2016-04-19T11:01:23Z</time>
      </trkpt>
      <trkpt lat="43.65297" lon="3.81939">
        <ele>126.5</ele>
        <time>2016-04-19T11:01:25Z</time>
      </trkpt>
      <trkpt lat="43.65292" lon="3.81945">
        <ele>126.5</ele>
        <time>2016-04-19T11:01:26Z</time>
      </trkpt>
      <trkpt lat="43.65287" lon="3.81949">
        <ele>126.5</ele>
        <time>2016-04-19T11:01:27Z</time>
      </trkpt>
      <trkpt lat="43.65281" lon="3.81954">
        <ele>126.5</ele>
        <time>2016-04-19T11:01:28Z</time>
      </trkpt>
      <trkpt lat="43.65276" lon="3.81956">
        <ele>125.5</ele>
        <time>2016-04-19T11:01:29Z</time>
      </trkpt>
      <trkpt lat="43.65271" lon="3.8196">
        <ele>125</ele>
        <time>2016-04-19T11:01:30Z</time>
      </trkpt>
      <trkpt lat="43.65266" lon="3.81963">
        <ele>123</ele>
        <time>2016-04-19T11:01:31Z</time>
      </trkpt>
      <trkpt lat="43.65262" lon="3.81966">
        <ele>122.5</ele>
        <time>2016-04-19T11:01:32Z</time>
      </trkpt>
      <trkpt lat="43.65256" lon="3.81967">
        <ele>120.5</ele>
        <time>2016-04-19T11:01:33Z</time>
      </trkpt>
      <trkpt lat="43.65251" lon="3.81969">
        <ele>120</ele>
        <time>2016-04-19T11:01:34Z</time>
      </trkpt>
      <trkpt lat="43.65246" lon="3.81971">
        <ele>119</ele>
        <time>2016-04-19T11:01:35Z</time>
      </trkpt>
      <trkpt lat="43.65241" lon="3.81972">
        <ele>118</ele>
        <time>2016-04-19T11:01:36Z</time>
      </trkpt>
      <trkpt lat="43.65236" lon="3.81974">
        <ele>118</ele>
        <time>2016-04-19T11:01:37Z</time>
      </trkpt>
      <trkpt lat="43.65231" lon="3.81976">
        <ele>117.5</ele>
        <time>2016-04-19T11:01:38Z</time>
      </trkpt>
      <trkpt lat="43.65227" lon="3.81979">
        <ele>117</ele>
        <time>2016-04-19T11:01:39Z</time>
      </trkpt>
      <trkpt lat="43.65222" lon="3.81982">
        <ele>117</ele>
        <time>2016-04-19T11:01:40Z</time>
      </trkpt>
      <trkpt lat="43.65218" lon="3.81985">
        <ele>117</ele>
        <time>2016-04-19T11:01:41Z</time>
      </trkpt>
      <trkpt lat="43.65213" lon="3.81988">
        <ele>117</ele>
        <time>2016-04-19T11:01:42Z</time>
      </trkpt>
      <trkpt lat="43.65209" lon="3.81991">
        <ele>118</ele>
        <time>2016-04-19T11:01:43Z</time>
      </trkpt>
      <trkpt lat="43.65204" lon="3.81994">
        <ele>118.5</ele>
        <time>2016-04-19T11:01:44Z</time>
      </trkpt>
      <trkpt lat="43.652" lon="3.81997">
        <ele>118.5</ele>
        <time>2016-04-19T11:01:45Z</time>
      </trkpt>
      <trkpt lat="43.65196" lon="3.82">
        <ele>118.5</ele>
        <time>2016-04-19T11:01:46Z</time>
      </trkpt>
      <trkpt lat="43.65192" lon="3.82005">
        <ele>120</ele>
        <time>2016-04-19T11:01:47Z</time>
      </trkpt>
      <trkpt lat="43.65187" lon="3.82006">
        <ele>118.5</ele>
        <time>2016-04-19T11:01:48Z</time>
      </trkpt>
      <trkpt lat="43.65183" lon="3.82008">
        <ele>118.5</ele>
        <time>2016-04-19T11:01:49Z</time>
      </trkpt>
      <trkpt lat="43.65178" lon="3.8201">
        <ele>117.5</ele>
        <time>2016-04-19T11:01:50Z</time>
      </trkpt>
      <trkpt lat="43.65174" lon="3.82012">
        <ele>118</ele>
        <time>2016-04-19T11:01:51Z</time>
      </trkpt>
      <trkpt lat="43.6517" lon="3.82013">
        <ele>118</ele>
        <time>2016-04-19T11:01:52Z</time>
      </trkpt>
      <trkpt lat="43.65166" lon="3.82014">
        <ele>118</ele>
        <time>2016-04-19T11:01:53Z</time>
      </trkpt>
      <trkpt lat="43.65161" lon="3.82014">
        <ele>117.5</ele>
        <time>2016-04-19T11:01:54Z</time>
      </trkpt>
      <trkpt lat="43.65157" lon="3.82014">
        <ele>117</ele>
        <time>2016-04-19T11:01:55Z</time>
      </trkpt>
      <trkpt lat="43.65153" lon="3.82017">
        <ele>119</ele>
        <time>2016-04-19T11:01:56Z</time>
      </trkpt>
      <trkpt lat="43.65148" lon="3.82017">
        <ele>118.5</ele>
        <time>2016-04-19T11:01:57Z</time>
      </trkpt>
      <trkpt lat="43.65145" lon="3.82018">
        <ele>118</ele>
        <time>2016-04-19T11:01:58Z</time>
      </trkpt>
      <trkpt lat="43.6514" lon="3.8202">
        <ele>118</ele>
        <time>2016-04-19T11:01:59Z</time>
      </trkpt>
      <trkpt lat="43.65137" lon="3.82022">
        <ele>118.5</ele>
        <time>2016-04-19T11:02:00Z</time>
      </trkpt>
      <trkpt lat="43.65133" lon="3.82024">
        <ele>118</ele>
        <time>2016-04-19T11:02:01Z</time>
      </trkpt>
      <trkpt lat="43.6513" lon="3.82025">
        <ele>117.5</ele>
        <time>2016-04-19T11:02:02Z</time>
      </trkpt>
      <trkpt lat="43.65126" lon="3.82027">
        <ele>117.5</ele>
        <time>2016-04-19T11:02:03Z</time>
      </trkpt>
      <trkpt lat="43.65123" lon="3.82029">
        <ele>118.5</ele>
        <time>2016-04-19T11:02:04Z</time>
      </trkpt>
      <trkpt lat="43.65119" lon="3.82031">
        <ele>118</ele>
        <time>2016-04-19T11:02:05Z</time>
      </trkpt>
      <trkpt lat="43.65116" lon="3.82031">
        <ele>117.5</ele>
        <time>2016-04-19T11:02:06Z</time>
      </trkpt>
      <trkpt lat="43.65112" lon="3.82033">
        <ele>117.5</ele>
        <time>2016-04-19T11:02:07Z</time>
      </trkpt>
      <trkpt lat="43.65109" lon="3.82035">
        <ele>117</ele>
        <time>2016-04-19T11:02:08Z</time>
      </trkpt>
      <trkpt lat="43.65105" lon="3.82037">
        <ele>117</ele>
        <time>2016-04-19T11:02:09Z</time>
      </trkpt>
      <trkpt lat="43.65101" lon="3.82039">
        <ele>117.5</ele>
        <time>2016-04-19T11:02:10Z</time>
      </trkpt>
      <trkpt lat="43.65097" lon="3.82041">
        <ele>117.5</ele>
        <time>2016-04-19T11:02:11Z</time>
      </trkpt>
      <trkpt lat="43.65094" lon="3.82043">
        <ele>117.5</ele>
        <time>2016-04-19T11:02:12Z</time>
      </trkpt>
      <trkpt lat="43.6509" lon="3.82045">
        <ele>118.5</ele>
        <time>2016-04-19T11:02:13Z</time>
      </trkpt>
      <trkpt lat="43.65086" lon="3.82046">
        <ele>118</ele>
        <time>2016-04-19T11:02:14Z</time>
      </trkpt>
      <trkpt lat="43.65082" lon="3.82047">
        <ele>118</ele>
        <time>2016-04-19T11:02:15Z</time>
      </trkpt>
      <trkpt lat="43.65078" lon="3.82049">
        <ele>118</ele>
        <time>2016-04-19T11:02:16Z</time>
      </trkpt>
      <trkpt lat="43.65074" lon="3.82051">
        <ele>117</ele>
        <time>2016-04-19T11:02:17Z</time>
      </trkpt>
      <trkpt lat="43.6507" lon="3.82052">
        <ele>117</ele>
        <time>2016-04-19T11:02:18Z</time>
      </trkpt>
      <trkpt lat="43.65067" lon="3.82055">
        <ele>117</ele>
        <time>2016-04-19T11:02:19Z</time>
      </trkpt>
      <trkpt lat="43.65064" lon="3.82057">
        <ele>117</ele>
        <time>2016-04-19T11:02:20Z</time>
      </trkpt>
      <trkpt lat="43.65054" lon="3.82065">
        <ele>118</ele>
        <time>2016-04-19T11:02:22Z</time>
      </trkpt>
      <trkpt lat="43.65051" lon="3.82067">
        <ele>118</ele>
        <time>2016-04-19T11:02:23Z</time>
      </trkpt>
      <trkpt lat="43.65047" lon="3.82069">
        <ele>118</ele>
        <time>2016-04-19T11:02:24Z</time>
      </trkpt>
      <trkpt lat="43.65044" lon="3.82071">
        <ele>117.5</ele>
        <time>2016-04-19T11:02:25Z</time>
      </trkpt>
      <trkpt lat="43.65041" lon="3.82074">
        <ele>116</ele>
        <time>2016-04-19T11:02:26Z</time>
      </trkpt>
      <trkpt lat="43.65039" lon="3.82078">
        <ele>116.5</ele>
        <time>2016-04-19T11:02:27Z</time>
      </trkpt>
      <trkpt lat="43.65036" lon="3.82081">
        <ele>117</ele>
        <time>2016-04-19T11:02:28Z</time>
      </trkpt>
      <trkpt lat="43.65032" lon="3.82085">
        <ele>114.5</ele>
        <time>2016-04-19T11:02:29Z</time>
      </trkpt>
      <trkpt lat="43.65028" lon="3.82091">
        <ele>110.5</ele>
        <time>2016-04-19T11:02:31Z</time>
      </trkpt>
      <trkpt lat="43.65025" lon="3.82096">
        <ele>111.5</ele>
        <time>2016-04-19T11:02:32Z</time>
      </trkpt>
      <trkpt lat="43.65023" lon="3.821">
        <ele>111.5</ele>
        <time>2016-04-19T11:02:33Z</time>
      </trkpt>
      <trkpt lat="43.65021" lon="3.82103">
        <ele>112</ele>
        <time>2016-04-19T11:02:34Z</time>
      </trkpt>
      <trkpt lat="43.65018" lon="3.82106">
        <ele>112</ele>
        <time>2016-04-19T11:02:35Z</time>
      </trkpt>
      <trkpt lat="43.65016" lon="3.82109">
        <ele>112</ele>
        <time>2016-04-19T11:02:36Z</time>
      </trkpt>
      <trkpt lat="43.65014" lon="3.82112">
        <ele>112</ele>
        <time>2016-04-19T11:02:37Z</time>
      </trkpt>
      <trkpt lat="43.65011" lon="3.82116">
        <ele>112.5</ele>
        <time>2016-04-19T11:02:38Z</time>
      </trkpt>
      <trkpt lat="43.65009" lon="3.82119">
        <ele>113</ele>
        <time>2016-04-19T11:02:39Z</time>
      </trkpt>
      <trkpt lat="43.65006" lon="3.82122">
        <ele>113.5</ele>
        <time>2016-04-19T11:02:40Z</time>
      </trkpt>
      <trkpt lat="43.65003" lon="3.82126">
        <ele>114</ele>
        <time>2016-04-19T11:02:41Z</time>
      </trkpt>
      <trkpt lat="43.65" lon="3.82131">
        <ele>115.5</ele>
        <time>2016-04-19T11:02:42Z</time>
      </trkpt>
      <trkpt lat="43.64997" lon="3.82134">
        <ele>117.5</ele>
        <time>2016-04-19T11:02:43Z</time>
      </trkpt>
      <trkpt lat="43.64994" lon="3.82136">
        <ele>117.5</ele>
        <time>2016-04-19T11:02:44Z</time>
      </trkpt>
      <trkpt lat="43.6499" lon="3.82139">
        <ele>117.5</ele>
        <time>2016-04-19T11:02:45Z</time>
      </trkpt>
      <trkpt lat="43.64987" lon="3.82143">
        <ele>117.5</ele>
        <time>2016-04-19T11:02:46Z</time>
      </trkpt>
      <trkpt lat="43.64983" lon="3.82147">
        <ele>116.5</ele>
        <time>2016-04-19T11:02:47Z</time>
      </trkpt>
      <trkpt lat="43.64979" lon="3.82151">
        <ele>117</ele>
        <time>2016-04-19T11:02:48Z</time>
      </trkpt>
      <trkpt lat="43.64976" lon="3.82154">
        <ele>117</ele>
        <time>2016-04-19T11:02:49Z</time>
      </trkpt>
      <trkpt lat="43.64972" lon="3.82158">
        <ele>118.5</ele>
        <time>2016-04-19T11:02:50Z</time>
      </trkpt>
      <trkpt lat="43.64969" lon="3.82161">
        <ele>118</ele>
        <time>2016-04-19T11:02:51Z</time>
      </trkpt>
      <trkpt lat="43.64965" lon="3.82164">
        <ele>118.5</ele>
        <time>2016-04-19T11:02:52Z</time>
      </trkpt>
      <trkpt lat="43.64962" lon="3.82167">
        <ele>119</ele>
        <time>2016-04-19T11:02:53Z</time>
      </trkpt>
      <trkpt lat="43.64958" lon="3.82172">
        <ele>119</ele>
        <time>2016-04-19T11:02:54Z</time>
      </trkpt>
      <trkpt lat="43.64954" lon="3.82176">
        <ele>119</ele>
        <time>2016-04-19T11:02:55Z</time>
      </trkpt>
      <trkpt lat="43.6495" lon="3.82179">
        <ele>119.5</ele>
        <time>2016-04-19T11:02:56Z</time>
      </trkpt>
      <trkpt lat="43.64946" lon="3.82182">
        <ele>119.5</ele>
        <time>2016-04-19T11:02:57Z</time>
      </trkpt>
      <trkpt lat="43.64942" lon="3.82184">
        <ele>120</ele>
        <time>2016-04-19T11:02:58Z</time>
      </trkpt>
      <trkpt lat="43.64938" lon="3.82187">
        <ele>120</ele>
        <time>2016-04-19T11:02:59Z</time>
      </trkpt>
      <trkpt lat="43.64934" lon="3.8219">
        <ele>120.5</ele>
        <time>2016-04-19T11:03:00Z</time>
      </trkpt>
      <trkpt lat="43.6493" lon="3.82193">
        <ele>121</ele>
        <time>2016-04-19T11:03:01Z</time>
      </trkpt>
      <trkpt lat="43.64925" lon="3.82194">
        <ele>121</ele>
        <time>2016-04-19T11:03:02Z</time>
      </trkpt>
      <trkpt lat="43.64921" lon="3.82196">
        <ele>121.5</ele>
        <time>2016-04-19T11:03:03Z</time>
      </trkpt>
      <trkpt lat="43.64917" lon="3.82198">
        <ele>121.5</ele>
        <time>2016-04-19T11:03:04Z</time>
      </trkpt>
      <trkpt lat="43.64912" lon="3.82201">
        <ele>121.5</ele>
        <time>2016-04-19T11:03:05Z</time>
      </trkpt>
      <trkpt lat="43.64908" lon="3.82203">
        <ele>122</ele>
        <time>2016-04-19T11:03:06Z</time>
      </trkpt>
      <trkpt lat="43.64904" lon="3.82206">
        <ele>122</ele>
        <time>2016-04-19T11:03:07Z</time>
      </trkpt>
      <trkpt lat="43.649" lon="3.82209">
        <ele>122</ele>
        <time>2016-04-19T11:03:08Z</time>
      </trkpt>
      <trkpt lat="43.64896" lon="3.8221">
        <ele>122</ele>
        <time>2016-04-19T11:03:09Z</time>
      </trkpt>
      <trkpt lat="43.64893" lon="3.82213">
        <ele>122.5</ele>
        <time>2016-04-19T11:03:10Z</time>
      </trkpt>
      <trkpt lat="43.6489" lon="3.82216">
        <ele>120.5</ele>
        <time>2016-04-19T11:03:11Z</time>
      </trkpt>
      <trkpt lat="43.64886" lon="3.82219">
        <ele>120.5</ele>
        <time>2016-04-19T11:03:12Z</time>
      </trkpt>
      <trkpt lat="43.64882" lon="3.82221">
        <ele>120.5</ele>
        <time>2016-04-19T11:03:13Z</time>
      </trkpt>
      <trkpt lat="43.64878" lon="3.82223">
        <ele>120.5</ele>
        <time>2016-04-19T11:03:14Z</time>
      </trkpt>
      <trkpt lat="43.64875" lon="3.82226">
        <ele>120</ele>
        <time>2016-04-19T11:03:15Z</time>
      </trkpt>
      <trkpt lat="43.64871" lon="3.82229">
        <ele>120.5</ele>
        <time>2016-04-19T11:03:16Z</time>
      </trkpt>
      <trkpt lat="43.64868" lon="3.82233">
        <ele>120.5</ele>
        <time>2016-04-19T11:03:17Z</time>
      </trkpt>
      <trkpt lat="43.64864" lon="3.82236">
        <ele>119</ele>
        <time>2016-04-19T11:03:18Z</time>
      </trkpt>
      <trkpt lat="43.64861" lon="3.82239">
        <ele>118.5</ele>
        <time>2016-04-19T11:03:19Z</time>
      </trkpt>
      <trkpt lat="43.64858" lon="3.82242">
        <ele>118</ele>
        <time>2016-04-19T11:03:20Z</time>
      </trkpt>
      <trkpt lat="43.64854" lon="3.82246">
        <ele>118.5</ele>
        <time>2016-04-19T11:03:21Z</time>
      </trkpt>
      <trkpt lat="43.6485" lon="3.82249">
        <ele>119.5</ele>
        <time>2016-04-19T11:03:22Z</time>
      </trkpt>
      <trkpt lat="43.64846" lon="3.82253">
        <ele>120.5</ele>
        <time>2016-04-19T11:03:23Z</time>
      </trkpt>
      <trkpt lat="43.64843" lon="3.82256">
        <ele>120.5</ele>
        <time>2016-04-19T11:03:24Z</time>
      </trkpt>
      <trkpt lat="43.64839" lon="3.8226">
        <ele>121.5</ele>
        <time>2016-04-19T11:03:25Z</time>
      </trkpt>
      <trkpt lat="43.64835" lon="3.82264">
        <ele>122</ele>
        <time>2016-04-19T11:03:26Z</time>
      </trkpt>
      <trkpt lat="43.64832" lon="3.82268">
        <ele>123.5</ele>
        <time>2016-04-19T11:03:27Z</time>
      </trkpt>
      <trkpt lat="43.64828" lon="3.82272">
        <ele>123.5</ele>
        <time>2016-04-19T11:03:28Z</time>
      </trkpt>
      <trkpt lat="43.64824" lon="3.82275">
        <ele>123.5</ele>
        <time>2016-04-19T11:03:29Z</time>
      </trkpt>
      <trkpt lat="43.64818" lon="3.82281">
        <ele>123.5</ele>
        <time>2016-04-19T11:03:31Z</time>
      </trkpt>
      <trkpt lat="43.64815" lon="3.82285">
        <ele>124</ele>
        <time>2016-04-19T11:03:32Z</time>
      </trkpt>
      <trkpt lat="43.64811" lon="3.82288">
        <ele>125</ele>
        <time>2016-04-19T11:03:33Z</time>
      </trkpt>
      <trkpt lat="43.64806" lon="3.82291">
        <ele>125.5</ele>
        <time>2016-04-19T11:03:33Z</time>
      </trkpt>
      <trkpt lat="43.64802" lon="3.82294">
        <ele>125.5</ele>
        <time>2016-04-19T11:03:35Z</time>
      </trkpt>
      <trkpt lat="43.64799" lon="3.82297">
        <ele>125.5</ele>
        <time>2016-04-19T11:03:36Z</time>
      </trkpt>
      <trkpt lat="43.64795" lon="3.823">
        <ele>125</ele>
        <time>2016-04-19T11:03:37Z</time>
      </trkpt>
      <trkpt lat="43.64792" lon="3.82302">
        <ele>125</ele>
        <time>2016-04-19T11:03:37Z</time>
      </trkpt>
      <trkpt lat="43.64788" lon="3.82304">
        <ele>125</ele>
        <time>2016-04-19T11:03:38Z</time>
      </trkpt>
      <trkpt lat="43.64784" lon="3.82306">
        <ele>124.5</ele>
        <time>2016-04-19T11:03:39Z</time>
      </trkpt>
      <trkpt lat="43.64779" lon="3.82308">
        <ele>124.5</ele>
        <time>2016-04-19T11:03:41Z</time>
      </trkpt>
      <trkpt lat="43.64776" lon="3.8231">
        <ele>124.5</ele>
        <time>2016-04-19T11:03:41Z</time>
      </trkpt>
      <trkpt lat="43.64772" lon="3.82311">
        <ele>124.5</ele>
        <time>2016-04-19T11:03:42Z</time>
      </trkpt>
      <trkpt lat="43.64768" lon="3.82313">
        <ele>124.5</ele>
        <time>2016-04-19T11:03:44Z</time>
      </trkpt>
      <trkpt lat="43.64763" lon="3.82313">
        <ele>124.5</ele>
        <time>2016-04-19T11:03:44Z</time>
      </trkpt>
      <trkpt lat="43.64757" lon="3.82312">
        <ele>124</ele>
        <time>2016-04-19T11:03:46Z</time>
      </trkpt>
      <trkpt lat="43.64753" lon="3.82313">
        <ele>124</ele>
        <time>2016-04-19T11:03:47Z</time>
      </trkpt>
      <trkpt lat="43.6475" lon="3.82314">
        <ele>124</ele>
        <time>2016-04-19T11:03:48Z</time>
      </trkpt>
      <trkpt lat="43.64747" lon="3.82316">
        <ele>124</ele>
        <time>2016-04-19T11:03:49Z</time>
      </trkpt>
      <trkpt lat="43.64744" lon="3.82318">
        <ele>124</ele>
        <time>2016-04-19T11:03:50Z</time>
      </trkpt>
      <trkpt lat="43.64735" lon="3.82321">
        <ele>124</ele>
        <time>2016-04-19T11:03:52Z</time>
      </trkpt>
      <trkpt lat="43.64726" lon="3.82326">
        <ele>124.5</ele>
        <time>2016-04-19T11:03:54Z</time>
      </trkpt>
      <trkpt lat="43.64722" lon="3.82326">
        <ele>124.5</ele>
        <time>2016-04-19T11:03:55Z</time>
      </trkpt>
      <trkpt lat="43.64717" lon="3.82328">
        <ele>124.5</ele>
        <time>2016-04-19T11:03:56Z</time>
      </trkpt>
      <trkpt lat="43.64713" lon="3.8233">
        <ele>124.5</ele>
        <time>2016-04-19T11:03:57Z</time>
      </trkpt>
      <trkpt lat="43.64709" lon="3.82332">
        <ele>124.5</ele>
        <time>2016-04-19T11:03:58Z</time>
      </trkpt>
      <trkpt lat="43.64705" lon="3.82333">
        <ele>124.5</ele>
        <time>2016-04-19T11:03:59Z</time>
      </trkpt>
      <trkpt lat="43.64701" lon="3.82335">
        <ele>124.5</ele>
        <time>2016-04-19T11:04:00Z</time>
      </trkpt>
      <trkpt lat="43.64695" lon="3.82336">
        <ele>124.5</ele>
        <time>2016-04-19T11:04:01Z</time>
      </trkpt>
      <trkpt lat="43.64691" lon="3.82334">
        <ele>125</ele>
        <time>2016-04-19T11:04:02Z</time>
      </trkpt>
      <trkpt lat="43.64687" lon="3.82336">
        <ele>125.5</ele>
        <time>2016-04-19T11:04:03Z</time>
      </trkpt>
      <trkpt lat="43.64684" lon="3.82335">
        <ele>127.5</ele>
        <time>2016-04-19T11:04:04Z</time>
      </trkpt>
      <trkpt lat="43.64682" lon="3.82331">
        <ele>128.5</ele>
        <time>2016-04-19T11:04:05Z</time>
      </trkpt>
      <trkpt lat="43.6468" lon="3.82329">
        <ele>130.5</ele>
        <time>2016-04-19T11:04:06Z</time>
      </trkpt>
      <trkpt lat="43.64677" lon="3.82328">
        <ele>133</ele>
        <time>2016-04-19T11:04:07Z</time>
      </trkpt>
      <trkpt lat="43.64675" lon="3.82327">
        <ele>135</ele>
        <time>2016-04-19T11:04:09Z</time>
      </trkpt>
      <trkpt lat="43.64671" lon="3.82328">
        <ele>137</ele>
        <time>2016-04-19T11:04:09Z</time>
      </trkpt>
      <trkpt lat="43.64668" lon="3.82329">
        <ele>137.5</ele>
        <time>2016-04-19T11:04:10Z</time>
      </trkpt>
      <trkpt lat="43.64665" lon="3.82328">
        <ele>138</ele>
        <time>2016-04-19T11:04:11Z</time>
      </trkpt>
      <trkpt lat="43.64662" lon="3.82329">
        <ele>138</ele>
        <time>2016-04-19T11:04:13Z</time>
      </trkpt>
      <trkpt lat="43.6466" lon="3.82329">
        <ele>137</ele>
        <time>2016-04-19T11:04:13Z</time>
      </trkpt>
      <trkpt lat="43.64656" lon="3.82329">
        <ele>136.5</ele>
        <time>2016-04-19T11:04:14Z</time>
      </trkpt>
      <trkpt lat="43.64653" lon="3.82331">
        <ele>137</ele>
        <time>2016-04-19T11:04:15Z</time>
      </trkpt>
      <trkpt lat="43.6465" lon="3.82332">
        <ele>137.5</ele>
        <time>2016-04-19T11:04:16Z</time>
      </trkpt>
      <trkpt lat="43.64647" lon="3.82332">
        <ele>138</ele>
        <time>2016-04-19T11:04:17Z</time>
      </trkpt>
      <trkpt lat="43.64644" lon="3.82332">
        <ele>138.5</ele>
        <time>2016-04-19T11:04:18Z</time>
      </trkpt>
      <trkpt lat="43.64641" lon="3.82332">
        <ele>139.5</ele>
        <time>2016-04-19T11:04:19Z</time>
      </trkpt>
      <trkpt lat="43.64639" lon="3.82333">
        <ele>139</ele>
        <time>2016-04-19T11:04:20Z</time>
      </trkpt>
      <trkpt lat="43.64636" lon="3.82334">
        <ele>139.5</ele>
        <time>2016-04-19T11:04:21Z</time>
      </trkpt>
      <trkpt lat="43.64634" lon="3.82334">
        <ele>139.5</ele>
        <time>2016-04-19T11:04:22Z</time>
      </trkpt>
      <trkpt lat="43.64632" lon="3.82334">
        <ele>140</ele>
        <time>2016-04-19T11:04:23Z</time>
      </trkpt>
      <trkpt lat="43.64629" lon="3.82334">
        <ele>140</ele>
        <time>2016-04-19T11:04:24Z</time>
      </trkpt>
      <trkpt lat="43.64627" lon="3.82335">
        <ele>140</ele>
        <time>2016-04-19T11:04:25Z</time>
      </trkpt>
      <trkpt lat="43.64625" lon="3.82335">
        <ele>140</ele>
        <time>2016-04-19T11:04:26Z</time>
      </trkpt>
      <trkpt lat="43.64623" lon="3.82336">
        <ele>141</ele>
        <time>2016-04-19T11:04:27Z</time>
      </trkpt>
      <trkpt lat="43.64621" lon="3.82335">
        <ele>141</ele>
        <time>2016-04-19T11:04:28Z</time>
      </trkpt>
      <trkpt lat="43.64618" lon="3.82336">
        <ele>141.5</ele>
        <time>2016-04-19T11:04:29Z</time>
      </trkpt>
      <trkpt lat="43.64617" lon="3.82337">
        <ele>141</ele>
        <time>2016-04-19T11:04:30Z</time>
      </trkpt>
      <trkpt lat="43.64614" lon="3.82338">
        <ele>141</ele>
        <time>2016-04-19T11:04:31Z</time>
      </trkpt>
      <trkpt lat="43.64612" lon="3.82338">
        <ele>141</ele>
        <time>2016-04-19T11:04:32Z</time>
      </trkpt>
      <trkpt lat="43.6461" lon="3.82337">
        <ele>141</ele>
        <time>2016-04-19T11:04:33Z</time>
      </trkpt>
      <trkpt lat="43.64607" lon="3.82335">
        <ele>140.5</ele>
        <time>2016-04-19T11:04:34Z</time>
      </trkpt>
      <trkpt lat="43.64605" lon="3.82334">
        <ele>139</ele>
        <time>2016-04-19T11:04:35Z</time>
      </trkpt>
      <trkpt lat="43.64603" lon="3.82335">
        <ele>139</ele>
        <time>2016-04-19T11:04:36Z</time>
      </trkpt>
      <trkpt lat="43.646" lon="3.82335">
        <ele>139</ele>
        <time>2016-04-19T11:04:37Z</time>
      </trkpt>
      <trkpt lat="43.64597" lon="3.82335">
        <ele>139</ele>
        <time>2016-04-19T11:04:38Z</time>
      </trkpt>
      <trkpt lat="43.64595" lon="3.82334">
        <ele>138.5</ele>
        <time>2016-04-19T11:04:39Z</time>
      </trkpt>
      <trkpt lat="43.64593" lon="3.82333">
        <ele>138</ele>
        <time>2016-04-19T11:04:40Z</time>
      </trkpt>
      <trkpt lat="43.6459" lon="3.82332">
        <ele>138</ele>
        <time>2016-04-19T11:04:41Z</time>
      </trkpt>
      <trkpt lat="43.64587" lon="3.82331">
        <ele>138</ele>
        <time>2016-04-19T11:04:42Z</time>
      </trkpt>
      <trkpt lat="43.64584" lon="3.8233">
        <ele>138</ele>
        <time>2016-04-19T11:04:43Z</time>
      </trkpt>
      <trkpt lat="43.64581" lon="3.8233">
        <ele>138</ele>
        <time>2016-04-19T11:04:44Z</time>
      </trkpt>
      <trkpt lat="43.64577" lon="3.82329">
        <ele>139.5</ele>
        <time>2016-04-19T11:04:45Z</time>
      </trkpt>
      <trkpt lat="43.64574" lon="3.82327">
        <ele>140.5</ele>
        <time>2016-04-19T11:04:46Z</time>
      </trkpt>
      <trkpt lat="43.6457" lon="3.82326">
        <ele>141</ele>
        <time>2016-04-19T11:04:47Z</time>
      </trkpt>
      <trkpt lat="43.64567" lon="3.82324">
        <ele>140.5</ele>
        <time>2016-04-19T11:04:48Z</time>
      </trkpt>
      <trkpt lat="43.64563" lon="3.82322">
        <ele>141</ele>
        <time>2016-04-19T11:04:49Z</time>
      </trkpt>
      <trkpt lat="43.6456" lon="3.8232">
        <ele>140.5</ele>
        <time>2016-04-19T11:04:50Z</time>
      </trkpt>
      <trkpt lat="43.64557" lon="3.82319">
        <ele>140</ele>
        <time>2016-04-19T11:04:51Z</time>
      </trkpt>
      <trkpt lat="43.64553" lon="3.82318">
        <ele>140.5</ele>
        <time>2016-04-19T11:04:52Z</time>
      </trkpt>
      <trkpt lat="43.64546" lon="3.82317">
        <ele>141.5</ele>
        <time>2016-04-19T11:04:54Z</time>
      </trkpt>
      <trkpt lat="43.64542" lon="3.82317">
        <ele>142</ele>
        <time>2016-04-19T11:04:55Z</time>
      </trkpt>
      <trkpt lat="43.64538" lon="3.82316">
        <ele>142</ele>
        <time>2016-04-19T11:04:56Z</time>
      </trkpt>
      <trkpt lat="43.64535" lon="3.82316">
        <ele>142</ele>
        <time>2016-04-19T11:04:57Z</time>
      </trkpt>
      <trkpt lat="43.64531" lon="3.82315">
        <ele>142</ele>
        <time>2016-04-19T11:04:58Z</time>
      </trkpt>
      <trkpt lat="43.64527" lon="3.82314">
        <ele>142</ele>
        <time>2016-04-19T11:04:59Z</time>
      </trkpt>
      <trkpt lat="43.64525" lon="3.82314">
        <ele>142</ele>
        <time>2016-04-19T11:05:00Z</time>
      </trkpt>
      <trkpt lat="43.64521" lon="3.82312">
        <ele>142</ele>
        <time>2016-04-19T11:05:01Z</time>
      </trkpt>
      <trkpt lat="43.64517" lon="3.82311">
        <ele>142</ele>
        <time>2016-04-19T11:05:02Z</time>
      </trkpt>
      <trkpt lat="43.64512" lon="3.82309">
        <ele>141</ele>
        <time>2016-04-19T11:05:03Z</time>
      </trkpt>
      <trkpt lat="43.64507" lon="3.82308">
        <ele>141</ele>
        <time>2016-04-19T11:05:04Z</time>
      </trkpt>
      <trkpt lat="43.64503" lon="3.82306">
        <ele>142</ele>
        <time>2016-04-19T11:05:05Z</time>
      </trkpt>
      <trkpt lat="43.64499" lon="3.82303">
        <ele>143.5</ele>
        <time>2016-04-19T11:05:06Z</time>
      </trkpt>
      <trkpt lat="43.64488" lon="3.82294">
        <ele>142</ele>
        <time>2016-04-19T11:05:08Z</time>
      </trkpt>
      <trkpt lat="43.64481" lon="3.82294">
        <ele>142.5</ele>
        <time>2016-04-19T11:05:09Z</time>
      </trkpt>
      <trkpt lat="43.64473" lon="3.82297">
        <ele>142.5</ele>
        <time>2016-04-19T11:05:11Z</time>
      </trkpt>
      <trkpt lat="43.6447" lon="3.82299">
        <ele>142.5</ele>
        <time>2016-04-19T11:05:12Z</time>
      </trkpt>
      <trkpt lat="43.64465" lon="3.82298">
        <ele>142.5</ele>
        <time>2016-04-19T11:05:13Z</time>
      </trkpt>
      <trkpt lat="43.64463" lon="3.82294">
        <ele>142.5</ele>
        <time>2016-04-19T11:05:14Z</time>
      </trkpt>
      <trkpt lat="43.64462" lon="3.8229">
        <ele>143</ele>
        <time>2016-04-19T11:05:15Z</time>
      </trkpt>
      <trkpt lat="43.64461" lon="3.82285">
        <ele>142.5</ele>
        <time>2016-04-19T11:05:16Z</time>
      </trkpt>
      <trkpt lat="43.64457" lon="3.82283">
        <ele>142</ele>
        <time>2016-04-19T11:05:17Z</time>
      </trkpt>
      <trkpt lat="43.64453" lon="3.82283">
        <ele>142</ele>
        <time>2016-04-19T11:05:18Z</time>
      </trkpt>
      <trkpt lat="43.6445" lon="3.82281">
        <ele>142</ele>
        <time>2016-04-19T11:05:19Z</time>
      </trkpt>
      <trkpt lat="43.64446" lon="3.8228">
        <ele>143</ele>
        <time>2016-04-19T11:05:20Z</time>
      </trkpt>
      <trkpt lat="43.64443" lon="3.82276">
        <ele>143</ele>
        <time>2016-04-19T11:05:21Z</time>
      </trkpt>
      <trkpt lat="43.6444" lon="3.82273">
        <ele>142.5</ele>
        <time>2016-04-19T11:05:22Z</time>
      </trkpt>
      <trkpt lat="43.64436" lon="3.82271">
        <ele>143.5</ele>
        <time>2016-04-19T11:05:23Z</time>
      </trkpt>
      <trkpt lat="43.64433" lon="3.82268">
        <ele>143.5</ele>
        <time>2016-04-19T11:05:24Z</time>
      </trkpt>
      <trkpt lat="43.64429" lon="3.82266">
        <ele>144.5</ele>
        <time>2016-04-19T11:05:25Z</time>
      </trkpt>
      <trkpt lat="43.64426" lon="3.82262">
        <ele>144.5</ele>
        <time>2016-04-19T11:05:26Z</time>
      </trkpt>
      <trkpt lat="43.64423" lon="3.82259">
        <ele>145</ele>
        <time>2016-04-19T11:05:27Z</time>
      </trkpt>
      <trkpt lat="43.64421" lon="3.82254">
        <ele>145</ele>
        <time>2016-04-19T11:05:28Z</time>
      </trkpt>
      <trkpt lat="43.64418" lon="3.8225">
        <ele>146</ele>
        <time>2016-04-19T11:05:29Z</time>
      </trkpt>
      <trkpt lat="43.64414" lon="3.82249">
        <ele>146</ele>
        <time>2016-04-19T11:05:30Z</time>
      </trkpt>
      <trkpt lat="43.64411" lon="3.82252">
        <ele>146</ele>
        <time>2016-04-19T11:05:31Z</time>
      </trkpt>
      <trkpt lat="43.64408" lon="3.82255">
        <ele>145.5</ele>
        <time>2016-04-19T11:05:32Z</time>
      </trkpt>
      <trkpt lat="43.64406" lon="3.82258">
        <ele>147</ele>
        <time>2016-04-19T11:05:33Z</time>
      </trkpt>
      <trkpt lat="43.64403" lon="3.82262">
        <ele>148</ele>
        <time>2016-04-19T11:05:34Z</time>
      </trkpt>
      <trkpt lat="43.64399" lon="3.82264">
        <ele>148.5</ele>
        <time>2016-04-19T11:05:35Z</time>
      </trkpt>
      <trkpt lat="43.64395" lon="3.82266">
        <ele>148.5</ele>
        <time>2016-04-19T11:05:36Z</time>
      </trkpt>
      <trkpt lat="43.64391" lon="3.82269">
        <ele>148.5</ele>
        <time>2016-04-19T11:05:37Z</time>
      </trkpt>
      <trkpt lat="43.64387" lon="3.82271">
        <ele>148</ele>
        <time>2016-04-19T11:05:38Z</time>
      </trkpt>
      <trkpt lat="43.64383" lon="3.82273">
        <ele>148</ele>
        <time>2016-04-19T11:05:39Z</time>
      </trkpt>
      <trkpt lat="43.64379" lon="3.82273">
        <ele>146.5</ele>
        <time>2016-04-19T11:05:40Z</time>
      </trkpt>
      <trkpt lat="43.64374" lon="3.82274">
        <ele>146.5</ele>
        <time>2016-04-19T11:05:41Z</time>
      </trkpt>
      <trkpt lat="43.6437" lon="3.82275">
        <ele>147</ele>
        <time>2016-04-19T11:05:42Z</time>
      </trkpt>
      <trkpt lat="43.64368" lon="3.82278">
        <ele>147.5</ele>
        <time>2016-04-19T11:05:43Z</time>
      </trkpt>
      <trkpt lat="43.64364" lon="3.82278">
        <ele>148</ele>
        <time>2016-04-19T11:05:44Z</time>
      </trkpt>
      <trkpt lat="43.64361" lon="3.82279">
        <ele>149.5</ele>
        <time>2016-04-19T11:05:45Z</time>
      </trkpt>
      <trkpt lat="43.64357" lon="3.82279">
        <ele>149</ele>
        <time>2016-04-19T11:05:46Z</time>
      </trkpt>
      <trkpt lat="43.64354" lon="3.82281">
        <ele>149</ele>
        <time>2016-04-19T11:05:47Z</time>
      </trkpt>
      <trkpt lat="43.64359" lon="3.8228">
        <ele>149</ele>
        <time>2016-04-19T11:05:48Z</time>
      </trkpt>
      <trkpt lat="43.64356" lon="3.82285">
        <ele>149</ele>
        <time>2016-04-19T11:05:54Z</time>
      </trkpt>
      <trkpt lat="43.64353" lon="3.82287">
        <ele>148.5</ele>
        <time>2016-04-19T11:05:55Z</time>
      </trkpt>
      <trkpt lat="43.64349" lon="3.82288">
        <ele>148.5</ele>
        <time>2016-04-19T11:05:56Z</time>
      </trkpt>
      <trkpt lat="43.64344" lon="3.8229">
        <ele>148.5</ele>
        <time>2016-04-19T11:05:58Z</time>
      </trkpt>
      <trkpt lat="43.64335" lon="3.82292">
        <ele>148</ele>
        <time>2016-04-19T11:05:59Z</time>
      </trkpt>
      <trkpt lat="43.64331" lon="3.82293">
        <ele>147.5</ele>
        <time>2016-04-19T11:06:00Z</time>
      </trkpt>
      <trkpt lat="43.64326" lon="3.82294">
        <ele>147.5</ele>
        <time>2016-04-19T11:06:01Z</time>
      </trkpt>
      <trkpt lat="43.64322" lon="3.82297">
        <ele>147</ele>
        <time>2016-04-19T11:06:02Z</time>
      </trkpt>
      <trkpt lat="43.64318" lon="3.82299">
        <ele>147</ele>
        <time>2016-04-19T11:06:03Z</time>
      </trkpt>
      <trkpt lat="43.64314" lon="3.82302">
        <ele>147</ele>
        <time>2016-04-19T11:06:04Z</time>
      </trkpt>
      <trkpt lat="43.6431" lon="3.82302">
        <ele>146</ele>
        <time>2016-04-19T11:06:05Z</time>
      </trkpt>
      <trkpt lat="43.64304" lon="3.82303">
        <ele>145.5</ele>
        <time>2016-04-19T11:06:07Z</time>
      </trkpt>
      <trkpt lat="43.64298" lon="3.82307">
        <ele>144.5</ele>
        <time>2016-04-19T11:06:09Z</time>
      </trkpt>
      <trkpt lat="43.64284" lon="3.82317">
        <ele>144</ele>
        <time>2016-04-19T11:06:12Z</time>
      </trkpt>
      <trkpt lat="43.64279" lon="3.82317">
        <ele>143.5</ele>
        <time>2016-04-19T11:06:13Z</time>
      </trkpt>
      <trkpt lat="43.64274" lon="3.82317">
        <ele>143.5</ele>
        <time>2016-04-19T11:06:14Z</time>
      </trkpt>
      <trkpt lat="43.64271" lon="3.82312">
        <ele>143</ele>
        <time>2016-04-19T11:06:15Z</time>
      </trkpt>
      <trkpt lat="43.64268" lon="3.82309">
        <ele>143</ele>
        <time>2016-04-19T11:06:16Z</time>
      </trkpt>
      <trkpt lat="43.64265" lon="3.82307">
        <ele>143</ele>
        <time>2016-04-19T11:06:17Z</time>
      </trkpt>
      <trkpt lat="43.64261" lon="3.82304">
        <ele>143</ele>
        <time>2016-04-19T11:06:18Z</time>
      </trkpt>
      <trkpt lat="43.64257" lon="3.82302">
        <ele>142</ele>
        <time>2016-04-19T11:06:19Z</time>
      </trkpt>
      <trkpt lat="43.64253" lon="3.82303">
        <ele>142</ele>
        <time>2016-04-19T11:06:20Z</time>
      </trkpt>
      <trkpt lat="43.64249" lon="3.82305">
        <ele>142</ele>
        <time>2016-04-19T11:06:21Z</time>
      </trkpt>
      <trkpt lat="43.64245" lon="3.82307">
        <ele>142</ele>
        <time>2016-04-19T11:06:22Z</time>
      </trkpt>
      <trkpt lat="43.64241" lon="3.82307">
        <ele>142</ele>
        <time>2016-04-19T11:06:23Z</time>
      </trkpt>
      <trkpt lat="43.64238" lon="3.82307">
        <ele>142</ele>
        <time>2016-04-19T11:06:24Z</time>
      </trkpt>
      <trkpt lat="43.64235" lon="3.82305">
        <ele>142.5</ele>
        <time>2016-04-19T11:06:25Z</time>
      </trkpt>
      <trkpt lat="43.64231" lon="3.82304">
        <ele>142.5</ele>
        <time>2016-04-19T11:06:26Z</time>
      </trkpt>
      <trkpt lat="43.64222" lon="3.82305">
        <ele>142.5</ele>
        <time>2016-04-19T11:06:28Z</time>
      </trkpt>
      <trkpt lat="43.64219" lon="3.82307">
        <ele>142.5</ele>
        <time>2016-04-19T11:06:29Z</time>
      </trkpt>
      <trkpt lat="43.64216" lon="3.82306">
        <ele>142.5</ele>
        <time>2016-04-19T11:06:30Z</time>
      </trkpt>
      <trkpt lat="43.6421" lon="3.82306">
        <ele>142.5</ele>
        <time>2016-04-19T11:06:32Z</time>
      </trkpt>
      <trkpt lat="43.64207" lon="3.82307">
        <ele>142.5</ele>
        <time>2016-04-19T11:06:33Z</time>
      </trkpt>
      <trkpt lat="43.64204" lon="3.82308">
        <ele>142.5</ele>
        <time>2016-04-19T11:06:34Z</time>
      </trkpt>
      <trkpt lat="43.64202" lon="3.82308">
        <ele>143</ele>
        <time>2016-04-19T11:06:35Z</time>
      </trkpt>
      <trkpt lat="43.642" lon="3.8231">
        <ele>143</ele>
        <time>2016-04-19T11:06:36Z</time>
      </trkpt>
      <trkpt lat="43.64198" lon="3.82314">
        <ele>144</ele>
        <time>2016-04-19T11:06:37Z</time>
      </trkpt>
      <trkpt lat="43.64195" lon="3.82316">
        <ele>147</ele>
        <time>2016-04-19T11:06:39Z</time>
      </trkpt>
      <trkpt lat="43.64193" lon="3.82324">
        <ele>148</ele>
        <time>2016-04-19T11:06:41Z</time>
      </trkpt>
      <trkpt lat="43.6419" lon="3.82328">
        <ele>149</ele>
        <time>2016-04-19T11:06:42Z</time>
      </trkpt>
      <trkpt lat="43.64189" lon="3.82334">
        <ele>150.5</ele>
        <time>2016-04-19T11:06:43Z</time>
      </trkpt>
      <trkpt lat="43.64187" lon="3.82339">
        <ele>151</ele>
        <time>2016-04-19T11:06:44Z</time>
      </trkpt>
      <trkpt lat="43.64186" lon="3.82344">
        <ele>151</ele>
        <time>2016-04-19T11:06:45Z</time>
      </trkpt>
      <trkpt lat="43.64185" lon="3.82348">
        <ele>150.5</ele>
        <time>2016-04-19T11:06:46Z</time>
      </trkpt>
      <trkpt lat="43.64182" lon="3.82352">
        <ele>150.5</ele>
        <time>2016-04-19T11:06:47Z</time>
      </trkpt>
      <trkpt lat="43.64181" lon="3.82359">
        <ele>149.5</ele>
        <time>2016-04-19T11:06:49Z</time>
      </trkpt>
      <trkpt lat="43.6418" lon="3.82361">
        <ele>152</ele>
        <time>2016-04-19T11:06:50Z</time>
      </trkpt>
      <trkpt lat="43.64178" lon="3.82361">
        <ele>152</ele>
        <time>2016-04-19T11:06:51Z</time>
      </trkpt>
      <trkpt lat="43.64168" lon="3.82369">
        <ele>149</ele>
        <time>2016-04-19T11:06:54Z</time>
      </trkpt>
      <trkpt lat="43.64166" lon="3.82372">
        <ele>149.5</ele>
        <time>2016-04-19T11:06:55Z</time>
      </trkpt>
      <trkpt lat="43.64167" lon="3.82386">
        <ele>152</ele>
        <time>2016-04-19T11:06:57Z</time>
      </trkpt>
      <trkpt lat="43.64165" lon="3.82391">
        <ele>152</ele>
        <time>2016-04-19T11:06:58Z</time>
      </trkpt>
      <trkpt lat="43.64163" lon="3.82396">
        <ele>152</ele>
        <time>2016-04-19T11:06:59Z</time>
      </trkpt>
      <trkpt lat="43.6416" lon="3.82406">
        <ele>148.5</ele>
        <time>2016-04-19T11:07:01Z</time>
      </trkpt>
      <trkpt lat="43.64159" lon="3.82412">
        <ele>149</ele>
        <time>2016-04-19T11:07:02Z</time>
      </trkpt>
      <trkpt lat="43.64162" lon="3.82415">
        <ele>151.5</ele>
        <time>2016-04-19T11:07:03Z</time>
      </trkpt>
      <trkpt lat="43.64161" lon="3.82423">
        <ele>152.5</ele>
        <time>2016-04-19T11:07:05Z</time>
      </trkpt>
      <trkpt lat="43.64159" lon="3.82428">
        <ele>153</ele>
        <time>2016-04-19T11:07:06Z</time>
      </trkpt>
      <trkpt lat="43.64158" lon="3.82432">
        <ele>153.5</ele>
        <time>2016-04-19T11:07:07Z</time>
      </trkpt>
      <trkpt lat="43.64158" lon="3.82438">
        <ele>153.5</ele>
        <time>2016-04-19T11:07:08Z</time>
      </trkpt>
      <trkpt lat="43.64159" lon="3.82445">
        <ele>155.5</ele>
        <time>2016-04-19T11:07:09Z</time>
      </trkpt>
      <trkpt lat="43.64157" lon="3.8245">
        <ele>157</ele>
        <time>2016-04-19T11:07:10Z</time>
      </trkpt>
      <trkpt lat="43.64155" lon="3.82456">
        <ele>157.5</ele>
        <time>2016-04-19T11:07:11Z</time>
      </trkpt>
      <trkpt lat="43.64152" lon="3.82462">
        <ele>157.5</ele>
        <time>2016-04-19T11:07:12Z</time>
      </trkpt>
      <trkpt lat="43.64147" lon="3.82463">
        <ele>158</ele>
        <time>2016-04-19T11:07:13Z</time>
      </trkpt>
      <trkpt lat="43.64146" lon="3.82471">
        <ele>159</ele>
        <time>2016-04-19T11:07:14Z</time>
      </trkpt>
      <trkpt lat="43.64143" lon="3.82479">
        <ele>160.5</ele>
        <time>2016-04-19T11:07:15Z</time>
      </trkpt>
      <trkpt lat="43.6414" lon="3.82486">
        <ele>161</ele>
        <time>2016-04-19T11:07:16Z</time>
      </trkpt>
      <trkpt lat="43.64132" lon="3.82499">
        <ele>158.5</ele>
        <time>2016-04-19T11:07:18Z</time>
      </trkpt>
      <trkpt lat="43.64128" lon="3.82504">
        <ele>158</ele>
        <time>2016-04-19T11:07:19Z</time>
      </trkpt>
      <trkpt lat="43.64127" lon="3.82513">
        <ele>157.5</ele>
        <time>2016-04-19T11:07:20Z</time>
      </trkpt>
      <trkpt lat="43.64127" lon="3.82521">
        <ele>157</ele>
        <time>2016-04-19T11:07:21Z</time>
      </trkpt>
      <trkpt lat="43.64125" lon="3.82529">
        <ele>156.5</ele>
        <time>2016-04-19T11:07:22Z</time>
      </trkpt>
      <trkpt lat="43.64125" lon="3.82535">
        <ele>156.5</ele>
        <time>2016-04-19T11:07:23Z</time>
      </trkpt>
      <trkpt lat="43.64124" lon="3.8254">
        <ele>156.5</ele>
        <time>2016-04-19T11:07:24Z</time>
      </trkpt>
      <trkpt lat="43.64123" lon="3.82552">
        <ele>156</ele>
        <time>2016-04-19T11:07:26Z</time>
      </trkpt>
      <trkpt lat="43.64114" lon="3.82569">
        <ele>155.5</ele>
        <time>2016-04-19T11:07:28Z</time>
      </trkpt>
      <trkpt lat="43.64113" lon="3.82578">
        <ele>154.5</ele>
        <time>2016-04-19T11:07:29Z</time>
      </trkpt>
      <trkpt lat="43.64105" lon="3.82597">
        <ele>155.5</ele>
        <time>2016-04-19T11:07:31Z</time>
      </trkpt>
      <trkpt lat="43.64103" lon="3.82606">
        <ele>154</ele>
        <time>2016-04-19T11:07:32Z</time>
      </trkpt>
      <trkpt lat="43.64101" lon="3.82615">
        <ele>155</ele>
        <time>2016-04-19T11:07:33Z</time>
      </trkpt>
      <trkpt lat="43.64103" lon="3.82625">
        <ele>155.5</ele>
        <time>2016-04-19T11:07:34Z</time>
      </trkpt>
      <trkpt lat="43.64102" lon="3.82633">
        <ele>156</ele>
        <time>2016-04-19T11:07:35Z</time>
      </trkpt>
      <trkpt lat="43.64092" lon="3.82653">
        <ele>158</ele>
        <time>2016-04-19T11:07:37Z</time>
      </trkpt>
      <trkpt lat="43.64081" lon="3.82671">
        <ele>158</ele>
        <time>2016-04-19T11:07:39Z</time>
      </trkpt>
      <trkpt lat="43.64077" lon="3.82693">
        <ele>154</ele>
        <time>2016-04-19T11:07:41Z</time>
      </trkpt>
      <trkpt lat="43.64063" lon="3.82712">
        <ele>152.5</ele>
        <time>2016-04-19T11:07:43Z</time>
      </trkpt>
      <trkpt lat="43.64054" lon="3.82727">
        <ele>150</ele>
        <time>2016-04-19T11:07:45Z</time>
      </trkpt>
      <trkpt lat="43.6405" lon="3.82736">
        <ele>150.5</ele>
        <time>2016-04-19T11:07:46Z</time>
      </trkpt>
      <trkpt lat="43.64046" lon="3.82745">
        <ele>150.5</ele>
        <time>2016-04-19T11:07:47Z</time>
      </trkpt>
      <trkpt lat="43.64043" lon="3.82753">
        <ele>150.5</ele>
        <time>2016-04-19T11:07:48Z</time>
      </trkpt>
      <trkpt lat="43.64029" lon="3.82766">
        <ele>144.5</ele>
        <time>2016-04-19T11:07:50Z</time>
      </trkpt>
      <trkpt lat="43.64027" lon="3.82769">
        <ele>145</ele>
        <time>2016-04-19T11:07:51Z</time>
      </trkpt>
      <trkpt lat="43.64004" lon="3.82788">
        <ele>137.5</ele>
        <time>2016-04-19T11:07:54Z</time>
      </trkpt>
      <trkpt lat="43.63996" lon="3.82789">
        <ele>136</ele>
        <time>2016-04-19T11:07:55Z</time>
      </trkpt>
      <trkpt lat="43.63989" lon="3.8279">
        <ele>135.5</ele>
        <time>2016-04-19T11:07:56Z</time>
      </trkpt>
      <trkpt lat="43.63983" lon="3.82795">
        <ele>135</ele>
        <time>2016-04-19T11:07:57Z</time>
      </trkpt>
      <trkpt lat="43.63968" lon="3.82801">
        <ele>134</ele>
        <time>2016-04-19T11:07:59Z</time>
      </trkpt>
      <trkpt lat="43.63961" lon="3.82804">
        <ele>133</ele>
        <time>2016-04-19T11:08:00Z</time>
      </trkpt>
      <trkpt lat="43.63955" lon="3.82809">
        <ele>133</ele>
        <time>2016-04-19T11:08:01Z</time>
      </trkpt>
      <trkpt lat="43.63948" lon="3.82812">
        <ele>132.5</ele>
        <time>2016-04-19T11:08:02Z</time>
      </trkpt>
      <trkpt lat="43.63942" lon="3.82817">
        <ele>132</ele>
        <time>2016-04-19T11:08:03Z</time>
      </trkpt>
      <trkpt lat="43.63927" lon="3.82823">
        <ele>130.5</ele>
        <time>2016-04-19T11:08:05Z</time>
      </trkpt>
      <trkpt lat="43.6392" lon="3.82826">
        <ele>129.5</ele>
        <time>2016-04-19T11:08:06Z</time>
      </trkpt>
      <trkpt lat="43.63913" lon="3.82826">
        <ele>129.5</ele>
        <time>2016-04-19T11:08:07Z</time>
      </trkpt>
      <trkpt lat="43.63902" lon="3.82821">
        <ele>129.5</ele>
        <time>2016-04-19T11:08:10Z</time>
      </trkpt>
      <trkpt lat="43.63891" lon="3.82814">
        <ele>129.5</ele>
        <time>2016-04-19T11:08:11Z</time>
      </trkpt>
      <trkpt lat="43.63888" lon="3.8281">
        <ele>130</ele>
        <time>2016-04-19T11:08:12Z</time>
      </trkpt>
      <trkpt lat="43.63884" lon="3.82805">
        <ele>130</ele>
        <time>2016-04-19T11:08:13Z</time>
      </trkpt>
      <trkpt lat="43.63882" lon="3.82797">
        <ele>130.5</ele>
        <time>2016-04-19T11:08:14Z</time>
      </trkpt>
      <trkpt lat="43.6388" lon="3.8279">
        <ele>130.5</ele>
        <time>2016-04-19T11:08:15Z</time>
      </trkpt>
      <trkpt lat="43.63877" lon="3.82784">
        <ele>131</ele>
        <time>2016-04-19T11:08:16Z</time>
      </trkpt>
      <trkpt lat="43.63875" lon="3.8278">
        <ele>131</ele>
        <time>2016-04-19T11:08:17Z</time>
      </trkpt>
      <trkpt lat="43.63871" lon="3.82777">
        <ele>131</ele>
        <time>2016-04-19T11:08:18Z</time>
      </trkpt>
      <trkpt lat="43.63865" lon="3.82792">
        <ele>131.5</ele>
        <time>2016-04-19T11:08:20Z</time>
      </trkpt>
      <trkpt lat="43.63859" lon="3.82797">
        <ele>132.5</ele>
        <time>2016-04-19T11:08:22Z</time>
      </trkpt>
      <trkpt lat="43.63855" lon="3.82801">
        <ele>131</ele>
        <time>2016-04-19T11:08:23Z</time>
      </trkpt>
      <trkpt lat="43.63851" lon="3.82802">
        <ele>131.5</ele>
        <time>2016-04-19T11:08:24Z</time>
      </trkpt>
      <trkpt lat="43.63847" lon="3.82802">
        <ele>131.5</ele>
        <time>2016-04-19T11:08:25Z</time>
      </trkpt>
      <trkpt lat="43.63842" lon="3.82801">
        <ele>131.5</ele>
        <time>2016-04-19T11:08:26Z</time>
      </trkpt>
      <trkpt lat="43.63837" lon="3.82803">
        <ele>132.5</ele>
        <time>2016-04-19T11:08:27Z</time>
      </trkpt>
      <trkpt lat="43.63832" lon="3.82803">
        <ele>132.5</ele>
        <time>2016-04-19T11:08:28Z</time>
      </trkpt>
      <trkpt lat="43.63827" lon="3.82807">
        <ele>132.5</ele>
        <time>2016-04-19T11:08:29Z</time>
      </trkpt>
      <trkpt lat="43.63823" lon="3.82811">
        <ele>132.5</ele>
        <time>2016-04-19T11:08:30Z</time>
      </trkpt>
      <trkpt lat="43.63819" lon="3.82815">
        <ele>132</ele>
        <time>2016-04-19T11:08:31Z</time>
      </trkpt>
      <trkpt lat="43.63813" lon="3.82815">
        <ele>132</ele>
        <time>2016-04-19T11:08:32Z</time>
      </trkpt>
      <trkpt lat="43.63807" lon="3.82817">
        <ele>131.5</ele>
        <time>2016-04-19T11:08:33Z</time>
      </trkpt>
      <trkpt lat="43.63801" lon="3.8282">
        <ele>130</ele>
        <time>2016-04-19T11:08:34Z</time>
      </trkpt>
      <trkpt lat="43.63796" lon="3.82821">
        <ele>129.5</ele>
        <time>2016-04-19T11:08:35Z</time>
      </trkpt>
      <trkpt lat="43.6379" lon="3.82823">
        <ele>128.5</ele>
        <time>2016-04-19T11:08:36Z</time>
      </trkpt>
      <trkpt lat="43.63786" lon="3.82825">
        <ele>128.5</ele>
        <time>2016-04-19T11:08:37Z</time>
      </trkpt>
      <trkpt lat="43.63782" lon="3.82826">
        <ele>128.5</ele>
        <time>2016-04-19T11:08:38Z</time>
      </trkpt>
      <trkpt lat="43.63779" lon="3.82828">
        <ele>128</ele>
        <time>2016-04-19T11:08:39Z</time>
      </trkpt>
      <trkpt lat="43.63779" lon="3.82831">
        <ele>128.5</ele>
        <time>2016-04-19T11:08:40Z</time>
      </trkpt>
      <trkpt lat="43.63779" lon="3.82836">
        <ele>127.5</ele>
        <time>2016-04-19T11:08:41Z</time>
      </trkpt>
      <trkpt lat="43.6378" lon="3.8284">
        <ele>129.5</ele>
        <time>2016-04-19T11:08:42Z</time>
      </trkpt>
      <trkpt lat="43.63781" lon="3.82844">
        <ele>130.5</ele>
        <time>2016-04-19T11:08:43Z</time>
      </trkpt>
      <trkpt lat="43.63783" lon="3.82848">
        <ele>130.5</ele>
        <time>2016-04-19T11:08:44Z</time>
      </trkpt>
      <trkpt lat="43.63784" lon="3.82852">
        <ele>132</ele>
        <time>2016-04-19T11:08:45Z</time>
      </trkpt>
      <trkpt lat="43.63787" lon="3.82857">
        <ele>131.5</ele>
        <time>2016-04-19T11:08:46Z</time>
      </trkpt>
      <trkpt lat="43.63788" lon="3.82861">
        <ele>131.5</ele>
        <time>2016-04-19T11:08:47Z</time>
      </trkpt>
      <trkpt lat="43.63784" lon="3.82863">
        <ele>131</ele>
        <time>2016-04-19T11:08:49Z</time>
      </trkpt>
      <trkpt lat="43.63782" lon="3.82864">
        <ele>131</ele>
        <time>2016-04-19T11:08:50Z</time>
      </trkpt>
      <trkpt lat="43.63781" lon="3.82864">
        <ele>131.5</ele>
        <time>2016-04-19T11:08:51Z</time>
      </trkpt>
      <trkpt lat="43.63779" lon="3.82863">
        <ele>132.5</ele>
        <time>2016-04-19T11:08:52Z</time>
      </trkpt>
      <trkpt lat="43.63778" lon="3.82862">
        <ele>133.5</ele>
        <time>2016-04-19T11:08:53Z</time>
      </trkpt>
      <trkpt lat="43.63778" lon="3.8286">
        <ele>133.5</ele>
        <time>2016-04-19T11:08:54Z</time>
      </trkpt>
      <trkpt lat="43.63777" lon="3.82859">
        <ele>134</ele>
        <time>2016-04-19T11:08:55Z</time>
      </trkpt>
      <trkpt lat="43.63776" lon="3.82857">
        <ele>134</ele>
        <time>2016-04-19T11:08:56Z</time>
      </trkpt>
      <trkpt lat="43.63775" lon="3.82851">
        <ele>132</ele>
        <time>2016-04-19T11:09:00Z</time>
      </trkpt>
      <trkpt lat="43.63775" lon="3.82851">
        <ele>132.5</ele>
        <time>2016-04-19T11:09:02Z</time>
      </trkpt>
      <trkpt lat="43.63775" lon="3.82851">
        <ele>133.5</ele>
        <time>2016-04-19T11:09:03Z</time>
      </trkpt>
      <trkpt lat="43.63771" lon="3.82852">
        <ele>131.5</ele>
        <time>2016-04-19T11:09:21Z</time>
      </trkpt>
    </trkseg>
  </trk>
</gpx>